# Wetter Temperatur Luftdruck Luftfeuchtigkeit Sichtweite Windgeschwindigkeit Windrichtung Zeit
1 Clear 19 1026 48 10000 3.6 160 11:19 08.04.2020
2 Clear 18 1026 51 10000 4.6 150 10:55 08.04.2020
3 Clear 17 1026 55 10000 3.1 140 10:37 08.04.2020
4 Clear 16 1026 55 10000 3.1 140 10:18 08.04.2020
5 Clear 13 1026 62 10000 1.5 110 09:42 08.04.2020
6 Clear 13 1026 62 10000 1.5 110 09:20 08.04.2020
7 Clear 12 1026 66 10000 2.1 90 08:59 08.04.2020
8 Clear 12 1026 66 10000 2.1 90 08:59 08.04.2020
9 Clear 12 1026 66 10000 2.1 90 08:40 08.04.2020
10 Clear 11 1026 71 10000 2.1 70 08:21 08.04.2020
11 Clear 11 1026 76 10000 1 0 07:43 08.04.2020
12 Clear 10 1026 76 10000 1 0 07:22 08.04.2020
13 Clear 10 1026 76 10000 2.1 90 06:48 08.04.2020
14 Clear 10 1026 76 10000 1.5 100 05:49 08.04.2020
15 Clear 12 1027 81 10000 1.5 130 03:34 08.04.2020
16 Clear 12 1027 81 10000 2.1 150 02:49 08.04.2020
17 Clear 12 1028 71 10000 1.5 120 02:19 08.04.2020
18 Clear 13 1028 62 10000 2.6 100 01:30 08.04.2020
19 Clear 13 1028 62 10000 2.6 100 00:59 08.04.2020
20 Clear 13 1028 62 10000 2.6 100 00:41 08.04.2020
21 Clear 13 1028 62 10000 1.5 110 00:21 08.04.2020
22 Clear 14 1028 62 10000 3.1 80 23:39 07.04.2020
23 Clear 15 1028 67 10000 4.1 70 23:20 07.04.2020
24 Clear 15 1028 63 10000 4.1 60 22:57 07.04.2020
25 Clear 15 1028 63 10000 4.1 60 22:57 07.04.2020
26 Clear 15 1028 63 10000 4.1 60 22:39 07.04.2020
27 Clear 15 1028 63 10000 4.1 50 22:19 07.04.2020
28 Clear 16 1028 59 10000 4.1 60 21:56 07.04.2020
29 Clear 16 1028 59 10000 4.1 60 21:56 07.04.2020
30 Clear 16 1028 59 10000 4.1 60 21:38 07.04.2020
31 Rain 17 1028 55 10000 3.6 60 21:19 07.04.2020
32 Rain 17 1027 52 10000 3.1 30 20:55 07.04.2020
33 Rain 18 1027 42 10000 1.5 60 20:37 07.04.2020
34 Rain 19 1027 42 10000 1.5 60 20:19 07.04.2020
35 Rain 19 1027 37 10000 1 40 19:56 07.04.2020
36 Rain 20 1028 37 10000 1 0 19:56 07.04.2020
37 Rain 20 1028 37 10000 1 0 19:36 07.04.2020
38 Rain 20 1028 37 10000 1 0 19:18 07.04.2020
39 Rain 21 1028 37 10000 2.1 60 18:54 07.04.2020
40 Rain 20 1028 37 10000 0.5 0 18:36 07.04.2020
41 Clouds 21 1028 40 10000 2.1 0 18:18 07.04.2020
42 Clouds 21 1028 40 10000 2.1 0 17:44 07.04.2020
43 Clouds 21 1028 40 10000 2.1 0 17:20 07.04.2020
44 Clouds 21 1029 45 10000 3.1 100 16:46 07.04.2020
45 Clouds 20 1029 45 10000 3.1 100 16:27 07.04.2020
46 Clouds 20 1029 43 10000 1.5 0 15:57 07.04.2020
47 Clouds 20 1029 43 10000 1.5 0 15:38 07.04.2020
48 Clouds 20 1029 43 10000 1.5 0 15:20 07.04.2020
49 Clouds 20 1030 45 10000 1.5 210 14:41 07.04.2020
50 Clouds 20 1030 45 10000 2.6 0 14:22 07.04.2020
51 Clouds 19 1030 45 10000 2.1 10 13:57 07.04.2020
52 Clouds 19 1031 48 10000 2.1 360 13:38 07.04.2020
53 Clouds 19 1031 48 10000 2.1 360 13:18 07.04.2020
54 Clouds 19 1031 48 10000 2.1 360 13:18 07.04.2020
55 Clouds 18 1031 48 10000 2.1 0 12:55 07.04.2020
56 Clouds 17 1031 55 10000 1.5 0 12:36 07.04.2020
57 Clouds 16 1031 55 10000 1.5 0 12:18 07.04.2020
58 Clouds 16 1031 59 10000 1.5 0 11:44 07.04.2020
59 Clouds 16 1031 63 10000 2.1 30 11:25 07.04.2020
60 Clouds 15 1031 71 10000 0.5 0 10:59 07.04.2020
61 Clouds 14 1031 71 10000 0.5 0 10:38 07.04.2020
62 Clouds 14 1031 71 10000 0.5 0 10:19 07.04.2020
63 Clouds 12 1031 71 10000 0.5 0 09:45 07.04.2020
64 Clouds 12 1031 81 10000 0.5 0 09:19 07.04.2020
65 Clouds 11 1030 87 10000 0.5 0 08:56 07.04.2020
66 Clouds 10 1030 87 10000 0.5 0 08:38 07.04.2020
67 Clouds 10 1030 93 10000 2.1 50 08:18 07.04.2020
68 Clouds 9 1030 93 10000 1 0 07:43 07.04.2020
69 Clouds 9 1029 93 10000 0.5 0 07:25 07.04.2020
70 Clouds 9 1029 87 10000 1 60 06:51 07.04.2020
71 Rain 9 1029 87 10000 0.5 0 06:25 07.04.2020
72 Rain 10 1029 81 10000 0.5 0 05:46 07.04.2020
73 Rain 11 1028 81 10000 1 0 05:22 07.04.2020
74 Rain 13 1028 62 10000 0.5 60 03:32 07.04.2020
75 Rain 13 1027 66 10000 1.66 304 02:59 07.04.2020
76 Clouds 13 1027 66 10000 1.96 262 02:33 07.04.2020
77 Clouds 14 1027 66 10000 1 0 01:33 07.04.2020
78 Clouds 14 1026 62 10000 1 0 00:52 07.04.2020
79 Clouds 14 1026 58 10000 2.6 310 00:25 07.04.2020
80 Clouds 15 1025 50 10000 1.5 340 23:40 06.04.2020
81 Clouds 15 1025 47 10000 3.1 330 23:21 06.04.2020
82 Clouds 15 1024 43 10000 1.5 310 22:54 06.04.2020
83 Clouds 16 1024 43 10000 1.5 310 22:36 06.04.2020
84 Clouds 16 1024 66 10000 1.5 140 22:18 06.04.2020
85 Clouds 17 1023 66 10000 2.1 170 21:42 06.04.2020
86 Clear 17 1023 52 10000 2.6 170 21:20 06.04.2020
87 Clear 18 1022 31 10000 2.6 190 20:57 06.04.2020
88 Clear 19 1022 31 10000 2.6 190 20:39 06.04.2020
89 Clear 19 1022 52 10000 2.6 200 20:21 06.04.2020
90 Clear 20 1021 52 10000 3.6 210 19:57 06.04.2020
91 Clear 21 1021 52 10000 3.6 210 19:38 06.04.2020
92 Clear 21 1021 52 10000 5.7 220 19:20 06.04.2020
93 Clear 22 1021 52 10000 5.1 220 18:43 06.04.2020
94 Clear 22 1021 31 10000 5.1 220 18:24 06.04.2020
95 Clear 22 1021 22 10000 4.6 220 17:58 06.04.2020
96 Clear 23 1021 22 10000 4.6 220 17:39 06.04.2020
97 Clear 23 1021 23 10000 5.1 230 17:18 06.04.2020
98 Clear 23 1020 31 10000 5.7 200 16:49 06.04.2020
99 Clear 22 1020 31 10000 6.7 220 16:30 06.04.2020
100 Clear 22 1020 30 10000 6.7 200 15:00 06.04.2020
101 Clear 21 1020 30 10000 5.7 180 13:45 06.04.2020
102 Clear 21 1020 26 10000 5.7 180 13:23 06.04.2020
103 Clear 20 1020 30 10000 6.2 160 12:50 06.04.2020
104 Clear 20 1020 30 10000 6.2 160 12:50 06.04.2020
105 Clear 20 1020 30 10000 6.2 160 12:50 06.04.2020
106 Clear 20 1020 30 10000 6.2 160 12:50 06.04.2020
107 Clear 20 1020 30 10000 6.2 160 12:49 06.04.2020
108 Clear 19 1020 30 10000 7.2 180 12:21 06.04.2020
109 Clear 18 1020 29 10000 6.7 180 11:54 06.04.2020
110 Clear 18 1020 29 10000 6.7 180 11:54 06.04.2020
111 Clear 18 1020 29 10000 6.7 180 11:54 06.04.2020
112 Clear 18 1020 29 10000 6.7 180 11:53 06.04.2020
113 Clear 18 1020 29 10000 6.7 180 11:53 06.04.2020
114 Clear 18 1020 29 10000 6.7 180 11:28 06.04.2020
115 Clear 18 1020 29 10000 6.7 180 11:28 06.04.2020
116 Clear 18 1020 29 10000 6.7 180 11:28 06.04.2020
117 Clear 18 1020 29 10000 6.7 180 11:28 06.04.2020
118 Clear 18 1020 29 10000 6.7 180 11:28 06.04.2020
119 Clear 17 1019 33 10000 6.7 170 10:49 06.04.2020
120 Clear 16 1019 33 10000 6.7 170 10:49 06.04.2020
121 Clear 16 1019 33 10000 6.7 170 10:49 06.04.2020
122 Clear 16 1019 33 10000 6.7 170 10:49 06.04.2020
123 Clear 16 1019 33 10000 6.7 170 10:49 06.04.2020
124 Clear 15 1019 36 10000 4.1 130 10:21 06.04.2020
125 Clear 15 1019 36 10000 4.1 130 10:21 06.04.2020
126 Clear 14 1019 41 10000 4.1 130 09:42 06.04.2020
127 Clear 14 1019 41 10000 4.1 130 09:42 06.04.2020
128 Clear 14 1019 41 10000 4.1 130 09:42 06.04.2020
129 Clear 14 1019 41 10000 4.1 130 09:42 06.04.2020
130 Clear 12 1019 66 10000 4.1 130 09:20 06.04.2020
131 Clear 11 1019 67 10000 4.1 130 08:51 06.04.2020
132 Clear 11 1019 67 10000 4.1 130 08:30 06.04.2020
133 Clear 10 1019 46 10000 3.1 120 07:26 06.04.2020
134 Clear 10 1018 43 10000 2.6 110 06:39 06.04.2020
135 Clear 10 1018 43 10000 2.6 110 06:39 06.04.2020
136 Clear 9 1018 43 10000 3.1 110 06:18 06.04.2020
137 Clear 10 1018 40 10000 2.6 110 04:18 06.04.2020
138 Clear 10 1018 62 10000 3.6 130 02:56 06.04.2020
139 Clear 10 1018 60 10000 3.6 120 02:18 06.04.2020
140 Clear 11 1019 60 10000 4.1 130 01:23 06.04.2020
141 Clear 12 1018 37 10000 4.1 120 00:41 06.04.2020
142 Clear 12 1019 52 10000 3.6 120 00:21 06.04.2020
143 Clear 12 1019 52 10000 3.6 120 00:21 06.04.2020
144 Clear 12 1019 52 10000 3.6 120 00:21 06.04.2020
145 Clear 12 1019 52 10000 3.6 120 00:21 06.04.2020
146 Clear 12 1019 52 10000 3.1 100 23:43 05.04.2020
147 Clear 12 1019 52 10000 3.1 100 23:23 05.04.2020
148 Clear 13 1019 52 10000 2.6 100 23:23 05.04.2020
149 Clear 12 1019 52 10000 3.1 100 23:23 05.04.2020
150 Clear 13 1019 52 10000 2.1 100 22:55 05.04.2020
151 Clear 13 1019 52 10000 2.1 100 22:37 05.04.2020
152 Clear 14 1019 52 10000 2.6 110 22:18 05.04.2020
153 Clear 14 1019 52 10000 3.1 110 21:44 05.04.2020
154 Clear 15 1019 31 10000 4.1 120 21:23 05.04.2020
155 Clear 16 1019 29 10000 4.6 130 20:26 05.04.2020
156 Clear 17 1019 27 10000 6.7 130 19:45 05.04.2020
157 Clear 18 1019 27 10000 6.7 130 19:26 05.04.2020
158 Clear 19 1019 25 10000 5.7 120 18:59 05.04.2020
159 Clear 19 1019 25 10000 5.7 120 18:39 05.04.2020
160 Clear 19 1019 25 10000 5.7 120 18:39 05.04.2020
161 Clear 19 1019 25 10000 5.7 120 18:39 05.04.2020
162 Clear 19 1019 25 10000 5.7 120 18:39 05.04.2020
163 Clear 19 1019 25 10000 5.7 120 18:32 05.04.2020
164 Clear 20 1019 24 10000 7.2 140 17:51 05.04.2020
165 Clear 20 1019 24 10000 7.2 140 17:51 05.04.2020
166 Clear 20 1019 24 10000 7.2 140 17:51 05.04.2020
167 Clear 20 1019 24 10000 7.2 140 17:51 05.04.2020
168 Clear 20 1020 24 10000 7.2 140 17:23 05.04.2020
169 Clear 20 1020 25 10000 6.7 130 16:47 05.04.2020
170 Clear 19 1020 24 10000 6.7 140 16:20 05.04.2020
171 Clear 19 1020 24 10000 6.7 140 16:20 05.04.2020
172 Clear 19 1021 25 10000 6.2 110 15:48 05.04.2020
173 Clear 19 1021 25 10000 6.2 110 15:30 05.04.2020
174 Clear 18 1021 33 10000 6.7 140 14:48 05.04.2020
175 Clear 18 1021 33 10000 6.7 140 14:48 05.04.2020
176 Clear 18 1022 33 10000 7.7 140 14:24 05.04.2020
177 Clear 18 1022 33 10000 8.2 140 13:41 05.04.2020
178 Clear 17 1023 33 10000 8.2 130 12:48 05.04.2020
179 Clear 15 1024 44 10000 8.2 130 11:41 05.04.2020
180 Clear 14 1024 41 10000 6.7 140 11:20 05.04.2020
181 Clear 14 1024 41 10000 6.7 140 11:20 05.04.2020
182 Clear 13 1024 43 10000 5.1 130 10:48 05.04.2020
183 Clear 12 1024 43 10000 5.1 130 10:24 05.04.2020
184 Clear 12 1024 43 10000 5.1 130 10:24 05.04.2020
185 Clear 11 1024 46 10000 5.1 130 09:57 05.04.2020
186 Clear 10 1024 53 10000 2.6 160 09:31 05.04.2020
187 Clear 8 1024 65 10000 2.6 150 09:02 05.04.2020
188 Clear 8 1024 65 10000 2.6 150 09:02 05.04.2020
189 Clear 8 1024 65 10000 2.6 150 09:02 05.04.2020
190 Clear 5 1023 67 10000 3.1 140 07:31 05.04.2020
191 Clear 5 1023 69 10000 1.5 110 04:36 05.04.2020
192 Clear 6 1023 80 10000 2.6 140 03:31 05.04.2020
193 Clear 6 1024 60 10000 2.1 120 02:51 05.04.2020
194 Clear 7 1024 61 10000 2.6 90 01:48 05.04.2020
195 Clear 7 1024 61 10000 2.6 90 01:28 05.04.2020
196 Clear 7 1024 61 10000 2.6 90 01:28 05.04.2020
197 Clear 7 1024 61 10000 1.5 110 00:44 05.04.2020
198 Clear 7 1024 56 10000 2.6 100 00:21 05.04.2020
199 Clear 7 1024 56 10000 2.6 100 23:55 04.04.2020
200 Clear 8 1024 56 10000 2.6 90 23:37 04.04.2020
201 Clear 8 1024 56 10000 2.1 90 23:19 04.04.2020
202 Clear 9 1024 56 10000 2.6 90 22:40 04.04.2020
203 Clear 9 1024 56 10000 2.6 90 22:22 04.04.2020
204 Clear 9 1024 56 10000 2.1 100 21:59 04.04.2020
205 Clear 9 1024 56 10000 2.1 100 21:59 04.04.2020
206 Clear 10 1024 56 10000 2.1 110 21:40 04.04.2020
207 -273 0 0 0 0 0 21:20 04.04.2020
208 Clouds 11 1023 44 10000 1.5 110 20:59 04.04.2020
209 Clear 11 1023 40 10000 2.1 130 20:41 04.04.2020
210 Clear 12 1023 45 10000 3.6 150 20:22 04.04.2020
211 Clear 13 1023 45 10000 4.1 150 19:57 04.04.2020
212 Clear 14 1023 45 10000 4.1 150 19:37 04.04.2020
213 Clear 14 1023 45 10000 3.1 150 19:19 04.04.2020
214 Clear 14 1023 45 10000 3.1 110 18:57 04.04.2020
215 Clear 14 1023 45 10000 3.1 110 18:57 04.04.2020
216 Clouds 14 1023 44 10000 3.1 110 18:38 04.04.2020
217 Clear 14 1023 45 10000 3.1 110 18:38 04.04.2020
218 Clear 15 1023 34 10000 3.1 110 18:19 04.04.2020
219 Clear 15 1023 33 10000 3.1 130 17:56 04.04.2020
220 Clear 15 1023 33 10000 3.1 130 17:38 04.04.2020
221 Clear 15 1023 34 10000 2.6 210 17:18 04.04.2020
222 Clear 15 1023 33 10000 2.6 130 16:42 04.04.2020
223 Clear 14 1023 33 10000 2.6 0 16:23 04.04.2020
224 Clear 14 1024 30 10000 3.1 150 15:57 04.04.2020
225 Clear 14 1024 30 10000 3.1 150 15:38 04.04.2020
226 Clear 14 1024 30 10000 3.6 130 15:19 04.04.2020
227 Clear 13 1024 28 10000 3.6 120 14:44 04.04.2020
228 Clouds 13 1024 28 10000 3.6 120 14:23 04.04.2020
229 Clouds 13 1024 32 10000 3.1 0 13:58 04.04.2020
230 Clouds 13 1025 30 10000 3.1 150 13:40 04.04.2020
231 Clouds 12 1025 34 10000 2.6 100 13:20 04.04.2020
232 Clouds 12 1025 34 10000 2.6 0 12:57 04.04.2020
233 Clouds 12 1025 34 10000 2.6 0 12:39 04.04.2020
234 Clouds 11 1025 37 10000 1.5 0 12:19 04.04.2020
235 Clouds 10 1025 46 10000 2.1 0 11:41 04.04.2020
236 Clouds 9 1025 49 10000 2.1 110 11:23 04.04.2020
237 Clouds 8 1025 49 10000 2.6 150 10:58 04.04.2020
238 Clouds 8 1025 49 10000 2.6 150 10:40 04.04.2020
239 Clouds 7 1025 60 10000 2.1 150 10:22 04.04.2020
240 Clouds 6 1025 60 10000 2.1 150 09:56 04.04.2020
241 Clouds 5 1025 49 10000 2.1 140 09:38 04.04.2020
242 Clouds 3 1025 74 10000 1.5 100 09:20 04.04.2020
243 Clouds 3 1025 80 10000 0.5 0 08:43 04.04.2020
244 Clouds 2 1025 80 10000 0.5 0 08:23 04.04.2020
245 Clouds 1 1024 92 10000 0.5 0 07:57 04.04.2020
246 Clouds 0 1024 92 10000 0.5 0 07:38 04.04.2020
247 Clouds 0 1023 92 10000 0.5 0 07:20 04.04.2020
248 Clouds 0 1023 92 10000 1.5 70 06:38 04.04.2020
249 Clouds 0 1023 86 10000 0.5 260 05:52 04.04.2020
250 Clouds 0 1023 86 10000 0.5 260 05:52 04.04.2020
251 Clouds 1 1023 92 10000 1 60 05:33 04.04.2020
252 Clouds 1 1023 75 10000 1 50 04:34 04.04.2020
253 Clouds 1 1022 92 10000 0.5 0 03:57 04.04.2020
254 Clouds 1 1022 75 10000 1 0 03:37 04.04.2020
255 Clouds 2 1022 86 10000 0.5 0 02:48 04.04.2020
256 Clouds 2 1022 86 10000 0.5 0 02:29 04.04.2020
257 Clouds 3 1022 74 10000 0.55 277 01:48 04.04.2020
258 Clouds 3 1022 74 10000 0.55 277 01:21 04.04.2020
259 Clouds 3 1021 74 10000 0.5 150 00:45 04.04.2020
260 Clouds 4 1021 74 10000 0.5 150 00:26 04.04.2020
261 Clouds 4 1021 69 10000 2.1 340 23:39 03.04.2020
262 Clouds 5 1020 60 10000 2.1 340 23:20 03.04.2020
263 Clouds 5 1020 60 10000 2.1 340 22:56 03.04.2020
264 Clouds 5 1020 60 10000 3.1 320 22:37 03.04.2020
265 Clouds 6 1020 56 10000 3.6 310 22:18 03.04.2020
266 Clouds 7 1019 49 10000 4.1 290 21:43 03.04.2020
267 Clouds 8 1019 49 10000 5.1 280 21:22 03.04.2020
268 Clouds 8 1019 49 10000 4.1 280 20:56 03.04.2020
269 Clouds 8 1019 49 10000 4.1 280 20:56 03.04.2020
270 Clouds 8 1019 49 10000 4.1 280 20:37 03.04.2020
271 Clouds 9 1018 49 10000 5.7 280 20:19 03.04.2020
272 Clouds 9 1018 49 10000 5.7 280 19:56 03.04.2020
273 Clouds 10 1018 49 10000 6.2 300 19:38 03.04.2020
274 Clouds 10 1018 56 10000 6.2 280 19:20 03.04.2020
275 Clouds 10 1018 46 10000 6.7 290 18:58 03.04.2020
276 Clouds 10 1018 46 10000 6.7 290 18:40 03.04.2020
277 Clouds 11 1017 51 10000 7.2 280 18:22 03.04.2020
278 Clouds 11 1017 51 10000 7.2 280 17:55 03.04.2020
279 Clouds 10 1017 51 10000 7.2 280 17:36 03.04.2020
280 Clouds 11 1017 50 10000 7.2 290 17:18 03.04.2020
281 Clouds 11 1017 53 10000 6.2 280 16:43 03.04.2020
282 Clouds 11 1017 53 10000 5.1 300 16:21 03.04.2020
283 Clouds 11 1017 53 10000 5.1 300 15:58 03.04.2020
284 Clouds 11 1017 57 10000 6.2 290 15:39 03.04.2020
285 Clouds 11 1016 50 10000 6.7 280 15:20 03.04.2020
286 Clouds 10 1016 50 10000 6.2 280 14:56 03.04.2020
287 Clouds 11 1016 50 10000 6.2 280 14:37 03.04.2020
288 Clouds 10 1016 50 10000 6.2 280 14:19 03.04.2020
289 Clouds 10 1016 50 10000 6.2 280 13:43 03.04.2020
290 Clouds 10 1016 53 10000 6.7 270 13:25 03.04.2020
291 Clouds 10 1016 61 10000 5.7 270 12:56 03.04.2020
292 Clouds 10 1016 61 10000 5.7 270 12:37 03.04.2020
293 Clouds 10 1016 61 10000 6.2 280 12:18 03.04.2020
294 Clouds 10 1015 61 10000 6.7 260 11:54 03.04.2020
295 Clouds 10 1015 61 10000 6.7 260 11:36 03.04.2020
296 Clouds 10 1015 66 10000 4.6 260 11:18 03.04.2020
297 Clouds 9 1015 70 10000 5.1 270 10:54 03.04.2020
298 Clouds 9 1015 70 10000 5.1 270 10:36 03.04.2020
299 Clouds 9 1015 70 10000 5.7 270 10:18 03.04.2020
300 Clouds 8 1014 75 10000 4.6 270 09:40 03.04.2020
301 Clouds 8 1014 75 10000 4.6 270 09:40 03.04.2020
302 Clouds 8 1014 75 10000 4.6 270 09:22 03.04.2020
303 Clouds 7 1014 75 10000 4.6 270 08:58 03.04.2020
304 Clouds 7 1014 75 10000 3.1 270 08:40 03.04.2020
305 Clouds 7 1014 75 10000 3.1 270 08:40 03.04.2020
306 Clouds 7 1014 75 10000 3.6 280 08:22 03.04.2020
307 Clouds 7 1013 75 10000 4.6 270 07:50 03.04.2020
308 Clouds 7 1013 75 10000 4.6 270 07:32 03.04.2020
309 Clouds 7 1012 75 10000 4.6 270 06:50 03.04.2020
310 Clouds 7 1012 81 10000 3.1 260 06:25 03.04.2020
311 Rain 7 1012 81 10000 4.1 270 05:40 03.04.2020
312 Clouds 7 1012 65 10000 3.1 250 03:47 03.04.2020
313 Clouds 7 1012 65 10000 3.1 250 03:29 03.04.2020
314 Clouds 7 1012 65 10000 2.1 220 02:29 03.04.2020
315 Clouds 7 1012 65 10000 2.6 210 01:24 03.04.2020
316 Clouds 7 1012 65 10000 2.6 220 00:43 03.04.2020
317 Clouds 7 1012 63 10000 2.6 230 00:23 03.04.2020
318 Clouds 7 1012 63 10000 3.1 250 23:43 02.04.2020
319 Clouds 7 1012 63 10000 4.6 250 23:24 02.04.2020
320 Clouds 7 1012 63 10000 4.6 250 22:59 02.04.2020
321 Clouds 7 1012 61 10000 6.2 270 22:41 02.04.2020
322 Clouds 8 1012 63 10000 5.7 270 22:21 02.04.2020
323 Clouds 8 1012 63 10000 5.7 270 21:57 02.04.2020
324 Clouds 8 1013 69 10000 6.2 280 21:37 02.04.2020
325 Clouds 8 1012 59 10000 7.2 310 21:18 02.04.2020
326 Clouds 8 1012 59 10000 7.2 300 20:44 02.04.2020
327 Clouds 9 1012 49 10000 7.2 290 20:24 02.04.2020
328 Clouds 9 1012 49 10000 7.2 290 19:57 02.04.2020
329 Clouds 9 1012 49 10000 6.7 300 19:38 02.04.2020
330 Clouds 10 1012 46 10000 5.7 300 19:20 02.04.2020
331 Clouds 10 1011 43 10000 6.2 300 18:54 02.04.2020
332 Clouds 10 1012 43 10000 5.7 300 18:36 02.04.2020
333 Clouds 10 1012 43 10000 5.7 300 18:18 02.04.2020
334 Clouds 10 1012 43 10000 5.7 310 17:42 02.04.2020
335 Clouds 11 1012 46 10000 6.2 290 17:24 02.04.2020
336 Clouds 11 1012 46 10000 6.2 290 16:58 02.04.2020
337 Clouds 10 1012 46 10000 6.2 290 16:40 02.04.2020
338 Clouds 11 1012 46 10000 6.2 280 16:22 02.04.2020
339 Clouds 11 1012 46 10000 6.2 280 15:57 02.04.2020
340 Clouds 11 1012 46 10000 5.7 290 15:39 02.04.2020
341 Clouds 10 1013 47 10000 4.6 320 15:19 02.04.2020
342 Clouds 10 1013 47 10000 4.6 320 14:57 02.04.2020
343 Clouds 10 1013 47 10000 5.1 300 14:38 02.04.2020
344 Clouds 10 1014 43 10000 4.6 280 14:18 02.04.2020
345 Clouds 9 1014 43 10000 4.1 260 13:55 02.04.2020
346 Clouds 9 1014 43 10000 4.1 260 13:37 02.04.2020
347 Clouds 9 1014 46 10000 2.1 0 13:18 02.04.2020
348 Clouds 9 1014 49 10000 2.6 260 12:45 02.04.2020
349 Clouds 9 1014 49 10000 2.6 260 12:45 02.04.2020
350 Clouds 8 1015 52 10000 1.5 250 12:20 02.04.2020
351 Clear 7 1015 56 10000 2.1 290 11:58 02.04.2020
352 Clear 7 1015 56 10000 2.1 290 11:58 02.04.2020
353 Clear 7 1015 56 10000 2.1 290 11:39 02.04.2020
354 Clear 7 1015 56 10000 1 0 11:20 02.04.2020
355 Clear 7 1015 56 10000 2.1 290 11:20 02.04.2020
356 Clear 6 1015 56 10000 1 0 10:57 02.04.2020
357 Clear 6 1015 60 10000 1 0 10:57 02.04.2020
358 Clear 6 1015 60 10000 1 0 10:38 02.04.2020
359 Clear 5 1015 64 10000 1.5 140 10:20 02.04.2020
360 Clear 4 1015 74 10000 2.6 150 09:59 02.04.2020
361 Clouds 3 1015 74 10000 2.6 150 09:41 02.04.2020
362 Clouds 2 1016 86 10000 1 150 09:21 02.04.2020
363 Clouds 2 1016 86 10000 0.5 160 08:48 02.04.2020
364 Clouds 1 1015 86 10000 1 0 08:28 02.04.2020
365 Clouds 0 1015 86 10000 1 0 07:59 02.04.2020
366 Clouds 0 1015 86 10000 1 0 07:41 02.04.2020
367 Clouds 0 1015 86 10000 1 0 07:19 02.04.2020
368 Clouds 0 1015 86 10000 2.1 150 06:25 02.04.2020
369 Clear 0 1016 86 10000 1.5 60 05:59 02.04.2020
370 Clear 0 1016 86 10000 1.5 60 05:41 02.04.2020
371 Clear 1 1016 73 10000 2.1 150 02:46 02.04.2020
372 Clear 2 1017 74 10000 0.5 210 01:28 02.04.2020
373 Clear 3 1017 64 10000 2.1 40 00:42 02.04.2020
374 Clear 4 1017 64 10000 3.1 50 00:24 02.04.2020
375 Clear 4 1017 60 10000 2.6 40 23:41 01.04.2020
376 Clear 4 1017 52 10000 2.6 30 23:20 01.04.2020
377 Clear 5 1017 51 10000 2.1 10 22:58 01.04.2020
378 Clear 5 1017 51 10000 2.1 10 22:58 01.04.2020
379 Clear 5 1017 51 10000 2.1 10 22:39 01.04.2020
380 Clear 5 1017 51 10000 2.1 10 22:21 01.04.2020
381 Clear 6 1017 45 10000 2.1 350 21:42 01.04.2020
382 Clear 6 1017 45 10000 2.1 350 21:42 01.04.2020
383 -273 0 0 0 0 0 21:22 01.04.2020
384 Clear 6 1017 45 10000 1.5 350 21:21 01.04.2020
385 Clear 6 1017 45 10000 1.5 350 21:21 01.04.2020
386 Clear 6 1017 45 10000 1.5 350 21:21 01.04.2020
387 Clear 6 1017 45 10000 1.5 350 21:20 01.04.2020
388 Clear 6 1017 45 10000 1.5 350 20:57 01.04.2020
389 Clear 7 1017 42 10000 2.1 340 20:39 01.04.2020
390 Clear 8 1017 39 10000 2.6 330 20:20 01.04.2020
391 Clear 8 1017 39 10000 2.6 330 20:20 01.04.2020
392 Clear 9 1017 39 10000 2.6 330 19:59 01.04.2020
393 Clear 9 1017 34 10000 3.1 310 19:41 01.04.2020
394 -273 0 0 0 0 0 19:20 01.04.2020
395 Clear 10 1018 32 10000 3.1 310 18:44 01.04.2020
396 Clear 11 1018 29 10000 4.1 280 18:25 01.04.2020
397 Clear 11 1018 29 10000 3.6 300 17:58 01.04.2020
398 Clear 11 1018 29 10000 3.6 300 17:38 01.04.2020
399 Clear 11 1018 29 10000 3.1 280 17:20 01.04.2020
400 Clear 11 1018 29 10000 3.1 280 16:59 01.04.2020
401 Clear 11 1019 29 10000 2.6 270 16:40 01.04.2020
402 Clear 11 1019 29 10000 2.1 250 16:22 01.04.2020
403 Clear 11 1019 32 10000 2.1 270 15:58 01.04.2020
404 Clear 11 1019 32 10000 2.1 270 15:38 01.04.2020
405 Clear 11 1020 32 10000 2.1 0 15:20 01.04.2020
406 Clear 10 1020 32 10000 2.1 0 14:57 01.04.2020
407 Clear 10 1020 34 10000 2.6 280 14:38 01.04.2020
408 Clear 10 1021 34 10000 3.1 330 14:19 01.04.2020
409 Clear 10 1021 34 10000 3.1 330 13:57 01.04.2020
410 Clear 9 1021 34 10000 2.6 300 13:37 01.04.2020
411 Clear 9 1022 36 10000 2.1 0 13:18 01.04.2020
412 Clear 9 1022 36 10000 2.1 0 12:54 01.04.2020
413 Clear 8 1022 36 10000 1.5 0 12:36 01.04.2020
414 Clear 8 1023 33 10000 1.5 0 12:18 01.04.2020
415 Clear 7 1023 39 10000 1.5 0 11:42 01.04.2020
416 Clear 7 1023 39 10000 1.5 0 11:23 01.04.2020
417 Clear 6 1023 41 10000 1.5 0 10:58 01.04.2020
418 Clear 5 1024 48 10000 1.5 150 10:38 01.04.2020
419 Clear 5 1024 51 10000 2.1 160 10:19 01.04.2020
420 Clear 4 1024 51 10000 2.1 160 09:57 01.04.2020
421 Clear 3 1024 59 10000 1.5 150 09:39 01.04.2020
422 Clouds 1 1024 64 10000 1.5 150 09:18 01.04.2020
423 Clouds 0 1024 74 10000 0.5 120 08:42 01.04.2020
424 Clouds -1 1024 79 10000 1.5 120 08:18 01.04.2020
425 Clouds -2 1024 79 10000 0.5 0 07:46 01.04.2020
426 Clouds -2 1024 79 10000 1.5 140 07:21 01.04.2020
427 Clouds -2 1024 79 10000 1.5 140 06:58 01.04.2020
428 Clouds -1 1024 79 10000 0.5 0 06:27 01.04.2020
429 Clouds -1 1024 79 10000 0.5 0 05:59 01.04.2020
430 Clouds -1 1025 74 10000 0.5 0 04:36 01.04.2020
431 Clouds -1 1025 74 10000 1 0 03:35 01.04.2020
432 Clear 0 1025 59 0 2.1 70 02:57 01.04.2020
433 Clear 0 1026 68 10000 2.1 60 02:23 01.04.2020
434 Clear 1 1026 59 10000 0.5 0 01:43 01.04.2020
435 Clear 1 1026 59 10000 0.5 0 01:23 01.04.2020
436 Clear 1 1026 76 10000 1.5 90 00:47 01.04.2020
437 Clear 2 1026 64 10000 2.1 40 00:21 01.04.2020
438 Clear 2 1027 59 10000 1.5 120 23:54 31.03.2020
439 Clear 3 1027 59 10000 1.5 120 23:36 31.03.2020
440 Clear 3 1027 55 10000 1 30 23:18 31.03.2020
441 Clear 3 1027 51 10000 2.1 40 22:40 31.03.2020
442 Clear 4 1027 44 10000 3.1 40 22:21 31.03.2020
443 Clear 4 1027 44 10000 3.1 30 21:58 31.03.2020
444 Clear 4 1027 44 10000 3.1 30 21:58 31.03.2020
445 Clear 5 1027 44 10000 3.1 30 21:39 31.03.2020
446 Clear 5 1027 41 10000 4.1 20 21:21 31.03.2020
447 Clear 6 1027 41 10000 4.1 20 20:57 31.03.2020
448 Clear 7 1027 39 10000 5.1 20 20:37 31.03.2020
449 Clear 7 1027 39 10000 5.1 20 20:19 31.03.2020
450 Clear 8 1027 39 10000 5.1 10 19:56 31.03.2020
451 Clear 8 1027 39 10000 5.1 10 19:37 31.03.2020
452 Clear 9 1027 36 10000 4.6 20 19:19 31.03.2020
453 Clear 9 1026 34 10000 4.1 20 18:44 31.03.2020
454 Clear 10 1027 34 10000 4.6 360 18:20 31.03.2020
455 Clear 10 1027 31 10000 4.1 30 17:57 31.03.2020
456 Clear 10 1027 31 10000 4.1 30 17:57 31.03.2020
457 Clear 10 1027 31 10000 4.1 30 17:39 31.03.2020
458 Clear 10 1027 29 10000 1.5 0 17:21 31.03.2020
459 Clear 10 1027 29 10000 4.1 20 16:56 31.03.2020
460 Clear 10 1027 29 10000 4.1 20 16:37 31.03.2020
461 Clear 10 1028 29 10000 2.1 0 16:18 31.03.2020
462 Clear 10 1028 29 10000 2.1 0 15:56 31.03.2020
463 Clear 9 1028 29 10000 2.6 0 15:37 31.03.2020
464 Clear 9 1028 29 10000 2.6 0 15:37 31.03.2020
465 Clear 9 1028 34 10000 3.1 0 15:18 31.03.2020
466 Clear 9 1028 36 10000 3.6 0 14:43 31.03.2020
467 Clear 9 1029 36 10000 3.6 30 14:24 31.03.2020
468 Clear 9 1029 36 10000 3.6 30 13:59 31.03.2020
469 Clear 8 1029 39 10000 3.1 100 13:41 31.03.2020
470 Clear 8 1029 39 10000 2.6 0 13:19 31.03.2020
471 Clear 8 1029 39 10000 2.1 0 12:54 31.03.2020
472 Clear 7 1029 39 10000 2.1 0 12:36 31.03.2020
473 Clear 7 1029 42 10000 4.1 90 12:18 31.03.2020
474 Clouds 6 1030 42 10000 4.6 60 11:38 31.03.2020
475 Clouds 6 1030 52 10000 3.6 90 11:19 31.03.2020
476 Clouds 5 1029 56 10000 4.1 70 10:57 31.03.2020
477 Clouds 5 1029 56 10000 4.1 70 10:39 31.03.2020
478 Clouds 4 1029 58 10000 3.6 50 10:21 31.03.2020
479 Clouds 4 1029 58 10000 3.6 50 10:21 31.03.2020
480 Clear 4 1029 58 10000 3.1 70 09:56 31.03.2020
481 Clear 3 1029 58 10000 3.1 70 09:37 31.03.2020
482 Clouds 2 1029 83 10000 0.5 0 09:19 31.03.2020
483 Clouds 2 1029 83 10000 1.5 40 08:55 31.03.2020
484 Clouds 2 1029 83 10000 1.5 40 08:37 31.03.2020
485 Clouds 1 1029 83 10000 2.6 50 08:18 31.03.2020
486 Clouds 1 1028 83 10000 3.1 50 07:44 31.03.2020
487 Clouds 1 1028 83 10000 3.1 50 07:25 31.03.2020
488 Clouds 1 1028 83 10000 2.6 60 06:59 31.03.2020
489 Clouds 1 1028 83 10000 2.1 50 06:41 31.03.2020
490 Clouds 2 1027 81 10000 1.5 40 05:44 31.03.2020
491 Clouds 2 1027 100 10000 1.5 10 05:24 31.03.2020
492 Clouds 3 1027 93 10000 2.6 20 02:57 31.03.2020
493 -273 0 0 0 0 0 01:47 31.03.2020
494 Rain 4 1026 100 10000 2.1 350 01:27 31.03.2020
495 Clouds 4 1026 93 10000 0.5 0 00:43 31.03.2020
496 Clouds 5 1027 93 10000 1 30 00:23 31.03.2020
497 Clouds 5 1027 93 10000 1.5 340 23:41 30.03.2020
498 Clouds 5 1026 93 10000 0.5 0 23:20 30.03.2020
499 Clouds 5 1026 93 10000 0.5 0 22:58 30.03.2020
500 Clouds 5 1026 93 10000 0.5 0 22:58 30.03.2020
501 Rain 5 1026 80 10000 2.1 350 22:39 30.03.2020
502 Rain 5 1026 80 10000 1 0 22:19 30.03.2020
503 Rain 6 1026 80 10000 1 0 21:58 30.03.2020
504 Rain 6 1026 75 10000 1.5 30 21:38 30.03.2020
505 Rain 6 1026 70 10000 4.1 340 21:20 30.03.2020
506 Rain 6 1026 56 10000 2.6 330 20:58 30.03.2020
507 Rain 6 1026 56 10000 2.6 330 20:39 30.03.2020
508 Rain 7 1026 56 10000 2.6 320 20:20 30.03.2020
509 Clouds 7 1026 52 10000 3.6 310 19:56 30.03.2020
510 Clouds 7 1026 52 10000 3.6 310 19:38 30.03.2020
511 Clouds 7 1026 52 10000 3.6 340 19:20 30.03.2020
512 Clouds 7 1026 52 10000 4.1 310 18:43 30.03.2020
513 Clouds 7 1026 52 10000 4.1 310 18:25 30.03.2020
514 Clouds 8 1026 48 10000 3.6 330 17:58 30.03.2020
515 Clouds 8 1026 48 10000 3.6 330 17:39 30.03.2020
516 Clouds 8 1027 45 10000 5.7 320 17:20 30.03.2020
517 Clouds 8 1027 45 10000 5.7 320 16:58 30.03.2020
518 Clouds 8 1027 48 10000 3.6 330 16:39 30.03.2020
519 Clouds 8 1028 45 10000 5.1 320 16:20 30.03.2020
520 Clouds 8 1028 45 10000 5.1 320 16:20 30.03.2020
521 Clouds 8 1028 45 10000 5.1 320 16:20 30.03.2020
522 Clouds 8 1028 45 10000 5.1 320 15:56 30.03.2020
523 Clouds 7 1028 45 10000 4.1 330 15:38 30.03.2020
524 Clear 7 1028 42 10000 5.7 310 15:20 30.03.2020
525 Clear 7 1028 39 10000 4.1 0 14:56 30.03.2020
526 Clear 7 1028 39 10000 4.1 0 14:37 30.03.2020
527 Clear 7 1028 36 10000 4.1 300 14:18 30.03.2020
528 Clear 7 1029 35 10000 2.6 220 13:56 30.03.2020
529 Clear 6 1029 35 10000 2.6 220 13:37 30.03.2020
530 Clear 6 1029 38 10000 4.1 300 13:19 30.03.2020
531 Clear 5 1030 38 10000 2.6 270 12:44 30.03.2020
532 Clear 5 1030 32 10000 3.1 300 12:21 30.03.2020
533 Clear 5 1030 32 10000 3.1 300 12:21 30.03.2020
534 Clear 4 1031 38 10000 1.5 0 11:57 30.03.2020
535 Clear 4 1031 38 10000 1.5 0 11:39 30.03.2020
536 Clear 3 1031 37 10000 1 0 11:21 30.03.2020
537 Clear 3 1031 44 10000 1.5 290 10:55 30.03.2020
538 Clear 2 1031 44 10000 1.5 290 10:36 30.03.2020
539 Clear 2 1031 47 10000 1 0 10:18 30.03.2020
540 Clear 0 1032 60 10000 0.5 0 09:40 30.03.2020
541 Clear -1 1031 82 10000 0.5 120 09:19 30.03.2020
542 Clear -2 1031 82 10000 0.5 120 08:56 30.03.2020
543 Clear -2 1031 68 10000 1 70 08:36 30.03.2020
544 Clear -3 1031 63 10000 1 0 08:18 30.03.2020
545 Clear -4 1032 63 10000 1.5 60 07:42 30.03.2020
546 Clear -4 1032 58 10000 1.5 360 07:21 30.03.2020
547 Clear -4 1032 58 10000 2.1 20 06:43 30.03.2020
548 Clear -4 1032 58 10000 2.1 20 06:25 30.03.2020
549 Clear -3 1032 58 10000 1.5 30 05:44 30.03.2020
550 Clear -2 1032 54 10000 3.6 360 04:31 30.03.2020
551 Clear -2 1032 54 10000 2.6 30 03:57 30.03.2020
552 Clear -1 1032 54 10000 3.1 20 02:45 30.03.2020
553 Clear 0 1032 82 10000 3.6 10 01:57 30.03.2020
554 Clear 0 1032 47 10000 4.1 20 01:18 30.03.2020
555 Clear 1 1032 47 10000 3.6 20 00:29 30.03.2020
556 Clouds 2 1032 47 10000 4.1 20 23:56 29.03.2020
557 Clouds 2 1032 51 10000 4.6 20 23:37 29.03.2020
558 Clouds 2 1032 55 10000 4.1 20 23:19 29.03.2020
559 Clouds 3 1032 55 10000 4.1 20 22:55 29.03.2020
560 Clouds 3 1032 59 10000 4.6 20 22:37 29.03.2020
561 Clouds 3 1032 59 10000 4.6 20 22:37 29.03.2020
562 Clouds 3 1031 59 10000 6.2 30 22:18 29.03.2020
563 Clouds 3 1031 55 10000 6.7 30 21:38 29.03.2020
564 Clouds 3 1031 60 10000 6.7 20 21:20 29.03.2020
565 Clouds 3 1030 64 10000 6.7 10 20:56 29.03.2020
566 Clouds 3 1030 64 10000 6.7 10 20:37 29.03.2020
567 Clouds 4 1030 69 10000 6.7 30 20:19 29.03.2020
568 Snow 3 1029 74 10000 5.7 20 19:58 29.03.2020
569 Snow 3 1029 74 10000 5.7 20 19:40 29.03.2020
570 Clouds 4 1029 69 10000 8.2 20 19:22 29.03.2020
571 Snow 3 1028 72 10000 7.2 20 18:57 29.03.2020
572 Snow 3 1028 72 10000 7.2 20 18:38 29.03.2020
573 Snow 3 1028 69 10000 6.2 30 18:20 29.03.2020
574 Snow 3 1028 69 10000 5.7 20 17:56 29.03.2020
575 Snow 3 1028 69 10000 5.7 20 17:38 29.03.2020
576 Clouds 3 1027 69 10000 6.2 10 17:19 29.03.2020
577 Clouds 3 1027 74 10000 6.7 10 16:57 29.03.2020
578 Clouds 3 1027 74 10000 6.7 10 16:38 29.03.2020
579 Clouds 3 1027 74 10000 6.7 10 16:38 29.03.2020
580 Clouds 3 1027 73 10000 7.2 360 16:19 29.03.2020
581 Clouds 3 1027 73 10000 8.7 10 15:43 29.03.2020
582 Clouds 3 1027 73 10000 8.7 10 15:25 29.03.2020
583 Rain 4 1026 69 10000 7.7 10 14:59 29.03.2020
584 Rain 4 1026 67 10000 7.2 360 14:40 29.03.2020
585 Clouds 4 1026 67 10000 7.7 360 14:20 29.03.2020
586 Clouds 4 1026 67 10000 7.7 360 13:59 29.03.2020
587 Clouds 4 1026 65 10000 8.7 20 13:41 29.03.2020
588 Rain 4 1026 86 10000 5.1 360 13:21 29.03.2020
589 Rain 4 1026 60 10000 4.6 340 12:58 29.03.2020
590 Rain 5 1026 60 10000 4.6 340 12:39 29.03.2020
591 Rain 5 1026 52 10000 7.7 360 12:19 29.03.2020
592 Clouds 5 1026 56 10000 8.7 10 11:58 29.03.2020
593 Clouds 5 1026 56 10000 8.7 10 11:37 29.03.2020
594 Clouds 5 1025 60 10000 6.7 10 11:19 29.03.2020
595 Clouds 5 1025 65 10000 8.2 20 10:39 29.03.2020
596 Clouds 4 1025 65 10000 7.2 10 10:20 29.03.2020
597 Clouds 4 1025 65 10000 7.2 10 09:56 29.03.2020
598 Clouds 4 1024 69 10000 5.7 350 09:38 29.03.2020
599 Clouds 4 1024 74 10000 4.1 340 09:18 29.03.2020
600 Clouds 3 1024 80 10000 2.6 330 08:43 29.03.2020
601 Clouds 3 1024 80 10000 2.6 330 08:25 29.03.2020
602 Clouds 3 1024 80 10000 3.6 320 07:47 29.03.2020
603 Clouds 3 1024 80 10000 3.6 320 07:47 29.03.2020
604 Clouds 3 1024 74 10000 4.6 320 07:23 29.03.2020
605 Clouds 3 1024 74 10000 4.6 330 06:40 29.03.2020
606 Clouds 3 1024 74 10000 3.1 320 04:56 29.03.2020
607 Clouds 3 1025 69 10000 3.1 330 03:41 29.03.2020
608 Clouds 4 1025 64 10000 4.1 350 03:22 29.03.2020
609 Clouds 4 1025 65 10000 4.1 340 01:44 29.03.2020
610 Clouds 4 1025 69 10000 3.6 350 01:23 29.03.2020
611 Clouds 5 1024 65 10000 4.1 350 00:46 29.03.2020
612 Clouds 5 1024 64 10000 4.1 340 00:28 29.03.2020
613 Clouds 5 1024 64 10000 4.6 350 23:41 28.03.2020
614 Clouds 5 1024 70 10000 5.1 360 23:23 28.03.2020
615 Clouds 6 1023 65 10000 5.1 360 22:54 28.03.2020
616 Clouds 6 1023 65 10000 5.1 360 22:36 28.03.2020
617 Clouds 6 1023 65 10000 4.6 360 22:18 28.03.2020
618 Clouds 7 1023 65 10000 4.1 360 21:41 28.03.2020
619 Clouds 8 1022 61 10000 6.7 360 21:23 28.03.2020
620 Clouds 8 1022 61 10000 4.6 10 20:58 28.03.2020
621 Clouds 8 1022 61 10000 4.6 10 20:39 28.03.2020
622 Clear 9 1022 43 10000 4.6 360 20:20 28.03.2020
623 Clear 9 1022 43 10000 4.6 360 19:56 28.03.2020
624 Clear 10 1021 49 10000 4.1 360 19:37 28.03.2020
625 Clear 10 1021 40 10000 3.6 360 19:18 28.03.2020
626 Clear 11 1020 49 10000 6.2 10 18:47 28.03.2020
627 Clear 12 1020 37 10000 5.1 20 18:23 28.03.2020
628 Clear 13 1020 35 10000 6.2 10 17:58 28.03.2020
629 Clear 13 1020 35 10000 6.2 10 17:38 28.03.2020
630 Clear 14 1020 35 10000 7.2 360 17:19 28.03.2020
631 Clear 14 1020 33 10000 7.7 360 16:42 28.03.2020
632 Clear 14 1020 33 10000 7.2 360 16:20 28.03.2020
633 Clear 14 1020 33 10000 7.2 360 15:56 28.03.2020
634 Clear 15 1020 31 10000 7.7 10 15:38 28.03.2020
635 Clear 15 1020 31 10000 7.7 360 15:19 28.03.2020
636 Clear 15 1020 31 10000 7.2 360 14:43 28.03.2020
637 Clear 15 1020 31 10000 7.2 360 14:23 28.03.2020
638 Clear 15 1020 36 10000 7.7 20 13:59 28.03.2020
639 Clear 15 1020 38 10000 7.2 10 13:38 28.03.2020
640 Clear 15 1020 33 10000 3.6 20 13:19 28.03.2020
641 Clear 15 1020 36 10000 4.1 30 12:39 28.03.2020
642 Clear 14 1020 41 10000 4.1 270 12:21 28.03.2020
643 Clear 14 1020 47 10000 3.1 260 11:42 28.03.2020
644 Clear 13 1020 54 10000 2.6 280 11:21 28.03.2020
645 Clear 12 1020 54 10000 1.5 270 10:56 28.03.2020
646 Clear 12 1020 54 10000 1.5 270 10:38 28.03.2020
647 Clear 11 1021 57 10000 1.5 290 10:18 28.03.2020
648 Clear 10 1021 61 10000 1 0 09:41 28.03.2020
649 Clear 9 1020 70 10000 0.5 0 09:23 28.03.2020
650 Clear 8 1020 70 10000 1 0 08:45 28.03.2020
651 Clear 8 1020 70 10000 1 0 08:27 28.03.2020
652 Clouds 7 1020 80 10000 0.5 150 07:59 28.03.2020
653 Clouds 6 1020 80 7000 2.1 260 07:41 28.03.2020
654 Clouds 5 1019 86 10000 1.5 70 06:56 28.03.2020
655 Clouds 5 1020 70 10000 3.6 20 06:33 28.03.2020
656 Clouds 5 1019 78 10000 1.5 60 05:41 28.03.2020
657 Clouds 6 1019 78 7000 1.5 260 05:21 28.03.2020
658 Clouds 6 1019 78 7000 1.5 260 04:40 28.03.2020
659 Clouds 6 1019 75 10000 1.5 60 03:34 28.03.2020
660 Clouds 8 1019 70 10000 0.5 0 01:53 28.03.2020
661 Clear 8 1018 75 10000 1 0 01:25 28.03.2020
662 Clear 8 1018 70 10000 0.5 0 00:57 28.03.2020
663 Clear 9 1018 70 10000 0.5 0 00:36 28.03.2020
664 Clear 9 1018 70 10000 0.99 45 23:56 27.03.2020
665 Clear 9 1018 70 10000 0.99 45 23:38 27.03.2020
666 Clear 10 1018 70 10000 0.5 0 23:19 27.03.2020
667 Clear 10 1018 65 10000 1.5 60 22:55 27.03.2020
668 Clear 10 1018 65 10000 1.5 60 22:37 27.03.2020
669 Clear 10 1018 57 10000 3.1 50 22:18 27.03.2020
670 Clear 11 1018 57 10000 2.6 50 21:43 27.03.2020
671 Clear 11 1018 57 10000 2.1 40 21:24 27.03.2020
672 Clear 11 1018 57 10000 2.1 40 20:59 27.03.2020
673 Clear 12 1018 53 10000 2.1 50 20:41 27.03.2020
674 Clear 12 1017 50 10000 2.1 50 20:20 27.03.2020
675 Clear 12 1017 50 10000 2.1 50 20:20 27.03.2020
676 Clear 13 1017 43 10000 1 100 19:57 27.03.2020
677 Clear 13 1017 43 10000 1 100 19:39 27.03.2020
678 Clear 13 1017 43 10000 1 100 19:39 27.03.2020
679 -273 0 0 0 0 0 19:20 27.03.2020
680 Clear 15 1017 36 10000 2.6 90 18:44 27.03.2020
681 Clear 15 1017 36 10000 2.6 90 18:25 27.03.2020
682 Clear 16 1016 33 10000 4.1 80 17:59 27.03.2020
683 Clear 16 1016 33 10000 4.1 80 17:39 27.03.2020
684 Clear 16 1016 43 10000 3.6 100 17:20 27.03.2020
685 Clear 16 1016 43 10000 4.1 80 16:44 27.03.2020
686 Clear 16 1016 33 10000 4.6 100 16:26 27.03.2020
687 Clear 16 1016 33 10000 4.6 100 15:57 27.03.2020
688 Clear 16 1017 33 10000 4.1 80 15:39 27.03.2020
689 Clear 17 1017 43 10000 4.1 60 15:21 27.03.2020
690 Clear 17 1017 36 10000 3.6 90 14:45 27.03.2020
691 Clear 16 1017 41 10000 4.6 100 14:24 27.03.2020
692 Clear 16 1017 41 10000 4.6 100 13:56 27.03.2020
693 Clear 16 1017 41 10000 3.6 30 13:37 27.03.2020
694 Clear 15 1017 35 10000 4.6 60 13:18 27.03.2020
695 Clear 15 1018 35 10000 3.6 50 12:49 27.03.2020
696 Clear 14 1018 41 10000 4.1 40 12:21 27.03.2020
697 Clear 14 1018 37 10000 2.6 100 11:59 27.03.2020
698 Clear 14 1018 37 10000 2.6 100 11:59 27.03.2020
699 Clear 13 1018 37 10000 2.6 100 11:41 27.03.2020
700 Clear 13 1018 37 10000 2.6 100 11:41 27.03.2020
701 Clear 12 1018 37 10000 3.1 40 11:22 27.03.2020
702 Clear 11 1018 40 10000 3.1 80 10:54 27.03.2020
703 Clear 11 1018 40 10000 3.1 80 10:36 27.03.2020
704 Clear 10 1019 43 10000 1.5 0 10:18 27.03.2020
705 Clear 10 1019 45 10000 1 0 09:56 27.03.2020
706 Clear 10 1019 45 10000 1 0 09:37 27.03.2020
707 Clear 8 1019 56 10000 1 0 09:18 27.03.2020
708 Clear 8 1018 56 10000 1 0 08:55 27.03.2020
709 Clear 8 1018 56 10000 1 0 08:37 27.03.2020
710 Clear 4 1019 69 10000 1.5 180 08:18 27.03.2020
711 Clear 5 1019 69 10000 1 0 07:49 27.03.2020
712 Clear 4 1019 74 10000 0.5 0 07:23 27.03.2020
713 Clear 4 1019 69 10000 0.5 0 06:51 27.03.2020
714 Clear 4 1018 64 10000 2.1 60 06:33 27.03.2020
715 Clear 4 1019 60 10000 3.6 50 04:23 27.03.2020
716 Clear 5 1019 60 10000 3.1 40 02:25 27.03.2020
717 Clear 5 1020 60 10000 4.1 50 01:23 27.03.2020
718 Clear 6 1020 60 10000 3.6 40 00:48 27.03.2020
719 Clear 6 1020 60 10000 2.6 40 00:23 27.03.2020
720 Clear 6 1020 52 10000 3.6 60 23:44 26.03.2020
721 Clear 7 1020 52 10000 2.6 50 23:22 26.03.2020
722 Clear 7 1020 56 10000 3.1 40 22:58 26.03.2020
723 Clear 7 1020 56 10000 3.1 40 22:38 26.03.2020
724 Clear 7 1020 60 10000 2.6 50 22:19 26.03.2020
725 Clear 7 1020 60 10000 2.6 50 21:56 26.03.2020
726 Clear 8 1020 52 10000 1.5 40 21:37 26.03.2020
727 Clear 8 1020 48 10000 1.5 40 21:18 26.03.2020
728 Clear 9 1020 48 10000 1.5 40 20:57 26.03.2020
729 Clear 9 1021 48 10000 2.6 60 20:38 26.03.2020
730 Clear 9 1021 45 10000 2.1 70 20:20 26.03.2020
731 Clear 10 1020 42 10000 3.1 70 19:54 26.03.2020
732 Clear 10 1020 42 10000 3.1 70 19:36 26.03.2020
733 Clear 11 1020 39 10000 3.1 80 19:18 26.03.2020
734 Clear 11 1020 34 10000 4.6 80 18:55 26.03.2020
735 Clear 12 1020 34 10000 5.1 70 18:36 26.03.2020
736 Clear 12 1020 34 10000 5.1 70 18:18 26.03.2020
737 Clear 12 1020 34 10000 4.6 90 17:42 26.03.2020
738 Clear 13 1020 32 10000 5.1 120 17:18 26.03.2020
739 Clear 13 1019 30 10000 4.1 110 16:45 26.03.2020
740 Clear 12 1019 30 10000 4.1 110 16:45 26.03.2020
741 Clear 13 1020 27 10000 7.2 60 16:27 26.03.2020
742 Clear 13 1020 27 10000 7.2 60 15:58 26.03.2020
743 -273 0 0 0 0 0 15:40 26.03.2020
744 Clear 12 1020 29 10000 4.6 80 15:21 26.03.2020
745 Clear 12 1020 29 10000 5.1 70 14:57 26.03.2020
746 Clear 12 1020 29 10000 5.1 70 14:38 26.03.2020
747 Clear 11 1020 27 10000 5.1 110 14:19 26.03.2020
748 Clear 11 1020 27 10000 3.6 110 13:43 26.03.2020
749 Clear 12 1020 27 10000 3.6 110 13:23 26.03.2020
750 Clear 11 1021 31 10000 6.2 70 12:57 26.03.2020
751 Clear 11 1021 31 10000 6.2 70 12:38 26.03.2020
752 Clear 10 1021 29 10000 5.1 90 12:19 26.03.2020
753 Clear 10 1021 29 10000 6.7 70 11:45 26.03.2020
754 Clear 10 1021 29 10000 6.7 70 11:45 26.03.2020
755 Clear 9 1021 31 10000 5.1 90 11:21 26.03.2020
756 Clear 9 1021 33 10000 4.6 90 10:56 26.03.2020
757 Clear 8 1021 33 10000 4.6 90 10:37 26.03.2020
758 Clear 8 1021 33 10000 4.6 90 10:37 26.03.2020
759 Clear 8 1022 33 10000 5.1 80 10:19 26.03.2020
760 Clear 7 1022 38 10000 4.6 80 09:44 26.03.2020
761 Clear 6 1022 41 10000 4.1 80 09:20 26.03.2020
762 Clear 6 1022 41 10000 4.1 80 08:55 26.03.2020
763 Clear 5 1022 41 10000 3.1 60 08:37 26.03.2020
764 Clear 3 1022 47 10000 2.1 20 08:18 26.03.2020
765 Clear 3 1022 75 10000 1.5 10 07:43 26.03.2020
766 Clear 2 1022 75 10000 2.1 20 07:21 26.03.2020
767 Clear 2 1022 75 10000 2.1 20 06:56 26.03.2020
768 Clear 2 1021 40 10000 2.6 50 05:59 26.03.2020
769 Clear 2 1022 40 10000 3.6 60 04:49 26.03.2020
770 Clear 3 1022 40 10000 3.6 70 03:44 26.03.2020
771 Clear 3 1022 37 10000 4.1 70 02:55 26.03.2020
772 Clouds 4 1023 35 10000 4.1 70 01:50 26.03.2020
773 Clouds 5 1023 35 10000 4.1 80 00:53 26.03.2020
774 Clouds 5 1023 32 10000 4.6 80 00:22 26.03.2020
775 Clouds 6 1023 32 10000 4.6 90 23:41 25.03.2020
776 Clouds 6 1023 30 10000 3.6 90 23:21 25.03.2020
777 Clouds 7 1023 30 10000 5.1 80 22:42 25.03.2020
778 Clouds 7 1023 28 10000 5.1 80 22:21 25.03.2020
779 Clouds 7 1023 28 10000 5.1 80 21:56 25.03.2020
780 Clouds 8 1023 26 10000 3.1 80 21:38 25.03.2020
781 Clouds 8 1023 24 10000 3.6 100 21:20 25.03.2020
782 Clouds 9 1023 21 10000 4.1 80 20:56 25.03.2020
783 Clouds 9 1023 21 10000 4.1 80 20:37 25.03.2020
784 Clouds 10 1022 21 10000 3.6 90 20:18 25.03.2020
785 Clouds 10 1022 21 10000 3.1 80 19:43 25.03.2020
786 Clouds 10 1022 21 10000 3.1 80 19:43 25.03.2020
787 Clouds 11 1022 18 10000 3.6 100 19:23 25.03.2020
788 Clouds 12 1022 17 10000 4.1 80 18:58 25.03.2020
789 Clouds 12 1022 17 10000 4.1 80 18:40 25.03.2020
790 Clouds 13 1022 16 10000 4.6 80 18:22 25.03.2020
791 Clouds 13 1022 16 10000 4.1 100 17:56 25.03.2020
792 Clouds 14 1022 13 10000 4.1 90 17:38 25.03.2020
793 Clouds 14 1022 13 10000 4.1 90 17:38 25.03.2020
794 Clouds 14 1022 13 10000 4.1 90 17:20 25.03.2020
795 Clouds 14 1022 15 10000 4.1 90 16:55 25.03.2020
796 Clouds 14 1023 15 10000 5.7 70 16:36 25.03.2020
797 Clouds 14 1023 15 10000 5.7 70 16:18 25.03.2020
798 Clouds 14 1023 15 10000 4.1 80 15:41 25.03.2020
799 Clouds 14 1023 15 10000 4.6 80 15:20 25.03.2020
800 Clouds 14 1023 15 10000 4.6 80 14:56 25.03.2020
801 Clouds 13 1024 14 10000 4.6 90 14:37 25.03.2020
802 Clear 13 1024 16 10000 4.1 80 14:18 25.03.2020
803 Clear 12 1025 15 10000 5.7 80 13:42 25.03.2020
804 Clear 12 1025 15 10000 4.6 90 13:22 25.03.2020
805 Clear 10 1026 18 10000 4.1 90 12:38 25.03.2020
806 Clear 10 1027 24 10000 4.6 90 12:20 25.03.2020
807 Clear 10 1027 26 10000 5.1 80 11:57 25.03.2020
808 Clear 9 1027 26 10000 5.1 80 11:39 25.03.2020
809 Clear 7 1027 30 10000 3.6 80 11:20 25.03.2020
810 Clear 7 1027 30 10000 4.6 100 10:57 25.03.2020
811 Clear 7 1027 30 10000 4.6 100 10:39 25.03.2020
812 Clear 7 1028 32 10000 3.6 110 10:18 25.03.2020
813 Clear 5 1028 32 10000 4.6 110 09:43 25.03.2020
814 Clear 5 1028 32 10000 4.6 110 09:25 25.03.2020
815 Clear 4 1028 37 10000 3.6 100 08:58 25.03.2020
816 Clear 4 1028 37 10000 3.6 100 08:58 25.03.2020
817 Clear 4 1028 37 10000 3.6 100 08:39 25.03.2020
818 Clear 2 1028 40 10000 3.1 90 08:20 25.03.2020
819 Clear 2 1028 43 10000 3.1 90 07:44 25.03.2020
820 Clear 1 1028 50 10000 2.1 90 07:24 25.03.2020
821 Clear 1 1028 80 10000 3.6 80 06:57 25.03.2020
822 Clear 1 1028 80 10000 3.6 80 06:37 25.03.2020
823 Clear 2 1028 40 10000 4.1 80 06:19 25.03.2020
824 Clear 2 1028 43 10000 3.6 80 05:42 25.03.2020
825 Clear 2 1028 43 10000 3.6 80 04:41 25.03.2020
826 Clear 2 1028 40 10000 3.1 90 03:57 25.03.2020
827 Clear 3 1028 40 10000 3.1 90 03:30 25.03.2020
828 Clear 4 1029 37 10000 3.6 90 01:40 25.03.2020
829 Clear 4 1029 37 10000 3.6 100 00:50 25.03.2020
830 Clear 4 1029 37 10000 2.6 90 00:27 25.03.2020
831 Clear 5 1029 35 10000 3.6 90 23:55 24.03.2020
832 Clear 4 1030 40 10000 2.6 80 23:28 24.03.2020
833 Clear 4 1030 40 10000 1.5 80 22:58 24.03.2020
834 Clear 5 1030 40 10000 1.5 80 22:38 24.03.2020
835 Clear 4 1030 40 10000 1.5 80 22:38 24.03.2020
836 Clear 5 1030 34 10000 2.1 80 22:20 24.03.2020
837 Clear 5 1030 34 10000 2.1 80 21:58 24.03.2020
838 Clear 6 1029 35 10000 2.6 80 21:40 24.03.2020
839 Clear 6 1029 30 10000 2.6 90 21:19 24.03.2020
840 Clear 6 1029 30 10000 2.6 90 20:59 24.03.2020
841 Clear 6 1029 28 10000 3.1 100 20:40 24.03.2020
842 Clear 7 1029 28 10000 2.6 100 20:22 24.03.2020
843 Rain 7 1029 28 10000 2.1 90 19:48 24.03.2020
844 Rain 9 1029 22 10000 3.1 110 19:22 24.03.2020
845 Clear 9 1029 22 10000 3.1 110 18:59 24.03.2020
846 Clear 10 1029 21 10000 4.6 120 18:39 24.03.2020
847 Clear 10 1029 21 10000 4.1 110 18:20 24.03.2020
848 Clear 10 1029 21 10000 5.7 110 17:58 24.03.2020
849 Clear 11 1029 21 10000 5.7 110 17:40 24.03.2020
850 Clear 11 1029 21 10000 5.7 110 17:40 24.03.2020
851 Clear 11 1029 23 10000 5.1 120 17:22 24.03.2020
852 Clear 10 1029 23 10000 4.6 120 16:57 24.03.2020
853 Clear 10 1029 23 10000 4.6 120 16:38 24.03.2020
854 Clear 10 1029 23 10000 6.2 140 16:20 24.03.2020
855 Clear 10 1030 23 10000 5.1 130 15:44 24.03.2020
856 Clear 10 1030 23 10000 5.1 130 15:44 24.03.2020
857 Clear 10 1030 23 10000 5.1 130 15:25 24.03.2020
858 Clear 10 1030 23 10000 6.2 150 14:57 24.03.2020
859 Clear 10 1030 23 10000 6.2 150 14:39 24.03.2020
860 Clear 11 1031 21 10000 7.7 150 14:18 24.03.2020
861 Clear 10 1031 21 10000 7.2 140 13:42 24.03.2020
862 Clear 10 1032 22 10000 8.2 130 13:23 24.03.2020
863 Clear 9 1032 24 10000 6.7 130 12:47 24.03.2020
864 Clear 9 1032 24 10000 6.7 130 12:28 24.03.2020
865 Clear 8 1033 28 10000 7.7 150 11:59 24.03.2020
866 Clear 7 1033 28 10000 7.7 150 11:39 24.03.2020
867 Clear 6 1033 30 10000 7.2 140 11:19 24.03.2020
868 Clear 5 1033 30 10000 6.7 130 10:42 24.03.2020
869 Clear 5 1033 35 10000 8.2 140 10:20 24.03.2020
870 Clear 5 1033 35 10000 8.2 140 09:58 24.03.2020
871 Clear 4 1033 38 10000 6.7 130 09:39 24.03.2020
872 Clear 4 1033 40 10000 7.2 140 09:20 24.03.2020
873 Clear 3 1033 37 10000 5.1 130 08:38 24.03.2020
874 Clear 2 1032 43 10000 4.6 140 08:20 24.03.2020
875 Clear 1 1032 47 10000 2.6 110 07:48 24.03.2020
876 Clear 1 1032 42 10000 2.6 110 07:24 24.03.2020
877 Clear 0 1032 42 10000 3.6 110 06:58 24.03.2020
878 Clear 0 1032 42 10000 3.1 100 06:31 24.03.2020
879 Clear 1 1032 47 10000 3.1 100 05:22 24.03.2020
880 Clear 1 1032 47 10000 2.6 90 04:31 24.03.2020
881 Clear 1 1032 47 10000 2.6 100 03:18 24.03.2020
882 Clear 2 1032 47 10000 2.6 90 01:50 24.03.2020
883 Clear 2 1032 43 10000 2.6 100 00:51 24.03.2020
884 Clear 3 1032 43 10000 2.6 100 00:26 24.03.2020
885 Clear 3 1032 37 10000 3.1 100 23:49 23.03.2020
886 Clear 3 1032 37 10000 2.6 90 23:27 23.03.2020
887 Clear 3 1032 37 10000 2.6 90 22:58 23.03.2020
888 Clear 3 1032 37 10000 2.1 90 22:39 23.03.2020
889 Clear 4 1032 35 10000 2.1 90 22:21 23.03.2020
890 Clear 4 1032 35 10000 2.6 100 21:44 23.03.2020
891 Clear 5 1032 30 10000 2.6 120 21:21 23.03.2020
892 Clear 5 1032 30 10000 2.6 120 20:59 23.03.2020
893 Clear 5 1032 28 10000 3.6 120 20:41 23.03.2020
894 Clear 5 1032 28 10000 3.1 120 20:23 23.03.2020
895 Clear 6 1032 28 10000 3.1 110 19:55 23.03.2020
896 Clear 6 1032 28 10000 3.1 110 19:55 23.03.2020
897 Clear 6 1032 28 10000 3.1 110 19:37 23.03.2020
898 Clear 6 1032 26 10000 3.1 110 19:18 23.03.2020
899 Clear 8 1031 24 10000 5.1 120 18:43 23.03.2020
900 Clear 8 1032 24 10000 4.6 120 18:24 23.03.2020
901 Clear 9 1031 23 10000 4.1 110 17:59 23.03.2020
902 Clear 9 1031 23 10000 4.1 110 17:40 23.03.2020
903 Clear 9 1031 23 10000 5.1 100 17:19 23.03.2020
904 Clear 10 1031 21 10000 6.2 150 16:43 23.03.2020
905 Clear 10 1032 23 10000 6.7 130 16:25 23.03.2020
906 Clear 10 1032 23 10000 6.7 130 15:54 23.03.2020
907 Clear 9 1032 23 10000 6.2 140 15:36 23.03.2020
908 Clear 10 1032 21 10000 6.7 140 15:18 23.03.2020
909 Clear 10 1032 21 10000 6.7 140 15:18 23.03.2020
910 Clear 9 1032 19 10000 8.7 140 14:37 23.03.2020
911 Clear 9 1032 21 10000 10.3 150 14:19 23.03.2020
912 Clear 9 1032 21 10000 10.3 150 14:19 23.03.2020
913 Clear 9 1033 22 10000 8.7 140 13:57 23.03.2020
914 Clear 9 1033 22 10000 8.7 140 13:38 23.03.2020
915 Clear 8 1033 22 10000 9.3 130 13:20 23.03.2020
916 Clear 8 1033 24 10000 9.3 140 12:43 23.03.2020
917 Clear 7 1033 26 10000 8.7 140 12:23 23.03.2020
918 Clear 6 1033 28 10000 9.3 140 11:56 23.03.2020
919 Clear 6 1033 28 10000 9.3 140 11:37 23.03.2020
920 Clear 5 1033 30 10000 8.7 120 11:19 23.03.2020
921 Clear 5 1033 32 10000 8.2 120 10:56 23.03.2020
922 Clear 4 1033 32 10000 8.2 120 10:36 23.03.2020
923 Clear 4 1034 32 10000 7.7 130 10:18 23.03.2020
924 Clear 3 1034 34 10000 8.7 120 09:42 23.03.2020
925 Clear 2 1034 37 10000 8.7 130 09:20 23.03.2020
926 Clear 2 1033 40 10000 7.2 120 08:38 23.03.2020
927 Clear 1 1033 43 10000 5.7 110 08:20 23.03.2020
928 Clear 1 1033 43 10000 5.7 110 07:58 23.03.2020
929 Clear 1 1033 43 10000 5.7 120 07:37 23.03.2020
930 Clear 0 1033 43 10000 5.1 110 07:18 23.03.2020
931 Clear 0 1033 43 10000 5.1 120 06:48 23.03.2020
932 Clear 1 1033 47 10000 5.7 120 05:45 23.03.2020
933 Clear 1 1033 47 10000 6.7 120 04:41 23.03.2020
934 Clear 2 1033 43 10000 6.7 120 03:23 23.03.2020
935 Clear 2 1033 47 10000 6.2 110 01:50 23.03.2020
936 Clear 3 1033 44 10000 4.6 110 00:52 23.03.2020
937 Clear 3 1033 44 10000 4.6 110 00:33 23.03.2020
938 Clear 3 1032 44 10000 4.1 110 23:46 22.03.2020
939 Clear 3 1032 44 10000 5.1 110 23:25 22.03.2020
940 Clear 4 1032 41 10000 4.1 110 22:45 22.03.2020
941 Clear 4 1032 41 10000 3.6 100 22:23 22.03.2020
942 Clear 4 1032 41 10000 4.6 100 21:55 22.03.2020
943 Clear 5 1032 41 10000 4.6 100 21:37 22.03.2020
944 Clear 5 1031 38 10000 5.1 100 21:18 22.03.2020
945 Clear 5 1031 38 10000 5.1 90 20:46 22.03.2020
946 Clear 6 1031 41 10000 4.1 80 20:25 22.03.2020
947 Clear 6 1031 41 10000 4.1 80 20:25 22.03.2020
948 Clear 6 1031 41 10000 4.1 80 19:58 22.03.2020
949 Clear 7 1031 38 10000 4.1 100 19:40 22.03.2020
950 Clear 7 1030 36 10000 4.1 90 19:20 22.03.2020
951 Clear 7 1030 33 10000 3.6 100 18:59 22.03.2020
952 Clear 8 1030 33 10000 3.6 100 18:41 22.03.2020
953 Clear 9 1030 31 10000 4.6 90 18:22 22.03.2020
954 Clear 9 1029 31 10000 5.1 100 17:59 22.03.2020
955 Clear 9 1029 31 10000 5.1 100 17:39 22.03.2020
956 Clear 10 1029 27 10000 5.1 110 17:20 22.03.2020
957 Clear 10 1029 27 10000 5.1 110 16:58 22.03.2020
958 Clear 10 1029 27 10000 5.1 110 16:58 22.03.2020
959 Clear 10 1029 27 10000 5.7 90 16:39 22.03.2020
960 Clear 10 1029 25 10000 6.2 100 16:21 22.03.2020
961 Clear 10 1029 25 10000 6.2 100 15:57 22.03.2020
962 Clear 10 1029 27 10000 6.7 80 15:39 22.03.2020
963 Clear 10 1029 27 10000 6.2 90 14:47 22.03.2020
964 Clear 9 1029 27 10000 4.1 90 14:19 22.03.2020
965 Clear 9 1029 29 10000 6.2 120 13:56 22.03.2020
966 Clear 9 1029 29 10000 6.2 120 13:37 22.03.2020
967 Clear 9 1029 29 10000 7.2 70 13:19 22.03.2020
968 Clear 8 1029 29 10000 5.7 90 12:44 22.03.2020
969 Clear 8 1030 28 10000 7.2 90 12:20 22.03.2020
970 Clear 7 1030 28 10000 7.7 100 11:56 22.03.2020
971 Clear 7 1030 28 10000 7.7 100 11:38 22.03.2020
972 Clear 6 1030 33 10000 7.2 110 11:19 22.03.2020
973 Clear 6 1030 35 10000 6.7 110 10:43 22.03.2020
974 Clear 5 1030 38 10000 6.7 110 10:24 22.03.2020
975 Clear 5 1030 35 10000 6.7 110 10:24 22.03.2020
976 Clear 4 1029 44 10000 7.2 100 09:49 22.03.2020
977 Clear 4 1029 44 10000 7.2 100 09:30 22.03.2020
978 Clear 3 1030 44 10000 6.2 100 08:55 22.03.2020
979 Clear 2 1029 47 10000 5.1 110 08:36 22.03.2020
980 Clear 2 1029 51 10000 5.7 100 08:18 22.03.2020
981 Clear 1 1029 51 10000 3.6 100 07:49 22.03.2020
982 Clear 1 1029 55 10000 3.6 100 07:18 22.03.2020
983 Clear 1 1028 55 10000 4.6 110 05:56 22.03.2020
984 Clear 1 1028 55 10000 5.1 110 04:58 22.03.2020
985 Clear 1 1028 59 10000 3.1 90 02:58 22.03.2020
986 Clear 2 1028 55 10000 4.1 100 01:22 22.03.2020
987 Clear 2 1028 55 10000 4.1 100 01:22 22.03.2020
988 Clear 2 1028 55 10000 4.1 100 00:39 22.03.2020
989 Clear 3 1028 55 10000 4.6 90 00:21 22.03.2020
990 Clear 3 1028 55 10000 5.1 90 23:41 21.03.2020
991 Clear 3 1028 55 10000 5.1 90 23:19 21.03.2020
992 Clear 4 1028 55 10000 5.1 90 22:39 21.03.2020
993 Clear 4 1027 51 10000 5.7 80 22:20 21.03.2020
994 Clear 4 1027 51 10000 5.7 80 21:59 21.03.2020
995 Clear 4 1027 51 10000 6.2 90 21:41 21.03.2020
996 Clear 5 1027 51 10000 6.2 90 21:22 21.03.2020
997 Clear 5 1028 55 10000 7.2 80 21:22 21.03.2020
998 Clear 5 1027 52 10000 3.6 90 20:56 21.03.2020
999 Clear 5 1027 52 10000 3.6 90 20:38 21.03.2020
1000 Clear 6 1026 45 10000 5.1 80 20:19 21.03.2020
1001 Clear 6 1026 45 10000 4.6 90 19:43 21.03.2020
1002 Clear 6 1026 45 10000 4.6 90 19:24 21.03.2020
1003 Clear 7 1025 36 10000 7.7 80 18:55 21.03.2020
1004 Clear 8 1025 36 10000 7.7 80 18:37 21.03.2020
1005 Clear 8 1025 39 10000 6.2 80 18:19 21.03.2020
1006 Clear 9 1025 39 10000 6.2 70 17:55 21.03.2020
1007 Clear 9 1025 42 10000 6.7 70 17:37 21.03.2020
1008 Clear 9 1025 42 10000 6.7 70 17:18 21.03.2020
1009 Clear 9 1025 39 10000 7.2 70 16:41 21.03.2020
1010 Clear 10 1025 39 10000 7.7 70 16:19 21.03.2020
1011 Clear 10 1025 39 10000 6.2 80 15:56 21.03.2020
1012 Clear 10 1025 39 10000 6.2 80 15:37 21.03.2020
1013 Clear 9 1025 39 10000 6.7 70 15:19 21.03.2020
1014 Clear 10 1025 39 10000 6.2 100 14:54 21.03.2020
1015 Clear 9 1025 39 10000 6.2 100 14:36 21.03.2020
1016 Clear 9 1025 43 10000 6.7 90 14:18 21.03.2020
1017 Clear 9 1025 43 10000 6.7 90 13:57 21.03.2020
1018 Clear 9 1025 43 10000 7.2 80 13:38 21.03.2020
1019 Clouds 9 1025 45 10000 7.7 70 13:19 21.03.2020
1020 Clouds 9 1025 49 10000 6.7 70 12:40 21.03.2020
1021 Clouds 8 1026 52 10000 7.7 70 12:19 21.03.2020
1022 Clouds 8 1026 52 10000 7.2 70 11:59 21.03.2020
1023 Clouds 7 1026 52 10000 7.2 70 11:39 21.03.2020
1024 Clouds 7 1026 52 10000 8.2 70 11:19 21.03.2020
1025 Clouds 7 1026 52 10000 8.2 70 11:19 21.03.2020
1026 Clouds 7 1026 55 10000 7.2 70 10:58 21.03.2020
1027 Clouds 7 1026 55 10000 7.2 70 10:39 21.03.2020
1028 Clouds 6 1025 61 10000 6.7 50 10:21 21.03.2020
1029 Clouds 6 1026 65 10000 6.2 60 09:58 21.03.2020
1030 Clouds 5 1026 65 10000 6.2 60 09:39 21.03.2020
1031 Clouds 5 1026 70 10000 5.1 50 09:20 21.03.2020
1032 Clouds 5 1026 70 10000 5.1 50 08:55 21.03.2020
1033 Clear 4 1026 70 10000 5.1 40 08:37 21.03.2020
1034 Clouds 4 1026 75 10000 2.6 20 08:18 21.03.2020
1035 Clouds 4 1026 80 10000 3.1 30 07:37 21.03.2020
1036 Clouds 4 1026 80 10000 3.1 20 07:18 21.03.2020
1037 Clouds 4 1026 75 10000 2.6 20 06:42 21.03.2020
1038 Clouds 4 1025 80 10000 2.6 30 06:23 21.03.2020
1039 Clouds 4 1026 80 10000 3.1 20 05:39 21.03.2020
1040 Rain 5 1025 75 10000 3.1 60 03:49 21.03.2020
1041 Rain 5 1026 75 10000 4.1 70 02:37 21.03.2020
1042 Rain 5 1026 86 10000 4.1 60 01:44 21.03.2020
1043 Rain 5 1026 86 10000 3.6 40 01:23 21.03.2020
1044 Rain 5 1026 86 10000 3.6 50 00:39 21.03.2020
1045 Rain 5 1026 86 10000 5.1 50 00:21 21.03.2020
1046 Rain 5 1026 87 10000 4.6 40 23:43 20.03.2020
1047 Rain 5 1025 87 10000 4.1 20 23:22 20.03.2020
1048 Clouds 5 1025 75 10000 3.6 20 22:44 20.03.2020
1049 Rain 5 1026 93 5000 5.1 10 22:25 20.03.2020
1050 Clouds 6 1025 75 10000 4.6 30 21:58 20.03.2020
1051 Clouds 6 1025 70 10000 4.6 40 21:40 20.03.2020
1052 Clouds 6 1025 65 10000 4.1 40 21:20 20.03.2020
1053 Clouds 7 1025 65 10000 4.1 40 20:59 20.03.2020
1054 Clouds 7 1025 65 10000 4.1 40 20:41 20.03.2020
1055 Clouds 7 1024 70 10000 5.1 30 20:20 20.03.2020
1056 Clouds 7 1024 66 10000 5.1 50 19:48 20.03.2020
1057 Clouds 7 1024 70 10000 6.2 40 19:21 20.03.2020
1058 Clouds 8 1024 70 10000 4.6 30 18:58 20.03.2020
1059 Clouds 8 1024 70 10000 4.6 30 18:39 20.03.2020
1060 Clouds 8 1024 76 10000 6.2 20 18:20 20.03.2020
1061 Clouds 8 1024 76 10000 6.2 20 18:20 20.03.2020
1062 Clouds 8 1024 81 10000 5.7 30 17:56 20.03.2020
1063 Clouds 8 1024 81 10000 5.7 30 17:38 20.03.2020
1064 Clouds 9 1024 81 10000 5.7 10 17:19 20.03.2020
1065 Clouds 9 1023 76 10000 6.2 10 16:42 20.03.2020
1066 Clouds 9 1023 71 10000 5.7 360 16:21 20.03.2020
1067 Clouds 9 1023 71 10000 5.7 360 15:58 20.03.2020
1068 Clouds 9 1023 71 10000 5.7 20 15:39 20.03.2020
1069 Clouds 10 1023 71 10000 4.1 20 15:20 20.03.2020
1070 Clouds 10 1023 71 10000 3.6 10 14:42 20.03.2020
1071 Clouds 10 1023 66 10000 4.6 40 14:21 20.03.2020
1072 Clouds 10 1023 66 10000 4.6 40 13:55 20.03.2020
1073 Clouds 10 1024 71 10000 5.7 30 13:36 20.03.2020
1074 Clouds 10 1024 71 10000 4.6 10 13:18 20.03.2020
1075 Clouds 10 1024 76 0 5.1 30 12:39 20.03.2020
1076 Clouds 10 1024 76 10000 4.6 20 12:20 20.03.2020
1077 Clouds 10 1024 76 10000 4.6 20 12:20 20.03.2020
1078 Clouds 9 1024 76 10000 3.6 10 11:54 20.03.2020
1079 Clouds 9 1024 76 10000 4.1 360 11:36 20.03.2020
1080 Clouds 9 1024 76 10000 4.1 360 11:18 20.03.2020
1081 Clouds 9 1024 81 10000 2.6 340 10:41 20.03.2020
1082 Clouds 9 1024 81 10000 2.6 340 10:20 20.03.2020
1083 Clouds 9 1024 81 10000 2.6 340 09:55 20.03.2020
1084 Clouds 9 1024 81 10000 2.6 340 09:37 20.03.2020
1085 Clouds 9 1024 81 10000 3.1 330 09:18 20.03.2020
1086 Clouds 9 1023 87 9000 3.1 350 08:41 20.03.2020
1087 Clouds 8 1023 93 9000 1.5 330 08:22 20.03.2020
1088 Clouds 8 1023 93 9000 1 0 07:48 20.03.2020
1089 Clouds 8 1023 93 9000 1 0 07:30 20.03.2020
1090 Clouds 8 1023 93 9000 2.97 25 06:58 20.03.2020
1091 Clouds 8 1023 87 9000 0.5 0 06:40 20.03.2020
1092 Clouds 9 1022 81 10000 0.5 30 04:51 20.03.2020
1093 Clouds 9 1023 81 10000 1 0 03:21 20.03.2020
1094 Clouds 10 1023 81 10000 1 170 01:58 20.03.2020
1095 Clouds 10 1023 71 10000 2.28 33 00:59 20.03.2020
1096 Clouds 10 1023 71 10000 2.1 70 00:30 20.03.2020
1097 Clouds 11 1023 71 10000 3.6 60 23:47 19.03.2020
1098 Clouds 11 1023 71 10000 3.6 60 23:28 19.03.2020
1099 Clouds 11 1024 71 10000 2.6 50 22:57 19.03.2020
1100 Clouds 11 1024 71 10000 2.6 50 22:38 19.03.2020
1101 Clouds 11 1023 71 10000 2.1 50 22:19 19.03.2020
1102 Clouds 12 1023 71 10000 2.1 50 21:42 19.03.2020
1103 Clouds 12 1023 66 10000 2.1 60 21:20 19.03.2020
1104 Clouds 12 1023 66 10000 2.1 60 20:59 19.03.2020
1105 Clouds 13 1023 62 10000 2.1 30 20:41 19.03.2020
1106 Clouds 13 1023 58 10000 2.6 50 20:23 19.03.2020
1107 Clouds 13 1023 58 10000 1.5 30 19:55 19.03.2020
1108 Clouds 14 1023 58 10000 1.5 30 19:37 19.03.2020
1109 Clouds 14 1023 54 10000 2.1 40 19:19 19.03.2020
1110 Clouds 14 1023 54 10000 2.1 40 18:56 19.03.2020
1111 Clouds 15 1023 51 10000 2.1 60 18:38 19.03.2020
1112 Clouds 15 1023 51 10000 2.1 60 18:19 19.03.2020
1113 Clouds 15 1023 48 10000 2.1 60 17:41 19.03.2020
1114 Clouds 16 1023 51 10000 2.6 360 17:19 19.03.2020
1115 Clouds 16 1023 51 10000 2.6 10 16:45 19.03.2020
1116 Clouds 16 1023 51 10000 2.6 10 16:25 19.03.2020
1117 Clouds 16 1024 48 10000 4.1 40 15:55 19.03.2020
1118 Clouds 16 1024 48 10000 4.1 40 15:36 19.03.2020
1119 Clouds 16 1024 51 10000 3.6 30 15:18 19.03.2020
1120 Clouds 16 1024 51 10000 4.6 20 14:43 19.03.2020
1121 Clear 16 1024 45 0 2.1 0 14:21 19.03.2020
1122 Clouds 16 1024 48 10000 3.1 310 13:41 19.03.2020
1123 Clouds 16 1025 55 10000 2.6 310 13:21 19.03.2020
1124 Clouds 15 1025 55 10000 1.5 0 12:58 19.03.2020
1125 Clouds 16 1025 55 10000 1.5 0 12:40 19.03.2020
1126 Clouds 15 1025 58 10000 0.5 0 12:21 19.03.2020
1127 Clouds 15 1026 59 10000 1.5 300 11:57 19.03.2020
1128 Clouds 15 1026 58 10000 1 0 11:38 19.03.2020
1129 Clouds 14 1026 58 10000 1 0 11:19 19.03.2020
1130 Clear 14 1026 67 10000 1 0 10:41 19.03.2020
1131 Clear 13 1026 66 10000 1.5 150 10:20 19.03.2020
1132 Clear 12 1026 66 10000 1.5 150 09:57 19.03.2020
1133 Clear 11 1026 71 10000 2.1 140 09:37 19.03.2020
1134 Clouds 11 1025 76 10000 0.5 0 09:18 19.03.2020
1135 Clouds 9 1025 87 10000 0.5 0 08:45 19.03.2020
1136 Clouds 8 1025 93 10000 0.5 0 08:21 19.03.2020
1137 Clouds 7 1025 93 10000 1 60 07:47 19.03.2020
1138 Clear 7 1025 100 10000 1 0 07:28 19.03.2020
1139 Clear 7 1025 93 10000 1.5 60 06:49 19.03.2020
1140 Clouds 7 1025 100 10000 1 0 05:52 19.03.2020
1141 Clouds 7 1025 93 10000 2.6 60 05:19 19.03.2020
1142 Clouds 8 1025 93 10000 1 0 04:40 19.03.2020
1143 Clear 8 1025 93 10000 0.5 70 03:20 19.03.2020
1144 Clouds 9 1025 87 10000 1.5 50 01:27 19.03.2020
1145 Clouds 9 1025 81 10000 2.6 60 00:37 19.03.2020
1146 Clouds 9 1025 81 10000 0.5 90 23:58 18.03.2020
1147 Clouds 9 1025 81 10000 0.5 90 23:39 18.03.2020
1148 Clouds 10 1025 76 10000 1 60 23:18 18.03.2020
1149 Clouds 10 1025 76 10000 1 60 22:42 18.03.2020
1150 Clouds 10 1026 71 10000 0.5 0 22:22 18.03.2020
1151 Clouds 10 1026 71 10000 0.5 0 21:54 18.03.2020
1152 Clouds 11 1026 71 10000 0.5 0 21:36 18.03.2020
1153 Clear 11 1026 71 10000 1.5 140 21:18 18.03.2020
1154 Clear 11 1026 71 10000 1.5 140 20:54 18.03.2020
1155 Clear 12 1025 71 10000 0.5 0 20:36 18.03.2020
1156 Clouds 12 1025 62 10000 2.1 10 20:18 18.03.2020
1157 Clouds 13 1025 62 10000 1.5 20 19:40 18.03.2020
1158 Clouds 14 1025 58 10000 2.1 360 19:21 18.03.2020
1159 Clouds 14 1025 58 10000 2.1 360 18:56 18.03.2020
1160 Clouds 15 1025 54 10000 3.6 320 18:38 18.03.2020
1161 Clouds 16 1025 48 10000 3.6 270 18:19 18.03.2020
1162 Clouds 16 1025 48 10000 2.1 210 17:55 18.03.2020
1163 Clouds 17 1025 51 10000 2.1 230 17:37 18.03.2020
1164 Clouds 17 1025 51 10000 2.1 230 17:18 18.03.2020
1165 Clouds 17 1025 48 10000 4.1 230 16:42 18.03.2020
1166 Clouds 17 1025 48 10000 4.1 220 16:20 18.03.2020
1167 Clouds 17 1025 48 10000 4.1 220 16:20 18.03.2020
1168 Clouds 17 1025 48 10000 4.1 220 15:57 18.03.2020
1169 Clouds 17 1026 51 10000 3.1 230 15:38 18.03.2020
1170 Clouds 17 1026 51 10000 2.1 270 15:20 18.03.2020
1171 Clouds 17 1026 51 10000 3.1 260 14:42 18.03.2020
1172 Clouds 16 1027 55 10000 2.6 240 14:21 18.03.2020
1173 Clouds 16 1027 59 10000 3.6 210 13:42 18.03.2020
1174 Clouds 16 1027 59 10000 3.6 260 13:19 18.03.2020
1175 Clouds 16 1028 59 10000 5.1 240 12:55 18.03.2020
1176 Clouds 15 1028 59 10000 5.1 240 12:37 18.03.2020
1177 Clouds 15 1028 62 10000 5.1 250 12:19 18.03.2020
1178 Clouds 14 1028 62 10000 5.1 250 11:38 18.03.2020
1179 Clouds 14 1028 67 10000 3.1 230 11:19 18.03.2020
1180 Clear 13 1028 71 10000 3.1 210 10:57 18.03.2020
1181 Clear 13 1028 71 10000 3.1 210 10:38 18.03.2020
1182 Clear 12 1028 71 10000 2.6 200 10:19 18.03.2020
1183 Clear 11 1029 76 10000 2.6 150 09:43 18.03.2020
1184 Clear 11 1029 76 10000 2.6 150 09:24 18.03.2020
1185 Clear 9 1029 75 10000 2.6 130 08:56 18.03.2020
1186 Clear 8 1029 75 10000 2.6 130 08:38 18.03.2020
1187 Clouds 8 1028 81 10000 1.5 130 08:20 18.03.2020
1188 Clouds 7 1028 86 10000 1 0 07:44 18.03.2020
1189 Clouds 7 1028 86 10000 1 0 07:26 18.03.2020
1190 Clouds 6 1028 93 10000 1.5 90 06:44 18.03.2020
1191 Clouds 6 1028 86 10000 3.6 160 06:22 18.03.2020
1192 Clouds 6 1028 75 10000 4.1 150 05:35 18.03.2020
1193 Clouds 6 1028 86 10000 1.5 140 04:25 18.03.2020
1194 Clouds 7 1029 75 10000 1 0 02:48 18.03.2020
1195 Clouds 7 1029 80 10000 1 0 01:48 18.03.2020
1196 Clouds 7 1029 80 10000 1 0 01:27 18.03.2020
1197 Clouds 8 1030 70 10000 1.5 70 00:25 18.03.2020
1198 Clouds 8 1030 75 10000 1 40 23:57 17.03.2020
1199 Clouds 8 1030 75 10000 1 40 23:37 17.03.2020
1200 Clouds 8 1030 75 10000 0.5 90 23:18 17.03.2020
1201 Clouds 9 1030 70 10000 0.5 0 22:41 17.03.2020
1202 Clouds 9 1030 65 10000 2.1 90 22:22 17.03.2020
1203 Clouds 9 1030 61 10000 1.5 80 21:42 17.03.2020
1204 Clouds 10 1030 57 10000 1.5 70 21:22 17.03.2020
1205 Clouds 10 1029 61 10000 1.5 230 20:56 17.03.2020
1206 Clouds 10 1030 58 10000 2.1 50 20:37 17.03.2020
1207 Clouds 10 1029 53 10000 1 0 20:18 17.03.2020
1208 Clouds 11 1029 45 10000 1 20 19:41 17.03.2020
1209 Clouds 12 1029 46 10000 1 0 19:18 17.03.2020
1210 Clouds 12 1029 46 10000 2.6 320 18:56 17.03.2020
1211 Clouds 12 1029 46 10000 2.6 320 18:38 17.03.2020
1212 Clouds 13 1029 44 10000 2.6 300 18:20 17.03.2020
1213 Clouds 15 1029 36 10000 2.1 310 17:41 17.03.2020
1214 Clouds 15 1029 36 10000 2.6 270 17:23 17.03.2020
1215 Clouds 15 1029 36 10000 2.6 270 16:57 17.03.2020
1216 Clouds 15 1029 38 10000 2.1 260 16:39 17.03.2020
1217 Clouds 15 1029 38 10000 3.1 260 16:18 17.03.2020
1218 Clouds 15 1029 36 10000 3.6 270 15:44 17.03.2020
1219 Clouds 15 1029 38 10000 2.1 0 15:22 17.03.2020
1220 Clouds 15 1030 44 10000 3.1 230 14:44 17.03.2020
1221 Clouds 15 1030 47 10000 3.6 260 14:25 17.03.2020
1222 Clouds 14 1030 47 10000 3.6 260 13:58 17.03.2020
1223 Clouds 14 1030 44 10000 3.6 250 13:39 17.03.2020
1224 Clouds 14 1030 50 10000 3.6 0 13:21 17.03.2020
1225 Clouds 13 1030 50 10000 3.6 230 12:44 17.03.2020
1226 Clouds 13 1031 50 10000 3.6 270 12:24 17.03.2020
1227 Clouds 12 1030 54 10000 3.1 240 11:55 17.03.2020
1228 Clouds 12 1030 54 10000 3.1 240 11:37 17.03.2020
1229 Clouds 12 1031 58 10000 2.1 300 11:19 17.03.2020
1230 Clouds 11 1030 58 10000 3.1 290 10:54 17.03.2020
1231 Clouds 11 1030 58 10000 3.1 290 10:36 17.03.2020
1232 Clouds 10 1031 62 10000 2.1 310 10:18 17.03.2020
1233 Clouds 10 1030 71 10000 2.1 280 09:44 17.03.2020
1234 Clouds 9 1030 76 10000 2.6 320 09:20 17.03.2020
1235 Clouds 9 1030 76 10000 2.1 330 08:51 17.03.2020
1236 Clouds 8 1029 76 10000 2.6 320 08:24 17.03.2020
1237 Clouds 7 1029 76 10000 2.6 320 07:58 17.03.2020
1238 Clouds 7 1029 76 10000 3.6 320 07:40 17.03.2020
1239 Clouds 7 1029 76 10000 2.6 310 07:19 17.03.2020
1240 Clouds 7 1028 81 10000 2.6 290 06:41 17.03.2020
1241 Clouds 8 1028 81 10000 2.6 320 06:19 17.03.2020
1242 Clouds 9 1027 81 10000 3.6 320 04:51 17.03.2020
1243 Clouds 9 1027 76 10000 3.6 310 03:26 17.03.2020
1244 Rain 10 1026 81 10000 2.1 310 01:50 17.03.2020
1245 Rain 10 1026 81 10000 2.1 310 01:30 17.03.2020
1246 Clouds 10 1025 81 10000 2.1 320 00:51 17.03.2020
1247 Clouds 10 1025 81 10000 2.1 310 23:53 16.03.2020
1248 Clouds 10 1025 81 10000 2.1 310 23:34 16.03.2020
1249 Rain 11 1024 81 10000 3.1 320 22:55 16.03.2020
1250 Rain 11 1024 81 10000 3.1 320 22:37 16.03.2020
1251 Rain 11 1024 76 10000 3.1 320 22:19 16.03.2020
1252 Rain 11 1024 76 10000 3.6 310 21:44 16.03.2020
1253 Rain 11 1024 76 10000 3.6 310 21:25 16.03.2020
1254 Rain 11 1023 76 10000 1.5 330 20:58 16.03.2020
1255 Rain 12 1023 76 10000 2.6 330 20:39 16.03.2020
1256 Clouds 12 1023 71 10000 1.5 350 20:20 16.03.2020
1257 Clouds 12 1022 62 10000 1.5 20 19:46 16.03.2020
1258 Rain 13 1022 66 10000 3.1 330 19:23 16.03.2020
1259 Clouds 13 1022 66 10000 3.1 330 18:59 16.03.2020
1260 Clouds 13 1021 62 10000 2.6 330 18:39 16.03.2020
1261 Clouds 14 1021 54 10000 3.1 310 18:19 16.03.2020
1262 Clouds 15 1021 48 10000 3.1 300 17:46 16.03.2020
1263 Clouds 15 1020 48 10000 2.1 290 17:25 16.03.2020
1264 Clouds 16 1020 45 10000 2.1 0 16:57 16.03.2020
1265 Clouds 16 1020 45 10000 2.1 0 16:39 16.03.2020
1266 Clouds 17 1020 42 10000 3.6 290 16:20 16.03.2020
1267 Clouds 17 1020 39 10000 1.5 0 15:43 16.03.2020
1268 Clouds 17 1020 42 10000 1.5 270 15:23 16.03.2020
1269 Clouds 16 1020 45 10000 1 0 14:47 16.03.2020
1270 Clouds 16 1020 45 10000 2.1 270 14:23 16.03.2020
1271 Clouds 16 1020 44 10000 2.6 330 13:51 16.03.2020
1272 Clouds 16 1019 48 10000 2.1 330 13:29 16.03.2020
1273 Clouds 16 1019 48 10000 2.1 330 12:58 16.03.2020
1274 Clouds 15 1019 51 10000 1.5 280 12:39 16.03.2020
1275 Clouds 15 1019 47 10000 1.5 160 12:20 16.03.2020
1276 Clouds 14 1019 50 10000 1 0 11:44 16.03.2020
1277 Clouds 13 1019 50 10000 1 0 11:26 16.03.2020
1278 Clouds 12 1019 58 10000 1 0 10:45 16.03.2020
1279 Clouds 11 1019 57 10000 2.1 140 10:25 16.03.2020
1280 Clouds 11 1019 57 10000 2.1 140 09:59 16.03.2020
1281 Clouds 11 1019 61 10000 2.1 160 09:38 16.03.2020
1282 Clouds 10 1018 61 10000 2.1 120 09:19 16.03.2020
1283 Clouds 9 1018 65 10000 1 0 08:43 16.03.2020
1284 Clouds 7 1017 80 10000 0.5 0 08:23 16.03.2020
1285 Clouds 6 1017 80 10000 0.5 0 07:44 16.03.2020
1286 Clouds 5 1016 81 10000 0.5 0 07:21 16.03.2020
1287 Clouds 5 1016 81 10000 1.5 50 06:46 16.03.2020
1288 Clouds 5 1015 81 10000 1.5 50 06:22 16.03.2020
1289 Clouds 6 1014 80 10000 0.5 0 04:53 16.03.2020
1290 Clouds 7 1014 65 10000 1.5 130 01:49 16.03.2020
1291 Clouds 8 1013 57 10000 2.6 120 00:49 16.03.2020
1292 Clouds 8 1013 57 10000 2.6 120 00:30 16.03.2020
1293 Clouds 8 1013 57 10000 2.1 110 23:42 15.03.2020
1294 Clouds 8 1013 61 10000 2.1 110 23:20 15.03.2020
1295 Clouds 9 1013 57 10000 2.6 90 22:42 15.03.2020
1296 Clouds 9 1013 57 10000 3.6 110 22:22 15.03.2020
1297 Clouds 9 1013 57 10000 3.6 110 21:55 15.03.2020
1298 Clouds 10 1013 57 10000 2.6 110 21:37 15.03.2020
1299 Clouds 10 1013 53 10000 2.1 120 21:18 15.03.2020
1300 Clouds 10 1013 57 10000 2.6 120 20:42 15.03.2020
1301 Clouds 11 1013 54 10000 2.6 120 20:20 15.03.2020
1302 Clouds 11 1013 54 10000 2.6 120 19:56 15.03.2020
1303 Clouds 12 1013 54 10000 3.1 130 19:38 15.03.2020
1304 Clouds 12 1013 58 10000 3.6 160 19:19 15.03.2020
1305 Clouds 13 1013 54 10000 3.6 180 18:55 15.03.2020
1306 Clouds 13 1013 54 10000 3.6 180 18:36 15.03.2020
1307 Clouds 14 1012 50 10000 5.1 190 18:18 15.03.2020
1308 Clouds 14 1012 47 10000 5.1 190 17:40 15.03.2020
1309 Clouds 14 1012 47 10000 5.7 180 17:20 15.03.2020
1310 Clouds 14 1013 47 10000 7.2 170 16:56 15.03.2020
1311 Clouds 14 1013 47 10000 7.2 170 16:38 15.03.2020
1312 Clouds 14 1013 47 10000 7.2 190 16:19 15.03.2020
1313 Clouds 14 1013 47 10000 6.2 200 15:43 15.03.2020
1314 Clouds 14 1013 47 10000 6.2 200 15:43 15.03.2020
1315 Clouds 14 1013 47 10000 6.2 200 15:25 15.03.2020
1316 Clouds 14 1013 47 10000 6.2 200 14:57 15.03.2020
1317 Clouds 14 1014 51 10000 7.2 190 14:38 15.03.2020
1318 Clouds 14 1014 51 10000 7.7 180 14:18 15.03.2020
1319 Clouds 14 1014 51 10000 7.7 180 14:18 15.03.2020
1320 Clouds 14 1014 54 10000 7.2 190 13:54 15.03.2020
1321 Clouds 14 1014 54 10000 7.2 190 13:36 15.03.2020
1322 Clouds 13 1015 54 10000 7.7 170 13:18 15.03.2020
1323 Clouds 13 1015 54 10000 7.7 170 13:18 15.03.2020
1324 Clouds 13 1015 54 10000 7.2 170 12:39 15.03.2020
1325 Clouds 13 1016 58 10000 6.7 170 12:21 15.03.2020
1326 Clouds 12 1016 62 10000 5.7 170 11:43 15.03.2020
1327 Clouds 12 1016 58 10000 6.2 180 11:24 15.03.2020
1328 Clouds 11 1017 57 10000 6.7 160 10:58 15.03.2020
1329 Clouds 11 1017 57 10000 6.7 160 10:39 15.03.2020
1330 Clouds 10 1017 61 10000 5.7 160 10:21 15.03.2020
1331 Clouds 10 1017 61 10000 5.7 160 09:45 15.03.2020
1332 Clouds 9 1017 61 10000 4.1 160 09:25 15.03.2020
1333 Clouds 8 1017 61 10000 4.1 160 08:59 15.03.2020
1334 Clouds 8 1017 61 10000 4.1 130 08:40 15.03.2020
1335 Clouds 7 1017 61 10000 5.1 130 08:19 15.03.2020
1336 Clouds 7 1017 65 10000 4.1 130 07:45 15.03.2020
1337 Clouds 6 1017 65 10000 4.1 140 07:21 15.03.2020
1338 Clouds 6 1017 70 10000 5.7 150 06:43 15.03.2020
1339 Clouds 6 1017 65 10000 3.6 130 05:48 15.03.2020
1340 Clouds 7 1017 70 10000 4.1 130 04:57 15.03.2020
1341 Clouds 7 1017 70 10000 5.1 150 04:38 15.03.2020
1342 Clouds 7 1018 70 10000 5.1 150 04:20 15.03.2020
1343 Clouds 7 1018 70 10000 5.7 150 03:19 15.03.2020
1344 Clouds 7 1019 70 10000 5.1 150 02:23 15.03.2020
1345 Clouds 7 1019 70 10000 4.6 140 00:59 15.03.2020
1346 Clouds 7 1019 75 10000 4.1 150 00:40 15.03.2020
1347 Clouds 7 1020 70 10000 4.1 160 00:19 15.03.2020
1348 Clouds 7 1020 65 10000 4.6 150 23:39 14.03.2020
1349 Clouds 8 1020 65 10000 4.1 140 23:20 14.03.2020
1350 Clouds 8 1020 70 10000 3.6 150 22:56 14.03.2020
1351 Clouds 8 1020 70 10000 3.6 150 22:38 14.03.2020
1352 Clouds 8 1020 65 10000 4.1 140 22:19 14.03.2020
1353 Clouds 8 1020 70 10000 4.1 140 21:55 14.03.2020
1354 Clouds 8 1020 70 10000 4.1 140 21:36 14.03.2020
1355 Clouds 8 1020 70 10000 4.1 140 21:36 14.03.2020
1356 Clouds 8 1020 70 10000 4.1 150 21:18 14.03.2020
1357 Clouds 8 1020 70 10000 4.1 150 20:58 14.03.2020
1358 Clouds 8 1020 65 10000 4.6 140 20:39 14.03.2020
1359 Rain 9 1020 65 10000 4.1 150 20:18 14.03.2020
1360 Rain 9 1020 65 10000 4.6 160 19:42 14.03.2020
1361 Rain 9 1020 65 10000 4.6 150 19:24 14.03.2020
1362 Rain 9 1020 57 10000 4.6 150 18:41 14.03.2020
1363 Rain 10 1020 61 10000 4.6 150 18:22 14.03.2020
1364 Rain 10 1019 57 10000 5.1 150 17:55 14.03.2020
1365 Clouds 10 1020 53 10000 5.1 130 17:37 14.03.2020
1366 Clouds 11 1020 53 10000 5.1 130 17:18 14.03.2020
1367 Clouds 11 1020 61 10000 4.1 160 16:40 14.03.2020
1368 Rain 11 1020 61 10000 2.6 0 16:22 14.03.2020
1369 Rain 11 1020 66 10000 2.1 170 15:52 14.03.2020
1370 Rain 11 1020 57 10000 5.1 150 15:25 14.03.2020
1371 Clouds 11 1020 57 10000 1 0 14:47 14.03.2020
1372 Clouds 11 1020 57 10000 1 0 14:24 14.03.2020
1373 Clouds 11 1020 57 10000 1 0 13:58 14.03.2020
1374 Clouds 11 1021 61 10000 1 0 13:39 14.03.2020
1375 Clouds 11 1021 66 10000 1.5 0 13:21 14.03.2020
1376 Rain 11 1021 57 10000 1.5 0 12:47 14.03.2020
1377 Clouds 10 1021 61 10000 3.6 170 12:27 14.03.2020
1378 Clouds 10 1021 66 10000 4.6 170 11:57 14.03.2020
1379 Clouds 10 1021 66 10000 4.6 170 11:38 14.03.2020
1380 Clouds 9 1021 66 10000 4.6 160 11:20 14.03.2020
1381 Clouds 9 1021 66 10000 4.6 160 11:20 14.03.2020
1382 Clouds 8 1022 75 10000 3.1 150 10:45 14.03.2020
1383 Clouds 7 1022 81 10000 3.6 140 10:27 14.03.2020
1384 Clouds 7 1022 81 10000 3.6 140 09:57 14.03.2020
1385 Clouds 6 1022 81 10000 3.1 130 09:39 14.03.2020
1386 Clouds 5 1022 86 10000 3.1 120 09:20 14.03.2020
1387 Clouds 4 1021 93 10000 2.1 120 08:45 14.03.2020
1388 Clouds 4 1021 93 10000 2.1 120 08:45 14.03.2020
1389 Clouds 3 1021 93 10000 2.1 100 08:23 14.03.2020
1390 Clouds 3 1021 93 10000 1.5 110 07:39 14.03.2020
1391 Clouds 2 1021 100 10000 1 0 07:20 14.03.2020
1392 Clouds 2 1021 93 10000 1 0 06:41 14.03.2020
1393 Clouds 3 1021 100 10000 1.5 60 05:58 14.03.2020
1394 Clouds 3 1021 93 10000 2.1 110 04:52 14.03.2020
1395 Clouds 4 1021 93 10000 1 0 03:25 14.03.2020
1396 Clouds 4 1021 93 10000 1 0 02:35 14.03.2020
1397 Clouds 4 1021 93 10000 2.1 150 01:39 14.03.2020
1398 Rain 5 1021 93 10000 1 0 00:23 14.03.2020
1399 Rain 5 1021 93 10000 1.5 180 23:42 13.03.2020
1400 Clouds 6 1021 93 10000 1.5 170 23:22 13.03.2020
1401 Clouds 5 1021 93 10000 2.1 170 22:41 13.03.2020
1402 Clouds 6 1021 93 10000 1.5 50 22:22 13.03.2020
1403 Clouds 6 1021 93 10000 1 0 21:40 13.03.2020
1404 Clouds 6 1021 87 10000 2.6 320 21:19 13.03.2020
1405 Clouds 6 1021 87 10000 0.5 0 20:42 13.03.2020
1406 Clouds 7 1020 87 10000 2.1 230 20:22 13.03.2020
1407 Rain 7 1020 87 10000 2.6 320 19:58 13.03.2020
1408 Rain 7 1020 87 10000 2.6 320 19:39 13.03.2020
1409 Rain 7 1020 81 10000 8.2 270 19:19 13.03.2020
1410 Rain 8 1019 87 10000 2.6 250 18:43 13.03.2020
1411 Rain 8 1019 87 10000 3.1 260 18:23 13.03.2020
1412 Rain 9 1019 57 10000 6.2 270 17:43 13.03.2020
1413 -273 0 0 0 0 0 17:21 13.03.2020
1414 Clouds 9 1019 57 10000 6.2 270 16:59 13.03.2020
1415 Clouds 9 1019 57 10000 7.7 270 16:39 13.03.2020
1416 Clouds 10 1019 53 10000 8.7 260 16:20 13.03.2020
1417 Clouds 10 1019 53 10000 8.2 270 15:46 13.03.2020
1418 Clouds 10 1018 53 10000 7.7 250 15:23 13.03.2020
1419 Clouds 9 1018 53 10000 8.2 250 14:59 13.03.2020
1420 Clouds 9 1018 53 10000 8.2 250 14:40 13.03.2020
1421 Rain 9 1019 61 10000 9.3 260 14:22 13.03.2020
1422 Rain 9 1018 61 10000 9.8 280 13:55 13.03.2020
1423 Rain 9 1018 61 10000 9.8 280 13:36 13.03.2020
1424 Rain 9 1019 61 10000 9.8 270 13:18 13.03.2020
1425 Clouds 9 1018 57 10000 10.3 260 12:39 13.03.2020
1426 Clouds 9 1018 57 10000 10.3 260 12:39 13.03.2020
1427 Clouds 9 1018 55 10000 10.8 260 12:20 13.03.2020
1428 Clouds 9 1018 57 10000 11.8 250 11:57 13.03.2020
1429 Clouds 8 1018 57 10000 11.8 250 11:37 13.03.2020
1430 Clouds 8 1018 61 10000 9.8 260 11:19 13.03.2020
1431 Clouds 8 1017 65 10000 9.8 260 10:47 13.03.2020
1432 Clouds 7 1017 61 10000 10.8 260 10:26 13.03.2020
1433 Clouds 7 1017 61 10000 10.8 260 09:56 13.03.2020
1434 Clouds 7 1017 70 10000 9.3 260 09:38 13.03.2020
1435 Clouds 7 1016 70 10000 8.7 260 09:20 13.03.2020
1436 Clouds 6 1016 70 10000 7.7 250 08:44 13.03.2020
1437 Clouds 6 1015 75 10000 7.7 240 08:22 13.03.2020
1438 Clouds 6 1015 75 10000 8.7 250 07:47 13.03.2020
1439 Clouds 6 1014 70 10000 7.7 240 07:28 13.03.2020
1440 Clouds 6 1014 70 10000 8.7 240 06:47 13.03.2020
1441 Clouds 6 1014 70 10000 8.7 240 06:26 13.03.2020
1442 Clouds 6 1014 70 10000 7.2 240 05:49 13.03.2020
1443 Clouds 6 1014 70 10000 7.2 240 05:20 13.03.2020
1444 Clouds 6 1014 70 10000 6.7 230 04:37 13.03.2020
1445 Clouds 6 1014 70 10000 6.2 230 03:31 13.03.2020
1446 Clouds 6 1014 70 10000 6.2 240 01:46 13.03.2020
1447 Clouds 6 1014 70 10000 7.2 240 01:19 13.03.2020
1448 Clouds 6 1014 75 10000 8.2 250 00:53 13.03.2020
1449 Clouds 6 1014 75 10000 8.2 240 00:24 13.03.2020
1450 Clouds 6 1014 75 10000 9.3 240 23:50 12.03.2020
1451 Clouds 6 1013 80 10000 6.2 240 23:27 12.03.2020
1452 Rain 6 1013 80 10000 6.2 250 22:56 12.03.2020
1453 Rain 6 1013 80 10000 6.2 250 22:38 12.03.2020
1454 Rain 6 1013 70 10000 6.2 250 22:20 12.03.2020
1455 Rain 7 1013 93 7000 12.3 270 21:43 12.03.2020
1456 Rain 8 1012 58 10000 5.1 250 21:25 12.03.2020
1457 Rain 8 1012 52 10000 4.1 240 20:57 12.03.2020
1458 Rain 8 1012 52 10000 4.1 240 20:37 12.03.2020
1459 Rain 8 1012 52 10000 4.1 240 20:37 12.03.2020
1460 Rain 8 1012 52 10000 3.6 250 20:18 12.03.2020
1461 Rain 8 1012 49 10000 4.6 260 19:39 12.03.2020
1462 Rain 8 1012 43 10000 8.7 270 19:20 12.03.2020
1463 Rain 9 1012 70 10000 6.7 260 18:44 12.03.2020
1464 Rain 9 1012 70 10000 7.7 250 18:24 12.03.2020
1465 Rain 10 1011 43 10000 6.2 260 17:57 12.03.2020
1466 Rain 10 1011 43 10000 6.2 260 17:38 12.03.2020
1467 Clouds 11 1012 40 10000 9.3 280 17:19 12.03.2020
1468 Clouds 11 1012 43 10000 8.7 260 16:55 12.03.2020
1469 Clouds 11 1012 43 10000 8.7 260 16:37 12.03.2020
1470 Clouds 12 1012 46 10000 8.2 260 16:18 12.03.2020
1471 Clouds 11 1012 43 10000 8.7 260 15:45 12.03.2020
1472 Clouds 11 1012 40 10000 9.3 270 15:26 12.03.2020
1473 Clouds 11 1013 46 10000 8.7 270 14:41 12.03.2020
1474 Clouds 11 1013 37 10000 10.8 280 14:23 12.03.2020
1475 Clouds 11 1013 43 10000 10.3 270 13:57 12.03.2020
1476 Clouds 11 1013 43 10000 10.3 270 13:36 12.03.2020
1477 Clouds 11 1012 54 10000 9.8 270 13:18 12.03.2020
1478 Clouds 11 1012 37 10000 10.8 260 12:41 12.03.2020
1479 Clouds 11 1012 50 10000 9.8 270 12:22 12.03.2020
1480 Clouds 10 1012 62 10000 9.3 260 11:57 12.03.2020
1481 Clouds 10 1012 62 10000 9.3 260 11:57 12.03.2020
1482 Clouds 10 1012 66 10000 10.8 280 11:38 12.03.2020
1483 Clouds 10 1012 66 10000 10.8 280 11:20 12.03.2020
1484 Clouds 10 1011 70 10000 8.7 260 10:58 12.03.2020
1485 Clouds 9 1011 70 10000 8.7 260 10:40 12.03.2020
1486 Clouds 9 1011 81 10000 10.3 280 10:22 12.03.2020
1487 Rain 9 1011 76 10000 12.3 280 09:46 12.03.2020
1488 Rain 9 1010 76 10000 10.8 270 09:27 12.03.2020
1489 Clouds 9 1009 76 10000 8.2 270 08:45 12.03.2020
1490 Clouds 10 1009 81 10000 9.8 260 08:20 12.03.2020
1491 Clouds 10 1008 81 10000 11.3 260 07:59 12.03.2020
1492 Clouds 10 1008 81 10000 11.3 260 07:41 12.03.2020
1493 Rain 10 1008 93 10000 11.8 280 07:21 12.03.2020
1494 -273 0 0 0 0 0 07:21 12.03.2020
1495 Clouds 11 1007 71 10000 7.7 230 05:55 12.03.2020
1496 Clouds 12 1007 71 10000 6.2 220 05:27 12.03.2020
1497 Clouds 13 1009 71 10000 6.7 220 02:43 12.03.2020
1498 Clouds 13 1009 71 10000 5.1 210 01:38 12.03.2020
1499 Clouds 13 1010 71 10000 6.2 210 01:20 12.03.2020
1500 Clouds 13 1010 76 10000 6.2 210 00:41 12.03.2020
1501 Clouds 13 1010 82 10000 4.6 200 23:56 11.03.2020
1502 Clouds 13 1011 82 10000 5.1 190 23:27 11.03.2020
1503 Clouds 13 1011 82 10000 4.1 190 22:55 11.03.2020
1504 Clouds 13 1011 82 10000 4.1 190 22:37 11.03.2020
1505 Clouds 13 1011 82 10000 4.1 190 22:18 11.03.2020
1506 Clouds 13 1011 82 10000 4.1 190 21:56 11.03.2020
1507 Clouds 13 1011 82 10000 4.1 190 21:37 11.03.2020
1508 Clouds 13 1012 82 10000 4.1 190 21:19 11.03.2020
1509 Clouds 12 1012 93 10000 3.1 190 20:55 11.03.2020
1510 Clouds 13 1012 82 10000 4.1 190 20:55 11.03.2020
1511 Clouds 12 1012 93 10000 3.1 190 20:55 11.03.2020
1512 Clouds 12 1012 93 10000 3.1 190 20:36 11.03.2020
1513 Clouds 12 1012 93 10000 3.1 170 20:18 11.03.2020
1514 Clouds 12 1013 93 10000 2.1 180 19:42 11.03.2020
1515 Clouds 12 1013 93 10000 2.1 180 19:24 11.03.2020
1516 Rain 12 1013 93 10000 2.1 240 18:57 11.03.2020
1517 Rain 13 1013 87 10000 4.6 240 18:37 11.03.2020
1518 Rain 13 1013 87 10000 4.6 240 18:18 11.03.2020
1519 Clouds 13 1013 87 10000 4.1 260 17:55 11.03.2020
1520 Clouds 13 1013 87 10000 4.1 240 17:37 11.03.2020
1521 Clouds 13 1013 87 10000 4.1 240 17:18 11.03.2020
1522 Rain 13 1013 93 10000 4.6 260 16:43 11.03.2020
1523 Rain 13 1013 93 10000 5.7 270 16:19 11.03.2020
1524 Drizzle 13 1013 93 3000 7.7 270 15:43 11.03.2020
1525 Drizzle 13 1013 93 3000 8.2 280 15:23 11.03.2020
1526 Drizzle 13 1013 93 3500 6.2 290 14:54 11.03.2020
1527 Drizzle 13 1013 93 3500 6.2 290 14:36 11.03.2020
1528 Drizzle 13 1013 100 2500 6.2 290 14:18 11.03.2020
1529 Drizzle 13 1013 100 2500 6.7 280 13:41 11.03.2020
1530 Drizzle 12 1013 100 2500 6.2 280 13:22 11.03.2020
1531 Drizzle 12 1013 100 2500 6.2 280 12:56 11.03.2020
1532 Drizzle 12 1013 93 2800 6.2 250 12:38 11.03.2020
1533 Drizzle 12 1012 100 6000 7.2 250 12:19 11.03.2020
1534 Drizzle 12 1012 100 2500 7.2 260 11:41 11.03.2020
1535 Drizzle 12 1012 87 6000 8.2 250 11:21 11.03.2020
1536 Clouds 12 1012 87 10000 7.7 250 10:49 11.03.2020
1537 Drizzle 12 1012 93 10000 7.7 250 10:21 11.03.2020
1538 Drizzle 12 1012 93 10000 7.7 250 10:21 11.03.2020
1539 Drizzle 12 1012 93 10000 7.7 250 10:00 11.03.2020
1540 Drizzle 12 1012 93 10000 8.7 250 09:41 11.03.2020
1541 Drizzle 12 1011 93 10000 8.7 250 09:22 11.03.2020
1542 Drizzle 12 1011 93 10000 8.7 250 09:22 11.03.2020
1543 Drizzle 12 1011 93 10000 7.7 250 08:44 11.03.2020
1544 Drizzle 12 1011 93 7000 8.2 250 08:26 11.03.2020
1545 Drizzle 11 1010 93 3000 6.7 260 07:48 11.03.2020
1546 Drizzle 12 1010 93 3500 5.1 260 07:22 11.03.2020
1547 Drizzle 12 1010 93 8000 7.2 280 06:53 11.03.2020
1548 Drizzle 12 1010 93 8000 7.2 280 06:35 11.03.2020
1549 Drizzle 12 1010 100 9000 5.7 270 05:33 11.03.2020
1550 Rain 12 1009 93 10000 7.7 270 03:39 11.03.2020
1551 Rain 13 1008 87 10000 9.3 260 01:57 11.03.2020
1552 Clouds 13 1008 87 10000 8.2 250 01:25 11.03.2020
1553 Clouds 13 1008 76 10000 8.2 260 00:45 11.03.2020
1554 Clouds 13 1008 82 10000 8.7 260 23:56 10.03.2020
1555 Clouds 13 1008 82 10000 8.7 260 23:55 10.03.2020
1556 Clouds 13 1008 82 10000 8.7 260 23:55 10.03.2020
1557 Clouds 13 1008 82 10000 8.7 260 23:55 10.03.2020
1558 Clouds 13 1008 82 10000 8.7 260 23:37 10.03.2020
1559 Clouds 13 1008 82 10000 7.7 260 23:18 10.03.2020
1560 Clouds 13 1008 82 10000 11.3 260 22:38 10.03.2020
1561 Clouds 13 1008 76 10000 9.3 270 22:19 10.03.2020
1562 Clouds 13 1007 82 10000 12.3 260 21:56 10.03.2020
1563 Clouds 13 1007 82 10000 12.3 260 21:38 10.03.2020
1564 Rain 13 1007 82 10000 7.2 270 21:19 10.03.2020
1565 Rain 13 1007 87 10000 8.7 260 20:57 10.03.2020
1566 Rain 13 1007 87 10000 8.7 260 20:38 10.03.2020
1567 Clouds 13 1007 82 10000 9.3 260 20:18 10.03.2020
1568 Clouds 13 1007 82 10000 9.3 260 19:56 10.03.2020
1569 Clouds 13 1007 82 10000 9.8 250 19:36 10.03.2020
1570 Clouds 13 1006 82 10000 7.7 250 19:18 10.03.2020
1571 Clouds 13 1006 82 10000 9.3 250 18:43 10.03.2020
1572 Clouds 13 1006 82 10000 9.3 250 18:25 10.03.2020
1573 Rain 13 1006 82 10000 8.2 250 17:57 10.03.2020
1574 Rain 13 1006 82 10000 8.2 250 17:38 10.03.2020
1575 Clouds 13 1006 87 10000 8.2 250 17:20 10.03.2020
1576 Clouds 12 1006 87 10000 8.2 260 16:38 10.03.2020
1577 Clouds 12 1006 93 6000 4.6 230 16:18 10.03.2020
1578 Clouds 12 1006 93 6000 4.6 220 15:55 10.03.2020
1579 Clouds 12 1006 93 6000 4.6 220 15:37 10.03.2020
1580 Rain 12 1006 87 10000 4.1 240 15:18 10.03.2020
1581 Rain 12 1006 93 10000 3.1 200 14:41 10.03.2020
1582 Rain 11 1006 100 10000 3.6 200 14:20 10.03.2020
1583 Rain 11 1006 100 10000 3.6 200 13:57 10.03.2020
1584 Rain 11 1006 93 10000 4.1 200 13:38 10.03.2020
1585 Rain 11 1007 93 10000 3.6 190 13:19 10.03.2020
1586 Rain 10 1007 100 10000 3.1 180 12:41 10.03.2020
1587 Rain 10 1007 93 10000 3.6 200 12:19 10.03.2020
1588 Rain 10 1007 93 10000 3.6 190 11:57 10.03.2020
1589 Rain 10 1007 93 10000 3.6 190 11:39 10.03.2020
1590 Rain 9 1007 87 10000 4.6 210 11:20 10.03.2020
1591 Rain 9 1007 87 10000 4.6 210 10:42 10.03.2020
1592 Rain 9 1007 93 10000 5.1 200 10:23 10.03.2020
1593 Rain 9 1007 93 10000 5.1 200 09:57 10.03.2020
1594 Rain 8 1007 87 10000 5.1 200 09:39 10.03.2020
1595 Rain 8 1007 87 10000 3.6 200 09:19 10.03.2020
1596 Rain 8 1007 87 10000 3.6 200 09:19 10.03.2020
1597 Clouds 8 1007 87 10000 4.1 170 08:51 10.03.2020
1598 Clouds 8 1007 87 10000 4.1 170 08:32 10.03.2020
1599 Drizzle 7 1007 87 7000 3.6 170 07:51 10.03.2020
1600 Drizzle 7 1007 87 7000 3.6 170 07:32 10.03.2020
1601 Rain 6 1008 87 10000 3.6 190 06:48 10.03.2020
1602 Rain 6 1008 87 10000 3.6 190 06:30 10.03.2020
1603 Rain 6 1007 87 10000 5.7 180 05:42 10.03.2020
1604 Rain 6 1008 81 10000 7.7 190 04:49 10.03.2020
1605 Rain 6 1009 87 10000 5.1 170 04:20 10.03.2020
1606 Rain 7 1011 75 10000 5.1 190 02:41 10.03.2020
1607 Clouds 7 1013 75 10000 5.1 180 01:30 10.03.2020
1608 Clouds 7 1013 75 10000 5.1 180 00:47 10.03.2020
1609 Clouds 7 1013 75 10000 5.1 180 00:27 10.03.2020
1610 Clouds 7 1015 75 10000 4.1 180 23:41 09.03.2020
1611 Rain 7 1015 75 10000 5.1 190 23:22 09.03.2020
1612 Clouds 7 1015 75 10000 4.6 200 22:55 09.03.2020
1613 Clouds 7 1015 75 10000 4.6 200 22:36 09.03.2020
1614 Clouds 7 1015 75 10000 5.1 200 22:18 09.03.2020
1615 Clouds 7 1016 75 10000 4.1 200 21:41 09.03.2020
1616 Clouds 7 1016 75 10000 4.1 200 21:21 09.03.2020
1617 Clouds 7 1016 75 10000 3.6 200 20:58 09.03.2020
1618 Clouds 7 1016 75 10000 3.6 200 20:39 09.03.2020
1619 Rain 7 1016 75 10000 3.1 220 20:20 09.03.2020
1620 Rain 7 1015 70 10000 3.6 230 19:45 09.03.2020
1621 Rain 8 1015 70 10000 4.1 220 19:26 09.03.2020
1622 Clouds 8 1015 70 10000 5.1 230 18:59 09.03.2020
1623 Clouds 8 1015 70 10000 5.1 230 18:40 09.03.2020
1624 Clouds 8 1015 61 10000 4.1 250 18:20 09.03.2020
1625 Clouds 9 1015 61 10000 4.6 250 17:58 09.03.2020
1626 Clouds 9 1015 61 10000 4.6 250 17:39 09.03.2020
1627 Clouds 9 1014 57 10000 4.6 280 17:20 09.03.2020
1628 Clouds 10 1014 61 10000 4.6 280 16:59 09.03.2020
1629 Clouds 10 1014 61 10000 4.6 280 16:41 09.03.2020
1630 Clouds 10 1014 61 10000 5.7 240 16:22 09.03.2020
1631 Clouds 10 1014 61 10000 5.7 240 15:58 09.03.2020
1632 Clouds 10 1014 61 10000 5.7 240 15:39 09.03.2020
1633 Clouds 10 1014 57 10000 6.7 260 15:21 09.03.2020
1634 Clouds 10 1014 57 10000 7.7 260 14:58 09.03.2020
1635 Clouds 9 1014 66 10000 8.7 270 14:38 09.03.2020
1636 Clouds 9 1014 66 10000 8.7 270 14:19 09.03.2020
1637 Rain 9 1014 61 10000 7.2 250 13:58 09.03.2020
1638 Clouds 9 1014 61 10000 7.2 260 13:39 09.03.2020
1639 Clouds 9 1014 66 10000 5.1 270 13:20 09.03.2020
1640 Clouds 9 1014 70 10000 6.7 260 12:44 09.03.2020
1641 Clouds 9 1013 70 10000 4.6 260 12:24 09.03.2020
1642 Rain 8 1013 75 10000 4.1 280 11:58 09.03.2020
1643 Clouds 8 1013 70 10000 7.2 270 11:40 09.03.2020
1644 Clouds 8 1013 75 10000 5.7 240 11:20 09.03.2020
1645 Clouds 8 1013 81 10000 4.6 240 10:55 09.03.2020
1646 Clouds 8 1013 81 10000 3.6 250 10:37 09.03.2020
1647 Clouds 7 1013 81 10000 3.6 250 10:18 09.03.2020
1648 Clouds 7 1012 81 10000 6.2 270 09:42 09.03.2020
1649 Rain 7 1012 87 10000 3.1 230 09:23 09.03.2020
1650 Rain 6 1012 87 10000 2.6 210 08:45 09.03.2020
1651 Clouds 6 1011 93 10000 2.6 210 08:27 09.03.2020
1652 Clouds 6 1011 93 10000 2.6 0 07:45 09.03.2020
1653 Rain 6 1011 93 10000 2.6 210 07:23 09.03.2020
1654 Rain 6 1010 93 10000 2.6 220 06:59 09.03.2020
1655 Rain 6 1010 93 10000 2.6 220 06:39 09.03.2020
1656 Rain 6 1010 93 10000 2.1 240 06:21 09.03.2020
1657 Rain 6 1010 81 10000 4.6 230 05:41 09.03.2020
1658 Clouds 7 1010 81 10000 4.1 250 04:57 09.03.2020
1659 Clouds 7 1010 81 10000 4.1 240 04:39 09.03.2020
1660 Clouds 7 1010 81 10000 4.1 240 04:19 09.03.2020
1661 Clouds 7 1010 81 10000 3.1 220 02:51 09.03.2020
1662 Rain 7 1010 87 10000 2.6 210 00:44 09.03.2020
1663 Rain 7 1010 93 10000 2.1 210 00:25 09.03.2020
1664 Rain 7 1010 81 10000 3.6 210 23:58 08.03.2020
1665 Clouds 7 1009 81 10000 3.1 210 23:38 08.03.2020
1666 Rain 7 1010 81 10000 2.6 200 23:18 08.03.2020
1667 Clouds 7 1009 87 10000 2.6 180 22:41 08.03.2020
1668 Clouds 7 1009 87 10000 2.6 180 22:41 08.03.2020
1669 Clouds 7 1009 87 10000 3.1 250 22:22 08.03.2020
1670 Rain 8 1009 93 10000 2.1 190 21:59 08.03.2020
1671 Rain 8 1009 93 10000 2.1 190 21:41 08.03.2020
1672 Clouds 8 1010 76 10000 6.2 190 21:20 08.03.2020
1673 Rain 8 1010 81 6000 6.7 210 20:58 08.03.2020
1674 Clouds 9 1010 76 10000 5.7 190 20:38 08.03.2020
1675 Clouds 9 1010 76 10000 5.7 200 20:20 08.03.2020
1676 Clouds 9 1010 76 10000 5.7 200 19:40 08.03.2020
1677 Clouds 9 1010 76 10000 4.6 200 19:20 08.03.2020
1678 Clouds 9 1010 76 10000 6.2 200 18:57 08.03.2020
1679 Clouds 9 1010 76 10000 5.1 200 18:38 08.03.2020
1680 Clouds 9 1011 76 10000 4.1 190 18:20 08.03.2020
1681 Rain 10 1011 66 10000 5.7 210 17:41 08.03.2020
1682 Rain 10 1011 66 10000 5.7 210 17:22 08.03.2020
1683 Rain 10 1011 66 10000 5.7 210 16:59 08.03.2020
1684 Rain 10 1011 66 10000 5.7 210 16:40 08.03.2020
1685 Rain 10 1011 66 10000 4.6 210 16:22 08.03.2020
1686 Rain 10 1011 62 10000 5.1 210 15:55 08.03.2020
1687 Rain 10 1011 62 10000 5.1 210 15:37 08.03.2020
1688 Rain 11 1012 58 10000 6.2 210 15:18 08.03.2020
1689 Clouds 11 1012 58 10000 7.7 190 14:40 08.03.2020
1690 Clouds 11 1012 58 10000 7.7 190 14:21 08.03.2020
1691 Clouds 11 1012 58 10000 7.7 190 13:55 08.03.2020
1692 Clouds 12 1012 58 10000 6.7 210 13:36 08.03.2020
1693 Clouds 11 1013 50 10000 8.2 220 13:18 08.03.2020
1694 Clouds 11 1014 58 10000 5.7 200 12:38 08.03.2020
1695 Clouds 11 1014 58 10000 5.7 200 12:18 08.03.2020
1696 Clouds 11 1013 54 10000 6.7 230 11:42 08.03.2020
1697 Clouds 10 1015 66 10000 5.7 180 11:23 08.03.2020
1698 Clouds 10 1015 70 10000 6.2 180 10:58 08.03.2020
1699 Clouds 10 1015 70 10000 6.2 180 10:40 08.03.2020
1700 Clouds 9 1015 70 10000 6.2 160 10:21 08.03.2020
1701 Clouds 8 1016 75 10000 5.1 170 09:40 08.03.2020
1702 Clouds 8 1016 75 10000 4.1 160 09:22 08.03.2020
1703 Clouds 7 1016 75 10000 4.6 160 08:49 08.03.2020
1704 Clouds 7 1016 75 10000 5.1 160 08:25 08.03.2020
1705 Clouds 7 1016 75 10000 4.6 160 07:50 08.03.2020
1706 Clouds 7 1016 70 10000 4.6 180 07:28 08.03.2020
1707 Clouds 7 1016 70 10000 4.6 180 06:54 08.03.2020
1708 Clouds 7 1016 70 10000 4.6 180 06:35 08.03.2020
1709 Clouds 7 1016 75 10000 4.1 160 05:58 08.03.2020
1710 Clouds 7 1017 75 10000 4.1 150 04:50 08.03.2020
1711 Clouds 7 1018 75 10000 3.6 150 03:27 08.03.2020
1712 Clouds 7 1018 70 10000 3.1 140 02:28 08.03.2020
1713 Clouds 7 1019 70 10000 3.1 170 01:22 08.03.2020
1714 Clouds 7 1019 70 10000 3.1 160 00:43 08.03.2020
1715 Clouds 7 1020 75 10000 3.6 150 00:24 08.03.2020
1716 Clouds 7 1020 75 10000 3.6 150 23:43 07.03.2020
1717 Rain 7 1020 75 10000 3.1 160 23:22 07.03.2020
1718 Clouds 7 1020 65 10000 3.6 180 22:40 07.03.2020
1719 Clouds 7 1020 65 10000 3.6 180 22:21 07.03.2020
1720 Clouds 7 1020 65 10000 3.6 170 21:49 07.03.2020
1721 Clouds 7 1020 70 10000 3.6 160 21:25 07.03.2020
1722 Clouds 7 1020 67 10000 2.6 170 20:42 07.03.2020
1723 Clouds 7 1020 61 10000 2.6 170 20:24 07.03.2020
1724 Clouds 7 1020 61 10000 2.6 170 20:24 07.03.2020
1725 Clouds 7 1020 60 10000 2.6 0 19:59 07.03.2020
1726 Clouds 7 1020 60 10000 2.6 0 19:41 07.03.2020
1727 Clear 7 1020 60 10000 2.6 190 19:21 07.03.2020
1728 Clear 8 1020 56 10000 2.1 200 18:44 07.03.2020
1729 Clear 8 1019 52 10000 2.6 220 18:25 07.03.2020
1730 Clear 9 1019 49 10000 4.6 240 17:57 07.03.2020
1731 Clear 9 1019 60 10000 3.6 250 17:39 07.03.2020
1732 Clear 9 1019 50 10000 3.6 250 17:19 07.03.2020
1733 Clear 9 1019 50 10000 5.1 260 16:43 07.03.2020
1734 Clear 9 1019 50 10000 3.1 250 16:43 07.03.2020
1735 Clear 9 1019 50 10000 5.1 260 16:24 07.03.2020
1736 Clouds 9 1019 50 10000 5.7 250 15:59 07.03.2020
1737 Clouds 9 1019 57 10000 5.1 270 15:41 07.03.2020
1738 Clouds 9 1019 50 10000 5.7 250 15:41 07.03.2020
1739 Clouds 9 1019 57 10000 5.1 270 15:21 07.03.2020
1740 Clouds 9 1019 57 10000 5.7 270 14:58 07.03.2020
1741 Clouds 9 1019 50 10000 6.2 270 14:40 07.03.2020
1742 Clouds 9 1019 54 10000 6.2 270 14:22 07.03.2020
1743 Clouds 8 1019 54 10000 5.1 270 13:42 07.03.2020
1744 Clouds 8 1019 57 10000 5.1 260 13:21 07.03.2020
1745 Clouds 8 1019 65 10000 6.2 260 12:58 07.03.2020
1746 Clouds 8 1019 70 10000 5.7 290 12:37 07.03.2020
1747 Clouds 8 1019 70 10000 5.7 290 12:18 07.03.2020
1748 Clouds 7 1019 70 10000 5.1 300 11:42 07.03.2020
1749 Clouds 7 1018 70 10000 4.1 280 11:23 07.03.2020
1750 Clouds 6 1018 81 10000 2.6 290 10:57 07.03.2020
1751 Clouds 6 1018 75 9000 5.1 280 10:38 07.03.2020
1752 Clouds 5 1018 86 10000 3.6 280 10:18 07.03.2020
1753 Clouds 5 1017 86 8000 4.1 280 09:40 07.03.2020
1754 Clouds 4 1017 86 10000 3.6 300 09:20 07.03.2020
1755 Clouds 4 1016 93 10000 1.5 310 08:58 07.03.2020
1756 Clouds 4 1017 93 5000 2.6 270 08:40 07.03.2020
1757 Clouds 3 1016 86 10000 2.1 300 08:20 07.03.2020
1758 Clouds 3 1015 86 10000 3.1 280 07:47 07.03.2020
1759 Clouds 3 1015 86 10000 2.1 270 07:21 07.03.2020
1760 Clouds 3 1014 93 10000 2.6 290 06:43 07.03.2020
1761 Clouds 3 1014 93 10000 2.6 290 06:25 07.03.2020
1762 Clouds 4 1014 93 10000 2.6 290 05:41 07.03.2020
1763 Clouds 4 1012 86 10000 3.1 310 03:57 07.03.2020
1764 Clouds 4 1011 86 10000 3.6 310 02:45 07.03.2020
1765 Clouds 4 1011 86 10000 3.6 320 02:18 07.03.2020
1766 Clouds 4 1010 86 10000 4.6 320 01:19 07.03.2020
1767 Clouds 4 1010 86 10000 4.1 290 00:37 07.03.2020
1768 Clouds 4 1009 86 10000 5.1 300 00:18 07.03.2020
1769 Clouds 4 1008 86 10000 4.6 300 23:41 06.03.2020
1770 Clouds 4 1008 86 10000 4.6 300 23:23 06.03.2020
1771 Clouds 4 1008 86 10000 4.1 280 22:46 06.03.2020
1772 Clouds 5 1007 80 10000 5.7 310 22:21 06.03.2020
1773 Clouds 5 1006 80 10000 5.7 310 21:50 06.03.2020
1774 Clouds 5 1006 75 10000 4.1 320 21:21 06.03.2020
1775 Rain 5 1005 75 10000 5.1 330 20:56 06.03.2020
1776 Clouds 5 1004 81 10000 3.6 300 20:36 06.03.2020
1777 Clouds 5 1004 81 10000 3.6 300 20:18 06.03.2020
1778 Rain 5 1005 80 10000 6.2 280 19:43 06.03.2020
1779 Rain 5 1003 86 10000 2.6 310 19:24 06.03.2020
1780 Rain 6 1003 81 10000 3.1 340 18:43 06.03.2020
1781 Clouds 6 1002 81 10000 4.1 330 18:21 06.03.2020
1782 Rain 6 1001 87 10000 4.6 320 17:57 06.03.2020
1783 Rain 6 1001 87 10000 4.6 320 17:39 06.03.2020
1784 Rain 6 1001 87 10000 5.1 290 17:21 06.03.2020
1785 Rain 6 1001 81 9000 4.6 290 16:57 06.03.2020
1786 Rain 6 1001 81 9000 4.6 290 16:39 06.03.2020
1787 Clouds 6 1000 87 10000 5.7 300 16:19 06.03.2020
1788 Rain 6 1000 81 9000 6.2 290 15:44 06.03.2020
1789 Rain 6 998 86 10000 8.7 310 15:24 06.03.2020
1790 Rain 6 998 86 10000 6.7 290 14:45 06.03.2020
1791 Clouds 5 997 86 10000 7.7 300 14:24 06.03.2020
1792 Clouds 5 997 80 10000 7.7 290 13:59 06.03.2020
1793 Clouds 5 996 86 10000 7.7 300 13:40 06.03.2020
1794 Clouds 5 996 86 10000 7.7 300 13:21 06.03.2020
1795 Clouds 5 996 86 10000 7.7 290 12:55 06.03.2020
1796 Clouds 5 996 86 10000 6.2 300 12:36 06.03.2020
1797 Clouds 5 995 86 10000 7.2 290 12:18 06.03.2020
1798 Clouds 5 994 86 10000 6.7 300 11:56 06.03.2020
1799 Clouds 5 994 93 10000 6.7 300 11:37 06.03.2020
1800 Clouds 4 994 93 10000 6.7 300 11:19 06.03.2020
1801 Clouds 4 992 93 10000 6.2 300 10:38 06.03.2020
1802 Clouds 4 992 93 10000 6.2 300 10:20 06.03.2020
1803 Rain 4 991 93 10000 7.7 300 09:54 06.03.2020
1804 Rain 4 991 93 10000 7.2 300 09:36 06.03.2020
1805 Rain 4 991 93 10000 7.2 300 09:18 06.03.2020
1806 Rain 4 990 86 0 7.7 290 08:41 06.03.2020
1807 Rain 4 989 93 10000 6.7 300 08:23 06.03.2020
1808 Rain 4 988 93 5000 6.7 310 07:47 06.03.2020
1809 Drizzle 5 987 100 2400 8.2 300 07:26 06.03.2020
1810 Drizzle 5 986 93 2500 6.2 300 06:53 06.03.2020
1811 Drizzle 5 988 93 2500 5.7 300 06:34 06.03.2020
1812 Drizzle 5 986 100 2500 5.1 300 05:42 06.03.2020
1813 Drizzle 5 985 93 8000 2.1 0 05:22 06.03.2020
1814 Drizzle 5 984 93 8000 2.6 160 04:55 06.03.2020
1815 Rain 6 985 100 9000 2.6 100 01:59 06.03.2020
1816 Rain 6 985 100 9000 2.1 110 01:39 06.03.2020
1817 Rain 6 985 100 9000 2.1 110 01:19 06.03.2020
1818 Clouds 6 985 93 10000 2.6 90 00:32 06.03.2020
1819 Clouds 6 986 93 10000 2.1 90 23:56 05.03.2020
1820 Rain 6 986 93 10000 3.6 100 23:38 05.03.2020
1821 Rain 6 986 93 10000 3.6 100 23:19 05.03.2020
1822 Rain 6 986 93 10000 4.1 90 22:40 05.03.2020
1823 Rain 6 986 93 10000 4.1 90 22:21 05.03.2020
1824 Rain 6 987 93 9000 4.6 110 21:57 05.03.2020
1825 Rain 6 987 93 9000 2.1 140 21:38 05.03.2020
1826 Rain 6 987 93 9000 2.1 140 21:20 05.03.2020
1827 Rain 6 987 93 10000 3.6 120 20:57 05.03.2020
1828 Rain 6 987 93 10000 3.6 120 20:39 05.03.2020
1829 Rain 6 987 87 10000 4.6 90 20:19 05.03.2020
1830 Rain 6 988 93 10000 4.1 90 19:58 05.03.2020
1831 Rain 6 988 93 10000 4.1 90 19:39 05.03.2020
1832 Rain 6 988 93 10000 4.1 90 19:18 05.03.2020
1833 Rain 6 989 93 10000 3.6 80 18:55 05.03.2020
1834 Rain 6 988 93 4500 6.2 90 18:36 05.03.2020
1835 Rain 6 990 93 10000 3.1 100 18:18 05.03.2020
1836 Rain 6 989 93 4500 2.6 110 17:42 05.03.2020
1837 Rain 6 990 87 10000 3.1 110 17:22 05.03.2020
1838 Rain 7 990 87 10000 4.1 100 16:57 05.03.2020
1839 Rain 7 991 87 10000 3.6 100 16:38 05.03.2020
1840 Rain 7 991 87 10000 3.6 100 16:19 05.03.2020
1841 Rain 7 991 87 7000 4.1 100 15:45 05.03.2020
1842 Rain 7 992 87 10000 4.6 110 15:23 05.03.2020
1843 Rain 7 993 87 10000 3.6 110 14:59 05.03.2020
1844 Rain 7 993 87 10000 3.6 110 14:41 05.03.2020
1845 Rain 7 992 87 6000 4.1 110 14:21 05.03.2020
1846 Rain 7 994 87 10000 5.1 120 13:56 05.03.2020
1847 Clouds 7 995 87 10000 4.1 120 13:38 05.03.2020
1848 Clouds 7 995 87 10000 4.1 120 13:19 05.03.2020
1849 Clouds 7 995 87 10000 3.6 110 12:42 05.03.2020
1850 Rain 7 996 93 10000 4.6 120 12:21 05.03.2020
1851 Rain 7 997 93 10000 4.1 120 11:57 05.03.2020
1852 Rain 7 997 87 10000 4.1 120 11:37 05.03.2020
1853 Rain 6 997 87 10000 4.1 120 11:19 05.03.2020
1854 Clouds 6 998 87 10000 4.6 130 10:58 05.03.2020
1855 Clouds 6 997 87 10000 4.1 110 10:40 05.03.2020
1856 Clouds 6 998 87 10000 4.6 130 10:40 05.03.2020
1857 Clouds 6 998 81 10000 4.1 110 10:21 05.03.2020
1858 Clouds 6 998 81 10000 4.1 110 10:21 05.03.2020
1859 Clouds 6 999 86 10000 4.1 120 09:59 05.03.2020
1860 Clouds 6 998 81 10000 4.1 120 09:40 05.03.2020
1861 Clouds 5 999 86 10000 4.1 120 09:19 05.03.2020
1862 Clouds 5 999 86 10000 3.6 120 08:42 05.03.2020
1863 Clouds 5 1000 93 10000 4.6 130 08:22 05.03.2020
1864 Clouds 5 1000 93 10000 3.1 120 07:44 05.03.2020
1865 Rain 4 1001 93 10000 4.1 130 07:21 05.03.2020
1866 Rain 4 1001 93 10000 4.6 130 06:45 05.03.2020
1867 Rain 4 1001 93 10000 4.6 130 06:45 05.03.2020
1868 Rain 4 1002 80 10000 4.6 130 06:21 05.03.2020
1869 Rain 4 1002 80 10000 4.6 130 05:37 05.03.2020
1870 Rain 4 1004 80 10000 4.1 120 04:25 05.03.2020
1871 Rain 4 1004 80 10000 3.6 120 03:58 05.03.2020
1872 Rain 5 1005 80 10000 4.1 130 03:18 05.03.2020
1873 Rain 5 1007 80 10000 2.6 120 01:28 05.03.2020
1874 Rain 5 1008 80 10000 2.6 140 00:58 05.03.2020
1875 Rain 5 1008 86 10000 3.1 140 00:23 05.03.2020
1876 Rain 5 1008 80 10000 1 0 23:41 04.03.2020
1877 Clouds 5 1009 75 10000 2.6 130 23:22 04.03.2020
1878 Clouds 5 1009 75 10000 2.6 130 22:57 04.03.2020
1879 Clouds 5 1009 75 10000 2.6 130 22:38 04.03.2020
1880 Clouds 5 1009 80 10000 3.1 130 22:19 04.03.2020
1881 Clouds 5 1009 75 10000 3.1 130 21:57 04.03.2020
1882 Clouds 5 1009 75 10000 2.6 130 21:38 04.03.2020
1883 Clouds 5 1009 75 10000 2.6 130 21:19 04.03.2020
1884 Clouds 5 1010 80 10000 2.1 140 20:54 04.03.2020
1885 Clouds 5 1009 80 10000 3.6 140 20:36 04.03.2020
1886 Clouds 5 1009 80 10000 3.6 140 20:18 04.03.2020
1887 Clouds 6 1010 80 10000 2.6 150 19:42 04.03.2020
1888 Clouds 6 1010 80 10000 2.6 150 19:22 04.03.2020
1889 Clouds 6 1010 80 10000 2.6 170 18:54 04.03.2020
1890 Clouds 7 1010 70 10000 3.6 200 18:36 04.03.2020
1891 Clouds 7 1010 70 10000 3.6 200 18:18 04.03.2020
1892 Clouds 7 1010 65 10000 2.1 190 17:54 04.03.2020
1893 Clouds 7 1010 70 10000 0.5 360 17:36 04.03.2020
1894 Clouds 8 1010 70 10000 0.5 360 17:18 04.03.2020
1895 Rain 8 1010 70 10000 4.6 280 16:42 04.03.2020
1896 Rain 8 1010 65 10000 8.7 230 16:23 04.03.2020
1897 Rain 8 1010 53 10000 4.1 230 15:57 04.03.2020
1898 Rain 9 1010 56 10000 5.1 260 15:38 04.03.2020
1899 Rain 9 1010 56 10000 5.1 260 15:19 04.03.2020
1900 Rain 9 1010 56 10000 5.1 260 15:19 04.03.2020
1901 Clouds 9 1011 61 10000 5.1 220 14:41 04.03.2020
1902 Rain 9 1011 57 10000 5.1 250 14:22 04.03.2020
1903 Rain 9 1011 57 10000 5.7 280 13:59 04.03.2020
1904 Clouds 9 1011 57 10000 5.7 280 13:40 04.03.2020
1905 Clouds 9 1011 57 10000 5.7 280 13:22 04.03.2020
1906 Clouds 9 1011 57 10000 6.2 290 12:59 04.03.2020
1907 Clouds 9 1011 61 10000 6.2 270 12:41 04.03.2020
1908 Clouds 9 1011 61 10000 4.6 280 12:23 04.03.2020
1909 Clouds 9 1011 65 10000 4.6 270 11:55 04.03.2020
1910 Clouds 8 1011 75 10000 4.1 270 11:37 04.03.2020
1911 Clouds 8 1011 75 10000 4.1 270 11:19 04.03.2020
1912 Clouds 7 1011 70 10000 6.2 250 10:44 04.03.2020
1913 Clouds 7 1011 81 10000 3.6 240 10:25 04.03.2020
1914 Clouds 6 1011 87 10000 5.1 250 09:58 04.03.2020
1915 Clouds 6 1011 81 10000 5.1 260 09:39 04.03.2020
1916 Clouds 6 1011 93 10000 4.1 240 09:19 04.03.2020
1917 Clouds 5 1011 86 10000 4.1 250 08:42 04.03.2020
1918 Rain 5 1011 93 10000 4.1 250 08:24 04.03.2020
1919 Rain 4 1010 93 10000 3.6 210 07:48 04.03.2020
1920 Rain 4 1010 93 10000 3.1 200 07:29 04.03.2020
1921 Rain 4 1010 93 10000 3.1 180 06:54 04.03.2020
1922 Rain 4 1010 93 10000 3.6 160 06:26 04.03.2020
1923 Rain 4 1010 93 10000 3.1 160 05:59 04.03.2020
1924 Rain 4 1010 93 10000 3.6 150 05:32 04.03.2020
1925 Clouds 3 1009 86 10000 3.1 150 03:58 04.03.2020
1926 Clear 3 1009 86 10000 2.6 220 03:37 04.03.2020
1927 Clouds 3 1009 84 10000 2.6 140 02:59 04.03.2020
1928 Clouds 3 1009 84 10000 3.1 140 02:31 04.03.2020
1929 Clouds 3 1009 80 10000 3.1 130 01:57 04.03.2020
1930 Rain 2 1009 82 10000 3.1 140 01:38 04.03.2020
1931 Rain 3 1009 82 10000 3.6 150 00:42 04.03.2020
1932 Clouds 3 1009 82 10000 3.6 150 00:24 04.03.2020
1933 Clouds 3 1008 82 10000 2.6 150 23:45 03.03.2020
1934 Clouds 3 1008 93 10000 3.1 150 23:27 03.03.2020
1935 Clouds 3 1008 93 10000 3.1 150 22:57 03.03.2020
1936 Rain 3 1008 86 10000 2.6 180 22:39 03.03.2020
1937 Rain 3 1008 86 10000 2.6 180 22:19 03.03.2020
1938 Rain 3 1008 93 10000 3.1 140 21:56 03.03.2020
1939 Clouds 3 1007 81 10000 2.6 210 21:37 03.03.2020
1940 Rain 4 1007 93 10000 2.1 130 21:18 03.03.2020
1941 Rain 4 1007 93 10000 2.1 150 20:41 03.03.2020
1942 Clouds 4 1007 93 10000 0.5 0 20:21 03.03.2020
1943 Clouds 4 1006 86 10000 2.1 160 19:59 03.03.2020
1944 Clouds 5 1006 67 10000 2.1 240 19:37 03.03.2020
1945 Clouds 5 1006 86 10000 1 0 19:19 03.03.2020
1946 Rain 5 1006 80 10000 6.2 300 18:59 03.03.2020
1947 Rain 5 1006 80 10000 6.2 300 18:41 03.03.2020
1948 Rain 6 1005 56 10000 2.6 230 18:21 03.03.2020
1949 Clouds 6 1004 56 10000 5.1 240 17:59 03.03.2020
1950 Rain 7 1004 80 10000 4.1 300 17:39 03.03.2020
1951 Rain 7 1004 80 10000 4.1 300 17:39 03.03.2020
1952 Rain 7 1004 61 10000 4.1 280 17:21 03.03.2020
1953 Rain 7 1003 61 10000 4.1 300 16:57 03.03.2020
1954 Clouds 8 1003 55 10000 3.1 290 16:38 03.03.2020
1955 Rain 8 1003 61 10000 4.1 320 16:19 03.03.2020
1956 Rain 8 1003 61 10000 3.6 260 15:57 03.03.2020
1957 Clouds 8 1003 55 10000 3.6 250 15:38 03.03.2020
1958 Clouds 8 1003 55 10000 3.6 250 15:18 03.03.2020
1959 Clouds 7 1003 55 10000 5.7 270 14:41 03.03.2020
1960 Clouds 8 1003 54 10000 3.6 250 14:41 03.03.2020
1961 Rain 7 1003 52 10000 6.2 240 14:19 03.03.2020
1962 Rain 7 1003 52 10000 6.2 240 13:57 03.03.2020
1963 Rain 7 1003 61 10000 6.2 230 13:39 03.03.2020
1964 Rain 7 1003 61 10000 6.2 230 13:20 03.03.2020
1965 Rain 7 1003 61 10000 6.2 220 12:47 03.03.2020
1966 Clouds 7 1003 65 10000 6.2 230 12:26 03.03.2020
1967 Clouds 6 1002 70 10000 4.6 230 11:58 03.03.2020
1968 Clouds 6 1002 70 10000 5.1 250 11:37 03.03.2020
1969 Clouds 6 1002 70 10000 5.1 250 11:18 03.03.2020
1970 Clouds 6 1002 75 10000 4.1 240 10:56 03.03.2020
1971 Clouds 5 1002 75 10000 4.1 240 10:37 03.03.2020
1972 Clouds 5 1002 75 10000 4.1 240 10:19 03.03.2020
1973 Clouds 4 1002 80 10000 1.5 200 09:44 03.03.2020
1974 Clouds 4 1002 86 10000 2.1 150 09:23 03.03.2020
1975 Clouds 3 1002 86 10000 2.1 140 08:58 03.03.2020
1976 Clouds 3 1001 86 10000 2.1 220 08:39 03.03.2020
1977 Clouds 3 1001 86 10000 2.1 220 08:21 03.03.2020
1978 Clouds 2 1001 86 10000 3.1 230 07:44 03.03.2020
1979 Clouds 2 1001 93 10000 0.5 0 07:23 03.03.2020
1980 Clouds 2 1000 100 10000 0.5 0 06:51 03.03.2020
1981 Clouds 3 1000 100 10000 0.5 0 06:25 03.03.2020
1982 Clouds 3 1000 93 10000 1 0 05:48 03.03.2020
1983 Clouds 3 1000 93 10000 2.1 270 05:29 03.03.2020
1984 Clouds 3 999 86 10000 3.6 250 04:37 03.03.2020
1985 Rain 5 996 87 10000 8.7 300 01:41 03.03.2020
1986 Rain 5 995 93 10000 6.2 290 00:59 03.03.2020
1987 Rain 5 996 93 10000 6.2 300 00:37 03.03.2020
1988 Rain 5 994 93 10000 5.1 290 00:18 03.03.2020
1989 Rain 6 994 93 9000 5.1 280 23:42 02.03.2020
1990 Rain 6 993 93 9000 2.6 280 23:23 02.03.2020
1991 Rain 6 993 93 9000 3.1 260 22:56 02.03.2020
1992 Rain 6 992 93 9000 2.1 270 22:37 02.03.2020
1993 Rain 6 992 93 9000 2.1 270 22:19 02.03.2020
1994 Rain 6 992 93 10000 2.1 150 21:42 02.03.2020
1995 Rain 6 992 93 10000 1.5 130 21:24 02.03.2020
1996 Rain 6 991 93 10000 2.1 140 20:59 02.03.2020
1997 Rain 6 991 93 7000 3.1 280 20:41 02.03.2020
1998 Rain 7 991 93 10000 2.6 140 20:22 02.03.2020
1999 Rain 7 991 93 10000 2.6 150 19:58 02.03.2020
2000 Rain 7 991 87 10000 2.6 150 19:39 02.03.2020
2001 Rain 7 991 87 10000 2.6 150 19:20 02.03.2020
2002 Rain 7 990 75 10000 5.7 170 18:56 02.03.2020
2003 Rain 7 990 87 6000 2.1 210 18:38 02.03.2020
2004 Rain 8 990 81 6000 2.6 200 18:18 02.03.2020
2005 Rain 8 989 66 10000 3.1 140 17:56 02.03.2020
2006 Rain 8 989 81 8000 4.6 190 17:38 02.03.2020
2007 Rain 8 989 70 10000 4.6 140 17:19 02.03.2020
2008 Clouds 9 988 61 10000 4.1 120 16:42 02.03.2020
2009 Rain 9 988 66 10000 3.6 110 16:23 02.03.2020
2010 Rain 9 988 66 10000 4.1 110 15:56 02.03.2020
2011 Rain 9 988 66 10000 4.1 110 15:56 02.03.2020
2012 Clouds 10 988 61 10000 3.1 140 15:38 02.03.2020
2013 Clouds 9 988 66 10000 2.6 120 15:18 02.03.2020
2014 Clouds 9 988 57 10000 3.1 160 14:39 02.03.2020
2015 Clouds 9 988 70 10000 3.6 110 14:19 02.03.2020
2016 Clouds 9 989 70 10000 4.1 110 13:55 02.03.2020
2017 Clouds 9 988 66 10000 4.6 150 13:36 02.03.2020
2018 Clouds 9 990 75 10000 6.2 140 13:18 02.03.2020
2019 Clouds 8 989 75 10000 4.6 130 12:41 02.03.2020
2020 Clouds 8 990 75 10000 7.2 140 12:19 02.03.2020
2021 Clouds 7 990 81 10000 4.1 130 11:39 02.03.2020
2022 Clouds 7 991 81 10000 5.7 120 11:21 02.03.2020
2023 Rain 6 991 80 10000 6.7 110 10:58 02.03.2020
2024 Clouds 6 990 81 10000 2.1 110 10:40 02.03.2020
2025 Rain 6 992 80 10000 5.1 120 10:40 02.03.2020
2026 Rain 6 992 80 10000 5.1 120 10:19 02.03.2020
2027 Rain 5 992 80 10000 5.7 120 09:53 02.03.2020
2028 Rain 5 992 80 10000 5.7 130 09:32 02.03.2020
2029 Clouds 5 992 86 10000 4.1 120 08:49 02.03.2020
2030 Clouds 4 992 93 10000 4.1 120 08:24 02.03.2020
2031 Clouds 4 992 86 10000 4.1 100 07:54 02.03.2020
2032 Clouds 4 991 80 10000 3.1 140 07:36 02.03.2020
2033 Clouds 3 993 93 10000 2.6 120 06:56 02.03.2020
2034 Clouds 3 993 86 10000 3.6 120 06:35 02.03.2020
2035 Clouds 3 994 86 10000 3.6 130 05:29 02.03.2020
2036 Clouds 3 994 93 10000 3.1 150 03:59 02.03.2020
2037 Clouds 4 995 86 10000 3.6 190 03:19 02.03.2020
2038 Clouds 4 995 86 10000 3.6 220 02:36 02.03.2020
2039 Clouds 4 994 86 10000 4.6 240 01:42 02.03.2020
2040 Rain 4 994 93 10000 4.1 240 01:23 02.03.2020
2041 Rain 4 993 100 10000 4.6 270 00:23 02.03.2020
2042 Rain 4 993 93 10000 3.6 290 23:56 01.03.2020
2043 Rain 4 993 93 10000 3.6 240 23:38 01.03.2020
2044 Rain 5 992 93 10000 5.1 310 23:19 01.03.2020
2045 Rain 5 992 93 10000 6.2 310 22:42 01.03.2020
2046 Rain 5 991 100 10000 4.1 330 22:19 01.03.2020
2047 Rain 5 991 93 10000 3.1 350 21:55 01.03.2020
2048 Rain 5 992 93 6000 4.6 300 21:37 01.03.2020
2049 Rain 5 991 100 10000 2.6 360 21:18 01.03.2020
2050 Rain 6 992 93 6000 1 320 20:43 01.03.2020
2051 Rain 6 992 93 10000 2.6 130 20:25 01.03.2020
2052 Rain 6 992 87 10000 6.2 160 19:55 01.03.2020
2053 Rain 7 992 81 10000 1.5 100 19:36 01.03.2020
2054 Rain 7 992 81 10000 1.5 100 19:18 01.03.2020
2055 Rain 8 992 75 10000 0.5 0 18:40 01.03.2020
2056 Rain 8 992 66 10000 2.6 180 18:20 01.03.2020
2057 Clouds 9 993 66 10000 4.6 190 17:58 01.03.2020
2058 Clouds 9 993 61 10000 4.6 190 17:40 01.03.2020
2059 Clouds 9 993 61 10000 4.6 190 17:21 01.03.2020
2060 Clouds 9 994 57 10000 4.1 200 16:57 01.03.2020
2061 Clouds 9 993 66 10000 3.6 180 16:39 01.03.2020
2062 Clouds 9 993 66 10000 3.6 180 16:39 01.03.2020
2063 Clouds 10 994 57 10000 6.7 220 16:18 01.03.2020
2064 Clouds 9 994 57 10000 6.7 220 16:18 01.03.2020
2065 Clouds 10 995 53 10000 6.2 220 15:57 01.03.2020
2066 Clouds 10 994 53 10000 6.7 220 15:39 01.03.2020
2067 Clouds 10 995 53 10000 6.7 230 15:20 01.03.2020
2068 Clouds 10 995 47 10000 8.2 220 14:57 01.03.2020
2069 Clouds 10 994 46 10000 6.2 230 14:39 01.03.2020
2070 Clouds 10 995 45 10000 9.8 220 14:20 01.03.2020
2071 Clouds 9 996 45 10000 10.3 220 13:56 01.03.2020
2072 Clouds 9 995 46 10000 8.2 210 13:38 01.03.2020
2073 Clouds 10 996 50 10000 9.8 220 13:19 01.03.2020
2074 Clouds 10 996 53 10000 10.3 230 12:44 01.03.2020
2075 Clouds 9 996 57 10000 8.7 220 12:23 01.03.2020
2076 Clouds 9 996 61 10000 7.7 220 11:58 01.03.2020
2077 Clouds 8 997 70 10000 7.7 230 11:39 01.03.2020
2078 Clouds 8 997 70 10000 7.7 230 11:19 01.03.2020
2079 Clouds 7 996 70 10000 5.7 220 10:56 01.03.2020
2080 Clouds 7 996 75 10000 5.1 210 10:36 01.03.2020
2081 Clouds 7 996 75 10000 5.1 210 10:18 01.03.2020
2082 Clouds 7 996 75 10000 5.1 200 09:42 01.03.2020
2083 Clouds 7 996 75 10000 5.1 200 09:42 01.03.2020
2084 Clouds 6 996 81 10000 3.6 180 09:23 01.03.2020
2085 Clouds 6 996 86 10000 3.6 200 08:46 01.03.2020
2086 Rain 6 996 86 10000 4.6 220 08:28 01.03.2020
2087 Rain 6 996 75 10000 8.2 230 07:57 01.03.2020
2088 Rain 6 996 75 10000 8.2 230 07:39 01.03.2020
2089 Clouds 6 996 65 10000 4.6 200 07:21 01.03.2020
2090 Clouds 6 996 65 10000 5.1 200 06:42 01.03.2020
2091 Clouds 6 996 75 10000 6.2 210 05:58 01.03.2020
2092 Rain 6 995 69 10000 6.2 220 03:38 01.03.2020
2093 Clouds 5 997 69 10000 4.6 210 02:23 01.03.2020
2094 Clouds 5 997 70 10000 5.1 210 01:46 01.03.2020
2095 Clouds 6 997 70 10000 4.6 210 01:20 01.03.2020
2096 Rain 6 995 82 10000 7.2 230 00:40 01.03.2020
2097 Clouds 6 996 65 10000 5.7 210 00:19 01.03.2020
2098 Clouds 5 996 82 10000 3.6 170 23:42 29.02.2020
2099 Clouds 6 996 63 10000 4.1 200 23:23 29.02.2020
2100 Clouds 6 995 63 10000 4.6 210 22:40 29.02.2020
2101 Clouds 5 996 63 10000 4.1 200 22:22 29.02.2020
2102 Clouds 6 996 63 10000 4.6 200 21:42 29.02.2020
2103 Clouds 6 996 63 10000 4.6 200 21:42 29.02.2020
2104 Clouds 6 996 63 10000 4.6 200 21:22 29.02.2020
2105 Clouds 6 995 63 10000 5.1 210 20:43 29.02.2020
2106 Rain 6 995 70 10000 5.1 210 20:21 29.02.2020
2107 Rain 6 995 70 10000 5.1 210 20:21 29.02.2020
2108 Rain 6 995 65 10000 5.7 230 19:56 29.02.2020
2109 Clouds 6 995 65 10000 7.7 230 19:38 29.02.2020
2110 Clouds 6 995 65 10000 7.7 230 19:19 29.02.2020
2111 Rain 7 994 64 10000 6.7 230 18:43 29.02.2020
2112 Rain 7 993 75 10000 8.2 250 18:24 29.02.2020
2113 Clouds 7 993 75 10000 8.2 240 17:57 29.02.2020
2114 Clouds 7 992 81 10000 8.2 260 17:39 29.02.2020
2115 Clouds 8 992 81 10000 8.2 260 17:20 29.02.2020
2116 Rain 8 992 81 10000 11.8 270 16:45 29.02.2020
2117 Rain 9 989 87 10000 10.8 240 16:22 29.02.2020
2118 Rain 10 989 62 10000 10.3 200 15:58 29.02.2020
2119 Rain 10 988 58 10000 10.8 210 15:40 29.02.2020
2120 Clouds 12 989 58 10000 8.2 210 15:21 29.02.2020
2121 Clouds 12 989 54 10000 7.2 170 14:42 29.02.2020
2122 -273 0 0 0 0 0 14:23 29.02.2020
2123 Clouds 13 991 50 10000 9.3 190 13:56 29.02.2020
2124 Clouds 13 990 54 10000 7.2 190 13:37 29.02.2020
2125 Clouds 13 992 50 10000 8.2 190 13:18 29.02.2020
2126 Clouds 13 992 62 10000 5.7 180 12:42 29.02.2020
2127 Clouds 12 993 66 10000 6.7 160 12:21 29.02.2020
2128 Clouds 12 993 71 10000 5.7 150 11:56 29.02.2020
2129 Clouds 11 993 71 10000 8.2 150 11:38 29.02.2020
2130 Clouds 11 993 71 10000 8.2 150 11:20 29.02.2020
2131 Clouds 11 994 76 10000 6.7 140 10:46 29.02.2020
2132 Clouds 10 995 71 10000 6.2 160 10:28 29.02.2020
2133 Clouds 10 996 71 10000 5.7 160 09:48 29.02.2020
2134 Clouds 9 996 71 10000 4.1 150 09:25 29.02.2020
2135 Clouds 9 997 81 10000 4.1 150 08:42 29.02.2020
2136 Clouds 8 997 81 10000 4.1 150 08:23 29.02.2020
2137 Clouds 8 998 81 10000 4.6 160 07:59 29.02.2020
2138 Clouds 8 998 76 10000 5.7 160 07:41 29.02.2020
2139 Clouds 8 998 76 10000 5.7 160 07:18 29.02.2020
2140 Clouds 8 999 76 10000 6.2 170 06:45 29.02.2020
2141 Clouds 8 999 81 10000 5.7 160 06:25 29.02.2020
2142 Clouds 8 1000 81 10000 5.7 170 05:47 29.02.2020
2143 Clouds 8 1001 81 10000 6.2 150 04:46 29.02.2020
2144 Clouds 8 1001 76 10000 4.1 190 03:43 29.02.2020
2145 Clouds 8 1002 87 10000 5.1 160 03:22 29.02.2020
2146 Clouds 7 1002 81 10000 3.1 210 02:39 29.02.2020
2147 Clouds 7 1002 81 10000 3.1 210 02:39 29.02.2020
2148 Clouds 7 1004 87 10000 4.1 160 01:26 29.02.2020
2149 Clouds 6 1005 86 10000 5.7 150 00:37 29.02.2020
2150 Clouds 5 1006 86 10000 5.7 160 23:56 28.02.2020
2151 Rain 5 1004 81 10000 5.1 200 23:37 28.02.2020
2152 Rain 5 1007 86 10000 6.2 160 23:19 28.02.2020
2153 Rain 5 1005 80 10000 4.1 180 22:41 28.02.2020
2154 Rain 4 1007 86 10000 5.1 150 22:19 28.02.2020
2155 Rain 4 1006 86 10000 4.6 170 21:42 28.02.2020
2156 Rain 4 1008 86 10000 9.8 160 21:21 28.02.2020
2157 Rain 4 1009 86 10000 7.7 160 20:56 28.02.2020
2158 Rain 4 1010 75 10000 9.8 170 20:38 28.02.2020
2159 Rain 4 1010 75 10000 9.8 170 20:19 28.02.2020
2160 Rain 4 1010 68 10000 8.2 160 19:56 28.02.2020
2161 Rain 5 1011 68 10000 7.7 160 19:37 28.02.2020
2162 Rain 5 1011 68 10000 7.7 160 19:19 28.02.2020
2163 Clouds 5 1012 68 10000 6.2 180 18:46 28.02.2020
2164 Rain 5 1012 68 10000 5.1 170 18:23 28.02.2020
2165 Rain 6 1013 68 10000 5.7 160 17:41 28.02.2020
2166 Clouds 6 1013 60 10000 6.2 160 17:23 28.02.2020
2167 Clouds 6 1013 60 10000 6.2 160 17:23 28.02.2020
2168 Clouds 6 1014 56 10000 5.1 200 16:56 28.02.2020
2169 Clouds 6 1015 56 10000 6.2 210 16:38 28.02.2020
2170 Clouds 6 1015 56 10000 6.2 210 16:19 28.02.2020
2171 Clouds 6 1015 56 10000 6.2 190 15:55 28.02.2020
2172 Clouds 6 1014 60 10000 5.7 200 15:37 28.02.2020
2173 Clouds 7 1016 56 10000 6.2 180 15:18 28.02.2020
2174 Clouds 6 1015 56 10000 4.6 200 14:42 28.02.2020
2175 Clouds 6 1016 60 10000 6.2 190 14:19 28.02.2020
2176 Clouds 6 1017 60 10000 6.2 200 13:58 28.02.2020
2177 Clouds 6 1016 60 10000 3.1 230 13:40 28.02.2020
2178 Clouds 6 1017 55 10000 5.1 190 13:19 28.02.2020
2179 Clouds 6 1018 55 10000 4.6 210 12:45 28.02.2020
2180 Clouds 6 1018 55 10000 4.1 220 12:27 28.02.2020
2181 Clouds 5 1018 55 10000 5.7 220 11:56 28.02.2020
2182 Clouds 5 1018 75 10000 5.1 220 11:37 28.02.2020
2183 Clouds 4 1018 75 10000 5.1 220 11:19 28.02.2020
2184 Clouds 3 1018 74 10000 3.1 210 10:43 28.02.2020
2185 Clouds 3 1018 74 10000 3.1 210 10:24 28.02.2020
2186 Clouds 3 1018 74 10000 3.6 240 09:49 28.02.2020
2187 Clouds 3 1018 74 10000 3.6 240 09:49 28.02.2020
2188 Clouds 3 1018 74 10000 3.6 240 09:49 28.02.2020
2189 Clouds 3 1018 74 10000 3.6 240 09:49 28.02.2020
2190 Clouds 3 1018 74 10000 3.6 240 09:49 28.02.2020
2191 Clouds 2 1018 74 10000 3.6 230 09:22 28.02.2020
2192 Clouds 2 1017 86 10000 2.1 230 08:59 28.02.2020
2193 Clouds 1 1017 86 10000 2.1 230 08:41 28.02.2020
2194 Clouds 1 1017 86 10000 2.6 210 08:20 28.02.2020
2195 Clouds 1 1017 86 10000 3.1 230 07:45 28.02.2020
2196 Clouds 1 1016 86 10000 4.6 240 07:25 28.02.2020
2197 Clouds 1 1016 85 10000 4.1 260 06:50 28.02.2020
2198 Clouds 1 1016 85 10000 3.6 250 06:29 28.02.2020
2199 Rain 1 1015 85 10000 4.1 260 05:29 28.02.2020
2200 Clouds 1 1014 82 10000 4.6 280 04:31 28.02.2020
2201 Clouds 2 1013 82 10000 5.1 280 02:48 28.02.2020
2202 Clouds 2 1012 80 10000 5.1 290 02:28 28.02.2020
2203 Clouds 2 1012 93 10000 6.2 290 01:46 28.02.2020
2204 Clouds 2 1009 93 10000 6.7 300 00:31 28.02.2020
2205 Clouds 2 1008 93 10000 7.2 290 23:47 27.02.2020
2206 Rain 2 1008 93 10000 7.7 300 23:22 27.02.2020
2207 Rain 1 1007 100 10000 6.7 300 22:58 27.02.2020
2208 Rain 2 1007 100 10000 6.7 300 22:39 27.02.2020
2209 Snow 1 1006 100 10000 5.7 290 22:21 27.02.2020
2210 Rain 1 1005 93 8000 7.7 290 21:42 27.02.2020
2211 Rain 1 1004 93 7000 6.2 290 21:23 27.02.2020
2212 Rain 1 1002 93 4000 5.7 310 20:59 27.02.2020
2213 Rain 1 1002 93 4000 5.7 310 20:41 27.02.2020
2214 Rain 1 1001 100 10000 4.6 320 20:23 27.02.2020
2215 Rain 1 1001 100 10000 4.6 320 20:23 27.02.2020
2216 Snow 1 1000 100 10000 3.6 330 19:57 27.02.2020
2217 Snow 1 998 100 10000 3.6 340 19:39 27.02.2020
2218 Snow 1 998 100 10000 3.6 340 19:20 27.02.2020
2219 Snow 1 997 100 9000 3.1 360 18:55 27.02.2020
2220 Snow 1 997 95 1200 3.1 340 18:37 27.02.2020
2221 Snow 1 997 95 1200 3.1 340 18:18 27.02.2020
2222 Snow 1 994 95 7000 3.6 40 17:54 27.02.2020
2223 Snow 1 994 95 3500 4.6 60 17:36 27.02.2020
2224 Rain 1 994 93 3500 4.6 60 17:18 27.02.2020
2225 Rain 1 993 93 2500 6.2 50 16:41 27.02.2020
2226 Rain 1 993 93 2500 6.2 50 16:41 27.02.2020
2227 Rain 2 993 100 6000 5.1 70 16:20 27.02.2020
2228 Rain 2 993 93 10000 5.7 80 15:59 27.02.2020
2229 Rain 2 993 93 10000 4.6 80 15:38 27.02.2020
2230 Rain 2 993 93 10000 4.6 80 15:20 27.02.2020
2231 Rain 2 992 93 3000 6.7 80 14:59 27.02.2020
2232 Rain 2 992 93 3000 6.7 80 14:38 27.02.2020
2233 Rain 2 992 93 8000 7.2 90 14:20 27.02.2020
2234 Rain 3 995 86 9000 4.6 110 13:43 27.02.2020
2235 Rain 3 997 93 10000 4.6 120 13:22 27.02.2020
2236 Rain 3 998 93 8000 5.7 140 12:57 27.02.2020
2237 Rain 4 999 80 10000 6.2 160 12:39 27.02.2020
2238 Rain 4 999 80 10000 6.2 160 12:19 27.02.2020
2239 Rain 4 1000 77 10000 5.7 180 11:45 27.02.2020
2240 Clouds 4 1000 73 10000 5.1 140 11:22 27.02.2020
2241 Clouds 4 1001 73 10000 5.1 140 10:55 27.02.2020
2242 Clouds 4 1002 73 10000 4.1 150 10:37 27.02.2020
2243 Clouds 4 1002 73 10000 4.1 150 10:18 27.02.2020
2244 Clouds 3 1003 73 10000 4.6 170 09:40 27.02.2020
2245 Clouds 3 1003 73 10000 4.6 170 09:22 27.02.2020
2246 Clouds 3 1004 73 10000 4.1 170 08:42 27.02.2020
2247 Clouds 2 1004 82 10000 4.1 180 08:23 27.02.2020
2248 Clouds 2 1004 82 10000 3.6 170 07:48 27.02.2020
2249 Clouds 2 1005 82 10000 3.6 170 07:28 27.02.2020
2250 Clouds 2 1005 82 10000 3.1 170 06:54 27.02.2020
2251 Clouds 2 1005 82 10000 2.6 170 06:19 27.02.2020
2252 Clouds 3 1006 86 10000 3.1 220 04:22 27.02.2020
2253 Clouds 2 1007 86 10000 3.1 220 02:54 27.02.2020
2254 Rain 2 1007 93 10000 5.1 240 00:59 27.02.2020
2255 Rain 2 1007 82 10000 4.1 240 00:37 27.02.2020
2256 Rain 2 1007 82 8000 8.2 260 23:41 26.02.2020
2257 Clouds 3 1007 86 10000 3.6 240 23:21 26.02.2020
2258 Clouds 3 1007 86 10000 4.1 240 22:59 26.02.2020
2259 Rain 3 1006 86 10000 5.7 250 22:40 26.02.2020
2260 Clouds 3 1006 86 10000 4.6 240 22:22 26.02.2020
2261 Clouds 3 1006 86 10000 4.1 250 21:59 26.02.2020
2262 Clouds 3 1006 86 10000 5.7 260 21:39 26.02.2020
2263 Clouds 3 1006 86 10000 5.7 260 21:19 26.02.2020
2264 Clouds 3 1006 76 10000 5.1 270 20:56 26.02.2020
2265 Clouds 3 1006 76 10000 5.1 270 20:38 26.02.2020
2266 Clouds 3 1005 86 10000 6.7 260 20:19 26.02.2020
2267 Clouds 3 1005 86 10000 6.7 260 19:55 26.02.2020
2268 Clouds 3 1005 80 10000 7.2 270 19:36 26.02.2020
2269 Clouds 3 1005 80 10000 7.2 270 19:18 26.02.2020
2270 Clouds 3 1004 80 10000 6.7 270 18:54 26.02.2020
2271 Clouds 3 1004 75 10000 8.7 260 18:36 26.02.2020
2272 Rain 4 1004 80 10000 7.7 280 18:18 26.02.2020
2273 Rain 4 1003 86 10000 5.7 290 17:40 26.02.2020
2274 Clouds 4 1003 80 10000 7.7 260 17:19 26.02.2020
2275 Rain 4 1003 80 10000 9.3 270 16:56 26.02.2020
2276 Rain 4 1002 80 10000 9.3 270 16:38 26.02.2020
2277 Clouds 4 1002 80 10000 9.3 270 16:20 26.02.2020
2278 Rain 4 1002 93 10000 5.1 270 15:44 26.02.2020
2279 Rain 4 1002 93 10000 5.1 270 15:44 26.02.2020
2280 Rain 4 1001 80 10000 7.7 270 15:26 26.02.2020
2281 Rain 4 1001 80 10000 7.2 280 14:43 26.02.2020
2282 Rain 4 1001 80 10000 9.3 280 14:24 26.02.2020
2283 Rain 4 1000 86 10000 8.7 280 13:58 26.02.2020
2284 Rain 4 1000 86 10000 7.7 280 13:39 26.02.2020
2285 Rain 4 1000 86 10000 7.7 280 13:18 26.02.2020
2286 Clouds 3 999 93 10000 6.7 280 12:39 26.02.2020
2287 Clouds 3 999 93 10000 6.7 280 12:19 26.02.2020
2288 Rain 3 999 80 10000 9.3 260 11:56 26.02.2020
2289 Rain 2 997 93 10000 9.3 270 11:37 26.02.2020
2290 Rain 2 997 93 10000 8.2 270 11:19 26.02.2020
2291 Rain 2 997 93 10000 8.2 270 10:41 26.02.2020
2292 Rain 2 997 93 10000 8.2 270 10:22 26.02.2020
2293 Rain 2 996 93 8000 8.2 260 09:56 26.02.2020
2294 Rain 2 996 95 10000 9.8 260 09:38 26.02.2020
2295 Rain 2 995 93 10000 9.3 260 09:18 26.02.2020
2296 Rain 1 995 93 8000 10.3 270 08:38 26.02.2020
2297 Rain 1 995 94 2500 9.3 260 08:19 26.02.2020
2298 Rain 1 994 94 2800 12.3 260 07:50 26.02.2020
2299 Rain 2 993 94 10000 11.3 250 07:29 26.02.2020
2300 Rain 2 993 69 10000 8.2 240 06:57 26.02.2020
2301 Rain 2 993 69 10000 8.2 240 06:39 26.02.2020
2302 Rain 2 993 69 10000 9.3 240 06:18 26.02.2020
2303 Clouds 2 993 69 10000 10.8 240 05:47 26.02.2020
2304 Clouds 3 994 69 10000 6.2 230 04:52 26.02.2020
2305 Clouds 4 994 68 10000 4.6 240 02:55 26.02.2020
2306 Clouds 4 994 75 10000 6.2 240 01:56 26.02.2020
2307 Clouds 4 995 80 10000 7.2 240 01:24 26.02.2020
2308 Rain 4 995 93 10000 3.6 170 00:38 26.02.2020
2309 Clouds 4 995 93 10000 3.6 170 00:19 26.02.2020
2310 Clouds 4 995 93 10000 3.6 150 23:41 25.02.2020
2311 Clouds 4 996 86 10000 2.1 180 23:21 25.02.2020
2312 Clouds 4 996 86 10000 3.1 200 22:56 25.02.2020
2313 Clouds 4 996 86 10000 3.6 200 22:36 25.02.2020
2314 Clouds 4 996 86 10000 3.6 200 22:18 25.02.2020
2315 Rain 4 997 93 10000 2.1 230 21:38 25.02.2020
2316 Rain 4 997 93 10000 2.1 230 21:20 25.02.2020
2317 Clouds 4 997 93 10000 5.1 240 20:57 25.02.2020
2318 Clouds 4 997 86 10000 4.1 230 20:38 25.02.2020
2319 Rain 4 998 93 10000 3.6 270 20:19 25.02.2020
2320 Rain 4 998 86 10000 4.6 290 19:45 25.02.2020
2321 Rain 4 997 93 10000 4.1 220 19:23 25.02.2020
2322 Rain 5 998 86 10000 5.1 260 18:59 25.02.2020
2323 Rain 5 998 86 10000 5.1 260 18:40 25.02.2020
2324 Rain 5 998 81 10000 3.6 270 18:21 25.02.2020
2325 Rain 6 999 75 10000 9.3 250 17:56 25.02.2020
2326 Clouds 7 999 81 10000 7.7 270 17:37 25.02.2020
2327 Rain 7 999 81 10000 7.7 270 17:18 25.02.2020
2328 Rain 8 999 70 6000 8.7 240 16:56 25.02.2020
2329 Clouds 9 999 50 10000 7.7 250 16:37 25.02.2020
2330 Clouds 9 1000 46 10000 9.8 270 16:19 25.02.2020
2331 Clouds 9 1000 46 10000 9.8 270 15:45 25.02.2020
2332 Clouds 10 1000 50 10000 8.2 280 15:20 25.02.2020
2333 Clouds 10 1000 46 10000 9.8 260 14:59 25.02.2020
2334 Clouds 9 1000 46 10000 9.8 260 14:39 25.02.2020
2335 Clouds 9 1001 46 10000 12.3 280 14:18 25.02.2020
2336 Clouds 9 1001 46 10000 12.3 280 14:18 25.02.2020
2337 Clouds 9 1001 53 10000 10.3 260 13:58 25.02.2020
2338 Clouds 9 1001 53 10000 10.3 260 13:40 25.02.2020
2339 Clouds 9 1001 53 10000 10.8 260 13:20 25.02.2020
2340 Rain 9 1001 66 10000 8.2 270 12:59 25.02.2020
2341 Clouds 9 1001 61 10000 10.8 260 12:39 25.02.2020
2342 Rain 9 1002 57 10000 7.7 270 12:20 25.02.2020
2343 Clouds 9 1001 61 10000 8.7 250 11:56 25.02.2020
2344 Clouds 9 1001 61 10000 9.3 270 11:37 25.02.2020
2345 Clouds 8 1002 61 10000 9.3 260 11:18 25.02.2020
2346 Clouds 8 1002 61 10000 9.3 260 10:42 25.02.2020
2347 Clouds 8 1002 65 10000 7.7 260 10:23 25.02.2020
2348 Clouds 8 1002 61 10000 9.8 260 09:57 25.02.2020
2349 Clouds 7 1002 65 10000 8.7 250 09:39 25.02.2020
2350 Clouds 7 1002 65 10000 8.7 250 09:18 25.02.2020
2351 Clouds 7 1002 70 10000 7.7 250 08:42 25.02.2020
2352 Clouds 7 1002 75 10000 8.2 250 08:24 25.02.2020
2353 Clouds 8 1002 75 10000 7.2 250 07:49 25.02.2020
2354 Clouds 8 1002 66 10000 6.7 270 07:25 25.02.2020
2355 Rain 8 1003 70 10000 7.7 270 06:57 25.02.2020
2356 Rain 8 1003 76 10000 7.7 270 06:25 25.02.2020
2357 Rain 9 1003 71 10000 9.8 270 05:23 25.02.2020
2358 Drizzle 10 1005 81 10000 6.7 240 02:38 25.02.2020
2359 Rain 11 1005 76 10000 7.2 250 00:59 25.02.2020
2360 Clouds 11 1006 76 10000 5.7 240 00:34 25.02.2020
2361 Clouds 11 1006 76 10000 4.6 230 23:57 24.02.2020
2362 Clouds 11 1006 76 10000 5.7 230 23:38 24.02.2020
2363 Clouds 11 1006 76 10000 5.7 230 23:19 24.02.2020
2364 Clouds 11 1007 76 10000 6.7 240 22:38 24.02.2020
2365 Clouds 11 1007 76 10000 6.7 240 22:19 24.02.2020
2366 Clouds 11 1006 76 10000 6.2 230 21:56 24.02.2020
2367 Clouds 11 1006 76 10000 6.2 230 21:38 24.02.2020
2368 Rain 11 1007 76 10000 8.2 240 21:19 24.02.2020
2369 Rain 11 1007 76 10000 8.7 230 20:57 24.02.2020
2370 Clouds 11 1006 76 10000 9.3 240 20:38 24.02.2020
2371 Clouds 11 1007 71 10000 8.2 240 20:19 24.02.2020
2372 Clouds 11 1007 66 10000 7.2 230 19:56 24.02.2020
2373 Clouds 11 1007 66 10000 7.7 220 19:37 24.02.2020
2374 Clouds 11 1007 66 10000 7.7 220 19:19 24.02.2020
2375 Clouds 11 1007 71 10000 7.2 220 18:42 24.02.2020
2376 Clouds 11 1007 71 10000 8.2 220 18:24 24.02.2020
2377 Clouds 11 1008 71 10000 8.7 240 17:57 24.02.2020
2378 Clouds 12 1008 76 10000 8.7 230 17:39 24.02.2020
2379 Clouds 12 1008 76 10000 8.7 230 17:19 24.02.2020
2380 Clouds 12 1009 76 10000 6.7 200 16:55 24.02.2020
2381 Clouds 11 1009 76 10000 6.7 200 16:37 24.02.2020
2382 Clouds 11 1009 76 10000 6.7 200 16:19 24.02.2020
2383 Clouds 11 1009 81 10000 7.2 180 15:57 24.02.2020
2384 Clouds 11 1011 87 10000 6.7 160 15:38 24.02.2020
2385 Clouds 10 1011 87 10000 6.7 160 15:20 24.02.2020
2386 Rain 10 1012 93 10000 6.7 150 14:55 24.02.2020
2387 Clouds 10 1013 87 10000 5.1 150 14:36 24.02.2020
2388 Clouds 9 1013 87 10000 5.1 150 14:18 24.02.2020
2389 Clouds 8 1014 87 10000 4.6 130 13:55 24.02.2020
2390 Clouds 7 1014 93 10000 6.2 140 13:36 24.02.2020
2391 Clouds 7 1014 93 10000 6.2 140 13:18 24.02.2020
2392 Clouds 6 1014 87 10000 4.1 140 12:41 24.02.2020
2393 Clouds 6 1015 93 10000 6.7 130 12:41 24.02.2020
2394 Drizzle 6 1016 100 4300 6.2 130 12:23 24.02.2020
2395 Drizzle 6 1016 100 4300 6.2 130 12:23 24.02.2020
2396 Rain 5 1018 93 4300 5.1 140 11:50 24.02.2020
2397 Rain 5 1019 93 7000 4.6 150 11:32 24.02.2020
2398 Rain 5 1019 93 10000 4.6 160 10:59 24.02.2020
2399 Rain 5 1019 93 10000 4.6 160 10:40 24.02.2020
2400 Rain 5 1020 80 10000 3.6 130 10:22 24.02.2020
2401 Rain 5 1020 80 10000 3.6 190 09:40 24.02.2020
2402 Rain 5 1021 75 10000 3.1 140 09:19 24.02.2020
2403 Rain 5 1022 75 10000 3.1 130 08:53 24.02.2020
2404 Rain 5 1022 80 10000 3.6 140 08:29 24.02.2020
2405 Clouds 4 1022 80 10000 2.6 130 07:56 24.02.2020
2406 Clouds 4 1023 80 10000 2.6 150 07:33 24.02.2020
2407 Clouds 4 1023 86 10000 2.6 140 06:53 24.02.2020
2408 Clouds 4 1023 73 10000 2.1 170 06:26 24.02.2020
2409 Clouds 4 1024 73 10000 1.5 0 05:46 24.02.2020
2410 Clouds 4 1024 73 10000 1.5 160 05:27 24.02.2020
2411 Clouds 4 1024 71 10000 2.1 260 02:58 24.02.2020
2412 Clouds 4 1024 71 10000 5.1 290 02:31 24.02.2020
2413 Clouds 5 1024 65 10000 4.6 290 01:40 24.02.2020
2414 Clouds 5 1024 70 10000 4.1 280 00:51 24.02.2020
2415 -273 0 0 0 0 0 00:21 24.02.2020
2416 Clouds 6 1023 75 10000 5.7 300 23:58 23.02.2020
2417 Clouds 6 1022 70 10000 4.6 300 23:38 23.02.2020
2418 Clouds 6 1022 70 10000 6.2 300 23:18 23.02.2020
2419 Clouds 6 1022 70 10000 6.2 300 22:54 23.02.2020
2420 Clouds 7 1021 70 10000 9.3 300 22:36 23.02.2020
2421 Clouds 7 1021 70 10000 9.3 300 22:18 23.02.2020
2422 Clouds 7 1021 70 10000 9.3 300 21:43 23.02.2020
2423 Clouds 7 1019 70 10000 10.3 320 21:19 23.02.2020
2424 Clouds 7 1018 81 10000 7.7 300 20:56 23.02.2020
2425 Clouds 8 1018 81 10000 7.2 300 20:37 23.02.2020
2426 Clouds 8 1018 81 10000 7.2 300 20:19 23.02.2020
2427 Clouds 8 1017 87 10000 8.2 310 19:55 23.02.2020
2428 Rain 8 1016 87 10000 11.3 310 19:36 23.02.2020
2429 Rain 8 1016 87 10000 11.3 310 19:18 23.02.2020
2430 Rain 8 1016 87 10000 11.3 310 19:18 23.02.2020
2431 Rain 9 1014 87 4500 12.9 320 18:54 23.02.2020
2432 Rain 9 1014 87 500 12.9 300 18:36 23.02.2020
2433 Rain 10 1014 87 500 12.9 300 18:18 23.02.2020
2434 Rain 11 1012 82 10000 12.9 270 17:54 23.02.2020
2435 Clouds 11 1012 87 10000 15.9 270 17:36 23.02.2020
2436 Clouds 12 1012 87 10000 11.3 260 17:18 23.02.2020
2437 Drizzle 12 1012 93 10000 11.3 260 16:42 23.02.2020
2438 Drizzle 12 1011 87 7000 11.8 260 16:23 23.02.2020
2439 Rain 12 1011 82 10000 14.4 260 15:56 23.02.2020
2440 Rain 12 1011 82 10000 14.4 260 15:37 23.02.2020
2441 Rain 12 1011 71 10000 14.4 260 15:19 23.02.2020
2442 Rain 12 1011 71 10000 13.9 260 14:55 23.02.2020
2443 Clouds 12 1011 71 10000 12.3 260 14:37 23.02.2020
2444 Clouds 12 1011 71 10000 12.3 260 14:19 23.02.2020
2445 Clouds 12 1011 71 10000 13.9 250 13:56 23.02.2020
2446 Clouds 12 1010 76 10000 17.5 250 13:38 23.02.2020
2447 Rain 12 1010 76 10000 17 250 13:19 23.02.2020
2448 Rain 12 1011 76 10000 12.3 240 12:41 23.02.2020
2449 Rain 12 1011 76 10000 12.3 240 12:21 23.02.2020
2450 Clouds 12 1012 76 10000 12.3 240 11:54 23.02.2020
2451 Rain 12 1010 76 8000 17.5 240 11:36 23.02.2020
2452 Rain 12 1012 76 10000 11.3 230 11:18 23.02.2020
2453 Rain 12 1012 76 10000 9.3 220 10:41 23.02.2020
2454 Clouds 12 1013 76 10000 9.3 210 10:23 23.02.2020
2455 Clouds 11 1013 81 10000 9.3 210 09:56 23.02.2020
2456 Rain 11 1011 71 10000 13.4 240 09:38 23.02.2020
2457 Clouds 10 1014 81 10000 6.2 180 09:20 23.02.2020
2458 Clouds 10 1014 93 10000 6.7 170 08:50 23.02.2020
2459 Rain 9 1015 93 10000 5.7 160 08:29 23.02.2020
2460 Rain 9 1017 93 10000 4.1 170 07:54 23.02.2020
2461 Rain 9 1015 87 10000 2.6 170 07:35 23.02.2020
2462 Rain 9 1019 87 10000 7.2 240 06:39 23.02.2020
2463 Rain 9 1020 87 10000 6.2 240 05:43 23.02.2020
2464 Rain 9 1021 87 10000 5.1 230 04:26 23.02.2020
2465 Rain 9 1022 87 10000 7.7 250 02:59 23.02.2020
2466 Rain 9 1022 87 10000 7.7 250 02:59 23.02.2020
2467 Rain 9 1022 76 10000 8.2 250 02:26 23.02.2020
2468 Clouds 9 1023 76 10000 8.7 260 01:24 23.02.2020
2469 Rain 10 1022 81 10000 8.7 250 00:46 23.02.2020
2470 Rain 10 1022 81 10000 9.3 260 00:24 23.02.2020
2471 Clouds 10 1022 81 10000 8.2 250 23:45 22.02.2020
2472 Clouds 10 1022 81 10000 8.7 250 23:26 22.02.2020
2473 Rain 10 1022 81 10000 9.8 260 22:57 22.02.2020
2474 Rain 10 1022 81 10000 7.7 260 22:38 22.02.2020
2475 Rain 10 1022 81 10000 7.7 260 22:18 22.02.2020
2476 Rain 10 1022 76 10000 9.3 250 21:41 22.02.2020
2477 Clouds 10 1022 76 10000 10.3 250 21:23 22.02.2020
2478 Drizzle 10 1022 81 10000 8.7 250 20:46 22.02.2020
2479 Rain 10 1022 76 10000 6.2 230 20:24 22.02.2020
2480 Clouds 10 1022 76 10000 6.2 230 19:58 22.02.2020
2481 Clouds 10 1022 76 10000 5.1 220 19:39 22.02.2020
2482 Clouds 10 1022 76 10000 5.1 220 19:20 22.02.2020
2483 Clouds 10 1021 76 10000 6.2 230 18:40 22.02.2020
2484 Clouds 10 1021 76 10000 8.7 230 18:22 22.02.2020
2485 Clouds 10 1021 76 10000 8.2 240 17:58 22.02.2020
2486 Clouds 10 1021 71 10000 7.2 230 17:39 22.02.2020
2487 Clouds 10 1021 76 10000 9.8 250 17:21 22.02.2020
2488 Clouds 9 1021 76 10000 8.2 260 16:57 22.02.2020
2489 Clouds 10 1021 71 10000 7.7 270 16:39 22.02.2020
2490 Clouds 10 1021 71 10000 7.7 270 16:20 22.02.2020
2491 Clouds 10 1021 71 10000 5.1 270 15:44 22.02.2020
2492 Clouds 10 1021 66 10000 5.7 250 15:25 22.02.2020
2493 Rain 10 1021 57 10000 5.7 230 14:56 22.02.2020
2494 Rain 10 1021 57 10000 5.7 230 14:38 22.02.2020
2495 Rain 10 1020 57 10000 4.6 210 14:19 22.02.2020
2496 Clouds 10 1020 50 10000 5.1 210 13:41 22.02.2020
2497 Clouds 10 1020 50 10000 6.2 200 13:19 22.02.2020
2498 Clouds 10 1021 50 10000 6.2 200 12:48 22.02.2020
2499 Clouds 10 1021 46 10000 6.7 210 12:24 22.02.2020
2500 Clouds 10 1020 43 10000 7.7 200 11:56 22.02.2020
2501 Clouds 10 1019 34 10000 6.7 220 11:38 22.02.2020
2502 Clouds 9 1021 39 10000 6.2 210 11:20 22.02.2020
2503 Clouds 9 1021 39 10000 6.7 210 10:42 22.02.2020
2504 Clouds 8 1021 45 10000 2.6 210 10:42 22.02.2020
2505 Clouds 8 1021 45 10000 2.6 210 10:21 22.02.2020
2506 Clouds 8 1021 65 10000 4.1 150 09:59 22.02.2020
2507 Clouds 8 1020 42 10000 6.7 220 09:40 22.02.2020
2508 Clouds 8 1022 70 10000 4.6 150 09:21 22.02.2020
2509 Clouds 7 1022 45 10000 5.1 140 08:51 22.02.2020
2510 Clouds 7 1022 45 10000 4.1 130 08:28 22.02.2020
2511 Clouds 6 1022 67 10000 5.7 140 07:58 22.02.2020
2512 Clouds 5 1021 52 10000 5.1 210 07:38 22.02.2020
2513 Clouds 5 1022 67 10000 5.7 140 07:18 22.02.2020
2514 Clouds 5 1022 67 10000 5.7 150 06:41 22.02.2020
2515 Clouds 5 1023 74 10000 6.2 150 04:44 22.02.2020
2516 Clouds 5 1024 74 10000 5.7 150 03:47 22.02.2020
2517 Clouds 6 1025 80 10000 4.6 170 02:38 22.02.2020
2518 Clouds 6 1025 80 10000 4.1 170 01:48 22.02.2020
2519 Clouds 6 1025 80 10000 4.1 180 01:29 22.02.2020
2520 Clouds 6 1025 70 10000 4.1 180 00:48 22.02.2020
2521 Clouds 6 1026 70 10000 5.1 190 00:29 22.02.2020
2522 Clouds 6 1026 65 10000 5.1 190 23:53 21.02.2020
2523 Clouds 6 1026 70 10000 4.6 180 23:26 21.02.2020
2524 Clouds 7 1026 70 10000 4.6 190 22:59 21.02.2020
2525 Clouds 7 1026 65 10000 3.1 210 22:40 21.02.2020
2526 Clouds 7 1027 70 10000 4.6 190 22:21 21.02.2020
2527 Clouds 7 1027 65 10000 3.6 200 21:55 21.02.2020
2528 Clouds 7 1027 65 10000 3.6 200 21:37 21.02.2020
2529 Clouds 7 1027 65 10000 3.6 200 21:18 21.02.2020
2530 Clouds 7 1027 65 10000 3.6 190 20:41 21.02.2020
2531 Clouds 7 1027 65 10000 4.1 190 20:23 21.02.2020
2532 Clouds 7 1026 61 10000 5.7 200 19:40 21.02.2020
2533 Clouds 7 1026 61 10000 5.7 200 19:20 21.02.2020
2534 Clouds 7 1026 65 10000 5.7 210 18:43 21.02.2020
2535 Rain 8 1026 65 10000 5.1 210 18:24 21.02.2020
2536 Clouds 8 1026 61 10000 6.7 230 17:57 21.02.2020
2537 Clouds 8 1026 57 10000 5.7 230 17:38 21.02.2020
2538 Clouds 8 1026 61 10000 6.7 230 17:19 21.02.2020
2539 Clouds 8 1026 57 10000 7.7 230 16:54 21.02.2020
2540 Clouds 9 1026 57 10000 7.2 220 16:36 21.02.2020
2541 Clouds 9 1026 57 10000 7.2 220 16:18 21.02.2020
2542 Clouds 9 1027 57 10000 8.2 230 15:40 21.02.2020
2543 Clouds 8 1027 57 10000 8.2 230 15:19 21.02.2020
2544 Clouds 8 1027 61 10000 7.2 230 14:44 21.02.2020
2545 Clouds 8 1027 61 10000 8.7 250 14:22 21.02.2020
2546 Clouds 8 1027 57 10000 7.2 250 13:59 21.02.2020
2547 Clouds 8 1028 61 10000 8.2 250 13:41 21.02.2020
2548 Clouds 8 1028 61 10000 8.2 250 13:21 21.02.2020
2549 Clouds 8 1027 65 10000 9.3 260 12:46 21.02.2020
2550 Clouds 8 1028 65 10000 7.2 250 12:27 21.02.2020
2551 Clouds 7 1027 65 10000 7.7 260 11:58 21.02.2020
2552 Clouds 7 1027 70 10000 6.2 240 11:38 21.02.2020
2553 Clouds 7 1027 70 10000 6.2 240 11:20 21.02.2020
2554 Clouds 6 1027 75 10000 5.1 240 10:55 21.02.2020
2555 Clouds 6 1027 75 10000 4.6 240 10:36 21.02.2020
2556 Clouds 5 1027 75 10000 4.6 230 10:18 21.02.2020
2557 Clouds 4 1026 66 10000 4.6 240 09:42 21.02.2020
2558 Clouds 4 1026 66 10000 4.6 240 09:23 21.02.2020
2559 Clouds 3 1026 66 10000 4.6 240 08:56 21.02.2020
2560 Clouds 3 1026 66 10000 5.1 240 08:37 21.02.2020
2561 Clouds 3 1026 71 10000 5.1 240 08:19 21.02.2020
2562 Clouds 3 1025 71 10000 5.7 240 07:55 21.02.2020
2563 Clouds 3 1025 71 10000 5.7 250 07:36 21.02.2020
2564 Clouds 3 1025 71 10000 5.7 250 07:18 21.02.2020
2565 Clouds 3 1025 71 10000 6.2 250 06:40 21.02.2020
2566 -273 0 0 0 0 0 06:21 21.02.2020
2567 Clouds 3 1024 80 10000 6.7 250 05:42 21.02.2020
2568 Clouds 4 1022 80 10000 5.7 260 04:30 21.02.2020
2569 Clouds 4 1022 80 10000 6.2 270 03:56 21.02.2020
2570 Clouds 4 1021 80 10000 5.7 280 03:22 21.02.2020
2571 Clouds 4 1019 80 10000 8.2 280 01:50 21.02.2020
2572 Clouds 4 1019 86 10000 8.7 280 01:23 21.02.2020
2573 Rain 4 1018 80 10000 8.2 280 00:41 21.02.2020
2574 Rain 4 1016 86 10000 8.7 280 00:22 21.02.2020
2575 Rain 4 1016 86 10000 6.2 290 23:43 20.02.2020
2576 Rain 5 1015 86 10000 10.8 270 23:23 20.02.2020
2577 Rain 5 1014 93 10000 7.2 280 22:56 20.02.2020
2578 Rain 5 1014 86 10000 9.8 280 22:37 20.02.2020
2579 Rain 5 1014 86 10000 9.8 280 22:19 20.02.2020
2580 Rain 6 1013 81 1300 13.4 290 21:55 20.02.2020
2581 Rain 6 1013 87 10000 9.8 280 21:37 20.02.2020
2582 Rain 7 1010 76 10000 7.2 210 21:19 20.02.2020
2583 Rain 8 1011 70 10000 6.2 210 20:54 20.02.2020
2584 Rain 8 1011 70 10000 6.2 200 20:36 20.02.2020
2585 Rain 8 1011 70 10000 6.2 200 20:18 20.02.2020
2586 Clouds 9 1012 70 10000 6.7 190 19:42 20.02.2020
2587 Clouds 9 1012 66 10000 6.2 190 19:24 20.02.2020
2588 Rain 9 1012 61 10000 7.2 210 18:59 20.02.2020
2589 Rain 9 1012 61 10000 6.7 200 18:39 20.02.2020
2590 Rain 9 1012 61 10000 6.7 200 18:19 20.02.2020
2591 Rain 9 1013 61 10000 5.7 210 17:41 20.02.2020
2592 Rain 10 1013 61 10000 5.7 210 17:23 20.02.2020
2593 Clouds 9 1014 61 10000 6.7 210 17:22 20.02.2020
2594 Clouds 9 1014 61 10000 6.7 210 17:22 20.02.2020
2595 Clouds 9 1014 61 10000 6.7 210 16:58 20.02.2020
2596 Clouds 9 1013 61 10000 4.6 210 16:40 20.02.2020
2597 Clouds 9 1014 61 10000 6.2 200 16:20 20.02.2020
2598 Clouds 9 1014 61 10000 6.7 210 15:59 20.02.2020
2599 Clouds 9 1014 61 10000 6.7 210 15:41 20.02.2020
2600 Clouds 10 1015 66 10000 6.7 200 15:20 20.02.2020
2601 Rain 9 1015 66 10000 7.2 210 14:55 20.02.2020
2602 Rain 9 1016 61 10000 6.2 220 14:36 20.02.2020
2603 Rain 9 1016 61 10000 6.2 220 14:18 20.02.2020
2604 Rain 9 1016 61 10000 6.2 220 14:18 20.02.2020
2605 Clouds 9 1016 66 10000 8.2 210 13:44 20.02.2020
2606 Clouds 9 1017 66 10000 5.7 220 13:20 20.02.2020
2607 Rain 9 1017 66 10000 6.7 220 12:57 20.02.2020
2608 Clouds 10 1017 66 10000 4.6 230 12:37 20.02.2020
2609 Clouds 9 1017 66 10000 4.6 230 12:19 20.02.2020
2610 Clouds 9 1017 66 10000 6.2 210 11:43 20.02.2020
2611 Clouds 9 1017 70 10000 5.7 200 11:23 20.02.2020
2612 Clouds 8 1018 81 10000 5.7 180 10:58 20.02.2020
2613 Rain 8 1018 81 10000 6.7 180 10:40 20.02.2020
2614 Rain 8 1018 81 10000 6.7 180 10:21 20.02.2020
2615 Rain 8 1018 81 10000 6.7 180 10:21 20.02.2020
2616 Clouds 8 1018 75 10000 6.7 190 09:47 20.02.2020
2617 Clouds 7 1018 81 10000 6.7 180 09:25 20.02.2020
2618 Clouds 7 1018 81 10000 5.7 180 08:59 20.02.2020
2619 Clouds 7 1018 81 10000 5.7 190 08:39 20.02.2020
2620 Clouds 7 1018 81 10000 5.7 190 08:21 20.02.2020
2621 Clouds 7 1018 81 10000 5.7 180 07:46 20.02.2020
2622 Clouds 7 1018 81 10000 6.2 180 07:26 20.02.2020
2623 Clouds 7 1018 81 10000 6.2 190 06:55 20.02.2020
2624 Clouds 7 1018 87 10000 5.1 190 06:30 20.02.2020
2625 Rain 7 1018 87 10000 4.6 170 05:47 20.02.2020
2626 Rain 6 1019 87 10000 3.6 160 05:18 20.02.2020
2627 Clouds 6 1019 86 10000 3.6 160 04:28 20.02.2020
2628 Clouds 6 1019 86 10000 3.6 160 03:40 20.02.2020
2629 Rain 6 1020 86 10000 3.6 150 02:45 20.02.2020
2630 Rain 5 1021 93 10000 3.1 150 01:21 20.02.2020
2631 Rain 5 1020 80 10000 3.1 190 00:35 20.02.2020
2632 Rain 5 1022 86 10000 2.6 180 23:55 19.02.2020
2633 Rain 5 1022 80 10000 2.6 200 23:24 19.02.2020
2634 Rain 5 1022 74 10000 3.1 180 22:59 19.02.2020
2635 Clouds 5 1022 69 10000 3.6 180 22:41 19.02.2020
2636 Clouds 5 1022 69 10000 3.6 180 22:41 19.02.2020
2637 Clouds 5 1022 69 10000 3.6 180 22:21 19.02.2020
2638 Clouds 5 1022 69 10000 4.1 170 21:57 19.02.2020
2639 Rain 5 1022 74 10000 3.6 220 21:38 19.02.2020
2640 Clouds 5 1022 80 10000 4.1 160 21:18 19.02.2020
2641 Clouds 4 1022 80 10000 4.1 160 21:18 19.02.2020
2642 Clouds 4 1022 74 10000 3.6 160 20:56 19.02.2020
2643 Clouds 4 1022 74 10000 3.6 160 20:37 19.02.2020
2644 Clouds 4 1022 69 10000 2.6 160 20:18 19.02.2020
2645 Clouds 4 1022 69 10000 2.1 200 19:56 19.02.2020
2646 Clouds 4 1022 64 10000 2.1 240 19:37 19.02.2020
2647 Clouds 5 1022 64 10000 3.6 260 19:18 19.02.2020
2648 Clouds 5 1022 64 10000 3.6 260 18:57 19.02.2020
2649 Clouds 5 1022 65 10000 4.6 260 18:39 19.02.2020
2650 Rain 6 1022 65 10000 4.6 260 18:20 19.02.2020
2651 Clouds 6 1022 56 10000 7.2 270 17:44 19.02.2020
2652 Clouds 7 1022 56 10000 8.7 260 17:20 19.02.2020
2653 Clouds 7 1022 61 10000 6.2 270 16:56 19.02.2020
2654 Clouds 7 1022 56 10000 9.3 270 16:37 19.02.2020
2655 Clouds 7 1022 56 10000 9.3 270 16:18 19.02.2020
2656 Clouds 7 1021 61 10000 8.2 280 15:43 19.02.2020
2657 Clouds 7 1021 61 10000 7.7 270 15:24 19.02.2020
2658 Clouds 7 1021 61 10000 8.7 270 14:57 19.02.2020
2659 Clouds 7 1021 61 10000 8.7 270 14:39 19.02.2020
2660 Clouds 7 1021 56 10000 10.3 290 14:21 19.02.2020
2661 Rain 7 1021 65 10000 8.7 270 13:41 19.02.2020
2662 Rain 7 1020 70 10000 8.2 280 13:22 19.02.2020
2663 Clouds 7 1020 70 10000 8.7 280 12:55 19.02.2020
2664 Clouds 6 1020 70 10000 9.3 280 12:37 19.02.2020
2665 Clouds 6 1020 70 10000 9.3 280 12:18 19.02.2020
2666 Clouds 6 1020 70 10000 9.8 280 11:39 19.02.2020
2667 Clouds 6 1019 70 10000 9.8 280 11:20 19.02.2020
2668 Clouds 6 1019 80 10000 7.7 290 10:58 19.02.2020
2669 Clouds 5 1019 80 10000 8.7 270 10:38 19.02.2020
2670 Clouds 5 1018 80 10000 7.2 280 10:20 19.02.2020
2671 Clouds 5 1018 80 10000 7.7 280 09:59 19.02.2020
2672 Clouds 5 1018 80 10000 7.7 280 09:38 19.02.2020
2673 Clouds 4 1018 80 10000 7.2 280 09:19 19.02.2020
2674 Rain 4 1017 80 10000 7.2 280 08:47 19.02.2020
2675 Rain 4 1016 80 10000 7.2 280 08:24 19.02.2020
2676 Clouds 4 1016 86 10000 7.2 280 07:54 19.02.2020
2677 Rain 4 1016 86 8000 6.2 310 07:36 19.02.2020
2678 Rain 4 1016 86 10000 7.7 320 07:18 19.02.2020
2679 Rain 4 1014 86 10000 10.8 260 06:36 19.02.2020
2680 Rain 5 1014 86 10000 6.7 260 04:59 19.02.2020
2681 Rain 6 1013 75 10000 5.7 200 03:50 19.02.2020
2682 Clouds 7 1015 75 10000 5.7 190 02:35 19.02.2020
2683 Clouds 7 1016 65 10000 6.7 200 01:38 19.02.2020
2684 Clouds 7 1016 65 10000 6.7 200 01:20 19.02.2020
2685 Clouds 7 1016 70 10000 4.6 210 00:39 19.02.2020
2686 Clouds 7 1018 70 10000 6.7 210 00:19 19.02.2020
2687 Clouds 7 1019 70 10000 4.6 200 23:39 18.02.2020
2688 Clouds 7 1019 70 10000 4.6 200 23:19 18.02.2020
2689 Clouds 7 1019 70 10000 4.6 200 23:19 18.02.2020
2690 Clouds 7 1020 70 10000 4.1 200 22:55 18.02.2020
2691 Clouds 7 1020 70 10000 4.1 190 22:36 18.02.2020
2692 Clouds 7 1020 70 10000 4.1 190 22:18 18.02.2020
2693 Clouds 7 1020 70 10000 4.6 190 21:54 18.02.2020
2694 Clouds 7 1021 75 10000 4.6 200 21:36 18.02.2020
2695 Clouds 7 1021 75 10000 4.6 200 21:36 18.02.2020
2696 Clouds 7 1021 75 10000 4.6 200 21:18 18.02.2020
2697 Clouds 7 1021 75 10000 4.1 190 20:40 18.02.2020
2698 Rain 7 1021 75 10000 4.1 190 20:22 18.02.2020
2699 Rain 7 1021 75 10000 4.1 180 19:59 18.02.2020
2700 Clouds 7 1021 65 10000 3.6 210 19:41 18.02.2020
2701 Rain 7 1022 75 10000 3.1 190 19:19 18.02.2020
2702 Clouds 7 1022 70 10000 4.1 210 18:55 18.02.2020
2703 Clouds 7 1022 65 10000 6.7 230 18:37 18.02.2020
2704 Clouds 7 1022 65 10000 6.7 230 18:18 18.02.2020
2705 Clouds 8 1022 65 10000 4.6 220 17:40 18.02.2020
2706 Clouds 8 1022 65 10000 7.7 250 17:19 18.02.2020
2707 Clouds 8 1022 61 10000 7.7 250 16:40 18.02.2020
2708 Clouds 8 1022 65 10000 6.7 230 16:22 18.02.2020
2709 Clouds 8 1022 65 10000 7.2 230 15:56 18.02.2020
2710 Clouds 8 1022 65 10000 7.2 230 15:56 18.02.2020
2711 Rain 8 1022 65 10000 9.3 230 15:37 18.02.2020
2712 Rain 8 1022 65 10000 9.3 230 15:18 18.02.2020
2713 Rain 8 1022 61 10000 8.2 220 14:56 18.02.2020
2714 Rain 8 1022 61 10000 8.2 220 14:37 18.02.2020
2715 Rain 8 1023 61 10000 9.8 250 14:19 18.02.2020
2716 Clouds 8 1023 61 10000 8.2 230 13:41 18.02.2020
2717 Clouds 8 1023 61 10000 8.2 230 13:21 18.02.2020
2718 Clouds 8 1023 61 10000 9.3 220 12:55 18.02.2020
2719 Clouds 8 1023 61 10000 8.2 240 12:37 18.02.2020
2720 Rain 8 1023 65 10000 8.7 230 12:19 18.02.2020
2721 Rain 7 1023 65 10000 8.2 230 11:42 18.02.2020
2722 Rain 7 1023 65 10000 8.2 230 11:42 18.02.2020
2723 Clouds 7 1024 65 10000 7.7 240 11:24 18.02.2020
2724 Clouds 7 1023 65 10000 6.7 230 10:55 18.02.2020
2725 Clouds 7 1023 65 10000 5.7 220 10:37 18.02.2020
2726 Clouds 6 1023 65 10000 5.7 220 10:18 18.02.2020
2727 Clouds 6 1023 65 10000 5.7 230 09:55 18.02.2020
2728 Clouds 6 1023 70 10000 5.1 230 09:36 18.02.2020
2729 Clouds 6 1023 70 10000 5.1 230 09:18 18.02.2020
2730 Clouds 6 1023 70 10000 6.2 240 08:42 18.02.2020
2731 Clouds 6 1022 70 10000 7.2 240 08:21 18.02.2020
2732 Clouds 6 1022 75 10000 6.7 240 07:56 18.02.2020
2733 Clouds 6 1022 75 10000 7.2 240 07:33 18.02.2020
2734 Clouds 6 1022 75 10000 7.7 250 06:57 18.02.2020
2735 Clouds 6 1021 70 10000 6.2 250 06:39 18.02.2020
2736 Clouds 6 1021 75 10000 7.2 240 06:19 18.02.2020
2737 Clouds 6 1021 75 10000 6.7 230 05:33 18.02.2020
2738 Rain 7 1020 75 10000 10.3 250 04:28 18.02.2020
2739 Clouds 7 1020 70 10000 5.7 230 03:31 18.02.2020
2740 Clouds 7 1019 75 10000 6.2 230 01:59 18.02.2020
2741 Clouds 7 1019 75 10000 6.2 230 01:19 18.02.2020
2742 Clouds 7 1018 70 10000 8.2 240 00:22 18.02.2020
2743 Rain 7 1018 70 10000 7.7 250 23:57 17.02.2020
2744 Clouds 7 1017 70 10000 7.2 240 23:38 17.02.2020
2745 Clouds 8 1017 70 10000 7.2 240 23:19 17.02.2020
2746 Rain 8 1017 70 10000 8.2 250 22:41 17.02.2020
2747 Rain 8 1017 70 10000 6.7 240 22:21 17.02.2020
2748 Clouds 8 1016 70 10000 3.6 200 21:59 17.02.2020
2749 Rain 8 1015 70 10000 11.3 250 21:38 17.02.2020
2750 Clouds 7 1016 75 10000 3.6 190 21:18 17.02.2020
2751 Clouds 7 1015 80 10000 3.6 160 20:42 17.02.2020
2752 Clouds 7 1015 80 10000 3.6 160 20:21 17.02.2020
2753 Clouds 7 1015 80 10000 3.6 160 20:21 17.02.2020
2754 Rain 7 1015 80 10000 3.6 160 19:59 17.02.2020
2755 Rain 7 1015 80 10000 3.6 160 19:41 17.02.2020
2756 Rain 7 1015 75 10000 2.6 150 19:20 17.02.2020
2757 Clouds 7 1014 65 10000 3.6 230 18:38 17.02.2020
2758 Clouds 7 1014 65 10000 3.6 230 18:20 17.02.2020
2759 Rain 8 1014 70 10000 7.7 230 17:59 17.02.2020
2760 Clouds 8 1014 65 10000 7.7 250 17:38 17.02.2020
2761 Rain 8 1014 66 10000 9.3 240 17:19 17.02.2020
2762 Clouds 8 1014 87 10000 10.8 260 16:58 17.02.2020
2763 Rain 9 1013 53 10000 9.3 230 16:40 17.02.2020
2764 Rain 9 1013 53 10000 9.3 230 16:21 17.02.2020
2765 Clouds 10 1013 50 10000 8.7 230 15:46 17.02.2020
2766 Clouds 11 1013 53 10000 10.3 230 15:27 17.02.2020
2767 Clouds 11 1013 54 10000 8.7 230 14:58 17.02.2020
2768 Clouds 11 1013 54 10000 8.7 230 14:39 17.02.2020
2769 Clouds 11 1014 53 10000 8.2 220 14:20 17.02.2020
2770 Clouds 11 1014 57 10000 7.7 210 13:55 17.02.2020
2771 Clouds 11 1014 57 10000 7.2 210 13:36 17.02.2020
2772 Clouds 11 1014 57 10000 7.2 210 13:36 17.02.2020
2773 Clouds 10 1014 57 10000 7.2 210 13:18 17.02.2020
2774 Clouds 10 1014 61 10000 6.2 210 12:42 17.02.2020
2775 Clouds 10 1015 61 10000 4.6 200 12:23 17.02.2020
2776 Clouds 9 1015 70 10000 4.1 200 11:50 17.02.2020
2777 Clouds 9 1015 70 10000 3.1 190 11:29 17.02.2020
2778 Clouds 9 1015 70 10000 3.1 190 11:29 17.02.2020
2779 Clouds 9 1014 75 10000 3.1 170 10:59 17.02.2020
2780 Clouds 9 1014 75 10000 3.1 170 10:41 17.02.2020
2781 Clouds 8 1015 75 10000 3.1 150 10:22 17.02.2020
2782 Clouds 8 1014 70 10000 3.6 140 09:59 17.02.2020
2783 Clouds 8 1014 70 10000 3.6 180 09:41 17.02.2020
2784 Clouds 8 1014 70 10000 3.6 180 09:21 17.02.2020
2785 Clouds 8 1014 70 10000 4.1 190 08:56 17.02.2020
2786 Clouds 8 1013 65 10000 3.6 200 08:38 17.02.2020
2787 Clouds 8 1014 75 10000 3.6 200 08:19 17.02.2020
2788 Clouds 8 1014 75 10000 3.1 200 07:42 17.02.2020
2789 Clouds 8 1014 70 10000 3.1 210 07:23 17.02.2020
2790 Clouds 8 1014 70 10000 3.1 220 06:51 17.02.2020
2791 Clouds 8 1014 70 10000 4.1 230 06:32 17.02.2020
2792 Clouds 8 1013 70 10000 5.1 230 05:41 17.02.2020
2793 Clouds 8 1013 66 10000 7.7 230 04:59 17.02.2020
2794 Clouds 8 1012 70 10000 7.2 230 03:20 17.02.2020
2795 Rain 8 1010 76 10000 6.2 230 01:47 17.02.2020
2796 Rain 8 1010 76 10000 6.2 230 01:47 17.02.2020
2797 Rain 8 1009 81 10000 7.2 230 00:42 17.02.2020
2798 Rain 8 1009 81 10000 9.3 250 00:21 17.02.2020
2799 Rain 8 1009 87 10000 8.7 250 23:53 16.02.2020
2800 Rain 9 1008 87 10000 10.8 260 23:30 16.02.2020
2801 Rain 9 1008 93 10000 8.7 270 22:57 16.02.2020
2802 Rain 9 1007 81 8000 11.8 250 22:39 16.02.2020
2803 Rain 9 1007 87 10000 8.2 290 22:20 16.02.2020
2804 Rain 9 1006 87 10000 13.9 320 21:57 16.02.2020
2805 Rain 10 1004 93 9000 7.7 280 21:39 16.02.2020
2806 Rain 11 1003 51 10000 11.8 220 21:20 16.02.2020
2807 Rain 12 1003 51 10000 10.8 210 20:57 16.02.2020
2808 Rain 14 1002 51 10000 10.8 210 20:38 16.02.2020
2809 Clouds 16 1002 51 10000 10.8 210 20:20 16.02.2020
2810 Clouds 16 1002 51 10000 10.8 210 20:20 16.02.2020
2811 Clouds 17 1002 48 10000 10.8 200 19:58 16.02.2020
2812 Clouds 17 1003 48 10000 12.3 200 19:38 16.02.2020
2813 Clouds 17 1003 48 10000 12.3 200 19:18 16.02.2020
2814 Clouds 17 1000 48 10000 13.4 220 18:43 16.02.2020
2815 Clouds 17 1004 48 10000 8.7 210 18:23 16.02.2020
2816 Clouds 17 1003 42 10000 9.8 210 17:57 16.02.2020
2817 Clouds 17 1001 48 10000 10.8 230 17:39 16.02.2020
2818 Clouds 17 1003 45 10000 11.8 210 17:19 16.02.2020
2819 Clouds 17 1003 45 10000 10.3 210 16:54 16.02.2020
2820 Clouds 17 1004 45 10000 9.3 190 16:36 16.02.2020
2821 Clouds 17 1004 45 10000 9.3 190 16:18 16.02.2020
2822 Clouds 17 1004 52 10000 9.3 190 15:41 16.02.2020
2823 Clouds 17 1004 52 10000 9.3 190 15:41 16.02.2020
2824 Clouds 17 1004 52 10000 7.7 190 15:22 16.02.2020
2825 Clouds 17 1005 51 10000 9.3 190 14:45 16.02.2020
2826 Clouds 17 1005 51 10000 9.3 190 14:24 16.02.2020
2827 Clouds 16 1006 51 10000 9.3 200 13:59 16.02.2020
2828 Clouds 16 1004 51 10000 7.2 200 13:41 16.02.2020
2829 Clouds 16 1007 51 10000 8.7 200 13:23 16.02.2020
2830 Clouds 15 1007 54 10000 10.8 200 12:40 16.02.2020
2831 Clouds 15 1007 54 10000 10.8 200 12:20 16.02.2020
2832 Clouds 15 1008 62 10000 8.7 200 11:56 16.02.2020
2833 Clouds 15 1006 51 8000 10.3 210 11:37 16.02.2020
2834 Rain 14 1008 62 10000 7.2 180 11:18 16.02.2020
2835 Clouds 14 1008 62 10000 6.7 200 10:55 16.02.2020
2836 Clouds 14 1008 62 10000 7.2 190 10:37 16.02.2020
2837 Clouds 14 1008 62 10000 7.2 190 10:18 16.02.2020
2838 Rain 14 1006 62 7000 10.3 210 09:39 16.02.2020
2839 Rain 14 1006 62 7000 10.3 210 09:39 16.02.2020
2840 Clouds 14 1009 67 10000 8.2 200 09:21 16.02.2020
2841 Clouds 13 1009 71 10000 7.7 200 08:59 16.02.2020
2842 Rain 13 1007 67 7000 9.8 220 08:40 16.02.2020
2843 Rain 13 1009 71 10000 9.3 190 08:20 16.02.2020
2844 Rain 13 1009 71 10000 9.3 190 08:20 16.02.2020
2845 Clouds 12 1009 66 10000 9.8 200 07:49 16.02.2020
2846 Rain 12 1009 62 10000 7.7 190 07:26 16.02.2020
2847 Clouds 12 1009 62 10000 8.2 190 06:33 16.02.2020
2848 Clouds 13 1011 62 10000 6.2 190 04:42 16.02.2020
2849 Clouds 12 1011 66 10000 7.2 200 03:25 16.02.2020
2850 Clouds 12 1012 62 10000 6.2 170 02:31 16.02.2020
2851 Clouds 12 1012 62 10000 4.6 180 01:42 16.02.2020
2852 Clouds 12 1012 62 10000 6.2 170 01:22 16.02.2020
2853 Clouds 12 1012 66 10000 5.7 170 00:52 16.02.2020
2854 Clouds 11 1013 66 10000 6.7 190 00:31 16.02.2020
2855 Clouds 11 1013 62 10000 5.1 180 23:54 15.02.2020
2856 Clouds 11 1013 62 10000 6.2 190 23:36 15.02.2020
2857 Clouds 11 1013 62 10000 6.2 190 23:18 15.02.2020
2858 Clouds 11 1014 62 10000 6.7 190 22:41 15.02.2020
2859 Clouds 11 1014 62 10000 5.1 180 22:22 15.02.2020
2860 Clouds 11 1015 66 10000 5.7 150 21:59 15.02.2020
2861 Clouds 11 1015 66 10000 5.7 150 21:41 15.02.2020
2862 Clouds 11 1015 70 10000 4.6 150 21:21 15.02.2020
2863 Clouds 10 1015 70 10000 4.1 160 20:41 15.02.2020
2864 Clouds 10 1016 75 10000 3.1 170 20:21 15.02.2020
2865 Clouds 10 1016 75 10000 3.1 170 20:21 15.02.2020
2866 Clouds 10 1015 66 10000 3.6 160 19:57 15.02.2020
2867 Clouds 10 1015 76 10000 2.1 130 19:39 15.02.2020
2868 Clouds 10 1015 66 10000 5.7 160 19:20 15.02.2020
2869 Clouds 10 1016 66 10000 6.2 160 18:40 15.02.2020
2870 Clouds 11 1016 66 10000 6.2 160 18:20 15.02.2020
2871 Clouds 11 1016 62 10000 5.7 160 17:55 15.02.2020
2872 Clouds 11 1016 62 10000 5.1 160 17:37 15.02.2020
2873 Clouds 11 1016 62 10000 5.1 160 17:18 15.02.2020
2874 Clouds 12 1017 58 10000 5.7 180 16:39 15.02.2020
2875 Clouds 12 1017 58 10000 5.7 180 16:20 15.02.2020
2876 Clouds 12 1017 54 10000 7.2 160 15:49 15.02.2020
2877 Clouds 12 1018 58 10000 5.7 190 15:31 15.02.2020
2878 Clouds 13 1017 54 10000 6.2 180 14:57 15.02.2020
2879 Clouds 12 1017 54 10000 4.1 190 14:38 15.02.2020
2880 Clouds 12 1018 58 10000 5.7 170 14:18 15.02.2020
2881 Clouds 12 1018 54 10000 4.1 170 13:41 15.02.2020
2882 Clouds 12 1019 62 10000 6.7 170 13:22 15.02.2020
2883 Clouds 12 1019 62 10000 7.2 160 12:57 15.02.2020
2884 Clouds 11 1019 62 10000 2.6 160 12:38 15.02.2020
2885 Clouds 11 1020 66 10000 6.7 160 12:19 15.02.2020
2886 Clouds 10 1019 66 10000 2.1 180 11:45 15.02.2020
2887 Clouds 9 1020 76 10000 4.6 140 11:26 15.02.2020
2888 Clouds 8 1021 75 10000 4.6 140 10:49 15.02.2020
2889 Clouds 8 1021 81 10000 4.1 120 10:29 15.02.2020
2890 Clouds 7 1021 81 10000 4.6 130 09:57 15.02.2020
2891 Clouds 7 1021 81 10000 3.6 130 09:38 15.02.2020
2892 Clouds 6 1021 81 10000 3.6 130 09:20 15.02.2020
2893 Clouds 6 1021 81 10000 4.1 130 08:43 15.02.2020
2894 Clouds 6 1021 81 10000 3.6 130 08:24 15.02.2020
2895 Clouds 6 1021 81 10000 3.1 130 07:51 15.02.2020
2896 Clouds 6 1021 81 10000 4.6 130 07:31 15.02.2020
2897 Clouds 6 1021 86 10000 3.6 130 06:54 15.02.2020
2898 Clouds 6 1021 86 10000 4.6 130 06:36 15.02.2020
2899 Clouds 5 1022 93 10000 4.6 140 05:46 15.02.2020
2900 Clouds 5 1022 86 10000 4.1 140 04:46 15.02.2020
2901 Clouds 5 1023 80 10000 3.6 130 03:43 15.02.2020
2902 Clouds 5 1023 80 10000 3.1 120 02:52 15.02.2020
2903 Clouds 5 1023 86 10000 4.1 130 02:23 15.02.2020
2904 Clouds 5 1022 93 10000 2.6 160 01:41 15.02.2020
2905 Clouds 6 1023 81 10000 4.1 140 00:56 15.02.2020
2906 Clouds 6 1023 81 10000 4.1 140 00:26 15.02.2020
2907 Clouds 6 1024 81 10000 4.6 140 23:44 14.02.2020
2908 Clouds 6 1024 81 10000 4.1 150 23:20 14.02.2020
2909 Clouds 6 1024 81 10000 3.6 160 22:54 14.02.2020
2910 Clouds 6 1024 75 10000 3.6 150 22:36 14.02.2020
2911 Clouds 7 1024 75 10000 3.6 150 22:18 14.02.2020
2912 Clouds 7 1024 75 10000 3.6 140 21:40 14.02.2020
2913 Clouds 7 1024 75 10000 3.6 140 21:21 14.02.2020
2914 Clouds 7 1024 75 10000 4.1 150 20:44 14.02.2020
2915 Clouds 7 1024 75 10000 4.1 150 20:20 14.02.2020
2916 Clouds 7 1024 75 10000 3.6 150 19:58 14.02.2020
2917 Clouds 7 1024 70 10000 1.5 130 19:40 14.02.2020
2918 Clouds 7 1024 70 10000 1.5 130 19:20 14.02.2020
2919 Clouds 8 1024 75 10000 2.6 140 18:56 14.02.2020
2920 Clouds 7 1023 75 10000 2.1 160 18:38 14.02.2020
2921 Clouds 7 1023 75 10000 2.1 160 18:19 14.02.2020
2922 Clouds 7 1023 65 10000 1 0 17:42 14.02.2020
2923 Clouds 8 1023 65 10000 1 0 17:21 14.02.2020
2924 Clouds 8 1022 65 10000 2.1 250 16:58 14.02.2020
2925 Clouds 8 1022 65 10000 2.1 250 16:39 14.02.2020
2926 Clouds 8 1022 65 10000 4.1 240 16:21 14.02.2020
2927 Clouds 8 1022 70 10000 4.6 260 15:56 14.02.2020
2928 Clouds 8 1022 70 10000 4.6 260 15:37 14.02.2020
2929 Clouds 8 1022 70 10000 4.6 260 15:37 14.02.2020
2930 Clouds 8 1022 65 10000 5.1 270 15:37 14.02.2020
2931 Clouds 8 1022 70 10000 4.1 270 15:37 14.02.2020
2932 Clouds 8 1022 65 10000 5.1 270 15:19 14.02.2020
2933 Clouds 8 1022 70 10000 4.6 280 14:57 14.02.2020
2934 Clouds 8 1022 75 10000 4.6 290 14:38 14.02.2020
2935 Clouds 7 1022 75 10000 4.6 290 14:20 14.02.2020
2936 Clouds 7 1021 75 10000 4.1 270 13:40 14.02.2020
2937 Clouds 7 1021 75 10000 4.1 270 13:21 14.02.2020
2938 Clouds 7 1021 75 10000 4.1 280 12:58 14.02.2020
2939 Clouds 7 1021 75 10000 4.1 280 12:40 14.02.2020
2940 Clouds 7 1021 75 10000 5.1 270 12:21 14.02.2020
2941 Clouds 7 1020 75 10000 6.2 270 11:59 14.02.2020
2942 Clouds 6 1020 75 10000 4.6 270 11:41 14.02.2020
2943 Clouds 6 1020 81 10000 5.7 270 11:21 14.02.2020
2944 Rain 6 1020 81 10000 6.2 270 10:56 14.02.2020
2945 Clouds 6 1019 81 10000 6.2 270 10:38 14.02.2020
2946 Clouds 6 1019 81 10000 6.2 270 10:20 14.02.2020
2947 Clouds 6 1018 81 10000 6.7 270 09:43 14.02.2020
2948 Rain 5 1017 87 10000 5.7 270 09:22 14.02.2020
2949 Rain 5 1017 93 10000 5.1 270 08:56 14.02.2020
2950 Rain 5 1016 87 10000 6.7 270 08:37 14.02.2020
2951 Rain 5 1015 87 10000 5.7 260 08:18 14.02.2020
2952 Rain 5 1015 93 10000 5.1 270 07:44 14.02.2020
2953 Rain 5 1015 87 10000 5.7 270 07:24 14.02.2020
2954 Rain 5 1013 87 10000 5.7 280 06:32 14.02.2020
2955 Rain 6 1013 87 10000 7.2 270 05:59 14.02.2020
2956 Clouds 6 1012 87 10000 3.6 280 05:27 14.02.2020
2957 Clouds 6 1010 81 10000 7.2 280 03:31 14.02.2020
2958 Rain 6 1009 87 10000 5.7 270 02:53 14.02.2020
2959 Clouds 7 1007 93 10000 6.7 280 01:55 14.02.2020
2960 Rain 7 1005 93 10000 5.7 280 00:45 14.02.2020
2961 Rain 6 1004 93 10000 4.1 250 00:25 14.02.2020
2962 Rain 6 1003 93 10000 3.1 200 23:56 13.02.2020
2963 Clouds 6 1003 87 9000 7.2 280 23:37 13.02.2020
2964 Rain 6 1002 93 10000 3.1 190 23:18 13.02.2020
2965 Rain 6 1001 93 10000 3.1 170 22:38 13.02.2020
2966 Rain 6 1001 93 10000 2.6 150 22:19 13.02.2020
2967 Rain 6 1000 93 10000 2.6 140 21:55 13.02.2020
2968 Rain 6 1000 93 10000 1 140 21:37 13.02.2020
2969 Rain 6 999 93 10000 2.1 90 21:19 13.02.2020
2970 Rain 6 999 87 10000 2.1 150 20:42 13.02.2020
2971 Rain 6 999 87 10000 3.6 160 20:22 13.02.2020
2972 Rain 6 999 87 10000 3.6 160 20:22 13.02.2020
2973 Rain 6 999 87 10000 1.5 110 19:57 13.02.2020
2974 Rain 6 999 87 10000 1.5 110 19:57 13.02.2020
2975 Rain 6 999 87 10000 3.1 160 19:38 13.02.2020
2976 Rain 6 999 87 10000 3.1 160 19:20 13.02.2020
2977 Rain 6 999 75 10000 5.1 160 18:57 13.02.2020
2978 Rain 6 998 81 10000 4.1 150 18:39 13.02.2020
2979 Rain 6 998 81 10000 4.1 150 18:20 13.02.2020
2980 Rain 7 999 75 10000 4.1 160 17:57 13.02.2020
2981 Clouds 7 998 75 10000 2.6 140 17:37 13.02.2020
2982 Clouds 7 999 75 10000 4.1 170 17:18 13.02.2020
2983 Clouds 7 998 65 10000 3.1 190 16:42 13.02.2020
2984 Clouds 7 999 75 10000 5.1 160 16:21 13.02.2020
2985 Clouds 7 999 75 10000 5.1 160 16:21 13.02.2020
2986 Clouds 7 999 75 10000 4.6 170 15:57 13.02.2020
2987 Clouds 7 998 65 10000 5.1 210 15:39 13.02.2020
2988 Clouds 7 998 65 10000 5.1 210 15:39 13.02.2020
2989 Clouds 7 1000 75 10000 6.7 180 15:20 13.02.2020
2990 Clouds 7 1000 81 10000 6.7 170 14:59 13.02.2020
2991 Clouds 6 999 75 10000 5.7 190 14:40 13.02.2020
2992 Rain 5 1000 80 10000 8.2 170 14:21 13.02.2020
2993 Rain 5 1001 86 10000 7.2 170 13:54 13.02.2020
2994 Rain 4 1002 80 10000 6.2 170 13:36 13.02.2020
2995 Rain 5 1002 80 10000 6.2 170 13:18 13.02.2020
2996 Rain 5 1001 80 8000 6.2 200 12:48 13.02.2020
2997 Rain 5 1003 78 10000 9.8 160 12:30 13.02.2020
2998 Rain 5 1003 78 10000 9.3 130 11:58 13.02.2020
2999 Clouds 5 1004 75 10000 9.3 130 11:40 13.02.2020
3000 Clouds 5 1004 75 10000 9.3 130 11:19 13.02.2020
3001 Clouds 5 1005 75 10000 6.7 130 10:43 13.02.2020
3002 Clouds 4 1007 75 10000 6.7 130 10:24 13.02.2020
3003 Rain 4 1007 80 10000 7.2 130 09:47 13.02.2020
3004 Clouds 4 1008 80 10000 7.2 140 09:24 13.02.2020
3005 Clouds 4 1009 86 10000 6.7 140 08:48 13.02.2020
3006 Clouds 4 1010 81 10000 6.7 130 08:20 13.02.2020
3007 Clouds 3 1011 81 10000 6.2 140 07:57 13.02.2020
3008 Clouds 3 1012 81 10000 5.1 130 07:38 13.02.2020
3009 Clouds 3 1012 81 10000 5.1 130 07:19 13.02.2020
3010 Clouds 3 1011 81 10000 3.1 140 06:44 13.02.2020
3011 Clouds 3 1014 81 10000 2.6 120 05:59 13.02.2020
3012 Clouds 3 1014 80 10000 3.6 130 05:20 13.02.2020
3013 Clouds 3 1015 75 10000 5.1 160 04:25 13.02.2020
3014 Clouds 3 1015 75 10000 4.6 160 03:47 13.02.2020
3015 Clouds 3 1016 86 10000 4.6 160 03:18 13.02.2020
3016 Clouds 2 1016 86 10000 4.6 160 02:45 13.02.2020
3017 Clouds 3 1016 86 10000 3.1 160 02:19 13.02.2020
3018 Clouds 3 1017 80 10000 3.1 160 01:28 13.02.2020
3019 Clouds 3 1017 77 10000 3.6 190 00:32 13.02.2020
3020 Clouds 3 1018 77 10000 3.1 170 23:58 12.02.2020
3021 Clouds 3 1017 80 10000 3.6 190 23:38 12.02.2020
3022 Clouds 3 1017 80 10000 3.6 190 23:19 12.02.2020
3023 Clouds 3 1017 80 10000 3.6 0 22:44 12.02.2020
3024 Clouds 3 1017 69 10000 3.1 190 22:24 12.02.2020
3025 Clouds 3 1018 74 10000 2.6 210 21:58 12.02.2020
3026 Clouds 3 1018 74 10000 2.6 210 21:39 12.02.2020
3027 Clouds 3 1017 69 10000 3.6 220 21:19 12.02.2020
3028 Clouds 3 1017 69 10000 4.1 220 20:56 12.02.2020
3029 Clouds 4 1017 69 10000 3.1 240 20:37 12.02.2020
3030 Clouds 4 1017 60 10000 4.6 240 20:19 12.02.2020
3031 Clouds 4 1017 60 10000 3.6 230 19:54 12.02.2020
3032 Clouds 4 1017 60 10000 2.6 200 19:36 12.02.2020
3033 Clouds 4 1017 60 10000 2.6 200 19:18 12.02.2020
3034 Clouds 4 1016 60 10000 2.6 220 18:45 12.02.2020
3035 Clouds 5 1016 80 10000 4.6 230 18:18 12.02.2020
3036 Clouds 5 1016 60 10000 7.7 240 17:43 12.02.2020
3037 Rain 5 1015 70 10000 5.1 270 17:21 12.02.2020
3038 Rain 6 1015 56 10000 10.8 270 16:59 12.02.2020
3039 Rain 6 1015 52 10000 8.2 280 16:39 12.02.2020
3040 Rain 6 1015 52 10000 8.2 280 16:19 12.02.2020
3041 Clouds 7 1015 49 10000 10.8 260 15:43 12.02.2020
3042 Clouds 7 1015 49 10000 10.8 260 15:43 12.02.2020
3043 Clouds 7 1015 49 10000 9.8 260 15:24 12.02.2020
3044 Clouds 7 1015 52 10000 10.3 270 14:59 12.02.2020
3045 Clouds 7 1015 52 10000 10.3 270 14:41 12.02.2020
3046 Clouds 7 1015 49 10000 10.8 260 14:20 12.02.2020
3047 Clouds 7 1015 52 10000 10.8 270 13:57 12.02.2020
3048 Clouds 7 1014 56 10000 12.3 260 13:39 12.02.2020
3049 Clouds 7 1014 56 10000 12.3 260 13:20 12.02.2020
3050 Clouds 7 1015 56 10000 9.3 280 12:57 12.02.2020
3051 Clouds 7 1014 56 10000 11.3 260 12:38 12.02.2020
3052 Clouds 7 1015 56 10000 9.8 260 12:18 12.02.2020
3053 Clouds 7 1014 57 10000 11.3 260 11:57 12.02.2020
3054 Clouds 6 1014 60 10000 10.3 260 11:39 12.02.2020
3055 Clouds 6 1014 60 10000 10.3 260 11:20 12.02.2020
3056 Clouds 5 1014 70 10000 8.7 270 10:55 12.02.2020
3057 Clouds 5 1014 65 10000 8.2 270 10:37 12.02.2020
3058 Clouds 5 1014 65 10000 8.2 270 10:19 12.02.2020
3059 Clouds 5 1014 65 10000 8.2 270 10:19 12.02.2020
3060 Clouds 5 1014 70 10000 7.2 270 09:42 12.02.2020
3061 Clouds 4 1013 70 10000 7.2 260 09:24 12.02.2020
3062 Clouds 4 1013 65 10000 7.2 260 08:58 12.02.2020
3063 Clouds 4 1013 65 10000 8.7 260 08:38 12.02.2020
3064 Clouds 4 1013 65 10000 8.7 260 08:38 12.02.2020
3065 Clouds 4 1013 65 10000 8.7 260 08:20 12.02.2020
3066 Clouds 4 1013 65 10000 8.7 260 08:20 12.02.2020
3067 Clouds 4 1013 65 10000 8.7 260 08:20 12.02.2020
3068 Clouds 4 1013 65 10000 8.7 260 08:20 12.02.2020
3069 Clouds 4 1013 68 10000 8.2 260 07:45 12.02.2020
3070 Clouds 4 1013 68 10000 8.2 260 07:45 12.02.2020
3071 Clouds 4 1012 68 10000 8.2 260 07:24 12.02.2020
3072 Clouds 4 1012 68 10000 6.7 250 06:59 12.02.2020
3073 Clouds 4 1012 69 10000 8.7 250 06:24 12.02.2020
3074 Clouds 4 1012 65 10000 9.8 250 05:44 12.02.2020
3075 Clouds 4 1012 69 10000 8.2 250 05:21 12.02.2020
3076 Clouds 4 1012 69 10000 7.2 250 04:41 12.02.2020
3077 Clouds 4 1012 69 10000 9.8 260 03:57 12.02.2020
3078 Clouds 4 1012 69 10000 9.8 250 03:28 12.02.2020
3079 Clouds 4 1012 69 10000 8.2 260 02:43 12.02.2020
3080 Clouds 4 1012 69 10000 8.2 250 02:24 12.02.2020
3081 Snow 4 1011 69 10000 10.3 250 01:29 12.02.2020
3082 Clouds 4 1011 69 10000 9.8 250 00:41 12.02.2020
3083 Clouds 4 1011 69 10000 9.8 250 00:22 12.02.2020
3084 Clouds 4 1011 69 10000 8.2 260 23:47 11.02.2020
3085 Clouds 4 1010 69 10000 10.3 250 23:29 11.02.2020
3086 Clouds 4 1010 69 10000 9.3 250 22:58 11.02.2020
3087 Clouds 4 1010 69 10000 12.9 250 22:39 11.02.2020
3088 Clouds 4 1010 69 10000 9.3 250 22:20 11.02.2020
3089 Clouds 4 1010 69 10000 9.3 260 21:57 11.02.2020
3090 Clouds 4 1009 64 10000 11.8 250 21:38 11.02.2020
3091 Clouds 4 1010 69 10000 10.8 280 21:18 11.02.2020
3092 Thunderstorm 4 1009 58 10000 8.7 250 20:58 11.02.2020
3093 Clouds 4 1009 65 10000 13.4 270 20:39 11.02.2020
3094 Clouds 4 1009 65 10000 13.4 270 20:39 11.02.2020
3095 Rain 4 1009 52 10000 8.2 250 20:19 11.02.2020
3096 Clouds 4 1008 52 10000 9.3 240 19:58 11.02.2020
3097 Clouds 4 1008 65 10000 9.3 270 19:39 11.02.2020
3098 Clouds 4 1008 65 10000 9.3 270 19:20 11.02.2020
3099 Clouds 4 1007 65 10000 9.8 260 18:45 11.02.2020
3100 Clouds 4 1007 65 10000 8.2 290 18:27 11.02.2020
3101 Rain 5 1006 52 10000 11.3 270 17:57 11.02.2020
3102 Clouds 5 1006 65 10000 12.3 270 17:39 11.02.2020
3103 Clouds 5 1006 46 10000 7.2 260 17:19 11.02.2020
3104 Clouds 5 1007 80 10000 10.3 250 16:58 11.02.2020
3105 Rain 5 1006 80 9000 10.3 270 16:39 11.02.2020
3106 Rain 6 1006 80 9000 10.3 270 16:21 11.02.2020
3107 Rain 6 1006 46 10000 8.7 270 15:58 11.02.2020
3108 Clouds 6 1006 46 10000 8.7 260 15:39 11.02.2020
3109 Clouds 6 1006 46 10000 11.3 290 15:21 11.02.2020
3110 Clouds 6 1006 60 8000 14.9 270 14:42 11.02.2020
3111 Clouds 7 1005 47 10000 10.3 280 14:19 11.02.2020
3112 Clouds 7 1005 47 10000 10.3 280 14:19 11.02.2020
3113 Clouds 7 1005 47 10000 12.3 260 13:57 11.02.2020
3114 Clouds 7 1005 52 10000 14.4 270 13:38 11.02.2020
3115 Clouds 7 1005 47 10000 13.4 270 13:20 11.02.2020
3116 Clouds 7 1005 56 10000 13.4 260 12:55 11.02.2020
3117 Clouds 7 1005 56 10000 13.4 260 12:36 11.02.2020
3118 Clouds 7 1005 60 10000 11.3 270 12:18 11.02.2020
3119 Clouds 6 1005 60 10000 15.4 260 11:41 11.02.2020
3120 Clouds 6 1004 60 8000 15.9 260 11:20 11.02.2020
3121 Rain 6 1005 55 7000 12.3 250 10:55 11.02.2020
3122 Rain 6 1005 55 7000 12.3 250 10:36 11.02.2020
3123 Clouds 6 1005 55 10000 12.3 260 10:18 11.02.2020
3124 Clouds 6 1005 55 10000 12.3 260 10:18 11.02.2020
3125 Rain 5 1005 55 10000 10.3 260 09:44 11.02.2020
3126 Rain 5 1004 60 10000 10.8 260 09:23 11.02.2020
3127 Clouds 5 1004 55 3000 10.3 250 08:59 11.02.2020
3128 Clouds 5 1004 55 3000 10.3 250 08:41 11.02.2020
3129 Clouds 5 1004 55 3000 10.3 250 08:41 11.02.2020
3130 Clouds 5 1004 56 10000 13.4 260 08:23 11.02.2020
3131 Clouds 5 1003 65 10000 10.3 260 07:48 11.02.2020
3132 Rain 5 1003 65 10000 8.7 260 07:25 11.02.2020
3133 Clouds 5 1003 56 10000 11.3 270 06:43 11.02.2020
3134 Clouds 5 1003 65 10000 9.3 270 06:22 11.02.2020
3135 Clouds 5 1003 65 10000 9.3 270 05:54 11.02.2020
3136 Clouds 5 1002 60 10000 12.3 270 05:24 11.02.2020
3137 Clouds 5 1002 65 10000 12.3 270 04:39 11.02.2020
3138 Clouds 5 1001 65 10000 12.9 260 03:20 11.02.2020
3139 Clouds 4 1000 56 10000 11.3 270 02:32 11.02.2020
3140 Clouds 4 1000 61 10000 12.9 260 01:38 11.02.2020
3141 Rain 4 998 86 8000 19 290 00:40 11.02.2020
3142 Thunderstorm 4 997 86 2500 12.9 270 23:59 10.02.2020
3143 Clouds 5 996 65 10000 11.8 270 23:38 10.02.2020
3144 Clouds 6 996 65 10000 11.8 270 23:20 10.02.2020
3145 Clouds 6 996 65 10000 11.8 270 23:20 10.02.2020
3146 Clouds 7 995 65 10000 17.5 260 22:41 10.02.2020
3147 Clouds 7 994 70 10000 14.9 240 22:20 10.02.2020
3148 Clouds 7 994 70 10000 14.9 240 22:20 10.02.2020
3149 Clouds 6 996 75 10000 6.7 220 21:54 10.02.2020
3150 Clouds 6 997 80 10000 8.7 220 21:36 10.02.2020
3151 Rain 6 996 75 10000 9.8 230 21:18 10.02.2020
3152 Rain 6 996 75 10000 9.8 230 20:54 10.02.2020
3153 Clouds 6 996 81 10000 8.7 240 20:36 10.02.2020
3154 Rain 6 998 70 10000 8.2 230 20:18 10.02.2020
3155 Clouds 7 997 65 10000 12.3 240 19:54 10.02.2020
3156 Clouds 6 997 65 10000 12.3 240 19:36 10.02.2020
3157 Clouds 7 999 75 10000 7.7 210 19:18 10.02.2020
3158 Clouds 6 1000 75 10000 7.7 200 18:41 10.02.2020
3159 Rain 7 1001 75 10000 8.7 210 18:22 10.02.2020
3160 Clouds 7 1002 70 10000 7.7 240 17:59 10.02.2020
3161 Clouds 7 1002 65 10000 10.3 230 17:39 10.02.2020
3162 Clouds 7 1002 65 10000 10.3 230 17:21 10.02.2020
3163 Clouds 8 1001 61 10000 11.3 240 16:59 10.02.2020
3164 Clouds 8 1001 61 10000 11.3 240 16:40 10.02.2020
3165 Clouds 8 1002 61 10000 11.3 240 16:20 10.02.2020
3166 Clouds 9 1002 57 10000 13.9 250 15:58 10.02.2020
3167 Clouds 9 1002 53 10000 15.4 250 15:39 10.02.2020
3168 Clouds 9 1002 53 10000 15.4 250 15:21 10.02.2020
3169 Rain 9 1003 57 10000 15.4 260 14:57 10.02.2020
3170 Clouds 9 1003 50 10000 14.9 270 14:39 10.02.2020
3171 Clouds 9 1002 57 10000 13.4 260 14:19 10.02.2020
3172 Clouds 9 1002 57 10000 13.4 260 13:44 10.02.2020
3173 Rain 9 1003 57 10000 13.4 260 13:26 10.02.2020
3174 Rain 8 1002 57 10000 13.4 260 12:59 10.02.2020
3175 Rain 9 1002 57 10000 13.4 260 12:41 10.02.2020
3176 Rain 8 1002 57 10000 13.9 260 12:22 10.02.2020
3177 Rain 8 1002 65 10000 14.9 260 11:54 10.02.2020
3178 Clouds 8 1001 61 10000 16.5 260 11:36 10.02.2020
3179 Clouds 7 1000 61 10000 14.9 260 11:18 10.02.2020
3180 Rain 7 1000 70 10000 13.4 250 10:42 10.02.2020
3181 Clouds 7 999 65 9000 17 250 10:23 10.02.2020
3182 Rain 7 998 81 10000 9.8 260 09:44 10.02.2020
3183 Rain 6 997 75 10000 13.4 270 09:23 10.02.2020
3184 Rain 6 997 80 1000 17.5 280 08:43 10.02.2020
3185 Rain 7 995 93 10000 9.8 260 08:22 10.02.2020
3186 Rain 8 993 75 10000 14.9 260 07:57 10.02.2020
3187 Rain 7 993 70 10000 13.9 250 07:36 10.02.2020
3188 Rain 8 993 70 7000 14.9 250 06:58 10.02.2020
3189 Clouds 9 992 70 10000 11.8 260 05:42 10.02.2020
3190 Rain 10 992 70 10000 13.9 260 04:26 10.02.2020
3191 Rain 9 992 71 10000 11.3 240 03:31 10.02.2020
3192 Rain 10 992 71 10000 13.9 240 02:54 10.02.2020
3193 Rain 10 993 87 10000 13.9 260 01:36 10.02.2020
3194 Rain 10 991 71 8000 14.9 260 01:36 10.02.2020
3195 Rain 11 992 93 6000 9.3 260 00:48 10.02.2020
3196 Rain 11 990 76 6000 13.9 240 00:28 10.02.2020
3197 Rain 12 992 71 10000 11.8 210 23:45 09.02.2020
3198 Rain 12 993 76 10000 11.8 200 23:26 09.02.2020
3199 Rain 12 993 76 10000 11.3 200 22:59 09.02.2020
3200 Rain 12 992 76 10000 10.8 210 22:39 09.02.2020
3201 Rain 12 994 76 10000 12.3 200 22:20 09.02.2020
3202 Rain 12 995 76 10000 12.3 210 21:42 09.02.2020
3203 Rain 12 996 71 10000 12.3 210 21:23 09.02.2020
3204 Rain 12 997 71 10000 13.9 220 20:48 09.02.2020
3205 Clouds 12 997 62 10000 12.3 210 20:27 09.02.2020
3206 Rain 12 996 66 9000 12.9 220 19:58 09.02.2020
3207 Rain 12 996 66 9000 12.9 220 19:39 09.02.2020
3208 Rain 12 998 66 10000 10.8 200 19:21 09.02.2020
3209 Rain 13 999 62 10000 10.3 190 18:56 09.02.2020
3210 Rain 13 1000 62 10000 13.4 190 18:38 09.02.2020
3211 Clouds 13 1000 62 10000 13.4 190 18:20 09.02.2020
3212 Clouds 13 1001 58 10000 10.8 190 17:42 09.02.2020
3213 Clouds 13 1002 58 10000 11.3 200 17:22 09.02.2020
3214 Clouds 13 1003 54 10000 9.3 190 16:56 09.02.2020
3215 Clouds 12 1001 58 10000 9.3 200 16:37 09.02.2020
3216 Clouds 12 1004 54 10000 10.3 190 16:18 09.02.2020
3217 Clouds 12 1005 50 10000 9.3 200 15:54 09.02.2020
3218 Clouds 12 1003 54 10000 9.8 210 15:36 09.02.2020
3219 Clouds 12 1004 54 10000 13.4 190 15:18 09.02.2020
3220 Clouds 12 1004 54 10000 9.8 200 14:41 09.02.2020
3221 Clouds 12 1007 54 10000 10.3 190 14:23 09.02.2020
3222 Clouds 12 1008 54 10000 9.3 190 13:47 09.02.2020
3223 Clouds 12 1009 57 10000 8.7 190 13:28 09.02.2020
3224 Clouds 11 1010 54 10000 9.3 190 12:57 09.02.2020
3225 Clouds 11 1008 46 10000 8.2 200 12:39 09.02.2020
3226 Clouds 11 1011 54 10000 8.2 190 12:19 09.02.2020
3227 Clouds 11 1011 54 10000 8.2 190 11:55 09.02.2020
3228 Clouds 11 1010 50 10000 7.2 210 11:36 09.02.2020
3229 Clouds 11 1012 62 10000 8.7 190 11:18 09.02.2020
3230 Clouds 10 1013 62 10000 7.7 190 10:42 09.02.2020
3231 Clouds 10 1013 71 10000 7.7 190 10:22 09.02.2020
3232 Clouds 10 1014 71 10000 7.7 200 09:48 09.02.2020
3233 Clouds 9 1014 76 10000 6.2 190 09:28 09.02.2020
3234 Clouds 9 1014 76 10000 6.2 190 09:28 09.02.2020
3235 Clouds 9 1014 76 10000 6.2 190 09:28 09.02.2020
3236 Clouds 9 1014 81 10000 5.1 150 08:57 09.02.2020
3237 Clouds 8 1013 71 10000 6.7 210 08:39 09.02.2020
3238 Clouds 8 1015 81 10000 5.7 140 08:20 09.02.2020
3239 Clouds 8 1015 87 10000 5.1 140 07:49 09.02.2020
3240 Clouds 7 1017 81 10000 4.1 140 06:59 09.02.2020
3241 Clouds 7 1018 86 10000 4.6 140 06:36 09.02.2020
3242 Clouds 7 1018 81 10000 4.6 140 05:52 09.02.2020
3243 Clouds 7 1018 86 10000 5.1 150 05:32 09.02.2020
3244 Clouds 7 1018 81 10000 5.7 150 04:23 09.02.2020
3245 Clouds 7 1019 75 10000 4.1 150 02:50 09.02.2020
3246 Clouds 7 1019 75 10000 4.6 170 02:32 09.02.2020
3247 Clouds 7 1020 81 10000 5.1 150 01:38 09.02.2020
3248 Clouds 7 1020 75 10000 3.6 130 00:56 09.02.2020
3249 Clouds 7 1021 70 10000 2.6 130 00:30 09.02.2020
3250 Clouds 8 1020 81 9000 3.1 190 23:50 08.02.2020
3251 Clouds 8 1021 81 10000 2.6 140 23:25 08.02.2020
3252 Rain 8 1021 81 10000 2.6 130 22:59 08.02.2020
3253 Rain 8 1020 75 8000 2.6 190 22:40 08.02.2020
3254 Rain 8 1021 70 10000 3.1 130 22:20 08.02.2020
3255 Clouds 8 1021 75 10000 3.1 160 21:47 08.02.2020
3256 Clouds 8 1021 75 10000 3.6 160 21:29 08.02.2020
3257 Clouds 8 1021 75 10000 2.6 150 20:59 08.02.2020
3258 Rain 8 1021 75 10000 0.5 0 20:40 08.02.2020
3259 Clouds 8 1021 75 10000 0.5 0 20:20 08.02.2020
3260 Clouds 8 1021 75 10000 2.1 140 19:59 08.02.2020
3261 Clouds 8 1021 75 10000 2.1 140 19:40 08.02.2020
3262 Clouds 8 1021 75 10000 4.1 140 19:20 08.02.2020
3263 Clouds 8 1020 70 10000 3.1 130 18:58 08.02.2020
3264 Clouds 8 1020 70 10000 3.1 180 18:39 08.02.2020
3265 Clouds 9 1020 70 10000 4.1 130 18:21 08.02.2020
3266 Clouds 9 1020 70 10000 5.1 130 17:42 08.02.2020
3267 Clouds 9 1020 70 10000 3.6 130 17:21 08.02.2020
3268 Clouds 9 1020 70 10000 4.6 130 16:56 08.02.2020
3269 Clouds 9 1020 70 10000 5.1 110 16:37 08.02.2020
3270 Clouds 10 1020 70 10000 5.1 110 16:18 08.02.2020
3271 Clouds 10 1021 70 10000 3.1 100 15:40 08.02.2020
3272 Clouds 9 1021 70 10000 3.1 100 15:19 08.02.2020
3273 Clouds 10 1020 65 10000 4.1 120 14:55 08.02.2020
3274 Clouds 10 1019 58 10000 1.5 220 14:36 08.02.2020
3275 Clouds 9 1021 70 10000 3.1 120 14:18 08.02.2020
3276 Clouds 9 1021 70 10000 3.1 120 13:41 08.02.2020
3277 Clouds 9 1021 70 10000 3.6 120 13:23 08.02.2020
3278 Clouds 8 1021 70 10000 3.6 120 12:49 08.02.2020
3279 Clouds 7 1021 70 10000 3.6 120 12:25 08.02.2020
3280 Clouds 7 1021 75 10000 3.1 120 11:59 08.02.2020
3281 Clouds 6 1021 65 10000 3.6 130 11:40 08.02.2020
3282 Clouds 6 1021 69 10000 3.6 130 11:21 08.02.2020
3283 Clouds 5 1021 69 10000 3.1 120 10:43 08.02.2020
3284 Clouds 5 1022 69 10000 3.1 120 10:24 08.02.2020
3285 Clouds 4 1021 69 10000 3.6 120 09:53 08.02.2020
3286 Clouds 5 1021 69 10000 3.1 120 09:30 08.02.2020
3287 Clouds 4 1021 74 10000 3.6 120 08:59 08.02.2020
3288 Clouds 4 1021 74 10000 3.1 120 08:39 08.02.2020
3289 Clouds 4 1021 74 10000 3.1 120 08:21 08.02.2020
3290 Clouds 4 1021 74 10000 3.6 110 07:50 08.02.2020
3291 Clouds 3 1021 74 10000 3.1 120 07:31 08.02.2020
3292 Clouds 3 1021 69 10000 3.6 120 06:33 08.02.2020
3293 Clouds 3 1021 69 10000 3.1 120 05:57 08.02.2020
3294 Clouds 3 1021 69 10000 4.1 130 05:32 08.02.2020
3295 Clouds 2 1021 74 10000 4.6 130 04:51 08.02.2020
3296 Clouds 2 1021 74 10000 4.6 130 04:18 08.02.2020
3297 Clouds 2 1022 74 10000 4.6 130 03:20 08.02.2020
3298 Clouds 2 1022 69 10000 4.1 120 02:28 08.02.2020
3299 Clear 2 1023 74 10000 3.1 100 01:29 08.02.2020
3300 Clear 3 1023 74 10000 3.6 120 00:46 08.02.2020
3301 Clear 3 1023 74 10000 3.1 110 00:25 08.02.2020
3302 Clear 3 1023 74 10000 3.1 100 23:57 07.02.2020
3303 Clear 3 1022 74 10000 3.6 150 23:39 07.02.2020
3304 Clear 3 1023 74 10000 4.6 120 23:19 07.02.2020
3305 Clear 3 1023 69 10000 3.6 100 22:41 07.02.2020
3306 Clear 3 1023 74 10000 4.1 120 22:20 07.02.2020
3307 Clear 3 1023 74 10000 4.1 110 21:58 07.02.2020
3308 Clear 3 1023 69 10000 3.1 130 21:40 07.02.2020
3309 Clear 3 1023 69 10000 4.6 120 21:19 07.02.2020
3310 Clear 4 1024 69 10000 4.6 120 20:39 07.02.2020
3311 Clear 4 1024 69 10000 4.6 120 20:20 07.02.2020
3312 Clear 4 1024 65 10000 5.7 120 19:55 07.02.2020
3313 Clear 4 1023 69 10000 4.1 120 19:37 07.02.2020
3314 Clear 4 1024 65 10000 5.1 120 19:18 07.02.2020
3315 Clear 5 1024 65 10000 5.7 130 18:45 07.02.2020
3316 Clear 6 1024 60 10000 5.7 130 18:25 07.02.2020
3317 Clear 6 1024 56 10000 5.7 130 17:57 07.02.2020
3318 Clear 6 1024 56 10000 5.7 130 17:39 07.02.2020
3319 Clear 7 1024 56 10000 3.1 130 17:19 07.02.2020
3320 Clear 7 1024 56 10000 5.1 140 16:50 07.02.2020
3321 Clear 8 1024 52 10000 7.2 140 16:24 07.02.2020
3322 Clear 8 1025 52 10000 5.7 130 15:55 07.02.2020
3323 Clear 8 1025 52 10000 5.7 140 15:29 07.02.2020
3324 Clear 8 1025 52 10000 7.2 140 14:58 07.02.2020
3325 Clear 8 1026 56 10000 7.2 130 14:40 07.02.2020
3326 Clear 8 1026 56 10000 7.2 130 14:21 07.02.2020
3327 Clear 7 1026 59 10000 7.2 140 13:57 07.02.2020
3328 Clear 7 1027 58 10000 8.2 140 13:38 07.02.2020
3329 Clear 7 1027 58 10000 8.2 140 13:20 07.02.2020
3330 Clear 6 1027 58 10000 8.2 140 12:44 07.02.2020
3331 Clear 6 1028 65 10000 9.3 140 12:26 07.02.2020
3332 Clear 5 1028 65 10000 7.2 130 11:58 07.02.2020
3333 Clear 5 1027 69 10000 3.6 110 11:39 07.02.2020
3334 Clear 4 1028 69 10000 6.2 130 11:18 07.02.2020
3335 Clear 3 1028 74 10000 5.7 130 10:40 07.02.2020
3336 Clear 3 1028 74 10000 3.6 130 10:20 07.02.2020
3337 Clear 2 1028 74 10000 3.1 110 09:47 07.02.2020
3338 Clear 1 1028 80 10000 3.1 110 09:27 07.02.2020
3339 Clear 0 1029 72 10000 2.6 110 08:58 07.02.2020
3340 Clear 0 1029 72 10000 2.6 90 08:40 07.02.2020
3341 Clear 0 1029 80 10000 2.6 90 08:20 07.02.2020
3342 Clear -1 1028 92 6000 1 130 07:43 07.02.2020
3343 Clear 0 1028 80 10000 2.1 110 07:24 07.02.2020
3344 Clear 0 1029 92 10000 1 0 06:44 07.02.2020
3345 Clear 0 1029 100 10000 1.5 130 06:23 07.02.2020
3346 Clear 0 1029 92 10000 2.1 150 05:44 07.02.2020
3347 Clear 0 1030 82 10000 2.1 90 04:33 07.02.2020
3348 Clear 0 1030 82 10000 1 0 02:33 07.02.2020
3349 Clouds 0 1030 92 6000 1.5 0 01:37 07.02.2020
3350 Clouds 0 1031 92 10000 0.5 0 00:45 07.02.2020
3351 Clear 0 1031 86 10000 1 0 00:18 07.02.2020
3352 Clear 0 1031 81 10000 0.5 0 23:37 06.02.2020
3353 Clouds 0 1031 77 10000 0.5 0 23:18 06.02.2020
3354 Clouds 1 1031 86 10000 1.5 80 22:44 06.02.2020
3355 Clouds 1 1031 86 10000 1 110 22:25 06.02.2020
3356 Clouds 1 1031 92 10000 0.5 70 21:38 06.02.2020
3357 Clouds 1 1031 80 10000 1.5 110 21:20 06.02.2020
3358 Clouds 2 1031 80 10000 1.5 140 20:58 06.02.2020
3359 Clouds 2 1031 80 10000 1.5 140 20:39 06.02.2020
3360 Clouds 2 1031 75 10000 0.5 0 20:19 06.02.2020
3361 Clouds 2 1031 75 10000 2.1 130 19:59 06.02.2020
3362 Clouds 3 1031 75 10000 2.1 130 19:41 06.02.2020
3363 Clouds 3 1031 75 10000 1.5 120 19:22 06.02.2020
3364 Clouds 4 1031 75 10000 1 90 18:59 06.02.2020
3365 Clouds 4 1031 75 10000 1 90 18:40 06.02.2020
3366 Clouds 4 1031 75 10000 1.5 110 18:21 06.02.2020
3367 Clouds 5 1031 75 10000 1 90 17:45 06.02.2020
3368 Clouds 6 1031 70 10000 1 0 17:21 06.02.2020
3369 Clouds 6 1031 70 10000 1 0 17:21 06.02.2020
3370 Clouds 6 1031 70 10000 1 0 16:59 06.02.2020
3371 Clouds 6 1031 70 10000 1 0 16:41 06.02.2020
3372 Clouds 6 1032 65 10000 1 0 16:22 06.02.2020
3373 Clouds 6 1031 65 10000 1 0 15:43 06.02.2020
3374 Clouds 6 1031 65 10000 1 0 15:43 06.02.2020
3375 Clouds 6 1032 70 10000 0.5 0 15:22 06.02.2020
3376 Clouds 6 1032 70 10000 0.5 0 14:51 06.02.2020
3377 Clouds 6 1032 70 10000 1 0 14:28 06.02.2020
3378 Clouds 6 1032 70 10000 0.5 0 13:59 06.02.2020
3379 Clouds 6 1032 70 10000 0.5 0 13:41 06.02.2020
3380 Clouds 6 1032 70 10000 1 0 13:20 06.02.2020
3381 Clouds 5 1032 70 10000 1.5 250 12:44 06.02.2020
3382 Clouds 5 1033 80 10000 1.5 210 12:19 06.02.2020
3383 Clouds 5 1033 80 10000 1.5 210 12:19 06.02.2020
3384 Clouds 5 1033 75 10000 0.5 0 11:57 06.02.2020
3385 Clouds 5 1033 75 10000 0.5 0 11:39 06.02.2020
3386 Clouds 4 1033 80 10000 0.5 0 11:19 06.02.2020
3387 Clouds 4 1033 80 10000 1 0 10:57 06.02.2020
3388 Clouds 3 1033 86 10000 1.5 160 10:38 06.02.2020
3389 Clouds 4 1033 80 10000 1.5 270 10:38 06.02.2020
3390 Clouds 3 1033 86 10000 1.5 160 10:20 06.02.2020
3391 Clouds 3 1033 79 10000 1.5 120 09:56 06.02.2020
3392 Clouds 2 1032 86 10000 0.5 0 09:37 06.02.2020
3393 Clouds 2 1033 93 10000 1 0 09:19 06.02.2020
3394 Clouds 2 1033 86 10000 0.5 100 08:41 06.02.2020
3395 Clouds 2 1033 85 10000 1 0 08:22 06.02.2020
3396 Clouds 2 1033 85 10000 1.5 120 07:51 06.02.2020
3397 Clouds 2 1033 85 10000 2.6 150 07:28 06.02.2020
3398 Clouds 2 1033 85 10000 1 0 06:37 06.02.2020
3399 Clouds 2 1033 85 10000 1 0 06:18 06.02.2020
3400 Clouds 2 1033 79 10000 0.5 0 04:54 06.02.2020
3401 Clouds 2 1034 86 10000 2.6 140 03:21 06.02.2020
3402 Clouds 2 1034 86 10000 2.6 140 03:21 06.02.2020
3403 Clouds 2 1034 79 10000 1.5 120 02:44 06.02.2020
3404 Clouds 2 1035 80 10000 3.1 140 01:42 06.02.2020
3405 Clouds 2 1035 84 10000 1.5 130 00:59 06.02.2020
3406 Clouds 2 1035 84 10000 0.5 0 00:28 06.02.2020
3407 Clouds 2 1035 84 10000 1.5 150 23:55 05.02.2020
3408 Clouds 2 1036 84 10000 1 0 23:36 05.02.2020
3409 Clouds 2 1036 84 10000 1 0 23:18 05.02.2020
3410 Clouds 3 1036 84 10000 2.6 210 22:40 05.02.2020
3411 Clouds 2 1036 86 10000 2.1 200 22:22 05.02.2020
3412 Clouds 3 1036 86 10000 2.1 200 21:57 05.02.2020
3413 Clouds 3 1036 86 10000 1.5 210 21:39 05.02.2020
3414 Clouds 3 1036 84 10000 1.5 180 21:20 05.02.2020
3415 Clouds 3 1036 84 10000 2.6 220 20:39 05.02.2020
3416 Clouds 3 1036 93 10000 1 0 20:20 05.02.2020
3417 Clouds 3 1036 73 10000 1 360 19:59 05.02.2020
3418 Clouds 3 1036 73 10000 1 0 19:40 05.02.2020
3419 Clouds 4 1036 73 10000 1 0 19:19 05.02.2020
3420 Clouds 4 1036 73 10000 1 0 18:57 05.02.2020
3421 Clouds 4 1036 73 10000 2.1 220 18:39 05.02.2020
3422 Clouds 4 1035 73 10000 2.1 260 18:19 05.02.2020
3423 Clouds 5 1035 73 10000 1 280 17:39 05.02.2020
3424 Clear 6 1036 58 10000 2.6 260 17:20 05.02.2020
3425 Clear 6 1036 58 10000 2.1 250 16:58 05.02.2020
3426 Clear 7 1036 58 10000 1 0 16:40 05.02.2020
3427 Clear 7 1036 58 10000 1 0 16:40 05.02.2020
3428 Clear 7 1036 58 10000 1 0 16:22 05.02.2020
3429 Clear 7 1036 58 10000 1.5 300 15:56 05.02.2020
3430 Clouds 7 1036 58 10000 1.5 240 15:38 05.02.2020
3431 Clouds 7 1036 56 10000 2.6 290 15:18 05.02.2020
3432 Clouds 7 1036 58 10000 3.1 330 14:42 05.02.2020
3433 Clouds 7 1036 70 10000 3.1 330 14:22 05.02.2020
3434 Clouds 7 1036 65 10000 3.6 310 13:57 05.02.2020
3435 Clouds 6 1037 70 10000 4.1 350 13:38 05.02.2020
3436 Clouds 6 1037 70 10000 4.1 350 13:19 05.02.2020
3437 Clouds 6 1036 70 10000 3.6 310 12:40 05.02.2020
3438 Clouds 6 1036 70 10000 3.6 310 12:21 05.02.2020
3439 Clouds 6 1036 66 10000 4.1 310 11:41 05.02.2020
3440 Clouds 5 1036 86 10000 2.6 340 11:23 05.02.2020
3441 Clouds 5 1035 93 8000 3.6 330 10:59 05.02.2020
3442 Clouds 4 1035 93 7000 2.1 350 10:39 05.02.2020
3443 Clouds 4 1035 93 7000 2.1 350 10:19 05.02.2020
3444 Clouds 4 1035 93 7000 2.1 350 10:19 05.02.2020
3445 Clouds 3 1034 93 6000 1 0 09:44 05.02.2020
3446 Clouds 3 1034 93 6000 1 0 09:22 05.02.2020
3447 Clouds 3 1034 93 8000 2.1 350 08:58 05.02.2020
3448 Clouds 2 1034 93 10000 1.5 300 08:39 05.02.2020
3449 Clouds 3 1033 93 8000 2.6 330 08:21 05.02.2020
3450 Clouds 3 1033 93 9000 3.1 310 07:44 05.02.2020
3451 Clouds 3 1032 93 9000 3.1 340 07:26 05.02.2020
3452 Clouds 3 1032 100 10000 3.6 340 06:42 05.02.2020
3453 Clouds 3 1031 93 10000 3.1 330 06:22 05.02.2020
3454 Clouds 3 1031 93 10000 3.1 330 05:48 05.02.2020
3455 Clouds 4 1031 93 10000 3.6 320 05:18 05.02.2020
3456 Clouds 3 1030 100 10000 3.6 310 04:44 05.02.2020
3457 Clouds 4 1029 93 10000 4.1 300 03:20 05.02.2020
3458 Clouds 4 1028 93 10000 4.1 300 02:23 05.02.2020
3459 Clouds 3 1027 93 10000 3.6 310 01:35 05.02.2020
3460 Clouds 3 1027 93 10000 4.1 320 00:39 05.02.2020
3461 Clouds 3 1026 93 10000 3.6 310 23:43 04.02.2020
3462 Clouds 3 1025 93 10000 5.1 310 23:23 04.02.2020
3463 Clouds 3 1024 93 10000 3.1 320 22:59 04.02.2020
3464 Clouds 3 1024 93 10000 3.1 320 22:41 04.02.2020
3465 Clouds 4 1023 93 10000 3.1 300 22:21 04.02.2020
3466 Clouds 4 1022 93 10000 1.5 310 21:59 04.02.2020
3467 Clouds 4 1022 93 10000 1 0 21:40 04.02.2020
3468 Clouds 4 1022 100 7000 1.5 280 21:19 04.02.2020
3469 Clouds 4 1022 93 10000 1 0 21:19 04.02.2020
3470 Clouds 4 1022 100 7000 1.5 280 20:58 04.02.2020
3471 Clouds 4 1021 93 10000 2.6 280 20:38 04.02.2020
3472 Clouds 4 1021 93 10000 2.6 280 20:20 04.02.2020
3473 Clouds 4 1020 93 10000 2.6 290 19:56 04.02.2020
3474 Clouds 4 1020 93 10000 2.6 290 19:56 04.02.2020
3475 Clouds 4 1020 93 7000 1 0 19:38 04.02.2020
3476 Rain 4 1020 93 5000 1 0 19:20 04.02.2020
3477 Rain 4 1019 86 10000 5.7 280 18:54 04.02.2020
3478 Rain 4 1019 93 7000 3.1 280 18:36 04.02.2020
3479 Rain 4 1018 86 10000 6.2 280 18:18 04.02.2020
3480 Rain 5 1017 86 8000 6.2 280 17:42 04.02.2020
3481 Rain 5 1017 80 8000 8.2 280 17:20 04.02.2020
3482 Clouds 5 1017 86 10000 7.2 270 16:55 04.02.2020
3483 Clouds 5 1016 80 10000 6.2 280 16:36 04.02.2020
3484 Clouds 5 1016 80 10000 6.2 280 16:18 04.02.2020
3485 Clouds 5 1015 86 10000 6.2 270 15:55 04.02.2020
3486 Clouds 5 1016 75 10000 8.2 290 15:37 04.02.2020
3487 Rain 5 1015 75 10000 9.3 280 15:18 04.02.2020
3488 Clouds 5 1015 75 8000 9.3 270 14:41 04.02.2020
3489 Rain 5 1015 75 10000 6.2 280 14:21 04.02.2020
3490 Rain 5 1015 80 8000 7.2 270 13:57 04.02.2020
3491 Clouds 5 1015 80 10000 7.2 290 13:39 04.02.2020
3492 Clouds 6 1015 80 10000 7.2 290 13:19 04.02.2020
3493 Rain 5 1014 80 10000 7.7 270 12:43 04.02.2020
3494 Rain 4 1014 86 10000 7.7 270 12:25 04.02.2020
3495 Rain 4 1014 93 10000 6.7 270 11:57 04.02.2020
3496 Rain 4 1014 93 10000 6.7 270 11:57 04.02.2020
3497 Rain 4 1013 93 10000 9.3 260 11:39 04.02.2020
3498 Rain 4 1013 93 10000 9.3 260 11:19 04.02.2020
3499 Rain 4 1013 93 5000 11.3 270 10:49 04.02.2020
3500 Rain 4 1013 86 6000 9.8 260 10:27 04.02.2020
3501 Clouds 4 1012 86 10000 4.6 260 09:58 04.02.2020
3502 Clouds 4 1012 80 10000 8.2 270 09:40 04.02.2020
3503 Clouds 4 1012 86 10000 5.1 270 09:21 04.02.2020
3504 Clouds 4 1012 86 10000 6.7 280 08:49 04.02.2020
3505 Clouds 4 1012 80 10000 7.7 270 08:28 04.02.2020
3506 Clouds 4 1011 80 10000 7.7 280 07:57 04.02.2020
3507 Clouds 4 1011 86 10000 8.2 280 07:37 04.02.2020
3508 Clouds 5 1011 80 10000 8.2 290 07:19 04.02.2020
3509 Rain 5 1010 80 10000 9.8 280 06:42 04.02.2020
3510 Clouds 5 1010 80 10000 8.2 280 05:37 04.02.2020
3511 Clouds 5 1008 86 10000 7.2 300 04:55 04.02.2020
3512 Rain 5 1007 93 10000 4.1 290 03:49 04.02.2020
3513 Rain 5 1007 100 10000 3.6 330 03:31 04.02.2020
3514 Rain 5 1006 93 10000 4.6 330 02:51 04.02.2020
3515 Rain 5 1006 93 10000 6.2 310 02:28 04.02.2020
3516 Rain 5 1006 93 10000 5.1 320 01:50 04.02.2020
3517 Rain 5 1006 93 10000 7.7 330 01:32 04.02.2020
3518 Rain 5 1005 93 10000 3.1 280 00:41 04.02.2020
3519 Rain 5 1005 93 10000 3.1 280 00:20 04.02.2020
3520 Rain 7 1006 100 10000 2.6 160 23:39 03.02.2020
3521 Rain 7 1006 100 10000 2.6 160 23:19 03.02.2020
3522 Rain 7 1007 93 10000 1.5 170 22:39 03.02.2020
3523 Rain 7 1008 93 10000 1.5 220 22:20 03.02.2020
3524 Rain 7 1008 93 10000 1.5 220 22:20 03.02.2020
3525 Rain 7 1008 93 10000 2.1 290 21:55 03.02.2020
3526 Rain 7 1009 93 10000 4.6 260 21:37 03.02.2020
3527 Rain 8 1009 93 10000 4.6 260 21:18 03.02.2020
3528 Rain 8 1009 93 10000 4.6 260 21:18 03.02.2020
3529 Rain 8 1011 93 10000 3.1 230 20:42 03.02.2020
3530 Rain 8 1011 93 10000 3.1 230 20:19 03.02.2020
3531 Rain 8 1011 93 10000 3.1 230 20:19 03.02.2020
3532 Rain 8 1011 81 8000 2.1 280 19:57 03.02.2020
3533 Rain 9 1012 93 10000 1 0 19:39 03.02.2020
3534 Rain 9 1012 93 10000 1 0 19:19 03.02.2020
3535 Rain 9 1012 87 10000 3.1 280 18:54 03.02.2020
3536 Rain 9 1012 87 10000 4.1 260 18:36 03.02.2020
3537 Rain 9 1012 87 10000 4.1 260 18:18 03.02.2020
3538 Rain 10 1013 71 10000 7.7 270 17:40 03.02.2020
3539 Clouds 10 1013 66 10000 4.6 270 17:20 03.02.2020
3540 Clouds 10 1013 66 10000 5.1 270 16:59 03.02.2020
3541 Clouds 10 1013 66 10000 7.2 270 16:38 03.02.2020
3542 Clouds 11 1014 66 10000 8.2 270 16:20 03.02.2020
3543 Clouds 11 1014 71 10000 8.2 260 15:55 03.02.2020
3544 Clouds 11 1014 71 10000 7.2 270 15:37 03.02.2020
3545 Clouds 11 1014 71 10000 7.2 270 15:18 03.02.2020
3546 Rain 11 1014 71 10000 6.7 270 14:41 03.02.2020
3547 Rain 11 1014 71 10000 7.7 270 14:23 03.02.2020
3548 Rain 11 1014 71 10000 8.2 260 13:56 03.02.2020
3549 Rain 11 1014 76 10000 6.7 280 13:37 03.02.2020
3550 Rain 11 1014 76 10000 6.7 280 13:19 03.02.2020
3551 Clouds 11 1014 71 10000 10.8 270 12:42 03.02.2020
3552 Rain 11 1014 71 10000 8.7 270 12:23 03.02.2020
3553 Clouds 11 1014 66 10000 8.7 270 11:59 03.02.2020
3554 Clouds 11 1014 71 10000 8.7 260 11:38 03.02.2020
3555 Rain 11 1014 71 10000 8.7 260 11:19 03.02.2020
3556 Rain 11 1014 71 10000 8.7 260 10:57 03.02.2020
3557 Clouds 11 1014 71 10000 10.3 270 10:38 03.02.2020
3558 Clouds 11 1013 71 10000 6.7 260 10:38 03.02.2020
3559 Clouds 11 1013 71 10000 6.7 260 10:19 03.02.2020
3560 Clouds 10 1013 76 10000 8.2 270 09:39 03.02.2020
3561 Clouds 10 1013 76 10000 7.7 260 09:19 03.02.2020
3562 Clouds 10 1013 76 10000 7.7 260 08:41 03.02.2020
3563 Clouds 10 1013 76 10000 7.7 260 08:23 03.02.2020
3564 Clouds 10 1012 76 10000 7.2 260 07:56 03.02.2020
3565 Clouds 10 1012 76 10000 7.7 260 07:38 03.02.2020
3566 Clouds 10 1012 76 10000 7.7 260 07:19 03.02.2020
3567 Clouds 10 1012 76 10000 8.2 260 06:42 03.02.2020
3568 Clouds 10 1012 71 10000 10.3 270 06:24 03.02.2020
3569 Clouds 10 1012 76 10000 6.7 260 05:35 03.02.2020
3570 Clouds 10 1012 76 10000 8.2 260 04:50 03.02.2020
3571 Rain 10 1011 76 10000 5.7 240 02:58 03.02.2020
3572 Rain 10 1011 71 10000 6.2 230 02:32 03.02.2020
3573 Clouds 10 1011 66 10000 8.7 250 01:24 03.02.2020
3574 Clouds 11 1011 66 10000 7.7 260 00:37 03.02.2020
3575 Clouds 11 1011 66 10000 4.6 250 00:19 03.02.2020
3576 Clouds 11 1011 76 10000 6.2 250 23:37 02.02.2020
3577 Clouds 11 1011 76 10000 6.2 250 23:19 02.02.2020
3578 Clouds 11 1011 76 10000 5.7 260 22:55 02.02.2020
3579 Clouds 11 1010 71 10000 12.9 240 22:36 02.02.2020
3580 Clouds 11 1010 71 10000 11.8 250 22:18 02.02.2020
3581 Clouds 11 1011 76 10000 7.7 270 21:41 02.02.2020
3582 Clouds 11 1011 71 10000 7.2 260 21:22 02.02.2020
3583 Clouds 11 1011 71 10000 6.2 260 20:58 02.02.2020
3584 Clouds 11 1011 71 10000 8.2 270 20:39 02.02.2020
3585 Clouds 11 1010 76 10000 12.3 270 20:39 02.02.2020
3586 Clouds 12 1011 71 10000 8.2 270 20:21 02.02.2020
3587 Clouds 12 1010 76 10000 8.7 270 19:59 02.02.2020
3588 Clouds 12 1010 76 10000 9.3 270 19:41 02.02.2020
3589 Clouds 12 1010 76 10000 9.3 270 19:23 02.02.2020
3590 Clouds 12 1009 76 10000 8.7 270 18:57 02.02.2020
3591 Clouds 12 1009 76 10000 9.3 260 18:38 02.02.2020
3592 Clouds 12 1009 76 10000 9.3 260 18:20 02.02.2020
3593 Clouds 12 1009 71 10000 8.7 270 17:58 02.02.2020
3594 Rain 12 1008 76 10000 12.9 270 17:38 02.02.2020
3595 Clouds 13 1008 76 10000 8.7 260 17:18 02.02.2020
3596 Clouds 13 1008 82 10000 10.3 270 16:58 02.02.2020
3597 Rain 13 1007 76 10000 13.9 270 16:39 02.02.2020
3598 Clouds 13 1007 82 10000 8.2 260 16:19 02.02.2020
3599 Rain 13 1007 82 10000 9.3 270 15:57 02.02.2020
3600 Rain 13 1006 82 6000 12.9 270 15:38 02.02.2020
3601 Clouds 13 1006 87 10000 10.8 260 15:19 02.02.2020
3602 Clouds 13 1005 87 10000 7.2 260 14:54 02.02.2020
3603 Drizzle 12 1005 93 10000 3.1 180 14:36 02.02.2020
3604 Drizzle 12 1005 93 10000 3.1 180 14:18 02.02.2020
3605 Clouds 11 1005 100 10000 3.6 150 13:54 02.02.2020
3606 Drizzle 11 1005 93 10000 3.6 150 13:36 02.02.2020
3607 Drizzle 10 1005 93 10000 3.6 150 13:18 02.02.2020
3608 Drizzle 8 1006 100 10000 4.1 140 12:40 02.02.2020
3609 Drizzle 8 1006 100 10000 4.1 140 12:22 02.02.2020
3610 Rain 7 1007 93 10000 3.6 130 11:56 02.02.2020
3611 Rain 7 1006 93 6000 3.1 140 11:37 02.02.2020
3612 Drizzle 7 1007 93 10000 3.6 120 11:18 02.02.2020
3613 Rain 7 1008 93 10000 4.1 130 10:55 02.02.2020
3614 Rain 7 1008 93 10000 4.1 130 10:55 02.02.2020
3615 Rain 6 1008 93 10000 4.6 140 10:36 02.02.2020
3616 Rain 6 1008 93 10000 4.6 140 10:18 02.02.2020
3617 Rain 6 1010 87 10000 3.6 140 09:40 02.02.2020
3618 Rain 6 1010 87 10000 3.6 140 09:21 02.02.2020
3619 Rain 6 1010 87 10000 4.1 140 08:57 02.02.2020
3620 Rain 7 1010 87 7000 3.1 160 08:39 02.02.2020
3621 Rain 7 1011 75 10000 4.6 160 08:20 02.02.2020
3622 Clouds 7 1011 75 10000 3.6 170 07:44 02.02.2020
3623 Clouds 7 1011 75 10000 3.1 190 07:26 02.02.2020
3624 Clouds 7 1011 75 10000 3.1 210 06:39 02.02.2020
3625 Clouds 7 1012 70 10000 4.6 220 06:21 02.02.2020
3626 Clouds 7 1012 70 10000 5.7 230 05:47 02.02.2020
3627 Rain 8 1013 75 10000 8.2 250 04:34 02.02.2020
3628 Clouds 8 1013 75 10000 7.7 240 03:25 02.02.2020
3629 Clouds 8 1012 70 10000 6.7 250 02:27 02.02.2020
3630 Clouds 8 1012 75 10000 7.2 260 01:52 02.02.2020
3631 Clouds 8 1012 75 10000 7.2 260 01:52 02.02.2020
3632 Clouds 8 1012 75 10000 7.7 250 01:19 02.02.2020
3633 Clouds 8 1012 75 10000 7.7 260 00:43 02.02.2020
3634 Clouds 8 1011 75 10000 7.7 250 00:20 02.02.2020
3635 Clouds 8 1011 70 10000 7.2 260 23:45 01.02.2020
3636 Clouds 8 1011 70 10000 6.7 260 23:21 01.02.2020
3637 Clouds 8 1010 70 10000 8.7 270 22:50 01.02.2020
3638 Clouds 9 1010 76 10000 7.2 260 22:20 01.02.2020
3639 Clouds 9 1009 70 10000 7.7 260 21:57 01.02.2020
3640 Clouds 9 1009 70 10000 7.7 260 21:38 01.02.2020
3641 Clouds 9 1009 66 10000 9.3 270 21:18 01.02.2020
3642 Clouds 10 1007 71 10000 8.7 270 20:40 01.02.2020
3643 Clouds 10 1007 71 10000 8.7 270 20:20 01.02.2020
3644 Clouds 10 1007 76 10000 6.7 270 19:57 01.02.2020
3645 Clouds 10 1007 76 10000 6.2 260 19:39 01.02.2020
3646 Clouds 10 1007 76 10000 6.2 260 19:19 01.02.2020
3647 Clouds 11 1006 76 10000 6.7 250 18:57 01.02.2020
3648 Clouds 11 1006 76 10000 5.1 250 18:39 01.02.2020
3649 Clouds 11 1006 76 10000 5.1 250 18:21 01.02.2020
3650 Clouds 11 1006 76 10000 6.2 260 17:56 01.02.2020
3651 Rain 11 1005 76 10000 8.2 250 17:38 01.02.2020
3652 Rain 11 1006 76 10000 8.2 260 17:19 01.02.2020
3653 Rain 11 1005 76 10000 8.7 260 16:42 01.02.2020
3654 Clouds 11 1005 76 10000 5.1 260 16:24 01.02.2020
3655 Clouds 12 1005 81 10000 6.2 260 15:58 01.02.2020
3656 Clouds 11 1005 87 10000 5.1 250 15:38 01.02.2020
3657 Clouds 11 1005 87 10000 5.1 250 15:19 01.02.2020
3658 Rain 11 1004 81 10000 6.2 260 14:41 01.02.2020
3659 Clouds 11 1005 93 10000 4.1 270 14:22 01.02.2020
3660 Rain 11 1004 93 10000 4.1 250 13:59 01.02.2020
3661 Rain 11 1004 93 10000 4.1 250 13:41 01.02.2020
3662 Rain 11 1004 93 10000 6.7 260 13:18 01.02.2020
3663 Rain 11 1004 93 7000 4.6 250 12:43 01.02.2020
3664 Rain 11 1004 100 8000 6.2 280 12:24 01.02.2020
3665 Rain 11 1004 93 5000 4.6 280 11:55 01.02.2020
3666 Rain 11 1004 93 5000 4.6 280 11:37 01.02.2020
3667 Rain 11 1003 100 10000 4.1 170 11:18 01.02.2020
3668 Rain 11 1003 93 10000 4.1 170 10:54 01.02.2020
3669 Rain 11 1003 93 10000 4.1 170 10:36 01.02.2020
3670 Rain 11 1003 93 10000 4.1 170 10:18 01.02.2020
3671 Rain 11 1004 93 10000 3.6 170 09:41 01.02.2020
3672 Rain 11 1004 93 10000 4.6 170 09:22 01.02.2020
3673 Rain 11 1004 93 10000 5.1 170 08:58 01.02.2020
3674 Rain 11 1004 93 10000 4.6 170 08:27 01.02.2020
3675 Rain 11 1004 93 10000 4.1 170 07:46 01.02.2020
3676 Rain 11 1005 87 10000 5.1 180 07:24 01.02.2020
3677 Rain 11 1005 81 10000 4.6 190 06:49 01.02.2020
3678 Clouds 12 1006 76 10000 4.1 190 05:54 01.02.2020
3679 Clouds 12 1006 76 10000 4.1 190 05:54 01.02.2020
3680 Clouds 12 1007 81 10000 3.1 200 04:58 01.02.2020
3681 Clouds 11 1007 76 10000 4.6 240 03:39 01.02.2020
3682 Clouds 11 1007 81 10000 0.5 0 03:18 01.02.2020
3683 Clouds 11 1008 81 10000 3.1 170 02:41 01.02.2020
3684 Clouds 12 1008 81 10000 3.1 170 02:21 01.02.2020
3685 Clouds 12 1008 76 10000 2.6 190 01:48 01.02.2020
3686 Clouds 12 1009 76 10000 4.1 180 01:28 01.02.2020
3687 Clouds 12 1009 76 10000 4.1 200 00:25 01.02.2020
3688 Clouds 12 1009 87 10000 3.6 160 23:42 31.01.2020
3689 Clouds 12 1009 76 10000 3.1 130 23:19 31.01.2020
3690 Clouds 12 1009 76 10000 3.1 130 23:19 31.01.2020
3691 Clouds 11 1009 76 10000 3.6 130 22:58 31.01.2020
3692 Clouds 11 1009 76 10000 3.6 130 22:40 31.01.2020
3693 Clouds 11 1010 81 10000 3.6 140 22:21 31.01.2020
3694 Clouds 11 1010 81 10000 4.6 140 21:55 31.01.2020
3695 Clouds 11 1009 76 10000 4.6 220 21:37 31.01.2020
3696 Clouds 11 1010 81 10000 3.6 130 21:19 31.01.2020
3697 Clouds 11 1010 76 10000 3.1 130 20:56 31.01.2020
3698 Clouds 11 1010 76 10000 2.1 210 20:37 31.01.2020
3699 Clouds 11 1011 81 10000 2.6 200 20:18 31.01.2020
3700 Clouds 11 1011 81 10000 2.6 200 19:55 31.01.2020
3701 Clouds 12 1011 76 10000 3.1 0 19:36 31.01.2020
3702 Clouds 12 1011 76 10000 3.1 0 19:18 31.01.2020
3703 Clouds 12 1011 71 10000 4.6 240 18:39 31.01.2020
3704 Clouds 12 1011 71 10000 6.2 210 18:21 31.01.2020
3705 Clouds 12 1010 71 10000 4.1 210 17:46 31.01.2020
3706 Clouds 12 1010 71 10000 3.6 220 17:28 31.01.2020
3707 Clouds 13 1010 71 10000 4.1 230 16:59 31.01.2020
3708 Clouds 13 1010 71 10000 4.1 240 16:39 31.01.2020
3709 Clouds 13 1010 71 10000 4.1 240 16:39 31.01.2020
3710 Clouds 13 1010 71 10000 7.7 230 16:19 31.01.2020
3711 Clouds 14 1010 67 10000 6.7 230 15:59 31.01.2020
3712 Clouds 14 1010 67 10000 6.7 230 15:59 31.01.2020
3713 Clouds 14 1010 67 10000 6.7 230 15:41 31.01.2020
3714 Clouds 14 1010 67 10000 5.1 240 15:20 31.01.2020
3715 Clouds 14 1010 67 10000 5.1 240 15:20 31.01.2020
3716 Clouds 14 1010 67 10000 5.1 230 14:55 31.01.2020
3717 Clouds 14 1010 67 10000 7.7 250 14:36 31.01.2020
3718 Clouds 14 1010 67 10000 7.7 250 14:18 31.01.2020
3719 Clouds 13 1010 67 10000 7.2 250 13:43 31.01.2020
3720 Clouds 13 1011 71 10000 3.1 260 13:24 31.01.2020
3721 Clouds 13 1011 67 10000 8.2 250 12:45 31.01.2020
3722 Clouds 13 1011 76 10000 2.6 260 12:24 31.01.2020
3723 Clouds 12 1011 81 10000 3.1 280 11:56 31.01.2020
3724 Clouds 12 1011 81 10000 3.1 280 11:38 31.01.2020
3725 Clouds 11 1011 81 10000 3.1 280 11:19 31.01.2020
3726 Clouds 11 1011 81 10000 4.6 300 10:55 31.01.2020
3727 Clouds 11 1010 81 10000 6.2 300 10:37 31.01.2020
3728 Clouds 11 1010 81 10000 6.2 300 10:18 31.01.2020
3729 Clouds 11 1010 87 10000 4.1 280 09:42 31.01.2020
3730 Clouds 11 1010 87 10000 4.1 280 09:22 31.01.2020
3731 Clouds 11 1010 81 10000 2.6 300 08:56 31.01.2020
3732 Clouds 11 1009 87 10000 3.6 280 08:38 31.01.2020
3733 Clouds 11 1009 87 10000 3.6 280 08:20 31.01.2020
3734 Clouds 11 1009 87 10000 3.1 300 07:47 31.01.2020
3735 Clouds 11 1009 87 10000 4.1 290 07:19 31.01.2020
3736 Clouds 11 1009 87 10000 4.1 290 07:19 31.01.2020
3737 Clouds 11 1008 81 10000 7.2 290 06:34 31.01.2020
3738 Clouds 12 1007 87 10000 7.2 290 05:55 31.01.2020
3739 Clouds 12 1007 93 10000 5.7 290 05:25 31.01.2020
3740 Rain 12 1006 93 10000 6.2 280 04:20 31.01.2020
3741 Clouds 12 1005 87 10000 8.2 270 02:50 31.01.2020
3742 Clouds 13 1004 82 10000 6.2 240 01:31 31.01.2020
3743 Clouds 12 1004 81 10000 4.1 210 00:40 31.01.2020
3744 Clouds 12 1004 81 10000 4.1 210 00:22 31.01.2020
3745 Clouds 12 1004 87 10000 4.1 210 23:42 30.01.2020
3746 Rain 11 1004 87 10000 6.2 210 23:23 30.01.2020
3747 Clouds 11 1003 82 10000 10.8 250 22:39 30.01.2020
3748 Clouds 11 1004 93 10000 3.1 160 22:39 30.01.2020
3749 Clouds 10 1004 93 10000 3.1 160 22:21 30.01.2020
3750 Rain 10 1004 93 10000 3.6 150 21:59 30.01.2020
3751 Rain 10 1004 93 10000 3.6 150 21:40 30.01.2020
3752 Rain 9 1004 93 10000 4.1 160 21:19 30.01.2020
3753 Rain 9 1004 93 10000 4.1 160 20:57 30.01.2020
3754 Rain 9 1003 87 10000 5.7 220 20:38 30.01.2020
3755 Rain 9 1005 87 10000 3.6 160 20:20 30.01.2020
3756 Rain 8 1005 87 10000 3.6 160 19:44 30.01.2020
3757 Rain 9 1005 87 10000 3.1 160 19:19 30.01.2020
3758 Rain 9 1005 87 10000 3.6 200 18:59 30.01.2020
3759 Clouds 9 1004 71 10000 3.6 210 18:37 30.01.2020
3760 Rain 9 1005 76 10000 5.1 180 18:18 30.01.2020
3761 Clouds 9 1005 66 10000 4.6 160 17:54 30.01.2020
3762 Rain 9 1004 71 10000 3.6 190 17:36 30.01.2020
3763 Rain 9 1005 70 10000 5.7 150 17:18 30.01.2020
3764 Clouds 10 1006 70 10000 4.6 140 16:40 30.01.2020
3765 Clouds 10 1007 66 10000 4.6 140 16:21 30.01.2020
3766 Clouds 10 1007 66 10000 5.1 150 15:58 30.01.2020
3767 Clouds 10 1006 66 10000 4.1 160 15:40 30.01.2020
3768 Clouds 10 1008 70 10000 5.7 170 15:19 30.01.2020
3769 Clouds 10 1009 70 10000 5.1 170 14:43 30.01.2020
3770 Clouds 10 1009 70 10000 5.7 170 14:25 30.01.2020
3771 Clouds 9 1010 70 10000 6.7 190 13:43 30.01.2020
3772 Clouds 9 1010 66 10000 5.7 180 13:24 30.01.2020
3773 Clouds 9 1011 70 10000 5.1 200 12:58 30.01.2020
3774 Clouds 9 1011 70 10000 5.1 200 12:39 30.01.2020
3775 Clouds 9 1011 70 0 4.6 190 12:21 30.01.2020
3776 Clouds 8 1011 66 10000 4.1 200 11:41 30.01.2020
3777 Clouds 8 1012 70 10000 4.6 180 11:23 30.01.2020
3778 Clouds 7 1012 75 10000 4.6 190 10:59 30.01.2020
3779 Clouds 7 1011 75 10000 4.6 200 10:41 30.01.2020
3780 Clouds 7 1012 75 10000 4.6 180 10:21 30.01.2020
3781 Clouds 6 1013 75 10000 3.6 170 09:47 30.01.2020
3782 Clouds 6 1012 75 10000 4.1 180 09:28 30.01.2020
3783 Clouds 6 1013 75 10000 4.6 190 08:58 30.01.2020
3784 Clouds 6 1012 75 10000 2.6 190 08:38 30.01.2020
3785 Clouds 6 1013 75 10000 4.6 190 08:19 30.01.2020
3786 Clouds 6 1012 75 10000 2.1 170 07:48 30.01.2020
3787 Clouds 6 1013 80 10000 5.1 200 07:22 30.01.2020
3788 Clouds 6 1013 75 10000 4.6 210 06:47 30.01.2020
3789 Clouds 6 1013 75 10000 4.6 210 06:47 30.01.2020
3790 Clouds 6 1013 75 10000 4.6 200 06:28 30.01.2020
3791 Clouds 6 1013 75 10000 4.1 200 05:44 30.01.2020
3792 Clouds 6 1013 75 10000 3.6 200 05:20 30.01.2020
3793 Clouds 6 1013 80 10000 4.1 190 03:54 30.01.2020
3794 Clouds 6 1013 75 10000 5.1 240 03:36 30.01.2020
3795 Clouds 6 1014 75 10000 3.6 190 02:22 30.01.2020
3796 Clouds 6 1013 70 10000 7.2 240 00:42 30.01.2020
3797 Clouds 6 1014 75 10000 4.1 170 00:20 30.01.2020
3798 Clouds 5 1014 75 10000 3.6 180 23:46 29.01.2020
3799 Clouds 5 1014 78 10000 3.6 200 23:22 29.01.2020
3800 Clouds 5 1014 78 10000 3.6 200 22:57 29.01.2020
3801 Clouds 5 1014 78 10000 3.6 200 22:38 29.01.2020
3802 Clouds 5 1014 78 10000 3.1 200 22:19 29.01.2020
3803 Clouds 4 1014 78 10000 3.6 210 21:58 29.01.2020
3804 Clouds 4 1014 78 10000 3.6 220 21:38 29.01.2020
3805 Clouds 4 1014 78 10000 3.6 220 21:19 29.01.2020
3806 Clouds 4 1014 78 10000 3.6 220 21:19 29.01.2020
3807 Clouds 4 1013 78 10000 3.1 200 20:58 29.01.2020
3808 Clouds 5 1013 77 10000 3.6 240 20:38 29.01.2020
3809 Clouds 5 1013 65 10000 3.1 230 20:38 29.01.2020
3810 Clouds 4 1013 78 10000 3.6 240 20:19 29.01.2020
3811 Clouds 5 1013 78 10000 3.6 240 19:56 29.01.2020
3812 Clouds 5 1012 78 10000 4.6 240 19:37 29.01.2020
3813 Clouds 5 1012 78 10000 4.6 240 19:18 29.01.2020
3814 Clouds 5 1012 70 10000 5.7 260 18:46 29.01.2020
3815 Clouds 5 1011 70 10000 5.7 260 18:19 29.01.2020
3816 Clouds 5 1011 75 10000 5.1 270 17:58 29.01.2020
3817 Clouds 5 1011 75 10000 5.1 270 17:58 29.01.2020
3818 Clouds 5 1011 70 10000 8.2 270 17:39 29.01.2020
3819 Clouds 6 1011 70 10000 8.2 270 17:21 29.01.2020
3820 Clouds 6 1010 75 10000 7.2 260 16:41 29.01.2020
3821 Rain 6 1010 70 10000 8.2 270 16:23 29.01.2020
3822 Clouds 6 1009 70 10000 7.2 270 15:56 29.01.2020
3823 Clouds 6 1009 70 10000 7.2 270 15:56 29.01.2020
3824 Clouds 6 1009 71 10000 10.3 270 15:37 29.01.2020
3825 Clouds 6 1009 71 10000 10.8 260 15:19 29.01.2020
3826 Rain 6 1008 70 10000 7.2 270 14:43 29.01.2020
3827 Rain 6 1008 70 10000 7.2 270 14:21 29.01.2020
3828 Rain 6 1008 70 10000 7.2 270 14:21 29.01.2020
3829 Clouds 6 1008 69 10000 8.7 280 13:56 29.01.2020
3830 Clouds 6 1008 70 10000 8.7 280 13:38 29.01.2020
3831 Clouds 6 1008 70 10000 8.7 280 13:19 29.01.2020
3832 Clouds 6 1008 75 10000 7.2 280 12:56 29.01.2020
3833 Clouds 6 1007 70 10000 9.8 270 12:37 29.01.2020
3834 Clouds 6 1008 75 10000 7.2 260 12:19 29.01.2020
3835 Clouds 5 1007 70 10000 12.9 260 11:45 29.01.2020
3836 Clouds 5 1007 75 10000 7.7 250 11:21 29.01.2020
3837 Clouds 5 1007 75 10000 7.2 240 10:47 29.01.2020
3838 Clouds 4 1007 75 10000 6.7 250 10:27 29.01.2020
3839 Clouds 4 1007 80 10000 8.2 240 09:59 29.01.2020
3840 Clouds 4 1007 80 10000 8.2 240 09:40 29.01.2020
3841 Clouds 4 1007 80 10000 8.2 240 09:20 29.01.2020
3842 Clouds 4 1006 75 10000 7.2 250 08:56 29.01.2020
3843 Clouds 4 1006 75 10000 7.2 250 08:38 29.01.2020
3844 Clouds 4 1006 80 10000 5.7 250 08:18 29.01.2020
3845 Clouds 4 1006 80 10000 6.7 240 07:43 29.01.2020
3846 Clouds 4 1005 80 10000 7.2 250 07:23 29.01.2020
3847 Clouds 4 1005 74 10000 6.2 250 06:39 29.01.2020
3848 Clouds 4 1005 80 10000 7.7 250 06:21 29.01.2020
3849 Clouds 4 1005 80 10000 7.7 260 05:59 29.01.2020
3850 Clouds 4 1005 80 10000 7.7 260 05:39 29.01.2020
3851 Clouds 4 1004 80 10000 7.7 260 05:21 29.01.2020
3852 Clouds 4 1003 78 10000 8.2 250 04:37 29.01.2020
3853 Clouds 3 1002 86 10000 5.1 250 02:43 29.01.2020
3854 Clouds 3 1001 80 10000 7.2 260 01:49 29.01.2020
3855 Rain 3 1001 93 10000 2.6 280 00:42 29.01.2020
3856 Rain 4 1001 80 10000 4.6 220 00:23 29.01.2020
3857 Clouds 4 1000 82 10000 3.6 180 23:45 28.01.2020
3858 Clouds 4 1000 71 10000 3.1 180 23:21 28.01.2020
3859 Clouds 4 1001 80 10000 2.6 180 22:58 28.01.2020
3860 Clouds 4 1000 69 10000 3.6 220 22:40 28.01.2020
3861 Clouds 4 1001 74 10000 4.1 210 22:21 28.01.2020
3862 Clouds 4 1001 69 10000 5.1 220 21:42 28.01.2020
3863 Clouds 4 1001 69 10000 3.6 200 21:22 28.01.2020
3864 Clouds 4 1001 69 10000 3.6 210 20:58 28.01.2020
3865 Clouds 4 1000 65 10000 8.7 240 20:40 28.01.2020
3866 Clouds 4 1001 69 10000 4.1 220 20:21 28.01.2020
3867 Clouds 4 1001 65 10000 5.7 240 19:39 28.01.2020
3868 Rain 4 1000 69 10000 6.2 240 19:20 28.01.2020
3869 Rain 4 1000 59 10000 5.7 240 18:58 28.01.2020
3870 Rain 4 1000 59 10000 5.7 240 18:58 28.01.2020
3871 Rain 4 1000 69 10000 7.7 250 18:39 28.01.2020
3872 Clouds 4 1000 69 10000 7.7 250 18:21 28.01.2020
3873 Rain 4 999 65 10000 7.2 240 17:57 28.01.2020
3874 Rain 4 999 65 10000 9.8 250 17:37 28.01.2020
3875 Rain 5 999 65 10000 9.8 250 17:19 28.01.2020
3876 Rain 5 999 60 10000 10.3 250 16:55 28.01.2020
3877 Clouds 5 998 65 10000 10.3 240 16:36 28.01.2020
3878 Rain 5 997 60 10000 11.3 250 16:18 28.01.2020
3879 Clouds 5 997 60 10000 13.4 260 15:42 28.01.2020
3880 Clouds 5 997 55 10000 10.8 260 15:19 28.01.2020
3881 Clouds 5 997 60 10000 11.3 250 14:55 28.01.2020
3882 Clouds 6 996 60 10000 11.8 250 14:36 28.01.2020
3883 Clouds 6 996 60 10000 11.8 250 14:18 28.01.2020
3884 Clouds 6 995 60 10000 14.4 260 13:39 28.01.2020
3885 Clouds 6 996 52 10000 11.8 250 13:21 28.01.2020
3886 Clouds 5 995 75 10000 10.3 250 12:42 28.01.2020
3887 Clouds 5 995 75 10000 10.8 250 12:23 28.01.2020
3888 Clouds 5 995 75 10000 10.8 250 12:23 28.01.2020
3889 Rain 5 994 75 10000 8.7 250 11:55 28.01.2020
3890 Clouds 5 993 75 10000 11.8 250 11:37 28.01.2020
3891 Clouds 5 993 75 10000 11.8 250 11:18 28.01.2020
3892 Clouds 5 992 75 10000 10.3 250 10:40 28.01.2020
3893 Clouds 5 993 80 10000 4.1 230 10:22 28.01.2020
3894 Rain 4 993 86 10000 7.2 250 09:55 28.01.2020
3895 Rain 5 992 80 9000 7.7 240 09:37 28.01.2020
3896 Rain 5 992 80 9000 7.7 240 09:18 28.01.2020
3897 Rain 5 991 81 2800 7.7 240 08:41 28.01.2020
3898 Rain 5 992 87 10000 4.6 170 08:19 28.01.2020
3899 Rain 6 993 87 10000 5.1 180 07:38 28.01.2020
3900 Clouds 6 993 93 10000 4.6 140 06:51 28.01.2020
3901 Clouds 6 994 93 10000 4.6 150 06:29 28.01.2020
3902 Clouds 6 994 93 10000 4.6 150 06:29 28.01.2020
3903 Clouds 6 994 93 10000 3.1 140 05:56 28.01.2020
3904 Clouds 6 995 81 10000 2.6 180 05:34 28.01.2020
3905 Rain 6 996 87 10000 5.1 250 04:39 28.01.2020
3906 Rain 6 996 81 10000 4.1 180 03:36 28.01.2020
3907 Rain 7 996 87 10000 5.7 220 02:32 28.01.2020
3908 Rain 7 996 81 10000 6.7 180 01:58 28.01.2020
3909 Rain 7 995 81 9000 5.1 220 01:40 28.01.2020
3910 Rain 7 997 81 10000 6.2 170 00:51 28.01.2020
3911 Clouds 7 997 81 10000 5.7 160 00:30 28.01.2020
3912 Rain 7 998 81 10000 6.2 170 23:59 27.01.2020
3913 Rain 7 998 81 10000 6.2 170 23:41 27.01.2020
3914 Rain 7 998 81 10000 7.2 170 23:18 27.01.2020
3915 Clouds 7 998 81 10000 6.2 160 22:44 27.01.2020
3916 Rain 7 1000 87 10000 5.1 130 22:20 27.01.2020
3917 Clouds 7 1000 87 10000 5.1 140 21:57 27.01.2020
3918 Clouds 7 999 75 10000 3.6 170 21:38 27.01.2020
3919 Clouds 7 1002 93 10000 4.6 150 21:18 27.01.2020
3920 Clouds 7 1002 93 10000 4.6 150 20:55 27.01.2020
3921 Clouds 7 1002 93 10000 5.1 140 20:37 27.01.2020
3922 Clouds 7 1002 93 10000 5.1 140 20:18 27.01.2020
3923 Clouds 7 1003 93 10000 4.6 150 19:42 27.01.2020
3924 Clouds 7 1003 93 10000 3.6 140 19:23 27.01.2020
3925 Clouds 7 1004 93 10000 3.6 140 18:58 27.01.2020
3926 Clouds 7 1004 93 10000 3.6 140 18:39 27.01.2020
3927 Clouds 7 1004 93 10000 4.1 140 18:20 27.01.2020
3928 Clouds 7 1004 93 10000 4.1 140 18:20 27.01.2020
3929 Clouds 7 1004 93 10000 4.1 140 18:20 27.01.2020
3930 Rain 7 1004 93 10000 4.1 130 17:57 27.01.2020
3931 Clouds 7 1004 81 10000 1 140 17:37 27.01.2020
3932 Clouds 7 1004 81 10000 1 140 17:37 27.01.2020
3933 Rain 7 1006 93 10000 3.6 150 17:18 27.01.2020
3934 Rain 7 1004 87 10000 4.1 190 16:42 27.01.2020
3935 Rain 7 1006 93 10000 3.1 140 16:24 27.01.2020
3936 Rain 7 1005 87 8000 3.6 180 15:59 27.01.2020
3937 Rain 8 1005 87 8000 3.6 180 15:40 27.01.2020
3938 Rain 8 1006 87 10000 6.2 190 15:19 27.01.2020
3939 Rain 8 1007 81 10000 6.2 210 14:56 27.01.2020
3940 Rain 8 1007 76 10000 5.1 190 14:37 27.01.2020
3941 Rain 8 1006 75 10000 5.7 210 14:37 27.01.2020
3942 Rain 8 1007 76 10000 5.7 180 14:19 27.01.2020
3943 Rain 8 1007 76 10000 5.7 180 13:42 27.01.2020
3944 Clouds 9 1007 76 10000 5.7 180 13:22 27.01.2020
3945 Clouds 9 1008 76 10000 5.1 180 12:57 27.01.2020
3946 Clouds 9 1008 76 10000 5.1 180 12:57 27.01.2020
3947 Clouds 9 1008 76 10000 5.1 180 12:39 27.01.2020
3948 Clouds 9 1008 76 10000 5.1 170 12:20 27.01.2020
3949 Clouds 9 1009 76 10000 5.7 170 11:42 27.01.2020
3950 Clouds 9 1008 76 10000 4.6 190 11:42 27.01.2020
3951 Clouds 8 1009 81 10000 4.1 170 11:21 27.01.2020
3952 Clouds 8 1009 81 10000 4.6 170 10:56 27.01.2020
3953 Clouds 8 1010 81 10000 4.6 180 10:37 27.01.2020
3954 Clouds 8 1010 81 10000 4.6 180 10:18 27.01.2020
3955 Clouds 8 1010 87 10000 4.1 150 09:39 27.01.2020
3956 Clouds 8 1010 87 10000 4.1 150 09:19 27.01.2020
3957 Rain 8 1010 93 10000 4.1 140 08:55 27.01.2020
3958 Clouds 8 1010 87 10000 4.1 140 08:37 27.01.2020
3959 Clouds 7 1010 87 10000 4.1 140 08:18 27.01.2020
3960 Rain 7 1011 93 10000 5.1 140 07:45 27.01.2020
3961 Rain 7 1011 93 10000 5.1 140 07:25 27.01.2020
3962 Rain 7 1010 81 10000 3.1 190 06:37 27.01.2020
3963 Rain 7 1010 81 10000 3.1 190 06:37 27.01.2020
3964 Rain 7 1012 87 10000 4.6 130 05:38 27.01.2020
3965 Rain 7 1013 93 10000 4.1 130 04:37 27.01.2020
3966 Clouds 6 1012 81 10000 3.1 180 03:35 27.01.2020
3967 Clouds 6 1014 86 10000 5.1 130 01:54 27.01.2020
3968 Clouds 6 1014 86 10000 4.6 130 01:25 27.01.2020
3969 Clouds 6 1014 86 10000 4.1 130 00:41 27.01.2020
3970 Clouds 6 1014 86 10000 4.1 130 00:21 27.01.2020
3971 Clouds 6 1014 86 10000 2.6 140 23:43 26.01.2020
3972 Clouds 6 1015 86 10000 3.1 120 23:22 26.01.2020
3973 Clouds 6 1015 86 10000 3.1 140 22:58 26.01.2020
3974 Clouds 6 1015 86 10000 4.1 160 22:38 26.01.2020
3975 Clouds 6 1015 86 10000 4.1 160 22:20 26.01.2020
3976 Clouds 6 1015 81 10000 3.1 160 21:58 26.01.2020
3977 Clouds 6 1014 81 10000 2.6 180 21:39 26.01.2020
3978 Clouds 6 1015 81 10000 4.6 160 21:21 26.01.2020
3979 Clouds 6 1015 81 10000 4.6 160 21:21 26.01.2020
3980 Clouds 6 1015 81 10000 4.6 160 20:58 26.01.2020
3981 Clouds 6 1015 81 10000 3.1 140 20:38 26.01.2020
3982 Clouds 6 1015 81 10000 3.1 140 20:19 26.01.2020
3983 Clouds 6 1015 87 10000 3.6 130 19:59 26.01.2020
3984 Clouds 6 1015 75 10000 5.7 200 19:38 26.01.2020
3985 Clouds 6 1015 81 10000 3.6 130 19:20 26.01.2020
3986 Clouds 6 1015 81 10000 3.6 130 18:56 26.01.2020
3987 Clouds 6 1015 81 10000 3.6 130 18:38 26.01.2020
3988 Clouds 6 1015 81 10000 3.6 130 18:20 26.01.2020
3989 Clouds 6 1015 81 10000 3.6 130 17:55 26.01.2020
3990 Clouds 6 1015 81 10000 4.1 140 17:37 26.01.2020
3991 Clouds 8 1015 75 10000 4.1 130 17:18 26.01.2020
3992 Clouds 8 1015 75 10000 4.1 130 16:56 26.01.2020
3993 Clouds 8 1015 75 10000 4.1 130 16:38 26.01.2020
3994 Clouds 8 1015 75 10000 4.1 130 16:19 26.01.2020
3995 Clouds 9 1015 61 10000 3.6 210 15:43 26.01.2020
3996 Clouds 9 1015 57 10000 2.6 180 15:22 26.01.2020
3997 Clouds 9 1015 57 10000 2.6 180 14:58 26.01.2020
3998 Clouds 9 1015 57 10000 2.6 180 14:38 26.01.2020
3999 Clouds 9 1015 66 10000 2.6 170 14:19 26.01.2020
4000 Clouds 8 1015 66 10000 2.6 170 13:40 26.01.2020
4001 Clouds 8 1016 76 10000 2.6 120 13:20 26.01.2020
4002 Clouds 7 1017 87 10000 2.6 110 12:56 26.01.2020
4003 Clouds 7 1017 87 10000 2.6 110 12:37 26.01.2020
4004 Clouds 7 1017 87 10000 2.6 110 12:19 26.01.2020
4005 Clouds 7 1017 87 10000 2.6 110 12:19 26.01.2020
4006 Clouds 6 1017 87 10000 2.6 110 11:57 26.01.2020
4007 Clouds 6 1017 87 10000 2.6 110 11:57 26.01.2020
4008 Clouds 6 1017 93 10000 1.5 130 11:37 26.01.2020
4009 Clouds 5 1017 93 10000 1.5 130 11:18 26.01.2020
4010 Clouds 4 1017 86 10000 3.6 110 10:56 26.01.2020
4011 Clouds 4 1017 86 10000 3.6 110 10:38 26.01.2020
4012 Clouds 3 1017 86 10000 3.6 110 10:19 26.01.2020
4013 Clouds 3 1017 93 10000 2.6 110 09:56 26.01.2020
4014 Clouds 3 1017 100 10000 2.6 110 09:37 26.01.2020
4015 Clouds 3 1017 93 10000 2.6 100 09:19 26.01.2020
4016 Clouds 2 1016 100 10000 1.5 100 08:41 26.01.2020
4017 Clear 2 1017 87 10000 2.6 110 08:22 26.01.2020
4018 Clouds 2 1017 87 10000 2.6 100 07:50 26.01.2020
4019 Clouds 2 1017 87 10000 2.6 110 07:27 26.01.2020
4020 Clouds 2 1018 87 10000 2.1 100 06:55 26.01.2020
4021 Clouds 1 1018 87 10000 1.5 110 06:25 26.01.2020
4022 Mist 1 1017 86 3500 2.1 110 05:29 26.01.2020
4023 Clouds 1 1019 86 10000 2.6 110 03:57 26.01.2020
4024 Fog 1 1019 86 300 2.1 120 02:38 26.01.2020
4025 Clouds 2 1020 100 7000 3.1 110 01:45 26.01.2020
4026 Clouds 2 1020 93 7000 4.1 130 01:23 26.01.2020
4027 Clouds 2 1020 93 6000 3.1 140 00:43 26.01.2020
4028 Clouds 2 1020 93 6000 2.6 110 00:25 26.01.2020
4029 Fog 2 1020 100 100 2.1 120 23:40 25.01.2020
4030 Fog 2 1020 100 100 2.1 120 23:21 25.01.2020
4031 Fog 2 1020 100 100 2.1 120 22:58 25.01.2020
4032 Fog 2 1020 100 100 2.1 120 22:39 25.01.2020
4033 Clouds 2 1027 87 0 1.34 128 22:18 25.01.2020
4034 Clouds 2 1026 87 0 2.24 82 21:56 25.01.2020
4035 Clouds 2 1020 100 150 2.1 110 21:38 25.01.2020
4036 Clouds 2 1021 87 0 1.89 122 21:19 25.01.2020
4037 Clouds 2 1020 100 350 1.5 0 20:43 25.01.2020
4038 Clouds 2 1020 100 350 1.5 0 20:25 25.01.2020
4039 Clouds 3 1021 78 0 1.94 123 19:55 25.01.2020
4040 Clouds 3 1027 87 0 0.89 123 19:37 25.01.2020
4041 Clouds 3 1027 87 0 1.79 87 19:18 25.01.2020
4042 Clouds 3 1020 93 7000 2.1 150 18:41 25.01.2020
4043 Clouds 3 1020 93 7000 2.1 150 18:21 25.01.2020
4044 Clouds 3 1020 93 7000 2.1 150 17:57 25.01.2020
4045 Clouds 3 1020 86 10000 2.1 140 17:37 25.01.2020
4046 Clouds 4 1020 86 10000 2.1 140 17:37 25.01.2020
4047 Clouds 4 1020 86 10000 2.1 140 17:18 25.01.2020
4048 Clouds 4 1020 86 10000 2.1 140 16:42 25.01.2020
4049 Clouds 4 1020 86 10000 2.1 140 16:23 25.01.2020
4050 Clouds 4 1027 84 0 1.34 136 15:58 25.01.2020
4051 Clouds 3 1021 93 2700 2.1 100 15:39 25.01.2020
4052 Clouds 3 1021 93 2700 2.1 100 15:20 25.01.2020
4053 Clouds 4 1021 93 2700 2.1 100 14:43 25.01.2020
4054 Clear 3 1021 100 5000 2.1 100 14:19 25.01.2020
4055 Clear 3 1021 100 5000 2.1 100 13:54 25.01.2020
4056 Clear 3 1022 100 1000 2.1 130 13:36 25.01.2020
4057 Clear 2 1022 100 1000 2.1 130 13:18 25.01.2020
4058 Clear 2 1022 100 1000 2.1 130 13:18 25.01.2020
4059 Mist 2 1023 58 3500 3.6 140 12:41 25.01.2020
4060 Mist 2 1023 58 3500 3.6 140 12:20 25.01.2020
4061 Mist 1 1023 58 3500 3.6 140 11:40 25.01.2020
4062 Mist 1 1023 57 3500 2.1 120 11:20 25.01.2020
4063 Mist 1 1023 57 3500 2.1 120 10:56 25.01.2020
4064 Mist 1 1023 57 3500 2.1 120 10:38 25.01.2020
4065 Mist 1 1022 57 5000 2.1 110 10:38 25.01.2020
4066 Mist 1 1022 57 5000 2.1 110 10:19 25.01.2020
4067 Clouds 0 1022 57 6000 2.1 110 09:40 25.01.2020
4068 Clouds 0 1022 57 6000 2.1 110 09:20 25.01.2020
4069 Mist 0 1022 57 4900 2.6 130 08:43 25.01.2020
4070 Mist 0 1022 60 4900 3.1 140 08:20 25.01.2020
4071 Clear 0 1022 60 4200 2.1 140 07:41 25.01.2020
4072 Clouds 0 1022 60 8000 3.1 170 06:44 25.01.2020
4073 Clouds 0 1022 60 9000 2.6 150 06:24 25.01.2020
4074 Mist 0 1022 92 4000 2.1 190 05:44 25.01.2020
4075 Clouds 0 1022 86 8000 2.1 140 04:26 25.01.2020
4076 Clouds 0 1022 86 9000 2.6 140 03:50 25.01.2020
4077 Clouds 0 1023 86 9000 1.5 110 02:48 25.01.2020
4078 Clouds 0 1023 61 10000 1.5 80 01:59 25.01.2020
4079 Clouds 0 1023 86 7000 1.49 154 01:35 25.01.2020
4080 Clouds 0 1022 67 7000 0.5 0 00:42 25.01.2020
4081 Clouds 0 1023 67 10000 1.5 80 00:23 25.01.2020
4082 Clouds 0 1023 67 10000 2.6 70 23:57 24.01.2020
4083 Clouds 0 1023 67 7000 1.62 152 23:38 24.01.2020
4084 Clouds 1 1023 63 10000 2.6 80 23:20 24.01.2020
4085 Clouds 1 1023 63 6000 0.5 30 22:42 24.01.2020
4086 Clouds 1 1024 63 10000 1.5 100 22:24 24.01.2020
4087 Clouds 1 1024 63 10000 2.1 110 21:43 24.01.2020
4088 Clouds 1 1024 80 10000 2.1 90 21:20 24.01.2020
4089 Clouds 1 1024 80 10000 2.1 90 21:20 24.01.2020
4090 Clouds 1 1024 80 10000 2.1 90 20:56 24.01.2020
4091 Clouds 1 1023 80 10000 2.1 120 20:38 24.01.2020
4092 Clouds 1 1023 80 10000 2.1 120 20:19 24.01.2020
4093 Mist 1 1023 57 3000 1.5 10 19:56 24.01.2020
4094 Mist 1 1023 57 3000 1.5 10 19:38 24.01.2020
4095 Clouds 1 1023 80 10000 2.1 100 19:20 24.01.2020
4096 Mist 1 1022 57 2200 1 0 18:43 24.01.2020
4097 Clouds 1 1023 80 10000 2.1 130 18:23 24.01.2020
4098 Clouds 1 1023 80 10000 1.5 110 17:46 24.01.2020
4099 Clouds 1 1023 80 10000 2.1 110 17:23 24.01.2020
4100 Clouds 1 1023 80 10000 1.5 90 16:59 24.01.2020
4101 Clouds 1 1023 80 10000 1.5 90 16:39 24.01.2020
4102 Clouds 1 1023 80 10000 1.5 120 16:20 24.01.2020
4103 Clouds 1 1023 80 10000 2.1 140 15:43 24.01.2020
4104 Clouds 1 1023 80 10000 1.5 70 15:22 24.01.2020
4105 Clouds 1 1023 80 10000 2.1 120 14:57 24.01.2020
4106 Clouds 1 1023 80 10000 3.1 140 14:38 24.01.2020
4107 Clouds 1 1023 80 10000 3.1 140 14:20 24.01.2020
4108 Clouds 1 1024 80 10000 2.6 140 13:42 24.01.2020
4109 Clouds 1 1024 80 10000 2.6 120 13:23 24.01.2020
4110 Mist 1 1024 92 2000 2.1 260 12:44 24.01.2020
4111 Clouds 1 1024 51 10000 2.6 130 12:22 24.01.2020
4112 Clouds 1 1024 51 10000 3.6 160 11:57 24.01.2020
4113 Fog 0 1024 92 700 0.5 0 11:38 24.01.2020
4114 Clouds 0 1024 66 10000 4.1 140 11:18 24.01.2020
4115 Clouds 0 1024 66 10000 4.1 140 11:18 24.01.2020
4116 Clouds 0 1024 66 10000 4.6 150 10:41 24.01.2020
4117 Clouds 0 1024 66 10000 3.6 160 10:20 24.01.2020
4118 Clouds 0 1024 66 10000 4.6 160 09:54 24.01.2020
4119 Clouds 0 1024 66 10000 4.1 140 09:36 24.01.2020
4120 Clouds 0 1024 66 10000 4.1 140 09:18 24.01.2020
4121 Mist 0 1024 92 3000 1.5 150 08:39 24.01.2020
4122 Mist 0 1024 92 3000 1.5 150 08:19 24.01.2020
4123 Clouds 0 1024 74 10000 2.6 160 07:48 24.01.2020
4124 Clouds 0 1024 74 10000 2.1 160 07:22 24.01.2020
4125 Mist 0 1024 74 4000 1.5 200 06:45 24.01.2020
4126 Mist 0 1024 74 3000 1 0 06:24 24.01.2020
4127 Fog 0 1024 100 400 1 130 05:37 24.01.2020
4128 Clouds 0 1025 74 10000 4.1 140 03:55 24.01.2020
4129 Clouds 0 1025 86 10000 4.1 140 02:43 24.01.2020
4130 Clouds 0 1025 86 10000 3.6 130 02:23 24.01.2020
4131 Clouds 0 1025 92 10000 1.5 130 01:39 24.01.2020
4132 Clouds 0 1026 76 10000 3.1 130 01:19 24.01.2020
4133 Clouds 0 1026 92 10000 2.1 140 00:19 24.01.2020
4134 Clouds 0 1026 92 10000 2.1 140 23:45 23.01.2020
4135 Clear 0 1027 92 10000 1.5 130 23:27 23.01.2020
4136 Clouds 1 1027 92 10000 1 0 22:59 23.01.2020
4137 Clouds 1 1027 92 10000 1.5 90 22:37 23.01.2020
4138 Clouds 1 1027 92 10000 1.5 90 22:37 23.01.2020
4139 Clouds 1 1027 92 10000 1.5 90 22:19 23.01.2020
4140 Clouds 1 1027 92 10000 1.5 90 22:19 23.01.2020
4141 Clouds 1 1027 92 10000 1.5 90 21:57 23.01.2020
4142 Clouds 1 1027 86 10000 2.6 120 21:38 23.01.2020
4143 Clouds 1 1027 77 10000 1.5 100 21:20 23.01.2020
4144 Clouds 1 1028 86 10000 2.1 120 20:58 23.01.2020
4145 Clouds 1 1027 77 9000 2.6 110 20:38 23.01.2020
4146 Clouds 2 1028 80 10000 3.1 120 20:19 23.01.2020
4147 Clouds 2 1028 78 10000 2.6 120 19:54 23.01.2020
4148 Clouds 2 1027 78 9000 2.1 120 19:36 23.01.2020
4149 Clouds 2 1028 78 10000 3.6 130 19:18 23.01.2020
4150 Clouds 2 1028 78 10000 2.1 110 18:41 23.01.2020
4151 Clouds 2 1028 78 10000 2.1 130 18:20 23.01.2020
4152 Clouds 2 1028 78 10000 3.1 140 17:58 23.01.2020
4153 Clouds 2 1028 78 7000 2.1 110 17:40 23.01.2020
4154 Clouds 2 1029 67 10000 2.6 130 17:19 23.01.2020
4155 Clouds 2 1029 67 10000 3.1 140 16:56 23.01.2020
4156 Clouds 2 1028 67 7000 3.6 110 16:36 23.01.2020
4157 Clouds 3 1029 67 10000 2.6 130 16:18 23.01.2020
4158 Clouds 3 1030 67 10000 2.6 110 15:54 23.01.2020
4159 Clouds 3 1030 67 10000 3.6 130 15:36 23.01.2020
4160 Clouds 3 1030 86 10000 4.1 150 15:18 23.01.2020
4161 Clouds 3 1030 86 10000 4.1 150 14:54 23.01.2020
4162 Clouds 3 1030 67 8000 3.1 130 14:36 23.01.2020
4163 Clouds 3 1030 65 8000 3.1 130 14:18 23.01.2020
4164 Clouds 3 1031 65 8000 3.1 130 13:39 23.01.2020
4165 Clouds 3 1031 65 8000 3.1 130 13:39 23.01.2020
4166 Clouds 3 1032 86 10000 3.6 130 13:20 23.01.2020
4167 Clouds 3 1032 65 10000 3.6 110 12:47 23.01.2020
4168 Clouds 3 1032 86 10000 4.1 120 12:25 23.01.2020
4169 Clouds 3 1033 86 10000 3.6 140 11:59 23.01.2020
4170 Clouds 3 1032 93 8000 3.1 110 11:39 23.01.2020
4171 Clouds 3 1033 86 10000 3.1 140 11:19 23.01.2020
4172 Clouds 3 1033 86 10000 2.1 140 10:45 23.01.2020
4173 Clouds 2 1033 86 10000 2.1 140 10:23 23.01.2020
4174 Clouds 2 1033 93 10000 1.5 120 09:59 23.01.2020
4175 Clouds 2 1033 93 10000 1.5 120 09:39 23.01.2020
4176 Clouds 2 1033 93 10000 1.5 90 09:20 23.01.2020
4177 Clouds 2 1034 93 10000 1 0 08:43 23.01.2020
4178 Clouds 2 1033 93 10000 1 0 08:24 23.01.2020
4179 Clouds 2 1033 93 10000 1.5 90 07:51 23.01.2020
4180 Clouds 2 1034 93 10000 1 60 07:27 23.01.2020
4181 Clouds 1 1034 93 10000 1 0 06:55 23.01.2020
4182 Clouds 2 1034 93 10000 1 0 06:25 23.01.2020
4183 Clouds 2 1034 93 10000 1.5 60 05:59 23.01.2020
4184 Clouds 2 1035 93 10000 1.5 120 04:25 23.01.2020
4185 Clouds 1 1036 100 9000 0.5 0 02:50 23.01.2020
4186 Clouds 1 1036 100 9000 1.5 90 01:51 23.01.2020
4187 Clouds 2 1037 100 7000 1.5 110 00:44 23.01.2020
4188 Clouds 2 1037 100 7000 1.5 110 00:22 23.01.2020
4189 Clouds 2 1037 100 6000 1.5 60 23:46 22.01.2020
4190 Clouds 2 1037 100 6000 1 0 23:28 22.01.2020
4191 Clouds 2 1037 100 6000 1 160 22:43 22.01.2020
4192 Clouds 2 1036 100 6000 1.5 150 22:25 22.01.2020
4193 Clouds 2 1036 76 6000 1.5 130 21:59 22.01.2020
4194 Mist 2 1036 93 1800 1.5 170 21:38 22.01.2020
4195 Mist 2 1036 93 1800 1.5 170 21:38 22.01.2020
4196 Mist 2 1036 93 1800 1.5 170 21:19 22.01.2020
4197 Mist 2 1036 93 1800 1.5 170 21:19 22.01.2020
4198 Mist 2 1037 100 3500 1.5 60 20:55 22.01.2020
4199 Drizzle 2 1036 93 1000 0.5 0 20:36 22.01.2020
4200 Drizzle 2 1036 93 800 2.1 90 20:18 22.01.2020
4201 Mist 2 1036 100 2500 1.5 60 19:54 22.01.2020
4202 Drizzle 2 1036 93 2000 1 30 19:36 22.01.2020
4203 Mist 2 1036 77 2500 1.5 40 19:18 22.01.2020
4204 Mist 2 1036 77 2500 1 90 18:54 22.01.2020
4205 Mist 2 1036 77 2500 1 60 18:36 22.01.2020
4206 Mist 2 1036 77 2500 1 60 18:18 22.01.2020
4207 Drizzle 2 1035 93 1800 0.5 0 17:39 22.01.2020
4208 Mist 2 1036 73 1600 0.5 0 17:20 22.01.2020
4209 Mist 2 1036 73 1600 0.5 60 16:57 22.01.2020
4210 Mist 2 1036 93 2500 0.5 160 16:39 22.01.2020
4211 Mist 2 1036 73 2200 0.5 0 16:20 22.01.2020
4212 Mist 2 1036 73 2000 0.5 0 15:55 22.01.2020
4213 Mist 2 1036 100 1900 1 0 15:37 22.01.2020
4214 Mist 2 1036 100 1900 1 0 15:18 22.01.2020
4215 Mist 1 1036 93 2500 1 100 14:39 22.01.2020
4216 Mist 1 1036 68 2300 0.5 0 14:20 22.01.2020
4217 Mist 1 1036 68 2200 1 0 13:57 22.01.2020
4218 Mist 1 1036 68 2500 1 0 13:37 22.01.2020
4219 Mist 1 1037 69 2700 1 0 13:19 22.01.2020
4220 Mist 0 1037 69 2500 1 0 12:57 22.01.2020
4221 Mist 0 1037 69 2500 1 0 12:38 22.01.2020
4222 Mist 0 1037 100 2200 1.5 230 12:19 22.01.2020
4223 Mist -1 1037 100 2400 1.5 150 11:57 22.01.2020
4224 Mist -1 1037 100 2400 1.5 150 11:39 22.01.2020
4225 Mist -1 1037 92 2500 1 0 11:19 22.01.2020
4226 Mist -2 1037 100 1500 2.1 180 10:45 22.01.2020
4227 Fog -2 1037 100 700 1 190 10:21 22.01.2020
4228 Fog -2 1037 100 900 0.5 0 09:59 22.01.2020
4229 Fog -2 1037 100 900 0.5 0 09:40 22.01.2020
4230 Fog -2 1037 92 500 2.6 10 09:22 22.01.2020
4231 Fog -3 1036 100 300 1 0 08:56 22.01.2020
4232 Fog -3 1036 100 300 0.5 0 08:37 22.01.2020
4233 Fog -3 1036 100 300 0.5 0 08:19 22.01.2020
4234 Fog -3 1036 100 300 1.5 210 07:44 22.01.2020
4235 Fog -3 1036 100 500 1.5 170 07:26 22.01.2020
4236 Fog -3 1036 92 100 0.5 20 06:37 22.01.2020
4237 Clouds -3 1037 92 10000 1 60 06:18 22.01.2020
4238 Clouds -3 1037 92 10000 1 30 04:27 22.01.2020
4239 Fog -3 1038 100 700 2.1 270 03:27 22.01.2020
4240 Clear -3 1038 100 10000 1 40 02:48 22.01.2020
4241 Clear -3 1038 92 10000 2.6 110 01:30 22.01.2020
4242 Clear -2 1038 92 10000 1 30 00:40 22.01.2020
4243 Clear -2 1038 92 10000 1 0 00:19 22.01.2020
4244 Clear -2 1038 86 10000 1 200 23:37 21.01.2020
4245 Clear -2 1038 100 10000 4.1 150 23:37 21.01.2020
4246 Clear -2 1038 100 10000 4.1 150 23:19 21.01.2020
4247 Clear -2 1039 92 10000 1.5 140 22:42 21.01.2020
4248 Clear -2 1039 92 10000 0.5 70 22:24 21.01.2020
4249 Clear -2 1039 92 10000 1.16 170 21:59 21.01.2020
4250 Clear -1 1039 100 10000 1 190 21:40 21.01.2020
4251 Clear -1 1039 92 10000 0.5 0 21:21 21.01.2020
4252 Clear -1 1039 100 10000 1 0 20:59 21.01.2020
4253 Clear -1 1039 92 10000 2.6 60 20:39 21.01.2020
4254 Clouds -1 1039 92 10000 2.6 60 20:20 21.01.2020
4255 Clouds -1 1039 92 10000 0.5 0 19:58 21.01.2020
4256 Clouds -1 1039 92 10000 0.5 0 19:58 21.01.2020
4257 Clouds -1 1039 92 10000 0.5 0 19:40 21.01.2020
4258 Clouds 0 1039 67 10000 2.1 60 19:21 21.01.2020
4259 Rain 0 1039 67 10000 1 40 18:57 21.01.2020
4260 Rain 0 1039 67 10000 1 40 18:39 21.01.2020
4261 Rain 1 1040 74 10000 1 0 18:21 21.01.2020
4262 Clouds 2 1040 74 10000 0.5 0 17:59 21.01.2020
4263 Clouds 2 1040 74 10000 0.5 0 17:40 21.01.2020
4264 Clouds 3 1040 69 10000 1 0 17:18 21.01.2020
4265 Clouds 3 1040 69 10000 1 0 17:18 21.01.2020
4266 Clouds 4 1040 65 10000 0.75 210 16:55 21.01.2020
4267 Clouds 4 1040 74 10000 1 290 16:36 21.01.2020
4268 Clouds 5 1040 56 10000 0.5 170 16:18 21.01.2020
4269 Clouds 5 1040 69 10000 1.5 0 15:39 21.01.2020
4270 Clouds 5 1040 60 10000 0.5 0 15:20 21.01.2020
4271 Clouds 5 1041 60 10000 1 0 14:54 21.01.2020
4272 Clouds 5 1041 69 10000 0.5 80 14:36 21.01.2020
4273 Clear 5 1041 57 10000 1.5 40 14:18 21.01.2020
4274 Clouds 4 1041 57 10000 1.5 340 13:38 21.01.2020
4275 Clear 4 1042 69 10000 1.5 0 13:18 21.01.2020
4276 Clear 3 1042 74 10000 2.1 120 12:43 21.01.2020
4277 Clear 3 1043 74 10000 2.1 110 12:24 21.01.2020
4278 Clear 2 1043 74 10000 0.5 0 11:56 21.01.2020
4279 Clouds 2 1043 57 10000 2.6 120 11:38 21.01.2020
4280 Clear 2 1043 86 10000 0.5 0 11:38 21.01.2020
4281 Clear 1 1043 86 10000 0.5 0 11:19 21.01.2020
4282 Clear 0 1043 76 10000 1 0 10:43 21.01.2020
4283 Clear -1 1043 92 10000 2.1 130 10:23 21.01.2020
4284 Clear -2 1043 92 10000 2.6 140 09:58 21.01.2020
4285 Clear -2 1043 92 10000 2.6 140 09:40 21.01.2020
4286 Clear -2 1043 92 10000 1.5 130 09:21 21.01.2020
4287 Clear -3 1043 92 10000 1 0 08:47 21.01.2020
4288 Clear -3 1043 92 10000 3.6 140 08:27 21.01.2020
4289 Clear -3 1043 92 10000 1 0 07:57 21.01.2020
4290 Clear -3 1043 92 10000 1 0 07:38 21.01.2020
4291 Clear -3 1043 92 10000 1 0 07:19 21.01.2020
4292 Clear -3 1043 92 10000 1 0 06:45 21.01.2020
4293 Clear -3 1043 92 10000 0.5 0 06:23 21.01.2020
4294 Clear -3 1043 92 10000 0.5 0 06:23 21.01.2020
4295 Clear -2 1043 92 10000 1 130 05:41 21.01.2020
4296 Clear -2 1044 92 10000 1.5 120 04:39 21.01.2020
4297 Clear -1 1045 100 10000 1 0 02:55 21.01.2020
4298 Clear -1 1045 92 10000 1.25 120 01:47 21.01.2020
4299 Mist -1 1045 100 3000 1.5 0 00:57 21.01.2020
4300 Fog -1 1045 92 500 1 130 00:35 21.01.2020
4301 Clear 0 1045 86 10000 1 0 23:57 20.01.2020
4302 Fog 0 1045 92 100 0.5 40 23:37 20.01.2020
4303 Clear 0 1045 82 10000 1.5 0 23:18 20.01.2020
4304 Clear 0 1045 82 10000 1.5 0 23:18 20.01.2020
4305 Clear 0 1046 82 10000 2.1 60 22:56 20.01.2020
4306 Fog 0 1045 100 200 1 0 22:37 20.01.2020
4307 Clear 0 1046 92 10000 0.5 0 22:19 20.01.2020
4308 Clear 1 1046 82 10000 1 0 21:57 20.01.2020
4309 Fog 0 1045 92 200 1.5 160 21:37 20.01.2020
4310 Clear 1 1046 100 10000 1 0 21:37 20.01.2020
4311 Clear 1 1046 100 10000 1 0 21:18 20.01.2020
4312 Fog 1 1045 92 700 0.5 10 20:55 20.01.2020
4313 Mist 1 1045 83 3500 0.5 70 20:36 20.01.2020
4314 Mist 1 1045 80 3500 0.5 70 20:18 20.01.2020
4315 Clouds 2 1046 80 10000 0.5 0 19:56 20.01.2020
4316 Mist 2 1045 80 4800 0.5 320 19:37 20.01.2020
4317 Clouds 2 1046 80 10000 1.5 60 19:18 20.01.2020
4318 Clouds 2 1046 80 6000 0.5 140 18:43 20.01.2020
4319 Clouds 3 1046 93 10000 1 0 18:22 20.01.2020
4320 Clouds 3 1046 93 10000 1 0 17:41 20.01.2020
4321 Clouds 4 1046 86 10000 0.5 360 17:20 20.01.2020
4322 Clouds 4 1046 80 10000 1.5 350 16:59 20.01.2020
4323 Clouds 4 1046 86 6000 1 29 16:39 20.01.2020
4324 Clouds 5 1046 75 10000 1 0 16:19 20.01.2020
4325 Clouds 5 1046 80 10000 0.5 0 16:19 20.01.2020
4326 Clouds 5 1046 80 10000 0.5 0 16:19 20.01.2020
4327 Clouds 5 1046 80 10000 0.5 0 16:19 20.01.2020
4328 Clouds 5 1046 75 10000 1 0 16:19 20.01.2020
4329 Clouds 5 1046 80 10000 0.5 0 15:56 20.01.2020
4330 Mist 5 1046 80 5000 1 50 15:38 20.01.2020
4331 Clouds 5 1047 80 10000 0.5 0 15:20 20.01.2020
4332 Clouds 5 1047 86 10000 1 0 14:41 20.01.2020
4333 Mist 5 1047 86 4000 1 350 14:23 20.01.2020
4334 Clouds 4 1048 93 6000 1.5 90 13:58 20.01.2020
4335 Clouds 4 1048 100 6000 1 0 13:40 20.01.2020
4336 Clouds 4 1048 100 6000 1 0 13:22 20.01.2020
4337 Mist 4 1048 93 5000 1 0 12:47 20.01.2020
4338 Mist 3 1048 100 3500 1 0 12:28 20.01.2020
4339 Mist 3 1048 100 3500 1 0 12:28 20.01.2020
4340 Mist 3 1048 100 3000 1.5 40 11:59 20.01.2020
4341 Mist 3 1048 100 1200 1 0 11:40 20.01.2020
4342 Mist 3 1048 100 1200 1 0 11:21 20.01.2020
4343 Fog 2 1048 100 250 1 0 10:55 20.01.2020
4344 Fog 2 1048 100 200 1 330 10:37 20.01.2020
4345 Fog 2 1048 100 250 0.5 50 10:37 20.01.2020
4346 Fog 2 1048 100 250 0.5 50 10:18 20.01.2020
4347 Fog 2 1047 100 150 1 0 09:40 20.01.2020
4348 Fog 2 1047 88 500 1.5 110 09:21 20.01.2020
4349 Fog 2 1047 88 250 1 150 08:49 20.01.2020
4350 Fog 2 1047 88 150 2.6 150 08:30 20.01.2020
4351 Fog 2 1046 93 300 2.1 250 07:53 20.01.2020
4352 Mist 2 1047 92 3500 2.1 60 07:30 20.01.2020
4353 Mist 2 1046 100 3800 1 0 06:59 20.01.2020
4354 Mist 2 1046 92 3800 1.5 140 06:30 20.01.2020
4355 Mist 2 1046 92 3500 1 40 05:44 20.01.2020
4356 Clouds 2 1046 100 8000 1.5 300 05:25 20.01.2020
4357 Clouds 2 1046 94 10000 3.1 260 04:49 20.01.2020
4358 Clouds 1 1046 94 7000 1 0 03:30 20.01.2020
4359 Clouds 1 1045 93 7000 0.5 0 01:58 20.01.2020
4360 Snow 1 1045 93 4800 0.5 50 01:38 20.01.2020
4361 Clouds 1 1046 90 10000 1.5 280 00:46 20.01.2020
4362 Clouds 1 1045 100 10000 0.5 0 00:26 20.01.2020
4363 Clouds 2 1045 100 10000 0.5 350 23:54 19.01.2020
4364 Clear 1 1045 93 10000 2.1 290 23:36 19.01.2020
4365 Clouds 2 1045 93 10000 0.5 0 23:18 19.01.2020
4366 Clouds 2 1045 100 10000 1 0 22:54 19.01.2020
4367 Clouds 2 1044 93 10000 1.5 10 22:36 19.01.2020
4368 Clouds 2 1044 93 10000 1.5 10 22:18 19.01.2020
4369 Clouds 2 1044 100 10000 3.1 350 21:55 19.01.2020
4370 Clouds 2 1044 100 10000 3.1 350 21:55 19.01.2020
4371 Clouds 2 1044 93 10000 2.1 350 21:36 19.01.2020
4372 Clouds 2 1044 93 10000 2.6 300 21:36 19.01.2020
4373 Clouds 3 1043 93 10000 2.1 340 21:18 19.01.2020
4374 Clouds 3 1043 93 10000 2.1 340 20:55 19.01.2020
4375 Clouds 3 1043 93 10000 2.1 360 20:37 19.01.2020
4376 Clouds 3 1043 93 10000 2.1 330 20:18 19.01.2020
4377 Clouds 3 1043 93 10000 2.1 330 19:54 19.01.2020
4378 Clouds 3 1042 93 10000 0.5 0 19:36 19.01.2020
4379 Clouds 4 1042 93 10000 0.5 350 19:18 19.01.2020
4380 Clouds 4 1042 93 10000 0.5 350 18:55 19.01.2020
4381 Clouds 4 1042 93 10000 1.5 340 18:36 19.01.2020
4382 Clouds 4 1042 93 10000 1.5 340 18:18 19.01.2020
4383 Drizzle 5 1041 93 10000 2.1 330 17:57 19.01.2020
4384 Clouds 5 1041 86 10000 3.1 340 17:38 19.01.2020
4385 Drizzle 5 1041 93 10000 2.1 340 17:19 19.01.2020
4386 Clouds 5 1040 93 10000 2.1 340 16:57 19.01.2020
4387 Rain 5 1040 86 10000 2.1 330 16:37 19.01.2020
4388 Rain 5 1040 86 10000 2.1 330 16:37 19.01.2020
4389 Clouds 5 1039 86 10000 2.6 330 16:19 19.01.2020
4390 Drizzle 5 1039 86 10000 1.5 10 15:55 19.01.2020
4391 Clouds 5 1039 86 10000 3.6 340 15:37 19.01.2020
4392 Drizzle 5 1039 86 10000 3.1 310 15:18 19.01.2020
4393 Clouds 5 1038 86 10000 3.1 320 14:56 19.01.2020
4394 Clouds 5 1039 86 10000 2.1 350 14:37 19.01.2020
4395 Drizzle 5 1038 93 10000 3.1 320 14:18 19.01.2020
4396 Drizzle 5 1038 93 10000 3.1 320 14:18 19.01.2020
4397 Clouds 4 1038 86 10000 2.6 330 13:54 19.01.2020
4398 Clouds 5 1038 93 10000 3.6 320 13:36 19.01.2020
4399 Clouds 4 1038 86 9000 2.6 340 13:18 19.01.2020
4400 Clouds 4 1038 86 10000 3.1 310 12:42 19.01.2020
4401 Clouds 4 1038 93 10000 1 0 12:23 19.01.2020
4402 Clouds 4 1038 93 10000 1.5 320 11:57 19.01.2020
4403 Clouds 3 1038 93 10000 3.1 290 11:39 19.01.2020
4404 Clouds 3 1037 93 10000 2.6 330 11:19 19.01.2020
4405 Clouds 3 1037 93 10000 2.6 310 10:55 19.01.2020
4406 Clouds 3 1036 93 10000 1 0 10:37 19.01.2020
4407 Clouds 2 1036 93 10000 1 0 10:18 19.01.2020
4408 Clouds 2 1035 93 8000 1 340 09:41 19.01.2020
4409 Clouds 2 1035 100 8000 0.5 0 09:23 19.01.2020
4410 Clouds 1 1034 100 10000 1 0 08:58 19.01.2020
4411 Clouds 2 1034 93 10000 3.1 280 08:39 19.01.2020
4412 Rain 2 1034 93 10000 1.5 320 08:20 19.01.2020
4413 Clouds 2 1034 93 10000 1 0 07:42 19.01.2020
4414 Clouds 2 1033 93 10000 1.5 330 07:21 19.01.2020
4415 Clouds 2 1033 93 10000 4.1 270 06:50 19.01.2020
4416 Clouds 2 1032 89 10000 3.6 270 05:41 19.01.2020
4417 Clouds 2 1031 100 10000 0.5 0 02:44 19.01.2020
4418 Clouds 2 1031 100 10000 1 180 02:21 19.01.2020
4419 Clouds 2 1030 93 10000 1 0 01:25 19.01.2020
4420 Rain 2 1030 93 8000 2.1 20 00:50 19.01.2020
4421 Clouds 3 1029 86 10000 3.1 310 00:29 19.01.2020
4422 Clouds 3 1029 86 10000 3.1 310 23:58 18.01.2020
4423 Clouds 3 1029 86 10000 3.1 310 23:40 18.01.2020
4424 Rain 3 1029 93 10000 5.1 310 23:21 18.01.2020
4425 Clouds 3 1029 93 10000 2.1 320 22:55 18.01.2020
4426 Rain 3 1029 93 8000 4.1 260 22:37 18.01.2020
4427 Rain 3 1029 93 8000 4.1 260 22:37 18.01.2020
4428 Clouds 3 1029 86 3900 6.2 290 22:19 18.01.2020
4429 Clouds 3 1029 86 3900 6.2 290 21:57 18.01.2020
4430 Clouds 3 1029 86 3900 6.2 290 21:37 18.01.2020
4431 Rain 3 1028 75 10000 6.7 290 21:19 18.01.2020
4432 Clouds 4 1028 80 10000 2.6 260 20:43 18.01.2020
4433 Clouds 4 1027 80 10000 3.1 260 20:21 18.01.2020
4434 Clouds 4 1027 80 10000 4.1 250 19:59 18.01.2020
4435 Clouds 4 1027 80 10000 4.1 250 19:40 18.01.2020
4436 Clouds 4 1027 75 10000 4.1 250 19:22 18.01.2020
4437 Clouds 4 1027 72 10000 4.1 250 18:42 18.01.2020
4438 Clouds 5 1027 75 10000 3.1 270 18:22 18.01.2020
4439 Clouds 5 1026 70 10000 4.1 260 17:56 18.01.2020
4440 Clouds 5 1026 70 10000 5.1 270 17:37 18.01.2020
4441 Clouds 5 1026 70 10000 5.1 270 17:19 18.01.2020
4442 Clouds 6 1026 70 10000 6.2 270 16:55 18.01.2020
4443 Clouds 6 1026 70 10000 4.6 270 16:36 18.01.2020
4444 Clouds 6 1026 70 10000 4.6 270 16:18 18.01.2020
4445 Clouds 6 1025 70 10000 5.1 280 15:42 18.01.2020
4446 Clouds 6 1025 70 10000 6.2 280 15:24 18.01.2020
4447 Clouds 6 1025 75 10000 6.2 270 14:58 18.01.2020
4448 Clouds 6 1025 70 10000 6.7 280 14:39 18.01.2020
4449 Rain 6 1025 81 10000 5.7 260 14:18 18.01.2020
4450 Rain 6 1025 75 10000 6.7 240 13:45 18.01.2020
4451 Clouds 6 1025 75 10000 6.7 250 13:27 18.01.2020
4452 Clouds 6 1025 81 10000 5.1 240 12:59 18.01.2020
4453 Rain 5 1025 86 10000 6.2 250 12:40 18.01.2020
4454 Rain 5 1025 86 10000 6.2 250 12:21 18.01.2020
4455 Rain 5 1025 80 10000 5.7 260 11:44 18.01.2020
4456 Rain 5 1025 75 10000 6.2 250 11:24 18.01.2020
4457 Rain 5 1024 86 10000 3.6 230 10:57 18.01.2020
4458 Clouds 5 1024 75 10000 4.1 240 10:38 18.01.2020
4459 Rain 5 1024 80 10000 3.6 230 10:20 18.01.2020
4460 Rain 5 1024 80 10000 3.6 230 10:20 18.01.2020
4461 Rain 5 1024 80 10000 3.6 230 10:20 18.01.2020
4462 Rain 5 1024 80 10000 3.6 220 09:49 18.01.2020
4463 Rain 4 1024 86 10000 3.1 210 09:31 18.01.2020
4464 Clouds 4 1023 86 10000 3.1 190 08:57 18.01.2020
4465 Clouds 4 1023 75 10000 3.1 220 08:39 18.01.2020
4466 Clouds 4 1023 86 10000 3.1 190 08:19 18.01.2020
4467 Rain 4 1023 80 10000 2.6 190 07:52 18.01.2020
4468 Clouds 4 1023 80 10000 3.1 190 07:32 18.01.2020
4469 Clouds 4 1023 80 10000 3.1 190 06:48 18.01.2020
4470 Clouds 4 1023 80 10000 3.6 190 06:18 18.01.2020
4471 Clouds 4 1023 80 10000 3.1 180 05:30 18.01.2020
4472 Clouds 4 1022 86 10000 3.6 200 03:39 18.01.2020
4473 Clouds 4 1022 80 10000 3.1 210 02:20 18.01.2020
4474 Clouds 5 1021 80 10000 4.1 220 01:36 18.01.2020
4475 Clouds 5 1021 80 10000 3.6 270 00:38 18.01.2020
4476 Clouds 5 1021 80 10000 6.2 250 00:19 18.01.2020
4477 Clouds 5 1020 80 10000 5.1 250 23:44 17.01.2020
4478 Clouds 6 1020 75 10000 6.2 250 23:21 17.01.2020
4479 Clouds 6 1020 81 10000 4.6 250 22:59 17.01.2020
4480 Clouds 6 1020 81 10000 4.6 250 22:40 17.01.2020
4481 Clouds 6 1019 75 10000 5.7 260 22:19 17.01.2020
4482 Clouds 7 1019 81 10000 6.2 260 21:43 17.01.2020
4483 Clouds 7 1019 70 10000 8.2 250 21:24 17.01.2020
4484 Clouds 7 1018 81 10000 6.2 240 20:59 17.01.2020
4485 Clouds 7 1018 81 10000 6.2 240 20:41 17.01.2020
4486 Clouds 7 1018 81 10000 4.1 220 20:20 17.01.2020
4487 Clouds 7 1017 87 10000 3.6 220 19:57 17.01.2020
4488 Clouds 8 1017 87 10000 3.6 220 19:38 17.01.2020
4489 Clouds 8 1017 100 10000 3.1 190 19:20 17.01.2020
4490 Clouds 8 1017 100 10000 3.1 190 18:58 17.01.2020
4491 Clouds 8 1017 100 10000 3.1 190 18:58 17.01.2020
4492 Clouds 8 1016 76 10000 5.1 230 18:39 17.01.2020
4493 Clouds 8 1016 93 10000 3.1 190 18:21 17.01.2020
4494 Rain 8 1016 93 10000 3.6 200 17:40 17.01.2020
4495 Rain 9 1016 93 10000 4.6 200 17:22 17.01.2020
4496 Rain 9 1015 87 10000 3.1 180 16:57 17.01.2020
4497 Rain 9 1015 87 10000 3.1 160 16:39 17.01.2020
4498 Rain 9 1015 87 10000 3.1 160 16:19 17.01.2020
4499 Clouds 9 1015 76 10000 3.6 230 15:45 17.01.2020
4500 Rain 9 1015 87 10000 3.1 190 15:26 17.01.2020
4501 Rain 9 1015 81 10000 3.6 190 14:54 17.01.2020
4502 Clouds 9 1014 76 10000 3.6 210 14:36 17.01.2020
4503 Rain 9 1015 71 10000 4.6 200 14:18 17.01.2020
4504 Rain 9 1015 76 10000 3.6 200 13:38 17.01.2020
4505 Clouds 9 1015 71 10000 4.1 160 13:19 17.01.2020
4506 Clouds 10 1015 71 10000 4.1 200 12:45 17.01.2020
4507 Clouds 10 1016 71 10000 4.6 150 12:22 17.01.2020
4508 Clouds 10 1016 71 10000 5.1 150 11:41 17.01.2020
4509 Clouds 9 1017 70 10000 2.1 140 11:19 17.01.2020
4510 Clouds 9 1016 70 10000 1.5 100 10:54 17.01.2020
4511 Clouds 9 1016 70 10000 4.1 220 10:36 17.01.2020
4512 Clouds 9 1016 70 10000 3.6 150 10:18 17.01.2020
4513 Clouds 8 1016 70 10000 3.6 120 09:41 17.01.2020
4514 Clouds 8 1017 75 10000 4.1 130 09:20 17.01.2020
4515 Clouds 8 1017 75 10000 5.1 140 08:55 17.01.2020
4516 Clouds 8 1016 75 10000 4.6 150 08:37 17.01.2020
4517 Clouds 8 1017 75 10000 3.6 120 08:18 17.01.2020
4518 Clouds 8 1017 81 10000 3.1 120 07:43 17.01.2020
4519 Clouds 8 1017 81 10000 3.1 120 07:24 17.01.2020
4520 Clouds 7 1017 81 10000 3.6 130 06:47 17.01.2020
4521 Clouds 7 1017 75 10000 4.1 130 06:29 17.01.2020
4522 Clear 8 1019 75 10000 2.6 120 04:26 17.01.2020
4523 Clouds 8 1019 75 10000 2.1 140 02:56 17.01.2020
4524 Clouds 8 1019 75 10000 2.1 140 02:56 17.01.2020
4525 Clouds 8 1020 75 10000 2.1 120 02:32 17.01.2020
4526 Clouds 9 1020 75 10000 2.1 120 01:44 17.01.2020
4527 Clouds 9 1020 70 10000 3.1 140 01:22 17.01.2020
4528 Clouds 9 1020 70 10000 3.1 140 00:37 17.01.2020
4529 Clouds 9 1020 70 10000 3.1 140 00:19 17.01.2020
4530 Clouds 9 1021 71 10000 4.6 130 23:41 16.01.2020
4531 Clouds 9 1021 71 10000 4.6 130 23:22 16.01.2020
4532 Clouds 9 1021 76 10000 4.6 120 22:41 16.01.2020
4533 Clouds 9 1022 76 10000 4.6 130 22:21 16.01.2020
4534 Clouds 9 1022 81 10000 4.1 120 21:57 16.01.2020
4535 Clouds 9 1022 76 10000 6.2 130 21:38 16.01.2020
4536 Clouds 9 1022 76 10000 6.2 130 21:19 16.01.2020
4537 Clouds 9 1023 76 10000 5.1 130 20:58 16.01.2020
4538 Clouds 9 1022 75 10000 2.1 130 20:39 16.01.2020
4539 Clear 9 1023 76 10000 5.1 130 20:19 16.01.2020
4540 Clear 9 1023 76 10000 4.1 130 19:56 16.01.2020
4541 Clouds 9 1023 81 10000 3.1 120 19:38 16.01.2020
4542 Clear 9 1023 76 10000 3.1 120 19:19 16.01.2020
4543 Clear 9 1023 71 10000 2.1 110 18:55 16.01.2020
4544 Clouds 9 1023 81 10000 2.1 130 18:37 16.01.2020
4545 Clouds 9 1023 76 10000 2.1 130 18:18 16.01.2020
4546 Clouds 10 1023 76 10000 2.1 130 17:42 16.01.2020
4547 Clear 10 1024 71 10000 4.1 140 17:23 16.01.2020
4548 Clear 11 1024 66 10000 4.6 160 16:57 16.01.2020
4549 Clouds 11 1023 66 10000 3.6 150 16:39 16.01.2020
4550 Clouds 11 1024 62 10000 5.1 170 16:21 16.01.2020
4551 Clouds 11 1024 62 10000 5.1 170 15:55 16.01.2020
4552 Clouds 12 1024 62 10000 4.6 170 15:37 16.01.2020
4553 Clouds 12 1025 66 10000 4.6 170 15:18 16.01.2020
4554 Clouds 12 1025 66 10000 4.6 170 14:41 16.01.2020
4555 Clouds 12 1025 66 10000 5.7 180 14:23 16.01.2020
4556 Clouds 11 1025 62 10000 3.6 200 13:46 16.01.2020
4557 Clouds 11 1026 66 10000 5.7 180 13:28 16.01.2020
4558 Clouds 11 1026 71 10000 5.1 160 12:57 16.01.2020
4559 Clouds 10 1025 71 10000 3.1 170 12:39 16.01.2020
4560 Clouds 10 1026 76 10000 3.6 130 12:20 16.01.2020
4561 Clouds 9 1026 81 10000 2.6 130 11:42 16.01.2020
4562 Clouds 9 1026 81 10000 2.6 130 11:42 16.01.2020
4563 Clouds 9 1027 81 10000 3.6 130 11:24 16.01.2020
4564 Clear 7 1027 81 10000 1.5 130 10:56 16.01.2020
4565 Clear 7 1027 87 10000 2.6 110 10:37 16.01.2020
4566 Clear 6 1027 87 10000 2.6 110 10:19 16.01.2020
4567 Clouds 5 1026 86 10000 1.5 150 09:44 16.01.2020
4568 Clear 5 1027 86 10000 3.6 110 09:24 16.01.2020
4569 Clear 5 1026 93 10000 1.5 110 08:59 16.01.2020
4570 Clear 5 1026 93 10000 1.5 110 08:41 16.01.2020
4571 Clear 4 1026 93 10000 1.5 50 08:20 16.01.2020
4572 Clear 4 1026 93 10000 1.5 50 07:43 16.01.2020
4573 Clear 4 1026 100 10000 1 70 07:25 16.01.2020
4574 Clouds 4 1026 93 10000 0.5 0 06:55 16.01.2020
4575 Clouds 4 1026 93 10000 2.1 160 06:35 16.01.2020
4576 Clouds 4 1026 100 10000 1 0 05:56 16.01.2020
4577 Clouds 5 1026 93 10000 1.5 50 05:31 16.01.2020
4578 Clouds 5 1025 93 10000 1.5 190 04:37 16.01.2020
4579 Clouds 6 1025 93 10000 1 40 03:28 16.01.2020
4580 Clouds 6 1024 87 10000 1.5 320 02:29 16.01.2020
4581 Clouds 8 1023 87 10000 4.6 280 00:45 16.01.2020
4582 Clouds 8 1022 81 10000 4.1 280 00:24 16.01.2020
4583 Clouds 9 1021 81 10000 3.1 280 23:48 15.01.2020
4584 Clouds 9 1021 76 10000 5.1 270 23:23 15.01.2020
4585 Clouds 10 1021 76 10000 5.7 270 22:57 15.01.2020
4586 Clouds 10 1021 76 10000 5.7 270 22:57 15.01.2020
4587 Clouds 10 1021 76 10000 5.7 270 22:39 15.01.2020
4588 Rain 10 1020 76 10000 7.2 260 22:19 15.01.2020
4589 Rain 10 1020 76 10000 6.7 260 21:57 15.01.2020
4590 Clouds 11 1019 76 10000 4.6 260 21:38 15.01.2020
4591 Rain 11 1019 71 10000 5.7 230 21:20 15.01.2020
4592 Clouds 11 1018 71 10000 5.7 230 20:57 15.01.2020
4593 Clouds 11 1018 71 10000 5.7 230 20:57 15.01.2020
4594 Clouds 11 1018 71 10000 5.7 230 20:57 15.01.2020
4595 Clouds 11 1018 71 10000 8.2 250 20:39 15.01.2020
4596 Rain 11 1018 71 10000 6.2 230 20:20 15.01.2020
4597 Rain 11 1017 66 10000 7.2 230 19:55 15.01.2020
4598 Rain 11 1016 62 10000 6.7 210 19:37 15.01.2020
4599 Rain 11 1016 62 10000 6.7 210 19:19 15.01.2020
4600 Clouds 11 1016 58 10000 6.7 200 18:57 15.01.2020
4601 Clouds 12 1015 58 10000 6.2 190 18:38 15.01.2020
4602 Clouds 12 1015 58 10000 6.2 190 18:20 15.01.2020
4603 Clouds 12 1014 58 10000 4.6 200 17:58 15.01.2020
4604 Clouds 12 1014 58 10000 4.6 200 17:39 15.01.2020
4605 Clouds 12 1015 58 10000 6.7 210 17:20 15.01.2020
4606 Clouds 12 1014 58 10000 6.2 200 16:42 15.01.2020
4607 Clouds 13 1014 54 10000 8.7 200 16:24 15.01.2020
4608 Clouds 13 1012 50 10000 9.3 220 15:59 15.01.2020
4609 Clouds 13 1012 50 10000 9.3 220 15:41 15.01.2020
4610 Clouds 13 1013 54 10000 8.2 190 15:20 15.01.2020
4611 Clouds 13 1013 54 10000 8.7 190 14:45 15.01.2020
4612 Clouds 13 1013 58 10000 8.7 170 14:21 15.01.2020
4613 Clouds 13 1013 54 10000 8.2 190 13:58 15.01.2020
4614 Clouds 12 1013 54 10000 8.2 190 13:40 15.01.2020
4615 Clouds 12 1013 54 10000 8.2 190 13:40 15.01.2020
4616 Clouds 12 1014 58 10000 8.2 190 13:22 15.01.2020
4617 Clouds 12 1013 54 10000 8.2 190 12:55 15.01.2020
4618 Clouds 12 1013 54 10000 8.2 190 12:55 15.01.2020
4619 Clouds 11 1014 62 10000 7.7 190 12:37 15.01.2020
4620 Clouds 11 1014 62 10000 7.7 190 12:18 15.01.2020
4621 Clouds 11 1014 62 10000 4.1 180 11:38 15.01.2020
4622 Clouds 11 1014 62 10000 6.7 170 11:20 15.01.2020
4623 Clouds 11 1014 62 10000 6.7 170 10:58 15.01.2020
4624 Clouds 10 1012 54 10000 5.7 210 10:40 15.01.2020
4625 Clouds 10 1013 66 10000 7.2 160 10:21 15.01.2020
4626 Clouds 10 1013 66 10000 5.1 160 09:41 15.01.2020
4627 Clouds 10 1013 70 10000 4.6 160 09:21 15.01.2020
4628 Clouds 9 1013 70 10000 5.1 150 08:45 15.01.2020
4629 Rain 10 1013 66 10000 4.1 140 08:26 15.01.2020
4630 Clouds 10 1013 66 10000 4.1 150 07:56 15.01.2020
4631 Clouds 10 1013 62 10000 6.2 190 07:33 15.01.2020
4632 Clouds 10 1012 66 10000 4.6 180 06:54 15.01.2020
4633 Clouds 10 1012 66 10000 5.1 180 06:32 15.01.2020
4634 Clouds 11 1012 71 10000 5.1 200 05:32 15.01.2020
4635 Clouds 11 1012 66 10000 7.2 200 03:35 15.01.2020
4636 Clouds 11 1012 66 10000 6.7 200 01:49 15.01.2020
4637 Clouds 12 1012 66 10000 6.2 200 01:22 15.01.2020
4638 Clouds 12 1010 66 10000 7.2 210 00:38 15.01.2020
4639 Clouds 12 1011 66 10000 7.2 200 00:20 15.01.2020
4640 Clouds 12 1011 62 10000 8.7 200 23:47 14.01.2020
4641 Clouds 12 1011 62 10000 7.7 200 23:28 14.01.2020
4642 Clouds 12 1011 66 10000 7.2 200 22:58 14.01.2020
4643 Clouds 11 1011 66 10000 7.7 200 22:40 14.01.2020
4644 Clouds 11 1011 66 10000 7.7 200 22:19 14.01.2020
4645 Clouds 11 1011 71 10000 7.2 200 21:58 14.01.2020
4646 Clouds 11 1009 66 10000 7.7 210 21:39 14.01.2020
4647 Clouds 11 1011 71 10000 8.2 200 21:19 14.01.2020
4648 Clouds 11 1010 71 10000 7.7 210 20:56 14.01.2020
4649 Clouds 11 1010 71 10000 7.7 210 20:38 14.01.2020
4650 Clouds 11 1010 71 10000 8.2 200 20:18 14.01.2020
4651 Clouds 11 1010 71 10000 8.2 200 19:55 14.01.2020
4652 Clouds 11 1010 66 10000 8.7 200 19:37 14.01.2020
4653 Clouds 11 1010 66 10000 8.7 200 19:18 14.01.2020
4654 Clouds 10 1010 66 10000 8.2 200 18:41 14.01.2020
4655 Clouds 10 1010 66 10000 8.2 200 18:20 14.01.2020
4656 Clouds 10 1010 66 10000 8.2 200 17:59 14.01.2020
4657 Clouds 10 1008 71 10000 4.6 200 17:37 14.01.2020
4658 Clouds 10 1009 66 10000 7.7 190 17:18 14.01.2020
4659 Clouds 10 1009 66 10000 7.7 190 16:54 14.01.2020
4660 Clouds 10 1009 62 10000 7.2 190 16:36 14.01.2020
4661 Clouds 10 1009 62 10000 7.2 190 16:18 14.01.2020
4662 Clouds 10 1008 66 10000 5.1 200 15:42 14.01.2020
4663 Clouds 10 1009 71 10000 7.7 200 15:19 14.01.2020
4664 Clouds 10 1008 66 10000 6.2 200 14:47 14.01.2020
4665 Rain 10 1009 62 10000 7.7 200 14:23 14.01.2020
4666 Clouds 10 1009 62 10000 8.7 200 13:59 14.01.2020
4667 Clouds 10 1009 62 10000 8.7 200 13:59 14.01.2020
4668 Clouds 10 1009 62 10000 8.7 200 13:40 14.01.2020
4669 Clouds 10 1010 62 10000 8.2 210 13:19 14.01.2020
4670 Clouds 10 1010 62 10000 8.2 210 12:42 14.01.2020
4671 Clouds 10 1009 62 10000 7.7 210 12:23 14.01.2020
4672 Clouds 10 1009 62 10000 9.3 210 11:57 14.01.2020
4673 Clouds 10 1008 66 10000 7.2 210 11:39 14.01.2020
4674 Clouds 10 1009 71 10000 7.2 200 11:20 14.01.2020
4675 Clouds 10 1009 71 10000 7.2 190 10:56 14.01.2020
4676 Clouds 10 1008 71 10000 6.2 200 10:37 14.01.2020
4677 Clouds 10 1009 66 10000 7.2 200 10:19 14.01.2020
4678 Clouds 9 1009 66 10000 8.7 200 09:43 14.01.2020
4679 Clouds 9 1008 66 10000 7.7 200 09:24 14.01.2020
4680 Rain 9 1008 66 10000 9.3 200 08:59 14.01.2020
4681 Rain 9 1008 66 10000 9.3 200 08:39 14.01.2020
4682 Rain 9 1008 66 10000 7.2 200 08:21 14.01.2020
4683 Clouds 9 1008 66 10000 7.7 180 07:51 14.01.2020
4684 Clouds 9 1008 66 10000 5.7 190 07:24 14.01.2020
4685 Clouds 9 1006 66 10000 7.2 200 06:43 14.01.2020
4686 Clouds 9 1008 76 10000 7.7 180 05:59 14.01.2020
4687 Clouds 9 1008 71 10000 8.2 190 04:51 14.01.2020
4688 Clouds 9 1009 76 10000 5.7 180 03:47 14.01.2020
4689 Clouds 9 1010 81 10000 6.2 160 02:40 14.01.2020
4690 Clouds 9 1010 81 10000 6.2 160 01:31 14.01.2020
4691 Clouds 8 1010 81 10000 5.7 150 00:48 14.01.2020
4692 Clouds 8 1011 81 10000 4.6 150 00:26 14.01.2020
4693 Clouds 8 1010 81 10000 5.1 140 23:47 13.01.2020
4694 Clouds 8 1012 75 10000 7.2 160 23:19 13.01.2020
4695 Clouds 8 1012 75 10000 7.2 160 22:59 13.01.2020
4696 Clouds 8 1012 75 10000 7.2 160 22:40 13.01.2020
4697 Clouds 8 1012 75 10000 6.7 170 22:20 13.01.2020
4698 Clouds 8 1013 81 10000 7.2 160 21:56 13.01.2020
4699 Clouds 8 1013 81 10000 7.2 160 21:56 13.01.2020
4700 Clouds 8 1011 81 10000 5.1 190 21:37 13.01.2020
4701 Clouds 8 1011 81 10000 5.1 190 21:37 13.01.2020
4702 Clouds 8 1012 81 10000 6.7 170 21:18 13.01.2020
4703 Clouds 8 1013 75 10000 6.7 170 20:56 13.01.2020
4704 Clouds 8 1012 75 10000 4.1 180 20:38 13.01.2020
4705 Clouds 8 1013 75 10000 8.2 170 20:20 13.01.2020
4706 Clouds 7 1014 75 10000 6.2 170 19:56 13.01.2020
4707 Clouds 7 1014 75 10000 6.2 160 19:38 13.01.2020
4708 Clouds 7 1014 75 10000 6.2 160 19:18 13.01.2020
4709 Clouds 7 1015 81 10000 5.7 160 18:56 13.01.2020
4710 Clouds 7 1015 81 10000 4.6 160 18:37 13.01.2020
4711 Clouds 7 1013 81 10000 4.1 140 18:37 13.01.2020
4712 Clouds 7 1015 81 10000 4.1 160 18:18 13.01.2020
4713 Clouds 8 1014 70 10000 2.6 170 17:40 13.01.2020
4714 Clouds 8 1016 70 10000 4.1 170 17:22 13.01.2020
4715 Clouds 8 1016 70 10000 4.1 170 17:22 13.01.2020
4716 Clouds 7 1016 75 10000 5.1 170 16:56 13.01.2020
4717 Clouds 7 1015 70 10000 3.1 190 16:38 13.01.2020
4718 Clouds 8 1016 61 10000 3.1 190 16:19 13.01.2020
4719 Clouds 8 1022 70 0 2.24 193 15:44 13.01.2020
4720 Clouds 8 1022 70 0 3.58 101 15:23 13.01.2020
4721 Clouds 8 1022 69 0 2.68 145 14:58 13.01.2020
4722 Clouds 8 1022 71 0 2.24 193 14:38 13.01.2020
4723 Clouds 8 1023 73 0 2.24 125 14:20 13.01.2020
4724 Clouds 8 1023 73 0 2.24 125 14:20 13.01.2020
4725 Clouds 8 1023 74 0 1.79 108 13:55 13.01.2020
4726 Clouds 8 1024 78 0 1.79 142 13:37 13.01.2020
4727 Clouds 8 1024 78 0 1.79 128 13:19 13.01.2020
4728 Clouds 7 1020 81 10000 2.6 150 12:43 13.01.2020
4729 Clouds 7 1020 81 10000 2.6 150 12:23 13.01.2020
4730 Clouds 7 1020 81 10000 2.6 150 11:57 13.01.2020
4731 Clouds 7 1020 81 10000 4.1 190 11:37 13.01.2020
4732 Clouds 6 1020 87 10000 2.6 140 11:19 13.01.2020
4733 Clouds 6 1020 87 10000 2.6 140 10:56 13.01.2020
4734 Clouds 6 1020 75 10000 2.6 180 10:38 13.01.2020
4735 Clouds 5 1021 86 10000 1.5 130 10:19 13.01.2020
4736 Clouds 5 1021 86 10000 2.1 130 09:44 13.01.2020
4737 Clouds 5 1021 86 10000 3.6 150 09:26 13.01.2020
4738 Clouds 5 1021 86 10000 3.6 170 08:58 13.01.2020
4739 Clouds 5 1020 86 10000 2.1 170 08:37 13.01.2020
4740 Clouds 5 1021 93 10000 3.6 170 08:18 13.01.2020
4741 Clouds 5 1021 86 10000 2.1 180 07:44 13.01.2020
4742 Clouds 5 1021 93 10000 3.6 170 07:26 13.01.2020
4743 Clouds 5 1021 86 10000 2.6 180 06:39 13.01.2020
4744 Clouds 5 1022 93 10000 3.6 170 05:57 13.01.2020
4745 Clouds 6 1022 86 10000 3.1 170 05:19 13.01.2020
4746 Clouds 6 1023 87 10000 3.6 190 03:46 13.01.2020
4747 Clouds 6 1023 87 10000 4.1 190 02:51 13.01.2020
4748 Clouds 7 1023 87 10000 3.6 180 02:31 13.01.2020
4749 Clouds 7 1023 75 10000 4.1 240 01:47 13.01.2020
4750 Clouds 7 1023 81 10000 3.1 180 00:59 13.01.2020
4751 Clouds 7 1023 81 10000 5.1 250 00:37 13.01.2020
4752 Rain 7 1023 81 10000 4.1 200 00:19 13.01.2020
4753 Rain 7 1023 81 10000 4.1 210 23:41 12.01.2020
4754 Clouds 7 1023 75 10000 4.6 210 23:23 12.01.2020
4755 Clouds 7 1023 81 10000 4.1 200 22:57 12.01.2020
4756 Clouds 7 1023 75 10000 4.1 230 22:39 12.01.2020
4757 Clouds 7 1023 81 10000 4.1 180 22:21 12.01.2020
4758 Clouds 7 1023 87 10000 2.6 180 21:55 12.01.2020
4759 Clouds 7 1023 70 10000 5.7 240 21:37 12.01.2020
4760 Clouds 7 1023 87 10000 4.1 180 21:19 12.01.2020
4761 Clouds 7 1023 93 10000 4.6 180 20:56 12.01.2020
4762 Clouds 7 1023 87 10000 4.6 180 20:37 12.01.2020
4763 Clouds 7 1023 87 10000 4.6 180 20:19 12.01.2020
4764 Clouds 7 1023 81 10000 4.6 190 19:55 12.01.2020
4765 Rain 7 1022 81 10000 3.1 200 19:37 12.01.2020
4766 Clouds 7 1023 81 10000 5.1 190 19:18 12.01.2020
4767 Clouds 7 1022 81 10000 5.7 180 18:56 12.01.2020
4768 Rain 7 1022 81 10000 5.7 240 18:38 12.01.2020
4769 Clouds 7 1022 75 10000 5.7 180 18:19 12.01.2020
4770 Clouds 7 1022 75 10000 5.1 180 17:42 12.01.2020
4771 Clouds 7 1022 75 10000 5.7 190 17:22 12.01.2020
4772 Clouds 7 1022 81 10000 5.1 210 16:59 12.01.2020
4773 Clouds 7 1022 81 10000 5.1 210 16:39 12.01.2020
4774 Clouds 7 1022 81 10000 7.2 220 16:20 12.01.2020
4775 Rain 7 1022 87 10000 6.2 220 15:57 12.01.2020
4776 Rain 7 1022 87 10000 6.2 220 15:38 12.01.2020
4777 Rain 7 1021 81 10000 5.7 210 15:20 12.01.2020
4778 Clouds 7 1021 75 10000 3.6 190 14:43 12.01.2020
4779 Clouds 6 1022 75 10000 4.6 200 14:24 12.01.2020
4780 Clouds 7 1022 70 10000 3.6 170 13:57 12.01.2020
4781 Clouds 7 1022 70 10000 3.6 170 13:57 12.01.2020
4782 Clouds 7 1022 70 10000 3.6 170 13:57 12.01.2020
4783 Clouds 7 1022 70 10000 4.6 160 13:39 12.01.2020
4784 Clouds 7 1022 70 10000 4.6 160 13:39 12.01.2020
4785 Clouds 7 1022 70 10000 4.6 160 13:20 12.01.2020
4786 Clouds 7 1022 70 10000 4.6 160 12:57 12.01.2020
4787 Clouds 7 1022 70 10000 4.1 220 12:38 12.01.2020
4788 Clouds 7 1023 75 10000 4.6 140 12:19 12.01.2020
4789 Clouds 6 1024 80 10000 5.1 130 11:43 12.01.2020
4790 Clouds 5 1024 80 10000 5.1 130 11:23 12.01.2020
4791 Clouds 5 1024 80 10000 5.1 140 10:59 12.01.2020
4792 Clouds 5 1024 80 10000 5.1 140 10:40 12.01.2020
4793 Clouds 4 1024 72 10000 5.7 140 10:21 12.01.2020
4794 Clouds 4 1024 72 10000 5.1 130 09:55 12.01.2020
4795 Clouds 4 1024 72 10000 4.6 140 09:37 12.01.2020
4796 Clouds 4 1024 72 10000 4.6 140 09:18 12.01.2020
4797 Clouds 4 1024 72 10000 5.1 140 08:42 12.01.2020
4798 Clouds 3 1024 80 10000 4.6 140 08:19 12.01.2020
4799 Clouds 3 1024 79 10000 2.6 170 07:39 12.01.2020
4800 Clouds 3 1025 79 10000 4.1 130 07:21 12.01.2020
4801 Clouds 3 1025 86 10000 4.1 140 06:42 12.01.2020
4802 Clouds 3 1025 86 10000 4.1 140 06:19 12.01.2020
4803 Clouds 2 1025 82 10000 4.1 140 05:22 12.01.2020
4804 Clouds 2 1026 82 10000 4.6 140 03:47 12.01.2020
4805 Clouds 2 1026 82 10000 4.1 130 03:22 12.01.2020
4806 Clouds 2 1027 82 10000 3.6 130 02:30 12.01.2020
4807 Clouds 3 1027 77 10000 3.6 140 01:42 12.01.2020
4808 Clouds 3 1027 77 10000 3.6 140 01:22 12.01.2020
4809 Clouds 3 1028 77 10000 3.6 140 00:40 12.01.2020
4810 Clouds 3 1028 77 10000 3.6 140 00:40 12.01.2020
4811 Clouds 3 1028 77 10000 4.6 140 00:20 12.01.2020
4812 Clouds 3 1027 77 10000 2.1 180 23:42 11.01.2020
4813 Clouds 3 1029 78 10000 4.1 140 23:19 11.01.2020
4814 Clouds 3 1029 78 10000 4.1 150 22:58 11.01.2020
4815 Clouds 3 1028 78 10000 2.1 170 22:39 11.01.2020
4816 Clouds 4 1029 78 10000 3.6 140 22:20 11.01.2020
4817 Clouds 4 1029 78 10000 3.6 140 21:58 11.01.2020
4818 Clouds 4 1029 78 10000 3.6 160 21:40 11.01.2020
4819 Clouds 4 1029 78 10000 2.1 170 21:40 11.01.2020
4820 Clouds 4 1029 78 10000 3.6 160 21:18 11.01.2020
4821 Clouds 4 1029 78 10000 2.1 170 20:41 11.01.2020
4822 Clouds 4 1030 78 10000 3.6 150 20:22 11.01.2020
4823 Clouds 4 1030 78 10000 3.1 150 19:58 11.01.2020
4824 Clouds 4 1030 78 10000 3.1 160 19:39 11.01.2020
4825 Clouds 4 1030 78 10000 3.1 160 19:39 11.01.2020
4826 Clouds 5 1030 78 10000 3.6 180 19:21 11.01.2020
4827 Clouds 5 1030 78 10000 3.6 180 18:59 11.01.2020
4828 Clouds 5 1030 78 10000 3.6 180 18:39 11.01.2020
4829 Clouds 5 1030 80 10000 3.6 170 18:20 11.01.2020
4830 Clouds 5 1030 75 10000 3.1 190 17:58 11.01.2020
4831 Clouds 5 1030 75 10000 3.1 190 17:40 11.01.2020
4832 Clouds 5 1030 75 10000 3.1 190 17:40 11.01.2020
4833 Clouds 6 1030 70 10000 3.6 190 17:20 11.01.2020
4834 Clouds 6 1030 70 10000 3.6 190 16:55 11.01.2020
4835 Clouds 6 1030 70 10000 2.1 200 16:36 11.01.2020
4836 Clouds 6 1030 65 10000 3.6 190 16:18 11.01.2020
4837 Clouds 7 1030 65 10000 4.1 190 15:41 11.01.2020
4838 Clouds 7 1031 70 10000 3.6 190 15:22 11.01.2020
4839 Clouds 6 1031 65 10000 4.1 190 14:58 11.01.2020
4840 Clouds 6 1030 65 10000 2.1 190 14:40 11.01.2020
4841 Clouds 6 1031 70 10000 3.6 180 14:21 11.01.2020
4842 Clouds 6 1031 75 10000 4.6 180 13:55 11.01.2020
4843 Clouds 6 1032 70 10000 4.1 170 13:36 11.01.2020
4844 Clouds 6 1032 70 10000 4.1 170 13:18 11.01.2020
4845 Clouds 6 1032 70 10000 2.6 190 12:42 11.01.2020
4846 Clouds 6 1033 75 10000 3.6 180 12:24 11.01.2020
4847 Clouds 6 1033 75 10000 2.6 180 11:54 11.01.2020
4848 Clouds 5 1033 86 10000 3.1 160 11:36 11.01.2020
4849 Clouds 5 1033 80 10000 2.6 180 11:18 11.01.2020
4850 Clouds 4 1033 70 10000 2.1 190 10:42 11.01.2020
4851 Clouds 4 1033 93 10000 3.1 170 10:23 11.01.2020
4852 Clouds 4 1033 81 10000 2.6 220 09:39 11.01.2020
4853 Clouds 4 1033 86 10000 2.6 170 09:21 11.01.2020
4854 Clouds 4 1033 86 10000 2.6 170 09:21 11.01.2020
4855 Clouds 4 1032 75 10000 2.6 200 08:43 11.01.2020
4856 Clouds 4 1032 93 10000 3.1 140 08:23 11.01.2020
4857 Clouds 3 1032 86 10000 2.6 190 07:45 11.01.2020
4858 Clouds 3 1032 93 10000 2.6 150 07:26 11.01.2020
4859 Clouds 3 1032 93 10000 2.6 150 07:26 11.01.2020
4860 Clouds 3 1033 93 10000 3.6 140 06:56 11.01.2020
4861 Clouds 3 1033 93 10000 0.5 0 06:28 11.01.2020
4862 Clear 3 1032 93 7000 0.5 0 04:49 11.01.2020
4863 Clouds 3 1032 93 10000 1 0 04:30 11.01.2020
4864 Clouds 3 1032 100 10000 1 0 03:58 11.01.2020
4865 Clouds 3 1032 100 10000 0.5 0 02:43 11.01.2020
4866 Clear 3 1031 100 6000 2.1 240 01:44 11.01.2020
4867 Clouds 3 1032 93 10000 1.5 40 01:21 11.01.2020
4868 Clouds 3 1032 93 10000 1.5 40 01:21 11.01.2020
4869 Clouds 3 1031 93 10000 0.5 0 00:47 11.01.2020
4870 Clouds 3 1031 100 10000 0.5 0 00:21 11.01.2020
4871 Clouds 3 1030 93 10000 1 0 23:41 10.01.2020
4872 Clouds 3 1030 93 10000 1 0 23:23 10.01.2020
4873 Clouds 3 1030 93 10000 1 0 23:23 10.01.2020
4874 Clouds 4 1030 93 10000 1.5 310 22:59 10.01.2020
4875 Clear 4 1030 86 10000 2.6 280 22:41 10.01.2020
4876 Clouds 4 1029 93 10000 2.6 320 22:22 10.01.2020
4877 Clouds 4 1029 86 10000 3.1 320 21:58 10.01.2020
4878 Clouds 5 1029 80 10000 3.6 280 21:40 10.01.2020
4879 Clouds 5 1028 86 10000 3.1 310 21:20 10.01.2020
4880 Clouds 5 1028 87 10000 4.1 310 20:56 10.01.2020
4881 Clouds 5 1028 87 10000 3.1 290 20:38 10.01.2020
4882 Clouds 6 1027 87 10000 4.6 310 20:19 10.01.2020
4883 Clouds 6 1027 87 10000 3.1 290 19:40 10.01.2020
4884 Clouds 6 1026 87 10000 3.6 320 19:20 10.01.2020
4885 Clouds 6 1025 87 10000 5.1 320 18:55 10.01.2020
4886 Rain 6 1025 81 10000 6.7 320 18:37 10.01.2020
4887 Rain 7 1024 87 10000 5.7 310 18:18 10.01.2020
4888 Rain 7 1024 87 10000 5.7 310 17:56 10.01.2020
4889 Clouds 7 1023 87 10000 6.2 310 17:38 10.01.2020
4890 Clouds 7 1023 87 10000 6.2 310 17:38 10.01.2020
4891 Clouds 7 1023 87 10000 6.2 310 17:19 10.01.2020
4892 Clouds 7 1023 87 10000 6.2 300 16:43 10.01.2020
4893 Clouds 7 1022 87 10000 6.7 290 16:22 10.01.2020
4894 Rain 7 1021 93 8000 7.7 300 15:58 10.01.2020
4895 Clouds 7 1021 87 10000 6.7 290 15:39 10.01.2020
4896 Clouds 7 1020 87 10000 5.7 280 15:20 10.01.2020
4897 Rain 8 1020 93 6000 8.7 280 14:59 10.01.2020
4898 Rain 8 1020 93 6000 8.7 280 14:41 10.01.2020
4899 Clouds 8 1019 87 10000 5.7 270 14:20 10.01.2020
4900 Clouds 8 1018 87 10000 5.7 270 13:58 10.01.2020
4901 Clouds 8 1018 81 10000 6.7 270 13:40 10.01.2020
4902 Clouds 8 1018 81 10000 7.2 270 13:22 10.01.2020
4903 Clouds 8 1018 87 10000 5.7 270 12:57 10.01.2020
4904 Clouds 8 1018 87 10000 5.7 270 12:38 10.01.2020
4905 Clouds 8 1017 93 10000 3.6 240 12:18 10.01.2020
4906 Clouds 8 1017 93 10000 2.6 260 11:54 10.01.2020
4907 Clouds 8 1016 93 10000 5.1 260 11:36 10.01.2020
4908 Clouds 8 1016 93 10000 5.1 260 11:18 10.01.2020
4909 Rain 8 1016 93 10000 4.1 250 10:42 10.01.2020
4910 Rain 8 1015 87 10000 4.1 170 10:24 10.01.2020
4911 Rain 8 1014 87 10000 5.1 170 09:56 10.01.2020
4912 Rain 8 1014 93 10000 1.5 0 09:37 10.01.2020
4913 Rain 8 1014 87 10000 5.1 170 09:19 10.01.2020
4914 Rain 8 1014 93 9000 1.5 140 08:41 10.01.2020
4915 Rain 8 1014 93 10000 2.1 180 08:23 10.01.2020
4916 Rain 8 1014 87 10000 4.1 170 07:45 10.01.2020
4917 Clouds 8 1013 87 10000 3.1 170 07:26 10.01.2020
4918 Clouds 8 1013 87 10000 2.6 180 06:46 10.01.2020
4919 Rain 9 1013 87 10000 3.1 200 06:26 10.01.2020
4920 Clouds 9 1013 87 10000 1.5 190 05:51 10.01.2020
4921 Clouds 10 1012 76 10000 4.6 220 03:45 10.01.2020
4922 Rain 10 1012 87 10000 4.1 160 03:22 10.01.2020
4923 Clouds 10 1011 76 10000 4.1 220 02:49 10.01.2020
4924 Rain 10 1011 87 10000 4.6 180 01:47 10.01.2020
4925 Rain 10 1011 87 10000 4.6 180 01:47 10.01.2020
4926 Rain 10 1011 76 10000 5.7 180 01:28 10.01.2020
4927 Rain 10 1011 76 10000 6.7 190 00:44 10.01.2020
4928 Clouds 10 1011 81 10000 6.2 180 00:19 10.01.2020
4929 Clouds 10 1010 76 10000 3.6 200 23:39 09.01.2020
4930 Clouds 11 1011 93 10000 4.6 170 23:20 09.01.2020
4931 Drizzle 11 1011 93 10000 4.1 160 22:58 09.01.2020
4932 Drizzle 11 1011 93 10000 4.1 160 22:58 09.01.2020
4933 Clouds 11 1010 76 10000 3.6 190 22:39 09.01.2020
4934 Clouds 11 1010 76 10000 3.6 190 22:39 09.01.2020
4935 Rain 11 1011 87 10000 4.1 160 22:19 09.01.2020
4936 Rain 11 1011 87 10000 4.1 170 21:57 09.01.2020
4937 Rain 11 1011 87 10000 4.1 170 21:38 09.01.2020
4938 Rain 11 1011 87 10000 4.1 170 21:20 09.01.2020
4939 Clouds 12 1011 93 10000 4.1 160 20:58 09.01.2020
4940 Clouds 12 1011 93 10000 4.1 160 20:39 09.01.2020
4941 Rain 12 1011 93 10000 3.6 160 20:20 09.01.2020
4942 Rain 12 1011 93 10000 3.6 160 19:58 09.01.2020
4943 Drizzle 12 1012 87 10000 5.1 170 19:39 09.01.2020
4944 Clouds 12 1011 87 10000 3.1 170 19:20 09.01.2020
4945 Clouds 12 1012 87 10000 3.6 180 18:56 09.01.2020
4946 Clouds 12 1012 87 10000 3.6 180 18:38 09.01.2020
4947 Clouds 12 1012 87 10000 5.1 180 18:20 09.01.2020
4948 Clouds 12 1012 87 10000 3.1 170 17:41 09.01.2020
4949 Rain 12 1012 87 10000 3.6 170 17:19 09.01.2020
4950 Rain 12 1012 87 10000 3.6 170 16:56 09.01.2020
4951 Rain 12 1012 87 10000 3.1 170 16:38 09.01.2020
4952 Rain 13 1012 87 10000 3.1 160 16:20 09.01.2020
4953 Rain 13 1012 93 10000 4.6 150 15:43 09.01.2020
4954 Rain 13 1012 93 10000 4.6 150 15:22 09.01.2020
4955 Rain 12 1012 93 10000 4.6 150 14:58 09.01.2020
4956 Clouds 12 1013 93 10000 4.1 150 14:39 09.01.2020
4957 Clouds 12 1013 87 10000 4.6 140 14:19 09.01.2020
4958 Clouds 12 1013 87 10000 4.6 140 13:55 09.01.2020
4959 Rain 12 1013 93 10000 4.6 150 13:37 09.01.2020
4960 Rain 12 1014 93 10000 4.6 150 13:18 09.01.2020
4961 Rain 12 1014 93 10000 4.6 150 12:55 09.01.2020
4962 Rain 12 1015 93 10000 5.1 150 12:37 09.01.2020
4963 Rain 12 1015 93 10000 5.1 150 12:18 09.01.2020
4964 Rain 11 1015 93 10000 5.7 150 11:42 09.01.2020
4965 Rain 11 1015 100 10000 5.7 150 11:24 09.01.2020
4966 Rain 11 1015 93 10000 5.7 150 11:24 09.01.2020
4967 Rain 11 1015 100 10000 5.7 150 11:24 09.01.2020
4968 Rain 11 1015 100 10000 6.2 150 10:58 09.01.2020
4969 Rain 11 1015 100 10000 6.2 150 10:39 09.01.2020
4970 Rain 11 1016 93 10000 5.7 150 10:21 09.01.2020
4971 Rain 11 1016 93 10000 5.7 150 09:46 09.01.2020
4972 Rain 11 1016 93 10000 5.1 140 09:25 09.01.2020
4973 Rain 11 1016 93 10000 5.1 140 08:58 09.01.2020
4974 Clouds 10 1017 100 10000 5.1 150 08:39 09.01.2020
4975 Rain 10 1017 93 10000 4.6 150 08:20 09.01.2020
4976 Rain 10 1017 93 10000 5.1 140 07:48 09.01.2020
4977 Rain 10 1017 93 10000 5.1 140 07:30 09.01.2020
4978 Rain 10 1018 93 10000 4.6 140 06:40 09.01.2020
4979 Rain 10 1018 93 10000 3.6 130 06:22 09.01.2020
4980 Rain 10 1019 93 10000 3.6 130 05:51 09.01.2020
4981 Clouds 10 1019 93 10000 3.1 120 05:26 09.01.2020
4982 Clouds 10 1020 93 10000 3.1 130 04:40 09.01.2020
4983 Rain 10 1021 93 10000 3.6 140 03:28 09.01.2020
4984 Rain 10 1021 100 10000 4.1 130 02:47 09.01.2020
4985 Rain 10 1022 93 10000 3.1 130 01:42 09.01.2020
4986 Rain 10 1023 93 10000 2.1 140 01:18 09.01.2020
4987 Rain 10 1023 93 10000 3.1 140 00:39 09.01.2020
4988 Rain 10 1023 100 10000 3.1 150 00:19 09.01.2020
4989 Rain 10 1023 93 10000 3.6 160 23:41 08.01.2020
4990 Rain 10 1023 93 10000 3.6 160 23:23 08.01.2020
4991 Rain 10 1023 93 10000 3.6 160 22:56 08.01.2020
4992 Rain 10 1024 81 10000 3.6 170 22:38 08.01.2020
4993 Rain 10 1024 81 10000 4.6 170 22:19 08.01.2020
4994 Drizzle 10 1024 87 10000 3.6 170 21:55 08.01.2020
4995 Drizzle 10 1024 87 10000 3.6 170 21:37 08.01.2020
4996 Drizzle 10 1024 87 10000 4.1 170 21:18 08.01.2020
4997 Clouds 10 1024 87 10000 4.1 180 20:55 08.01.2020
4998 Clouds 10 1024 87 10000 4.1 180 20:37 08.01.2020
4999 Clouds 10 1024 87 10000 4.1 180 20:37 08.01.2020
5000 Clouds 10 1024 87 10000 4.1 170 20:18 08.01.2020
5001 Clouds 10 1025 87 10000 3.6 170 19:39 08.01.2020
5002 Clouds 10 1025 87 10000 4.1 170 19:20 08.01.2020
5003 Clouds 10 1025 87 10000 3.6 170 18:58 08.01.2020
5004 Clouds 10 1025 87 10000 3.6 170 18:58 08.01.2020
5005 Clouds 10 1025 87 10000 3.6 170 18:40 08.01.2020
5006 Clouds 10 1025 81 10000 3.6 170 18:19 08.01.2020
5007 Clouds 10 1025 81 10000 3.6 170 18:19 08.01.2020
5008 Clouds 10 1025 81 10000 3.6 170 18:19 08.01.2020
5009 Clouds 10 1025 81 10000 3.6 170 17:59 08.01.2020
5010 Clouds 10 1024 81 10000 4.1 170 17:40 08.01.2020
5011 Drizzle 10 1024 81 10000 3.6 170 17:22 08.01.2020
5012 Drizzle 10 1024 81 10000 3.6 170 16:57 08.01.2020
5013 Drizzle 10 1024 81 10000 3.6 170 16:57 08.01.2020
5014 Drizzle 10 1024 81 10000 3.1 170 16:38 08.01.2020
5015 Clouds 11 1024 81 10000 2.1 210 16:19 08.01.2020
5016 Clouds 11 1024 81 10000 2.1 240 15:55 08.01.2020
5017 Clouds 11 1024 81 10000 3.6 170 15:37 08.01.2020
5018 Clouds 11 1024 76 10000 3.1 170 15:18 08.01.2020
5019 Clouds 10 1024 76 10000 4.6 170 14:41 08.01.2020
5020 Drizzle 10 1024 81 10000 4.1 170 14:21 08.01.2020
5021 Drizzle 10 1024 81 10000 4.1 170 13:56 08.01.2020
5022 Drizzle 10 1024 81 10000 4.1 170 13:37 08.01.2020
5023 Drizzle 10 1024 81 10000 4.6 160 13:18 08.01.2020
5024 Clouds 10 1025 81 10000 4.1 170 12:40 08.01.2020
5025 Clouds 10 1025 81 10000 5.7 170 12:18 08.01.2020
5026 Clouds 9 1025 81 10000 4.1 180 11:55 08.01.2020
5027 Clouds 9 1025 81 10000 4.1 180 11:36 08.01.2020
5028 Clouds 9 1025 81 10000 5.1 180 11:18 08.01.2020
5029 Clouds 9 1025 87 10000 5.7 170 10:41 08.01.2020
5030 Clouds 9 1025 87 10000 5.1 170 10:22 08.01.2020
5031 Clouds 9 1024 87 10000 5.7 160 09:59 08.01.2020
5032 Clouds 9 1024 87 10000 5.7 160 09:41 08.01.2020
5033 Clouds 9 1024 87 10000 4.6 160 09:19 08.01.2020
5034 Clouds 8 1024 87 10000 6.2 160 08:55 08.01.2020
5035 Clouds 8 1024 87 10000 6.2 160 08:36 08.01.2020
5036 Clouds 8 1024 93 10000 4.6 150 08:18 08.01.2020
5037 Rain 8 1024 87 10000 5.1 140 07:43 08.01.2020
5038 Clouds 8 1024 87 10000 4.6 140 07:23 08.01.2020
5039 Rain 7 1024 81 10000 4.1 130 06:44 08.01.2020
5040 Clouds 7 1024 81 10000 4.1 130 05:59 08.01.2020
5041 Clouds 7 1024 81 10000 4.1 130 05:38 08.01.2020
5042 Clouds 7 1024 81 10000 4.1 140 04:56 08.01.2020
5043 Clouds 7 1024 81 10000 5.7 140 04:24 08.01.2020
5044 Clouds 7 1025 81 10000 4.1 140 02:45 08.01.2020
5045 Clouds 7 1025 81 10000 4.1 140 02:21 08.01.2020
5046 Clouds 6 1025 81 10000 4.1 140 01:46 08.01.2020
5047 Clear 6 1026 81 10000 3.1 130 01:19 08.01.2020
5048 Clear 6 1026 75 10000 3.6 130 00:27 08.01.2020
5049 Clear 6 1026 75 10000 3.6 130 23:57 07.01.2020
5050 Clear 6 1026 81 10000 4.1 140 23:39 07.01.2020
5051 Clear 6 1026 81 10000 4.1 150 23:20 07.01.2020
5052 Clear 6 1026 81 10000 4.1 150 23:20 07.01.2020
5053 Clear 6 1026 75 10000 4.1 160 22:40 07.01.2020
5054 Clear 6 1026 81 10000 3.1 170 22:20 07.01.2020
5055 Clear 6 1026 81 10000 3.1 170 21:57 07.01.2020
5056 Clear 6 1026 81 10000 3.6 170 21:38 07.01.2020
5057 Clear 6 1026 81 10000 4.1 160 21:20 07.01.2020
5058 Clear 6 1026 81 10000 4.1 160 20:55 07.01.2020
5059 Clear 6 1027 81 10000 3.6 160 20:37 07.01.2020
5060 Clouds 6 1027 86 10000 3.6 140 20:19 07.01.2020
5061 Clouds 6 1027 86 10000 3.6 130 19:38 07.01.2020
5062 Clouds 6 1027 81 10000 4.1 140 19:20 07.01.2020
5063 Clouds 6 1027 81 10000 4.1 140 18:58 07.01.2020
5064 Clouds 6 1028 81 10000 3.6 130 18:40 07.01.2020
5065 Clouds 6 1028 80 10000 4.6 150 18:19 07.01.2020
5066 Clouds 6 1028 80 10000 4.6 150 18:00 07.01.2020
5067 Clouds 7 1028 80 10000 4.1 160 17:39 07.01.2020
5068 Clouds 7 1027 75 10000 1.5 180 17:21 07.01.2020
5069 Clouds 8 1028 81 10000 3.1 190 16:57 07.01.2020
5070 Clouds 8 1028 81 10000 3.1 190 16:38 07.01.2020
5071 Clouds 8 1028 76 10000 2.1 200 16:19 07.01.2020
5072 Clouds 8 1028 87 10000 1 160 15:58 07.01.2020
5073 Clouds 8 1028 87 10000 1 160 15:40 07.01.2020
5074 Clouds 8 1028 81 10000 2.1 150 15:22 07.01.2020
5075 Clouds 8 1028 81 10000 1.5 200 14:55 07.01.2020
5076 Clouds 8 1028 81 10000 1.5 200 14:37 07.01.2020
5077 Clouds 8 1028 76 10000 2.1 190 14:18 07.01.2020
5078 Clouds 8 1028 81 10000 2.6 180 13:40 07.01.2020
5079 Clouds 8 1028 87 10000 2.6 180 13:19 07.01.2020
5080 Clouds 8 1028 76 10000 3.6 240 12:42 07.01.2020
5081 Clouds 8 1028 76 10000 3.6 240 12:42 07.01.2020
5082 Clouds 8 1028 93 10000 2.1 210 12:21 07.01.2020
5083 Clouds 8 1028 87 10000 1.5 220 11:59 07.01.2020
5084 Clouds 7 1028 87 10000 1.5 220 11:40 07.01.2020
5085 Clouds 7 1028 93 10000 1.5 220 11:21 07.01.2020
5086 Clouds 6 1028 93 10000 2.1 230 10:42 07.01.2020
5087 Clouds 6 1028 93 10000 2.1 230 10:24 07.01.2020
5088 Clouds 6 1028 93 10000 2.1 250 09:59 07.01.2020
5089 Clouds 6 1027 93 10000 2.1 260 09:38 07.01.2020
5090 Clouds 6 1027 93 10000 3.1 270 09:20 07.01.2020
5091 Clouds 6 1026 93 10000 3.6 260 08:47 07.01.2020
5092 Clouds 6 1026 93 10000 3.6 260 08:28 07.01.2020
5093 Clouds 6 1025 100 10000 2.1 240 07:55 07.01.2020
5094 Clouds 6 1025 100 10000 2.1 240 07:35 07.01.2020
5095 Clouds 6 1025 93 10000 1 0 06:54 07.01.2020
5096 Clouds 5 1024 100 10000 2.6 170 06:35 07.01.2020
5097 Drizzle 5 1024 93 9000 3.1 160 05:58 07.01.2020
5098 Drizzle 5 1024 93 9000 3.1 160 05:39 07.01.2020
5099 Drizzle 4 1024 93 8000 2.1 130 03:44 07.01.2020
5100 Rain 4 1023 86 10000 3.1 140 02:38 07.01.2020
5101 Clouds 4 1022 78 10000 3.1 140 01:59 07.01.2020
5102 Clouds 4 1022 78 10000 3.1 140 01:35 07.01.2020
5103 Clouds 4 1023 81 10000 3.6 150 00:55 07.01.2020
5104 Clouds 3 1023 86 10000 3.6 170 00:20 07.01.2020
5105 Clouds 3 1022 80 10000 1.5 170 23:56 06.01.2020
5106 Clouds 3 1022 80 10000 1.5 170 23:37 06.01.2020
5107 Clouds 3 1021 80 10000 5.1 130 23:19 06.01.2020
5108 Clouds 3 1022 76 10000 4.6 140 22:43 06.01.2020
5109 Clouds 3 1022 76 10000 4.1 140 22:24 06.01.2020
5110 Clouds 3 1022 76 10000 4.1 140 21:58 06.01.2020
5111 Clouds 4 1022 76 10000 3.1 120 21:39 06.01.2020
5112 Clouds 4 1022 76 10000 4.1 130 21:20 06.01.2020
5113 Clouds 4 1022 76 10000 4.1 130 21:20 06.01.2020
5114 Clouds 4 1022 76 10000 4.1 130 21:20 06.01.2020
5115 Clouds 4 1022 76 10000 4.1 130 20:57 06.01.2020
5116 Clouds 4 1022 80 10000 3.6 130 20:39 06.01.2020
5117 Clear 4 1022 80 10000 4.1 130 20:20 06.01.2020
5118 Clear 4 1022 77 10000 4.1 130 19:57 06.01.2020
5119 Clear 4 1022 77 10000 4.1 130 19:38 06.01.2020
5120 Clear 4 1022 75 10000 3.6 120 19:20 06.01.2020
5121 Clear 4 1022 75 10000 4.1 130 18:48 06.01.2020
5122 Clear 4 1022 75 10000 4.1 130 18:48 06.01.2020
5123 Clear 5 1023 75 10000 5.7 140 18:25 06.01.2020
5124 Clear 5 1023 75 10000 5.1 130 17:59 06.01.2020
5125 Clear 5 1023 75 10000 5.1 130 17:39 06.01.2020
5126 Clear 6 1023 70 10000 4.6 130 17:19 06.01.2020
5127 Clear 6 1023 75 10000 4.1 130 16:55 06.01.2020
5128 Clear 6 1023 75 10000 4.1 130 16:36 06.01.2020
5129 Clear 7 1024 70 10000 4.6 140 16:18 06.01.2020
5130 Clear 7 1024 70 0 4.1 140 15:41 06.01.2020
5131 Clear 7 1024 65 10000 4.1 160 15:20 06.01.2020
5132 Clear 7 1024 65 10000 4.1 160 14:59 06.01.2020
5133 Clear 7 1025 61 10000 3.6 160 14:40 06.01.2020
5134 Clouds 7 1025 61 10000 3.6 170 14:21 06.01.2020
5135 Clouds 7 1025 61 10000 3.6 170 13:57 06.01.2020
5136 Clouds 7 1026 65 10000 3.6 150 13:38 06.01.2020
5137 Clouds 7 1027 65 10000 4.1 160 13:19 06.01.2020
5138 Clouds 6 1027 69 10000 4.1 160 12:43 06.01.2020
5139 Clouds 6 1027 69 10000 4.6 180 12:21 06.01.2020
5140 Clouds 6 1028 69 10000 4.1 160 11:59 06.01.2020
5141 Clouds 5 1028 69 10000 4.1 160 11:41 06.01.2020
5142 Clouds 5 1029 78 10000 4.1 170 11:23 06.01.2020
5143 Clouds 5 1029 78 10000 3.6 180 10:57 06.01.2020
5144 Clouds 4 1029 78 10000 3.6 180 10:39 06.01.2020
5145 Clouds 4 1029 78 10000 3.1 170 10:20 06.01.2020
5146 Clouds 4 1029 78 10000 3.1 170 10:20 06.01.2020
5147 Clouds 4 1029 78 0 3.1 160 09:39 06.01.2020
5148 Clouds 4 1029 78 10000 2.6 160 09:20 06.01.2020
5149 Clouds 4 1030 78 10000 2.6 150 08:51 06.01.2020
5150 Clouds 4 1030 78 10000 2.6 150 08:33 06.01.2020
5151 Clouds 5 1030 75 10000 3.1 160 07:57 06.01.2020
5152 Clouds 5 1030 75 10000 3.1 160 07:36 06.01.2020
5153 Clouds 5 1030 75 10000 3.1 180 06:46 06.01.2020
5154 Clouds 5 1030 75 10000 3.6 190 06:27 06.01.2020
5155 Clouds 5 1030 75 10000 3.1 190 05:48 06.01.2020
5156 Clouds 5 1031 75 10000 3.1 190 04:53 06.01.2020
5157 Clouds 5 1031 75 10000 3.6 190 04:20 06.01.2020
5158 Clouds 5 1031 74 10000 3.6 180 03:25 06.01.2020
5159 Clouds 6 1032 75 10000 3.1 170 02:25 06.01.2020
5160 Clouds 5 1032 75 10000 3.1 180 01:46 06.01.2020
5161 Clouds 6 1032 75 10000 3.1 180 01:28 06.01.2020
5162 Clouds 5 1033 70 10000 3.1 190 00:44 06.01.2020
5163 Clouds 5 1033 70 10000 3.1 190 00:44 06.01.2020
5164 Clouds 6 1033 70 10000 3.1 200 00:24 06.01.2020
5165 Clouds 6 1033 70 10000 3.1 200 23:57 05.01.2020
5166 Clouds 5 1033 70 10000 3.1 200 23:37 05.01.2020
5167 Clouds 5 1033 70 10000 3.6 200 23:19 05.01.2020
5168 Clouds 5 1033 70 10000 3.6 200 22:40 05.01.2020
5169 Clouds 6 1033 70 10000 3.1 200 22:20 05.01.2020
5170 Clouds 6 1033 70 10000 3.1 200 21:56 05.01.2020
5171 Clouds 6 1033 70 10000 3.1 200 21:38 05.01.2020
5172 Clouds 6 1034 70 10000 3.6 200 21:20 05.01.2020
5173 Clouds 6 1034 70 10000 3.1 210 20:56 05.01.2020
5174 Clouds 6 1034 70 10000 3.1 210 20:38 05.01.2020
5175 Clouds 6 1034 70 10000 3.1 210 20:19 05.01.2020
5176 Clouds 6 1034 70 10000 3.6 220 19:58 05.01.2020
5177 Clouds 6 1034 70 10000 3.6 220 19:38 05.01.2020
5178 Clouds 6 1034 70 10000 4.1 230 19:19 05.01.2020
5179 Clouds 6 1034 70 10000 4.1 230 18:55 05.01.2020
5180 Clouds 6 1034 75 10000 3.1 230 18:37 05.01.2020
5181 Clouds 6 1034 75 10000 3.1 230 18:37 05.01.2020
5182 Clouds 6 1034 75 10000 4.1 240 18:19 05.01.2020
5183 Clouds 6 1035 75 10000 4.1 250 17:57 05.01.2020
5184 Clouds 6 1035 75 10000 4.1 250 17:38 05.01.2020
5185 Clouds 6 1035 75 10000 4.1 250 17:38 05.01.2020
5186 Clouds 6 1035 81 10000 3.6 250 17:19 05.01.2020
5187 Clouds 6 1035 75 10000 2.6 250 16:56 05.01.2020
5188 Clouds 6 1035 75 10000 2.6 250 16:38 05.01.2020
5189 Clouds 6 1035 75 10000 3.6 240 16:19 05.01.2020
5190 Clouds 6 1035 75 10000 3.6 240 16:19 05.01.2020
5191 Clouds 6 1035 75 10000 3.6 240 16:19 05.01.2020
5192 Clouds 7 1035 75 10000 3.6 240 16:19 05.01.2020
5193 Clouds 7 1034 75 10000 3.1 240 15:38 05.01.2020
5194 Clouds 7 1034 75 10000 3.1 240 15:38 05.01.2020
5195 Clouds 7 1034 75 10000 3.1 220 15:20 05.01.2020
5196 Clouds 7 1034 81 10000 2.6 220 14:55 05.01.2020
5197 Clouds 7 1034 81 10000 2.6 220 14:37 05.01.2020
5198 Clouds 7 1034 81 10000 2.6 220 14:37 05.01.2020
5199 Clouds 7 1034 87 10000 1.5 200 14:19 05.01.2020
5200 Clouds 7 1035 87 10000 1.5 200 13:56 05.01.2020
5201 Clouds 7 1035 87 10000 1.5 200 13:37 05.01.2020
5202 Clouds 7 1035 87 10000 1.5 190 13:18 05.01.2020
5203 Clouds 7 1035 87 10000 1.5 190 13:18 05.01.2020
5204 Clouds 7 1035 93 10000 1.5 180 12:55 05.01.2020
5205 Clouds 7 1035 93 10000 1.5 180 12:37 05.01.2020
5206 Clouds 7 1035 93 10000 2.1 170 12:18 05.01.2020
5207 Clouds 7 1035 93 10000 2.1 170 12:18 05.01.2020
5208 Clouds 6 1036 93 10000 1 0 11:43 05.01.2020
5209 Clouds 6 1036 93 10000 1 0 11:20 05.01.2020
5210 Clouds 6 1036 93 10000 1 0 10:58 05.01.2020
5211 Clouds 6 1035 93 10000 1.5 220 10:40 05.01.2020
5212 Clouds 6 1035 93 8000 1.5 190 10:19 05.01.2020
5213 Clouds 6 1035 93 6000 1.5 170 09:42 05.01.2020
5214 Mist 6 1035 93 4500 2.1 150 09:22 05.01.2020
5215 Mist 6 1035 100 4500 1.5 190 08:51 05.01.2020
5216 Mist 6 1035 100 4500 1.5 190 08:32 05.01.2020
5217 Mist 6 1035 100 5000 1.5 160 07:59 05.01.2020
5218 Clouds 6 1035 93 6000 1 0 07:39 05.01.2020
5219 Clouds 6 1035 93 6000 1 0 07:39 05.01.2020
5220 Clouds 6 1035 93 7000 0.5 0 07:20 05.01.2020
5221 Mist 6 1035 93 5000 0.5 0 06:40 05.01.2020
5222 Mist 6 1035 93 4500 1.5 260 05:38 05.01.2020
5223 Drizzle 6 1035 93 4000 3.1 290 04:55 05.01.2020
5224 Drizzle 6 1035 100 4000 3.6 280 04:18 05.01.2020
5225 Drizzle 6 1035 100 4000 3.6 280 04:18 05.01.2020
5226 Drizzle 6 1035 100 4000 3.6 280 04:18 05.01.2020
5227 Drizzle 6 1034 100 4500 3.6 270 03:18 05.01.2020
5228 Drizzle 6 1034 100 3500 3.1 290 02:32 05.01.2020
5229 Drizzle 6 1034 100 4000 3.1 290 01:49 05.01.2020
5230 Drizzle 6 1034 93 6000 4.6 290 01:20 05.01.2020
5231 Drizzle 6 1033 93 10000 3.6 290 00:57 05.01.2020
5232 Drizzle 6 1033 93 10000 3.6 290 00:39 05.01.2020
5233 Drizzle 6 1033 93 10000 4.1 280 00:19 05.01.2020
5234 Drizzle 6 1033 93 8000 4.6 290 23:41 04.01.2020
5235 Drizzle 6 1033 93 8000 4.6 290 23:41 04.01.2020
5236 Drizzle 6 1033 87 10000 5.1 290 23:20 04.01.2020
5237 Clouds 6 1032 93 10000 4.6 290 22:56 04.01.2020
5238 Clouds 6 1032 93 10000 4.6 290 22:38 04.01.2020
5239 Clouds 6 1032 93 10000 5.7 290 22:20 04.01.2020
5240 Clouds 6 1032 93 10000 5.7 290 21:55 04.01.2020
5241 Drizzle 6 1032 93 10000 7.2 280 21:37 04.01.2020
5242 Drizzle 6 1032 93 10000 5.7 290 21:18 04.01.2020
5243 Drizzle 6 1032 93 10000 6.2 290 20:55 04.01.2020
5244 Drizzle 6 1032 93 10000 6.2 290 20:36 04.01.2020
5245 Drizzle 6 1032 93 10000 6.2 290 20:36 04.01.2020
5246 Clouds 6 1031 93 10000 6.7 280 20:18 04.01.2020
5247 Drizzle 6 1031 93 8000 7.2 280 19:41 04.01.2020
5248 Drizzle 6 1031 93 6000 7.2 280 19:23 04.01.2020
5249 Drizzle 6 1031 93 6000 7.2 280 18:57 04.01.2020
5250 Drizzle 6 1031 93 3700 7.2 290 18:38 04.01.2020
5251 Clouds 7 1030 81 10000 7.7 270 18:20 04.01.2020
5252 Clouds 6 1030 81 10000 7.7 270 17:56 04.01.2020
5253 Clouds 6 1030 81 10000 7.7 270 17:38 04.01.2020
5254 Rain 6 1030 81 10000 6.7 280 17:20 04.01.2020
5255 Clouds 6 1029 81 10000 6.7 280 16:42 04.01.2020
5256 Clouds 7 1029 81 10000 6.2 270 16:24 04.01.2020
5257 Clouds 6 1029 81 10000 6.7 280 15:57 04.01.2020
5258 Clouds 6 1029 81 10000 6.7 280 15:39 04.01.2020
5259 Clouds 7 1029 81 10000 5.1 280 15:19 04.01.2020
5260 Clouds 7 1029 81 10000 5.1 280 14:57 04.01.2020
5261 Clouds 6 1029 81 10000 6.7 280 14:39 04.01.2020
5262 Clouds 6 1029 81 10000 8.2 280 14:19 04.01.2020
5263 Clouds 7 1029 81 10000 8.2 280 14:19 04.01.2020
5264 Clouds 6 1029 81 10000 8.2 270 13:55 04.01.2020
5265 Clouds 6 1029 81 10000 8.2 270 13:37 04.01.2020
5266 Clouds 6 1029 81 10000 8.2 270 13:37 04.01.2020
5267 Clouds 6 1029 81 10000 6.2 270 13:18 04.01.2020
5268 Clouds 6 1029 81 10000 7.2 270 12:42 04.01.2020
5269 Clouds 5 1030 81 10000 6.7 270 12:20 04.01.2020
5270 Clouds 5 1030 81 10000 6.7 270 12:20 04.01.2020
5271 Clouds 5 1029 81 10000 6.7 270 11:59 04.01.2020
5272 Clouds 5 1029 81 10000 6.7 270 11:40 04.01.2020
5273 Clouds 5 1030 86 10000 4.6 270 11:19 04.01.2020
5274 Clouds 5 1029 86 10000 5.1 270 10:55 04.01.2020
5275 Clouds 5 1029 86 10000 5.1 270 10:37 04.01.2020
5276 Clouds 4 1030 86 10000 5.1 260 10:19 04.01.2020
5277 Clouds 4 1030 93 10000 5.1 270 09:42 04.01.2020
5278 Clouds 4 1030 93 10000 5.1 270 09:23 04.01.2020
5279 Clouds 3 1029 86 10000 3.1 240 08:42 04.01.2020
5280 Clouds 3 1029 93 10000 2.6 240 08:21 04.01.2020
5281 Clouds 3 1029 93 10000 3.1 240 07:51 04.01.2020
5282 Clouds 3 1029 93 10000 3.1 250 07:32 04.01.2020
5283 Clouds 3 1029 93 10000 3.1 250 06:39 04.01.2020
5284 Clouds 3 1029 93 10000 3.1 250 05:46 04.01.2020
5285 Clouds 3 1029 93 10000 2.1 260 04:48 04.01.2020
5286 Clouds 3 1029 93 10000 2.1 260 04:28 04.01.2020
5287 Clouds 3 1029 93 10000 2.6 280 03:19 04.01.2020
5288 Clouds 4 1029 86 10000 3.6 300 02:38 04.01.2020
5289 Clouds 4 1028 93 10000 2.6 310 02:18 04.01.2020
5290 Clouds 4 1028 86 10000 1.5 290 01:37 04.01.2020
5291 Clouds 4 1028 93 10000 3.6 290 01:18 04.01.2020
5292 Clouds 4 1028 86 10000 4.1 290 00:29 04.01.2020
5293 Clouds 5 1027 87 10000 5.7 310 23:57 03.01.2020
5294 Clouds 5 1027 93 10000 5.7 300 23:29 03.01.2020
5295 Clouds 5 1026 93 10000 4.6 310 22:59 03.01.2020
5296 Clouds 6 1026 93 10000 4.6 310 22:40 03.01.2020
5297 Clouds 6 1026 81 10000 6.2 300 22:19 03.01.2020
5298 Clouds 6 1026 81 10000 6.2 300 21:57 03.01.2020
5299 Drizzle 6 1025 81 10000 5.7 330 21:38 03.01.2020
5300 Drizzle 6 1024 87 10000 6.2 330 21:19 03.01.2020
5301 Drizzle 6 1024 87 10000 6.2 330 20:55 03.01.2020
5302 Drizzle 7 1023 93 8000 8.2 320 20:37 03.01.2020
5303 Drizzle 7 1022 93 10000 10.3 310 20:18 03.01.2020
5304 Drizzle 8 1021 100 4500 7.2 280 19:55 03.01.2020
5305 Drizzle 8 1021 100 4500 7.2 280 19:37 03.01.2020
5306 Drizzle 8 1020 93 10000 6.7 270 19:18 03.01.2020
5307 Drizzle 9 1020 87 10000 7.7 260 18:40 03.01.2020
5308 Rain 10 1019 87 10000 6.2 250 18:21 03.01.2020
5309 Clouds 9 1019 87 10000 6.2 240 17:55 03.01.2020
5310 Clouds 9 1018 81 10000 6.2 230 17:36 03.01.2020
5311 Clouds 9 1018 81 10000 6.2 230 17:36 03.01.2020
5312 Clouds 9 1018 81 10000 6.2 230 17:18 03.01.2020
5313 Rain 9 1018 87 10000 5.7 220 16:42 03.01.2020
5314 Rain 9 1018 87 10000 5.7 220 16:22 03.01.2020
5315 Rain 9 1018 87 10000 5.7 220 16:22 03.01.2020
5316 Rain 9 1018 87 10000 4.6 210 15:43 03.01.2020
5317 Rain 9 1017 87 10000 4.6 200 15:19 03.01.2020
5318 Rain 9 1017 87 10000 4.6 200 15:19 03.01.2020
5319 Rain 9 1017 81 10000 5.7 210 14:59 03.01.2020
5320 Rain 9 1017 81 10000 5.7 210 14:38 03.01.2020
5321 Rain 9 1017 76 10000 6.7 220 14:19 03.01.2020
5322 Clouds 9 1018 76 10000 7.2 220 13:43 03.01.2020
5323 Clouds 9 1018 76 10000 6.2 220 13:24 03.01.2020
5324 Clouds 9 1018 76 10000 6.2 220 12:58 03.01.2020
5325 Clouds 9 1018 76 10000 7.2 210 12:38 03.01.2020
5326 Rain 9 1018 81 10000 6.2 220 12:20 03.01.2020
5327 Clouds 8 1018 76 10000 5.1 210 11:44 03.01.2020
5328 Rain 8 1018 81 10000 5.1 220 11:21 03.01.2020
5329 Clouds 8 1018 76 10000 4.1 180 10:44 03.01.2020
5330 Clouds 8 1018 81 10000 3.1 190 10:26 03.01.2020
5331 Clouds 8 1018 81 10000 3.1 190 09:58 03.01.2020
5332 Clouds 8 1018 81 10000 4.1 180 09:39 03.01.2020
5333 Clouds 8 1018 81 10000 5.1 170 09:21 03.01.2020
5334 Clouds 8 1018 81 10000 5.1 170 08:57 03.01.2020
5335 Clouds 8 1019 81 10000 5.7 170 08:38 03.01.2020
5336 Clouds 7 1019 87 10000 5.7 160 08:19 03.01.2020
5337 Clouds 7 1019 87 10000 5.7 160 07:40 03.01.2020
5338 Clouds 7 1019 87 10000 5.7 160 07:18 03.01.2020
5339 Clouds 7 1019 87 10000 5.7 170 06:50 03.01.2020
5340 Clouds 7 1019 87 10000 5.7 170 06:32 03.01.2020
5341 Clouds 7 1020 87 10000 5.7 160 05:45 03.01.2020
5342 Clouds 7 1020 81 10000 5.7 170 04:23 03.01.2020
5343 Clouds 6 1021 87 10000 6.2 170 02:57 03.01.2020
5344 Clouds 6 1021 87 10000 6.2 170 02:33 03.01.2020
5345 Clouds 6 1022 81 10000 5.7 170 01:45 03.01.2020
5346 Clouds 5 1022 86 10000 5.1 160 00:53 03.01.2020
5347 Clouds 5 1023 86 10000 4.6 160 00:31 03.01.2020
5348 Clouds 5 1023 86 10000 4.1 160 23:57 02.01.2020
5349 Clouds 5 1023 86 10000 4.6 150 23:38 02.01.2020
5350 Clouds 5 1023 86 10000 4.1 150 23:19 02.01.2020
5351 Clouds 4 1023 86 10000 4.1 150 22:57 02.01.2020
5352 Clouds 5 1023 86 10000 4.1 140 22:39 02.01.2020
5353 Clouds 4 1024 86 10000 4.1 160 22:18 02.01.2020
5354 Clouds 4 1024 86 10000 3.6 140 21:42 02.01.2020
5355 Clouds 4 1024 86 10000 3.6 140 21:23 02.01.2020
5356 Clouds 4 1024 93 10000 2.6 120 21:00 02.01.2020
5357 Clouds 4 1024 93 10000 2.6 120 21:00 02.01.2020
5358 Clouds 4 1024 93 10000 2.6 120 21:00 02.01.2020
5359 Clouds 4 1024 93 10000 3.6 140 21:00 02.01.2020
5360 Clouds 4 1024 93 10000 2.6 120 20:39 02.01.2020
5361 Clouds 4 1024 93 10000 3.1 130 20:21 02.01.2020
5362 Clouds 4 1024 93 10000 3.1 130 20:21 02.01.2020
5363 Clouds 4 1024 93 10000 3.1 130 20:21 02.01.2020
5364 Clouds 4 1025 86 10000 3.6 130 19:56 02.01.2020
5365 Clouds 4 1025 86 10000 3.6 130 19:38 02.01.2020
5366 Clouds 4 1025 93 10000 3.6 130 19:19 02.01.2020
5367 Clouds 4 1025 86 10000 4.1 130 18:58 02.01.2020
5368 Clouds 4 1025 86 10000 4.1 130 18:40 02.01.2020
5369 Clouds 4 1025 86 10000 3.6 130 18:22 02.01.2020
5370 Clouds 4 1025 86 10000 4.6 140 17:57 02.01.2020
5371 Clouds 4 1025 86 10000 4.6 140 17:37 02.01.2020
5372 Clouds 4 1025 80 10000 4.1 130 17:19 02.01.2020
5373 Clouds 4 1025 80 10000 5.1 130 16:57 02.01.2020
5374 Clouds 4 1025 80 10000 5.1 130 16:38 02.01.2020
5375 Clouds 4 1025 80 10000 6.7 140 16:20 02.01.2020
5376 Clouds 4 1025 80 10000 5.1 130 15:56 02.01.2020
5377 Clouds 4 1025 80 10000 4.6 130 15:37 02.01.2020
5378 Clouds 4 1025 80 10000 4.6 130 15:19 02.01.2020
5379 Clouds 4 1026 80 10000 5.1 140 14:55 02.01.2020
5380 Clouds 4 1026 80 10000 5.1 140 14:36 02.01.2020
5381 Clouds 4 1026 80 10000 4.6 140 14:18 02.01.2020
5382 Clouds 3 1026 80 10000 4.6 140 13:47 02.01.2020
5383 Clouds 3 1027 74 10000 3.6 130 13:29 02.01.2020
5384 Clouds 3 1028 74 10000 3.6 130 12:45 02.01.2020
5385 Clouds 2 1028 86 10000 3.6 130 12:25 02.01.2020
5386 Clouds 2 1028 86 10000 3.6 130 11:57 02.01.2020
5387 Clouds 1 1028 86 10000 3.6 130 11:37 02.01.2020
5388 Clouds 1 1029 86 10000 3.1 130 11:19 02.01.2020
5389 Clouds 0 1029 86 10000 2.6 110 10:43 02.01.2020
5390 Clouds 0 1029 86 10000 2.6 110 10:25 02.01.2020
5391 Clouds 0 1029 83 10000 2.1 120 09:46 02.01.2020
5392 Clouds 0 1029 83 10000 2.1 120 09:28 02.01.2020
5393 Clouds -1 1029 83 10000 3.6 130 08:45 02.01.2020
5394 Clouds -1 1028 85 10000 3.1 120 08:27 02.01.2020
5395 Clouds -1 1028 83 10000 3.1 140 07:51 02.01.2020
5396 Clouds 0 1028 83 10000 3.1 140 07:30 02.01.2020
5397 Clouds 0 1028 83 10000 3.6 140 06:45 02.01.2020
5398 Clouds -1 1028 92 10000 4.1 150 06:27 02.01.2020
5399 Clouds -1 1028 92 10000 2.1 140 05:29 02.01.2020
5400 Clouds -1 1029 92 10000 3.1 140 04:32 02.01.2020
5401 Clouds -1 1029 92 8000 1 0 02:48 02.01.2020
5402 Clouds -1 1029 86 9000 1.5 110 01:59 02.01.2020
5403 Clouds -1 1029 86 10000 2.6 130 01:39 02.01.2020
5404 Clear 0 1030 84 10000 2.6 130 00:58 02.01.2020
5405 Clear 0 1030 84 10000 2.6 130 00:33 02.01.2020
5406 Clear 0 1030 84 10000 1 0 23:56 01.01.2020
5407 Clear 0 1030 80 10000 2.1 100 23:37 01.01.2020
5408 Clear 0 1030 86 10000 2.6 110 23:18 01.01.2020
5409 Clear 0 1030 86 10000 3.1 120 22:38 01.01.2020
5410 Clear 0 1031 86 10000 2.1 110 22:19 01.01.2020
5411 Clear 0 1031 86 10000 2.1 110 21:56 01.01.2020
5412 Clear 0 1031 80 10000 2.6 100 21:38 01.01.2020
5413 Clear 0 1031 80 10000 2.6 110 21:19 01.01.2020
5414 Clear 0 1031 80 10000 2.6 110 21:19 01.01.2020
5415 Clear 1 1031 80 10000 3.6 110 20:55 01.01.2020
5416 Clear 1 1031 80 10000 3.6 110 20:37 01.01.2020
5417 Clear 1 1031 80 10000 2.6 100 20:19 01.01.2020
5418 Clear 1 1031 80 10000 2.6 100 20:19 01.01.2020
5419 Clear 1 1031 80 10000 2.6 100 19:55 01.01.2020
5420 Clear 1 1031 80 10000 2.6 100 19:55 01.01.2020
5421 Clear 1 1031 80 10000 2.1 110 19:37 01.01.2020
5422 Clear 1 1031 80 10000 2.6 110 19:19 01.01.2020
5423 Clear 1 1031 80 10000 2.6 110 18:55 01.01.2020
5424 Clear 1 1031 81 10000 1.5 120 18:36 01.01.2020
5425 Clear 2 1031 81 10000 2.1 110 18:18 01.01.2020
5426 Clear 2 1031 81 10000 2.6 100 17:56 01.01.2020
5427 Clear 2 1031 81 10000 2.6 100 17:38 01.01.2020
5428 Clear 2 1031 73 10000 3.1 100 17:18 01.01.2020
5429 Clear 3 1031 73 10000 2.6 110 16:42 01.01.2020
5430 Clear 4 1031 73 10000 3.1 120 16:23 01.01.2020
5431 Clear 4 1031 73 10000 4.1 120 15:58 01.01.2020
5432 Clear 4 1031 73 10000 4.1 120 15:40 01.01.2020
5433 Clouds 4 1032 73 10000 4.1 120 15:21 01.01.2020
5434 Clouds 5 1032 73 10000 4.1 120 14:59 01.01.2020
5435 Clouds 4 1032 86 10000 4.1 110 14:40 01.01.2020
5436 Clouds 4 1032 70 10000 4.6 120 14:21 01.01.2020
5437 Clouds 4 1032 86 10000 4.6 110 13:56 01.01.2020
5438 Clouds 4 1032 86 10000 4.6 110 13:37 01.01.2020
5439 Clouds 3 1033 66 10000 4.6 120 13:19 01.01.2020
5440 Clouds 3 1033 93 10000 5.1 130 12:57 01.01.2020
5441 Clouds 3 1033 93 10000 5.1 130 12:39 01.01.2020
5442 Clouds 2 1033 66 10000 4.6 130 12:19 01.01.2020
5443 Clouds 2 1034 66 10000 4.1 130 11:55 01.01.2020
5444 Clouds 1 1034 66 10000 4.1 130 11:36 01.01.2020
5445 Clouds 1 1034 78 10000 5.7 120 11:18 01.01.2020
5446 Clouds 1 1034 78 10000 4.1 120 10:41 01.01.2020
5447 Clouds 0 1034 78 10000 4.6 120 10:21 01.01.2020
5448 Clouds 0 1033 86 10000 4.6 120 09:59 01.01.2020
5449 Clouds 0 1033 86 10000 4.6 120 09:38 01.01.2020
5450 Clouds 0 1033 78 10000 5.1 130 09:19 01.01.2020
5451 Clouds -1 1033 78 10000 3.6 120 08:55 01.01.2020
5452 Clouds -1 1033 78 10000 3.6 120 08:37 01.01.2020
5453 Clouds -1 1033 76 10000 3.6 120 08:37 01.01.2020
5454 Clouds -1 1033 84 10000 4.6 120 08:19 01.01.2020
5455 Clouds -1 1033 84 10000 4.1 120 07:54 01.01.2020
5456 Clouds -1 1033 84 10000 4.1 120 07:36 01.01.2020
5457 Clouds -1 1033 84 10000 3.6 110 06:45 01.01.2020
5458 Clear -1 1033 92 9000 2.6 90 06:22 01.01.2020
5459 Clear -1 1033 92 6000 2.1 90 05:23 01.01.2020
5460 Clear 0 1034 88 8000 2.6 90 03:47 01.01.2020
5461 Clear 0 1034 88 6000 2.6 80 03:24 01.01.2020
5462 Clear 0 1034 88 6000 2.1 100 02:59 01.01.2020
5463 Clear 0 1034 88 6000 2.1 100 02:40 01.01.2020
5464 Mist 0 1034 87 4500 2.1 100 02:21 01.01.2020
5465 Mist 0 1035 87 4000 2.1 90 01:39 01.01.2020
5466 Mist 0 1035 84 4500 2.6 110 01:21 01.01.2020
5467 Clouds 0 1035 84 8000 2.1 80 00:44 01.01.2020
5468 Clouds 0 1035 84 8000 2.1 80 00:44 01.01.2020
5469 Clouds 0 1035 84 8000 2.1 80 00:26 01.01.2020
5470 Clouds 1 1035 84 10000 2.1 120 23:56 31.12.2019
5471 Clouds 1 1035 84 10000 2.1 120 23:36 31.12.2019
5472 Mist 1 1035 83 4500 1 0 23:18 31.12.2019
5473 Mist 1 1035 83 4500 1 0 22:55 31.12.2019
5474 Mist 1 1036 100 1500 1.5 110 22:36 31.12.2019
5475 Fog 2 1036 83 600 2.1 120 22:18 31.12.2019
5476 Fog 1 1036 83 300 2.6 130 21:42 31.12.2019
5477 Fog 2 1036 83 300 2.6 130 21:24 31.12.2019
5478 Fog 2 1036 83 200 2.6 140 20:57 31.12.2019
5479 Fog 2 1036 83 200 2.6 140 20:57 31.12.2019
5480 Fog 2 1036 84 200 2.6 140 20:38 31.12.2019
5481 Fog 2 1036 84 200 2.6 140 20:38 31.12.2019
5482 Clouds 2 1036 85 6000 2.1 130 20:20 31.12.2019
5483 Clouds 2 1035 85 8000 1.5 130 19:57 31.12.2019
5484 Clouds 2 1035 85 8000 1.5 130 19:39 31.12.2019
5485 Clouds 2 1035 85 8000 1.5 140 19:20 31.12.2019
5486 Clouds 3 1035 85 8000 1.5 140 18:56 31.12.2019
5487 Clouds 3 1035 100 8000 0.5 0 18:38 31.12.2019
5488 Clouds 3 1035 93 8000 1.5 140 18:19 31.12.2019
5489 Clouds 3 1035 93 10000 1 50 17:55 31.12.2019
5490 Clouds 3 1035 93 10000 1 50 17:36 31.12.2019
5491 Clouds 4 1035 86 10000 1.5 80 17:18 31.12.2019
5492 Clouds 4 1035 86 10000 1.5 80 16:56 31.12.2019
5493 Clouds 4 1034 86 10000 1 0 16:37 31.12.2019
5494 Clouds 4 1034 93 10000 2.1 190 16:18 31.12.2019
5495 Clouds 4 1034 80 10000 1 0 15:56 31.12.2019
5496 Clouds 5 1034 80 10000 1 0 15:38 31.12.2019
5497 Clouds 5 1034 80 10000 1.5 190 15:19 31.12.2019
5498 Clouds 5 1034 80 10000 0.5 0 14:55 31.12.2019
5499 Clouds 5 1034 80 10000 0.5 0 14:37 31.12.2019
5500 Clouds 5 1034 80 10000 1.5 280 14:19 31.12.2019
5501 Clouds 5 1034 75 10000 2.1 270 13:56 31.12.2019
5502 Clouds 4 1034 75 10000 2.1 270 13:38 31.12.2019
5503 Clouds 4 1034 75 10000 1.5 270 13:20 31.12.2019
5504 Clouds 4 1034 75 10000 1.5 270 12:56 31.12.2019
5505 Clouds 4 1034 75 10000 0.5 0 12:38 31.12.2019
5506 Drizzle 4 1034 93 2000 0.75 199 12:19 31.12.2019
5507 Clouds 4 1034 74 10000 0.5 0 11:55 31.12.2019
5508 Clouds 4 1034 74 10000 0.5 0 11:37 31.12.2019
5509 Clouds 4 1034 74 10000 0.5 0 11:37 31.12.2019
5510 Clouds 3 1034 74 10000 1 170 11:19 31.12.2019
5511 Clouds 3 1034 74 10000 1 170 10:56 31.12.2019
5512 Clouds 3 1034 74 10000 1.5 60 10:37 31.12.2019
5513 Clouds 3 1033 74 10000 2.1 40 10:19 31.12.2019
5514 Clouds 3 1033 74 10000 2.1 40 09:58 31.12.2019
5515 Clouds 3 1033 86 10000 2.1 130 09:38 31.12.2019
5516 Clouds 3 1032 80 10000 2.1 60 09:19 31.12.2019
5517 Clouds 3 1032 80 10000 2.1 60 08:57 31.12.2019
5518 Clouds 3 1032 80 10000 1.5 90 08:37 31.12.2019
5519 Clouds 3 1032 74 10000 1.5 30 08:18 31.12.2019
5520 Clouds 3 1031 74 10000 2.1 130 07:41 31.12.2019
5521 Clouds 3 1031 60 10000 3.6 160 07:19 31.12.2019
5522 Clouds 2 1031 60 10000 0.5 0 06:48 31.12.2019
5523 Clouds 2 1030 86 10000 2.6 60 05:55 31.12.2019
5524 Clouds 2 1030 86 10000 0.5 0 04:27 31.12.2019
5525 Clear 2 1030 79 10000 2.1 60 03:27 31.12.2019
5526 Clear 1 1029 86 10000 2.1 60 02:49 31.12.2019
5527 Clear 1 1029 74 10000 1.5 130 01:55 31.12.2019
5528 Clear 1 1029 74 10000 1.5 130 01:34 31.12.2019
5529 Clear 1 1029 79 10000 2.6 60 00:58 31.12.2019
5530 Clear 1 1029 74 10000 1 0 00:39 31.12.2019
5531 Clear 1 1029 64 10000 1 0 00:21 31.12.2019
5532 Clear 1 1029 45 10000 2.6 50 23:56 30.12.2019
5533 Clear 1 1029 45 10000 2.6 50 23:37 30.12.2019
5534 Clear 3 1029 64 10000 2.1 60 23:19 30.12.2019
5535 Clear 2 1029 59 10000 1 0 22:56 30.12.2019
5536 Clear 4 1029 59 10000 1 0 22:37 30.12.2019
5537 Clear 4 1029 59 10000 1 0 22:37 30.12.2019
5538 Clear 3 1029 59 10000 2.1 80 22:18 30.12.2019
5539 Clear 3 1029 64 10000 2.1 60 21:56 30.12.2019
5540 Clear 3 1029 64 10000 2.1 60 21:38 30.12.2019
5541 Clear 3 1029 59 10000 2.6 60 21:18 30.12.2019
5542 Clear 3 1029 59 10000 2.6 60 21:18 30.12.2019
5543 Clear 4 1029 59 10000 2.6 60 20:56 30.12.2019
5544 Clear 4 1029 59 10000 2.1 70 20:38 30.12.2019
5545 Clouds 5 1029 44 10000 2.1 100 20:19 30.12.2019
5546 Clouds 4 1029 44 10000 1 0 19:57 30.12.2019
5547 Clouds 4 1029 44 10000 1 0 19:37 30.12.2019
5548 Clouds 4 1029 44 10000 1 0 19:37 30.12.2019
5549 Clouds 4 1029 44 10000 1.5 100 19:19 30.12.2019
5550 Clouds 4 1029 41 10000 1.5 120 18:56 30.12.2019
5551 Clouds 4 1029 41 10000 1.5 120 18:37 30.12.2019
5552 Clouds 5 1030 45 10000 1.5 80 18:19 30.12.2019
5553 Clouds 4 1030 45 10000 1.5 80 17:55 30.12.2019
5554 Clouds 6 1030 39 10000 2.6 0 17:36 30.12.2019
5555 Clouds 5 1030 39 10000 2.6 0 17:36 30.12.2019
5556 Clouds 6 1030 42 10000 2.6 120 17:18 30.12.2019
5557 Clouds 6 1030 39 10000 3.6 130 16:55 30.12.2019
5558 Clouds 6 1030 39 10000 3.6 130 16:36 30.12.2019
5559 Clouds 7 1030 39 10000 2.1 140 16:18 30.12.2019
5560 Clouds 7 1030 37 10000 2.6 140 15:55 30.12.2019
5561 Clouds 8 1030 37 10000 2.6 140 15:36 30.12.2019
5562 Clouds 8 1030 39 10000 3.6 140 15:18 30.12.2019
5563 Clouds 8 1030 34 10000 3.6 140 14:42 30.12.2019
5564 Clouds 8 1031 36 10000 4.1 140 14:19 30.12.2019
5565 Clouds 8 1031 36 10000 4.1 140 13:56 30.12.2019
5566 Clouds 7 1031 39 10000 3.6 140 13:37 30.12.2019
5567 Clouds 7 1031 36 10000 3.6 140 13:19 30.12.2019
5568 Clouds 7 1031 36 10000 3.6 140 12:56 30.12.2019
5569 Clouds 7 1032 42 10000 3.6 140 12:36 30.12.2019
5570 Clouds 6 1032 45 10000 3.6 140 12:18 30.12.2019
5571 Clouds 5 1033 45 10000 4.6 140 11:40 30.12.2019
5572 Clouds 4 1033 48 10000 3.1 130 11:19 30.12.2019
5573 Clouds 3 1033 51 10000 2.6 120 10:58 30.12.2019
5574 Clouds 3 1033 51 10000 2.6 120 10:40 30.12.2019
5575 Clouds 2 1033 51 10000 2.6 110 10:18 30.12.2019
5576 Clouds 2 1033 55 10000 3.1 110 09:42 30.12.2019
5577 Clouds 2 1033 55 10000 2.6 110 09:20 30.12.2019
5578 Clouds 1 1033 59 10000 2.6 100 08:56 30.12.2019
5579 Clouds 1 1033 59 10000 2.6 100 08:37 30.12.2019
5580 Clouds 2 1033 55 10000 2.6 110 08:18 30.12.2019
5581 Clouds 2 1033 55 10000 3.1 120 07:42 30.12.2019
5582 Clouds 2 1033 55 10000 3.1 110 06:59 30.12.2019
5583 Clouds 2 1033 64 10000 2.1 110 06:24 30.12.2019
5584 Clouds 2 1034 59 10000 4.1 120 04:23 30.12.2019
5585 Clouds 2 1034 64 10000 2.1 100 03:42 30.12.2019
5586 Clouds 2 1034 59 10000 2.6 120 02:41 30.12.2019
5587 Clouds 2 1034 59 10000 3.6 120 02:21 30.12.2019
5588 Clouds 2 1035 59 10000 2.6 120 01:27 30.12.2019
5589 Clouds 2 1035 59 10000 3.1 120 00:56 30.12.2019
5590 Clouds 2 1035 59 10000 2.6 120 00:36 30.12.2019
5591 Clouds 2 1036 64 10000 2.6 120 23:42 29.12.2019
5592 Clouds 2 1036 64 10000 2.1 110 23:24 29.12.2019
5593 Clouds 2 1036 64 10000 2.6 100 22:58 29.12.2019
5594 Clouds 2 1036 64 10000 2.6 100 22:38 29.12.2019
5595 Clouds 2 1036 59 10000 3.1 120 22:20 29.12.2019
5596 Clouds 2 1036 64 10000 2.6 110 21:55 29.12.2019
5597 Clouds 2 1036 64 10000 2.6 110 21:55 29.12.2019
5598 Clouds 2 1036 64 10000 2.6 110 21:37 29.12.2019
5599 Clouds 2 1036 64 10000 2.6 110 21:37 29.12.2019
5600 Clouds 2 1036 59 10000 2.6 100 21:18 29.12.2019
5601 Clouds 2 1036 64 10000 2.6 120 20:55 29.12.2019
5602 Clouds 2 1036 64 10000 2.6 120 20:37 29.12.2019
5603 Clouds 3 1036 64 10000 3.6 120 20:18 29.12.2019
5604 Clouds 3 1036 64 10000 3.6 120 19:56 29.12.2019
5605 Clouds 3 1036 64 10000 3.6 120 19:37 29.12.2019
5606 Clouds 3 1036 64 10000 2.6 110 19:19 29.12.2019
5607 Clouds 2 1036 64 10000 2.6 110 18:55 29.12.2019
5608 Clouds 2 1036 64 10000 2.6 110 18:37 29.12.2019
5609 Clouds 2 1036 64 10000 2.6 110 18:18 29.12.2019
5610 Clouds 2 1036 59 10000 2.1 110 17:56 29.12.2019
5611 Clouds 3 1036 59 10000 2.1 110 17:37 29.12.2019
5612 Clouds 3 1036 59 10000 2.1 110 17:37 29.12.2019
5613 Clouds 3 1036 59 10000 2.1 110 17:37 29.12.2019
5614 Clouds 3 1036 59 10000 3.1 120 17:19 29.12.2019
5615 Clouds 3 1036 64 10000 3.1 120 16:55 29.12.2019
5616 Clouds 3 1036 64 10000 3.1 120 16:36 29.12.2019
5617 Clouds 3 1037 60 10000 2.6 110 16:18 29.12.2019
5618 Clouds 4 1037 60 10000 2.6 110 15:56 29.12.2019
5619 Clouds 4 1037 60 10000 1.5 110 15:38 29.12.2019
5620 Clouds 4 1036 60 10000 3.6 110 15:18 29.12.2019
5621 Clouds 4 1037 60 10000 3.6 110 14:55 29.12.2019
5622 Clouds 4 1037 60 10000 3.6 110 14:37 29.12.2019
5623 Clouds 4 1037 64 10000 4.1 130 14:18 29.12.2019
5624 Clouds 4 1037 64 10000 4.1 130 13:55 29.12.2019
5625 Clouds 3 1037 64 10000 4.1 130 13:37 29.12.2019
5626 Clouds 3 1037 64 10000 3.6 110 13:18 29.12.2019
5627 Clouds 3 1038 69 10000 3.1 110 12:42 29.12.2019
5628 Clouds 2 1038 69 10000 3.1 110 12:24 29.12.2019
5629 Clouds 2 1038 69 10000 3.1 110 11:56 29.12.2019
5630 Clouds 2 1039 69 10000 2.6 110 11:37 29.12.2019
5631 Clouds 1 1039 74 10000 3.6 120 11:19 29.12.2019
5632 Clouds 1 1039 74 10000 2.6 110 10:42 29.12.2019
5633 Clouds 1 1039 74 10000 2.6 110 10:23 29.12.2019
5634 Clouds 0 1038 64 10000 3.1 110 09:57 29.12.2019
5635 Clouds 0 1038 64 10000 3.1 110 09:38 29.12.2019
5636 Clouds 0 1038 80 10000 3.6 110 09:20 29.12.2019
5637 Clouds -1 1039 80 10000 2.6 100 08:47 29.12.2019
5638 Clouds -1 1038 80 10000 3.6 100 08:24 29.12.2019
5639 Clouds -1 1039 80 10000 2.1 90 07:55 29.12.2019
5640 Clouds -1 1039 80 10000 2.1 90 07:28 29.12.2019
5641 Clouds -1 1038 80 10000 2.1 110 06:56 29.12.2019
5642 Clouds -1 1039 80 10000 2.1 100 06:26 29.12.2019
5643 Clouds -1 1038 80 10000 2.6 90 05:52 29.12.2019
5644 Clouds -1 1039 80 10000 2.6 90 04:36 29.12.2019
5645 Clouds -1 1039 86 10000 1.5 100 03:54 29.12.2019
5646 Clouds -1 1039 86 10000 2.6 100 03:20 29.12.2019
5647 Clouds 0 1039 86 10000 1.5 80 02:20 29.12.2019
5648 Clouds 0 1039 71 10000 2.1 110 01:38 29.12.2019
5649 Clouds 0 1039 71 10000 4.1 130 01:19 29.12.2019
5650 Clouds 0 1039 71 10000 2.6 110 00:40 29.12.2019
5651 Clouds 0 1040 71 10000 3.1 100 00:22 29.12.2019
5652 Clouds 0 1040 71 10000 2.6 100 23:44 28.12.2019
5653 Clouds 0 1040 70 10000 3.1 110 23:18 28.12.2019
5654 Clouds 0 1040 70 10000 3.1 110 23:18 28.12.2019
5655 Clouds 0 1041 70 10000 2.1 90 22:39 28.12.2019
5656 Clouds 1 1040 80 10000 2.1 90 22:21 28.12.2019
5657 Clouds 1 1040 74 10000 2.6 90 21:58 28.12.2019
5658 Clouds 0 1040 74 10000 2.6 90 21:40 28.12.2019
5659 Clouds 0 1041 80 10000 2.1 100 21:22 28.12.2019
5660 Clouds 0 1041 80 10000 2.1 100 20:59 28.12.2019
5661 Clouds 1 1040 80 10000 2.1 90 20:38 28.12.2019
5662 Clouds 1 1041 80 10000 2.6 110 20:20 28.12.2019
5663 Clouds 1 1041 80 10000 2.6 110 19:58 28.12.2019
5664 Clouds 1 1041 80 10000 2.6 110 19:58 28.12.2019
5665 Clouds 1 1040 80 10000 2.1 110 19:39 28.12.2019
5666 Clouds 1 1040 80 10000 1.5 150 19:21 28.12.2019
5667 Clouds 1 1040 74 10000 3.1 130 18:58 28.12.2019
5668 Clouds 1 1040 74 10000 3.1 130 18:40 28.12.2019
5669 Clouds 1 1040 74 10000 3.1 120 18:19 28.12.2019
5670 Clouds 1 1040 74 10000 3.1 120 17:56 28.12.2019
5671 Clouds 1 1040 74 10000 2.6 130 17:38 28.12.2019
5672 Clouds 2 1040 74 10000 1.5 110 17:19 28.12.2019
5673 Clouds 2 1040 80 10000 1.5 100 16:46 28.12.2019
5674 Clouds 3 1040 74 10000 2.1 110 16:26 28.12.2019
5675 Clouds 3 1040 74 10000 1.5 110 15:57 28.12.2019
5676 Clouds 3 1040 74 10000 1.5 110 15:39 28.12.2019
5677 Clouds 3 1040 74 10000 3.6 130 15:19 28.12.2019
5678 Clouds 3 1039 69 10000 4.6 130 14:44 28.12.2019
5679 Clouds 3 1040 74 10000 4.1 140 14:24 28.12.2019
5680 Clouds 3 1040 74 10000 4.1 140 14:24 28.12.2019
5681 Clouds 3 1040 74 10000 4.1 140 13:57 28.12.2019
5682 Clouds 3 1040 74 10000 2.6 130 13:38 28.12.2019
5683 Clouds 2 1040 80 10000 2.6 120 13:19 28.12.2019
5684 Clouds 2 1040 80 10000 3.1 120 12:44 28.12.2019
5685 Clouds 2 1040 80 10000 3.6 120 12:25 28.12.2019
5686 Clouds 1 1041 80 10000 2.6 120 11:59 28.12.2019
5687 Clouds 1 1041 80 10000 2.6 120 11:39 28.12.2019
5688 Clouds 1 1040 80 10000 3.1 120 11:21 28.12.2019
5689 Clouds 1 1041 80 10000 1.5 110 10:47 28.12.2019
5690 Clouds 0 1040 81 10000 2.1 100 10:23 28.12.2019
5691 Clouds 0 1040 81 10000 2.1 100 09:59 28.12.2019
5692 Clouds -1 1040 86 10000 1.5 80 09:41 28.12.2019
5693 Clouds -1 1040 92 10000 1.5 70 09:23 28.12.2019
5694 Clouds -1 1040 92 10000 1.5 70 08:57 28.12.2019
5695 Clouds -1 1040 86 10000 2.1 80 08:38 28.12.2019
5696 Clouds -1 1040 92 10000 2.6 80 08:19 28.12.2019
5697 Clouds -1 1040 100 10000 1 0 07:41 28.12.2019
5698 Clouds -1 1039 92 10000 0.5 0 06:59 28.12.2019
5699 Clouds -1 1038 92 10000 1.5 120 05:43 28.12.2019
5700 Clouds 0 1038 83 10000 2.6 70 03:48 28.12.2019
5701 Clouds 0 1038 83 10000 2.1 80 02:50 28.12.2019
5702 Clouds 1 1038 86 10000 2.6 80 02:20 28.12.2019
5703 Clouds 1 1037 79 10000 2.1 80 01:54 28.12.2019
5704 Clouds 1 1037 86 10000 2.1 110 01:22 28.12.2019
5705 Clouds 2 1037 79 10000 2.1 90 00:45 28.12.2019
5706 Clouds 2 1037 79 10000 3.1 80 00:27 28.12.2019
5707 Clouds 2 1037 79 10000 3.1 80 23:58 27.12.2019
5708 Clouds 2 1036 79 10000 1.5 80 23:38 27.12.2019
5709 Clouds 2 1036 93 10000 1.5 100 23:18 27.12.2019
5710 Clouds 3 1036 86 10000 2.1 100 22:55 27.12.2019
5711 Clouds 3 1036 86 10000 2.1 100 22:37 27.12.2019
5712 Clouds 3 1035 93 10000 1.5 120 22:19 27.12.2019
5713 Clouds 3 1035 86 10000 1 0 21:43 27.12.2019
5714 Clouds 3 1035 86 10000 1 0 21:24 27.12.2019
5715 Clouds 4 1035 86 10000 1 0 20:45 27.12.2019
5716 Clouds 3 1034 86 10000 0.5 140 20:26 27.12.2019
5717 Clouds 4 1034 86 10000 1 0 19:59 27.12.2019
5718 Clouds 4 1034 86 10000 1 0 19:41 27.12.2019
5719 Clouds 4 1034 86 10000 1.5 30 19:20 27.12.2019
5720 Clouds 4 1034 86 10000 1.5 30 19:20 27.12.2019
5721 Clouds 4 1033 93 10000 1 0 18:57 27.12.2019
5722 Clouds 4 1033 93 10000 1 0 18:37 27.12.2019
5723 Clouds 5 1033 86 10000 1 0 18:19 27.12.2019
5724 Clouds 5 1032 86 10000 2.1 50 17:55 27.12.2019
5725 Clouds 5 1032 86 10000 2.1 50 17:55 27.12.2019
5726 Clouds 5 1032 86 10000 2.1 50 17:37 27.12.2019
5727 Clouds 5 1032 80 10000 1.5 60 17:18 27.12.2019
5728 Clouds 5 1032 75 10000 1.5 40 16:44 27.12.2019
5729 Clouds 6 1031 70 10000 1.5 80 16:26 27.12.2019
5730 Clouds 6 1030 75 10000 1 0 15:59 27.12.2019
5731 Clouds 6 1030 75 10000 1 0 15:40 27.12.2019
5732 Clouds 6 1030 70 10000 3.1 120 15:20 27.12.2019
5733 Clouds 6 1029 70 10000 3.1 120 14:56 27.12.2019
5734 Clouds 6 1029 70 10000 3.1 120 14:38 27.12.2019
5735 Clouds 6 1029 75 10000 2.6 90 14:20 27.12.2019
5736 Clouds 6 1028 81 10000 4.6 90 13:48 27.12.2019
5737 Clouds 5 1028 81 10000 2.6 90 13:25 27.12.2019
5738 Clouds 5 1028 81 10000 2.6 90 13:25 27.12.2019
5739 Clouds 5 1028 81 10000 2.6 90 12:58 27.12.2019
5740 Clouds 5 1028 81 10000 4.6 70 12:39 27.12.2019
5741 Clouds 5 1028 81 10000 4.6 60 12:21 27.12.2019
5742 Clouds 5 1027 87 10000 3.6 50 11:43 27.12.2019
5743 Clouds 5 1027 87 10000 3.6 50 11:43 27.12.2019
5744 Clouds 5 1027 87 10000 2.6 70 11:23 27.12.2019
5745 Clouds 5 1027 87 10000 2.6 70 10:55 27.12.2019
5746 Clouds 5 1026 86 10000 2.6 70 10:37 27.12.2019
5747 Clouds 5 1025 86 10000 3.1 70 10:19 27.12.2019
5748 Clouds 5 1024 86 10000 3.6 70 09:42 27.12.2019
5749 Clouds 5 1023 93 10000 2.1 70 09:21 27.12.2019
5750 Clouds 5 1023 93 10000 2.1 120 08:56 27.12.2019
5751 Clouds 5 1023 93 10000 2.1 120 08:36 27.12.2019
5752 Clouds 5 1022 93 10000 2.6 80 07:51 27.12.2019
5753 Clouds 5 1022 93 10000 2.6 80 07:32 27.12.2019
5754 Drizzle 5 1021 93 10000 2.6 80 06:37 27.12.2019
5755 Drizzle 5 1020 93 10000 2.6 90 05:37 27.12.2019
5756 Drizzle 5 1020 93 10000 3.6 110 03:44 27.12.2019
5757 Drizzle 5 1020 93 10000 3.1 110 02:21 27.12.2019
5758 Drizzle 5 1020 93 9000 3.6 110 01:42 27.12.2019
5759 Drizzle 5 1020 93 8000 3.6 130 01:20 27.12.2019
5760 Drizzle 5 1021 93 10000 3.6 120 00:44 27.12.2019
5761 Drizzle 5 1021 93 7000 3.1 120 00:24 27.12.2019
5762 Drizzle 5 1021 86 7000 4.1 160 23:42 26.12.2019
5763 Clouds 5 1021 86 10000 3.1 150 23:23 26.12.2019
5764 Clouds 5 1021 86 10000 3.1 150 22:58 26.12.2019
5765 Clouds 5 1021 86 10000 3.1 140 22:37 26.12.2019
5766 Clouds 5 1021 86 10000 3.6 130 22:18 26.12.2019
5767 Clouds 5 1021 86 10000 3.6 140 21:39 26.12.2019
5768 Clouds 5 1021 86 10000 3.6 130 21:21 26.12.2019
5769 Clouds 5 1021 81 10000 3.6 130 20:54 26.12.2019
5770 Clouds 5 1021 81 10000 3.6 130 20:36 26.12.2019
5771 Clouds 5 1021 86 10000 4.1 140 20:18 26.12.2019
5772 -273 0 0 0 0 0 20:18 26.12.2019
5773 Clouds 5 1021 81 10000 4.1 130 19:54 26.12.2019
5774 Clouds 5 1021 81 10000 4.1 130 19:36 26.12.2019
5775 Clouds 5 1022 81 10000 3.6 130 19:18 26.12.2019
5776 Clouds 5 1022 81 10000 3.6 130 18:55 26.12.2019
5777 Rain 5 1022 81 10000 3.1 130 18:36 26.12.2019
5778 Clouds 5 1022 86 10000 2.1 120 18:18 26.12.2019
5779 Clouds 5 1022 81 10000 1.5 130 17:40 26.12.2019
5780 Clouds 5 1022 81 10000 2.1 100 17:20 26.12.2019
5781 Clouds 5 1023 81 10000 2.6 120 16:48 26.12.2019
5782 Clouds 6 1023 87 10000 2.6 140 16:26 26.12.2019
5783 Clouds 6 1023 87 10000 2.6 140 15:57 26.12.2019
5784 Clouds 6 1022 87 10000 2.6 120 15:38 26.12.2019
5785 Clouds 6 1022 87 10000 2.6 100 15:19 26.12.2019
5786 Clouds 6 1022 87 10000 2.6 130 14:41 26.12.2019
5787 Clouds 6 1022 87 10000 2.6 130 14:23 26.12.2019
5788 Clouds 6 1023 81 10000 3.1 120 13:55 26.12.2019
5789 Clouds 6 1024 81 10000 3.6 130 13:36 26.12.2019
5790 Clouds 6 1024 87 10000 2.6 130 13:18 26.12.2019
5791 Clouds 6 1024 81 10000 2.1 120 12:45 26.12.2019
5792 Clouds 6 1024 87 10000 3.1 140 12:25 26.12.2019
5793 Clouds 6 1024 87 10000 3.1 140 11:59 26.12.2019
5794 Clouds 5 1025 87 0 3.6 140 11:40 26.12.2019
5795 Clouds 5 1025 87 0 3.6 140 11:40 26.12.2019
5796 Clouds 5 1025 87 8000 2.1 130 11:21 26.12.2019
5797 Clouds 5 1025 93 7000 2.6 100 10:50 26.12.2019
5798 Clouds 5 1025 93 6000 2.1 90 10:27 26.12.2019
5799 Clouds 5 1025 93 6000 2.1 90 09:59 26.12.2019
5800 Mist 4 1025 93 4500 1.5 70 09:41 26.12.2019
5801 Mist 4 1025 93 4500 1 120 09:22 26.12.2019
5802 Mist 4 1025 100 4000 1.5 110 08:40 26.12.2019
5803 Mist 4 1025 100 3500 2.1 130 08:21 26.12.2019
5804 Mist 5 1025 100 3500 2.1 120 07:46 26.12.2019
5805 Mist 5 1025 100 4500 1 60 07:26 26.12.2019
5806 Mist 5 1025 100 4500 2.1 140 06:39 26.12.2019
5807 Mist 5 1025 100 4500 1.5 130 06:20 26.12.2019
5808 Mist 5 1025 100 4500 1 150 05:43 26.12.2019
5809 Mist 5 1025 100 4500 1 150 05:43 26.12.2019
5810 Mist 5 1026 93 4500 1.5 150 04:36 26.12.2019
5811 Mist 5 1025 93 4500 1 70 03:46 26.12.2019
5812 Mist 5 1025 93 2500 1.5 140 02:49 26.12.2019
5813 Mist 5 1025 93 2500 1.5 140 02:31 26.12.2019
5814 Clouds 5 1026 100 8000 1.5 290 01:45 26.12.2019
5815 Clouds 5 1026 100 8000 1.5 290 01:26 26.12.2019
5816 Clouds 6 1026 93 10000 1.5 220 00:47 26.12.2019
5817 Clouds 6 1026 93 10000 1 0 00:24 26.12.2019
5818 Clouds 6 1026 93 10000 1 0 00:24 26.12.2019
5819 Clouds 6 1026 93 10000 1 0 23:58 25.12.2019
5820 Clouds 6 1026 100 10000 2.1 270 23:38 25.12.2019
5821 Clouds 6 1025 93 10000 1.5 260 23:20 25.12.2019
5822 Clouds 6 1026 93 10000 2.1 270 22:57 25.12.2019
5823 Clouds 6 1026 93 10000 2.1 270 22:38 25.12.2019
5824 Clouds 6 1025 93 10000 2.6 300 22:19 25.12.2019
5825 Clouds 6 1025 93 10000 2.6 280 21:57 25.12.2019
5826 Clouds 6 1025 93 10000 2.6 280 21:39 25.12.2019
5827 Rain 6 1025 100 10000 2.1 280 21:19 25.12.2019
5828 Clouds 6 1025 93 10000 3.1 280 20:41 25.12.2019
5829 Clouds 6 1025 93 10000 3.1 280 20:41 25.12.2019
5830 Clouds 6 1025 93 10000 2.6 270 20:21 25.12.2019
5831 Clouds 6 1025 93 10000 2.6 270 19:59 25.12.2019
5832 Clouds 6 1024 93 10000 3.1 280 19:41 25.12.2019
5833 Rain 6 1024 87 10000 3.6 290 19:22 25.12.2019
5834 Rain 6 1024 93 10000 4.6 280 18:54 25.12.2019
5835 Rain 6 1024 93 10000 4.6 280 18:36 25.12.2019
5836 Rain 6 1024 87 10000 4.6 290 18:18 25.12.2019
5837 Rain 7 1024 93 10000 5.1 280 17:40 25.12.2019
5838 Clouds 7 1023 93 10000 3.6 270 17:19 25.12.2019
5839 Clouds 7 1023 93 10000 4.1 290 16:56 25.12.2019
5840 Clouds 7 1023 93 10000 4.1 290 16:37 25.12.2019
5841 Clouds 7 1023 87 10000 3.1 310 16:18 25.12.2019
5842 Clouds 7 1023 87 10000 3.1 310 16:18 25.12.2019
5843 Clouds 7 1022 87 10000 5.1 310 15:56 25.12.2019
5844 Clouds 7 1022 87 10000 5.1 310 15:38 25.12.2019
5845 Rain 7 1022 87 10000 5.1 300 15:19 25.12.2019
5846 Rain 7 1022 87 10000 5.1 300 15:19 25.12.2019
5847 Rain 7 1022 87 10000 5.1 300 14:56 25.12.2019
5848 Rain 7 1021 93 10000 5.7 300 14:37 25.12.2019
5849 Rain 7 1021 87 10000 5.1 310 14:19 25.12.2019
5850 Clouds 7 1021 93 10000 5.7 310 13:44 25.12.2019
5851 Rain 7 1020 93 10000 4.1 320 13:21 25.12.2019
5852 Clouds 7 1020 93 10000 5.7 300 12:56 25.12.2019
5853 Clouds 7 1020 93 10000 5.7 300 12:38 25.12.2019
5854 Clouds 7 1019 93 10000 6.2 310 12:19 25.12.2019
5855 Clouds 7 1019 93 10000 7.7 310 11:43 25.12.2019
5856 Clouds 7 1018 93 10000 7.7 290 11:22 25.12.2019
5857 Clouds 7 1018 93 10000 7.7 290 10:59 25.12.2019
5858 Rain 7 1017 93 10000 7.2 280 10:36 25.12.2019
5859 Rain 7 1017 93 10000 7.7 280 10:18 25.12.2019
5860 Rain 7 1016 87 10000 7.7 280 09:44 25.12.2019
5861 Rain 7 1016 93 10000 7.2 280 09:26 25.12.2019
5862 Clouds 7 1015 87 10000 8.7 280 08:46 25.12.2019
5863 Clouds 7 1015 87 10000 7.7 280 08:26 25.12.2019
5864 Rain 7 1014 87 10000 6.2 300 07:48 25.12.2019
5865 Rain 7 1014 93 10000 3.6 280 07:29 25.12.2019
5866 Clouds 7 1013 93 10000 6.2 280 06:49 25.12.2019
5867 Rain 8 1013 93 10000 6.2 260 06:22 25.12.2019
5868 Rain 8 1013 100 10000 4.1 260 05:18 25.12.2019
5869 Rain 8 1013 100 8000 3.1 290 04:38 25.12.2019
5870 Rain 8 1013 100 9000 3.6 270 04:18 25.12.2019
5871 Rain 8 1012 100 10000 2.6 260 03:40 25.12.2019
5872 Rain 8 1012 100 9000 4.6 270 02:39 25.12.2019
5873 Rain 8 1012 87 10000 4.6 270 02:20 25.12.2019
5874 Rain 9 1012 93 9000 4.6 270 01:25 25.12.2019
5875 Clouds 9 1012 81 10000 4.6 240 00:52 25.12.2019
5876 Clouds 9 1012 81 10000 6.2 250 00:29 25.12.2019
5877 Clouds 9 1011 81 10000 6.2 250 23:56 24.12.2019
5878 Clouds 9 1011 81 10000 6.2 250 23:38 24.12.2019
5879 Clouds 9 1011 81 10000 6.2 250 23:20 24.12.2019
5880 Clouds 9 1011 81 10000 6.2 240 22:40 24.12.2019
5881 Clouds 9 1011 81 10000 7.2 250 22:21 24.12.2019
5882 Clouds 9 1011 81 10000 7.2 250 21:44 24.12.2019
5883 Clouds 9 1011 81 10000 7.2 250 21:23 24.12.2019
5884 Rain 9 1010 81 10000 8.2 250 20:57 24.12.2019
5885 Rain 9 1010 81 10000 8.2 250 20:39 24.12.2019
5886 Clouds 9 1010 81 10000 6.7 250 20:19 24.12.2019
5887 Clouds 9 1010 87 10000 7.2 260 19:44 24.12.2019
5888 Rain 8 1010 81 10000 7.2 250 19:20 24.12.2019
5889 Rain 8 1010 87 10000 6.7 240 18:57 24.12.2019
5890 Rain 8 1010 87 10000 6.7 240 18:38 24.12.2019
5891 Rain 9 1009 93 10000 7.2 280 18:18 24.12.2019
5892 Rain 9 1009 76 10000 6.2 250 17:39 24.12.2019
5893 Clouds 9 1009 81 10000 7.2 280 17:21 24.12.2019
5894 Rain 9 1008 81 10000 7.7 260 16:56 24.12.2019
5895 Rain 10 1008 81 10000 7.7 260 16:38 24.12.2019
5896 Rain 10 1008 81 10000 5.7 270 16:20 24.12.2019
5897 Rain 10 1008 81 10000 5.7 270 15:56 24.12.2019
5898 Clouds 10 1008 71 10000 8.7 260 15:36 24.12.2019
5899 Clouds 10 1008 71 10000 7.2 260 15:18 24.12.2019
5900 Clouds 10 1008 71 10000 8.7 270 14:57 24.12.2019
5901 Clouds 10 1008 71 10000 8.7 270 14:38 24.12.2019
5902 Clouds 10 1008 71 10000 8.7 260 14:20 24.12.2019
5903 Clouds 10 1008 71 10000 8.7 260 13:55 24.12.2019
5904 Clouds 10 1007 76 10000 7.7 250 13:37 24.12.2019
5905 Clouds 10 1007 81 10000 4.6 220 13:19 24.12.2019
5906 Clouds 10 1007 87 10000 4.1 180 12:55 24.12.2019
5907 Clouds 9 1007 87 10000 4.1 180 12:36 24.12.2019
5908 Clouds 8 1008 93 10000 4.6 170 12:18 24.12.2019
5909 Rain 8 1008 93 10000 4.1 150 11:55 24.12.2019
5910 Rain 7 1008 93 10000 4.1 150 11:37 24.12.2019
5911 Rain 7 1008 93 10000 4.1 150 11:18 24.12.2019
5912 Drizzle 7 1009 93 6000 4.1 140 10:56 24.12.2019
5913 Drizzle 6 1009 93 6000 4.1 140 10:37 24.12.2019
5914 Drizzle 7 1009 93 6000 4.1 140 10:37 24.12.2019
5915 Drizzle 6 1009 93 4000 4.1 150 10:19 24.12.2019
5916 Drizzle 7 1009 81 8000 3.6 140 09:55 24.12.2019
5917 Drizzle 7 1009 81 8000 3.6 140 09:37 24.12.2019
5918 Drizzle 7 1009 81 8000 3.6 140 09:37 24.12.2019
5919 Rain 6 1010 87 10000 4.1 120 09:19 24.12.2019
5920 Rain 6 1010 87 10000 4.1 120 08:45 24.12.2019
5921 Clouds 6 1011 81 10000 3.1 120 08:24 24.12.2019
5922 Clouds 6 1012 81 10000 2.6 120 07:46 24.12.2019
5923 Clouds 6 1012 81 10000 3.6 120 07:27 24.12.2019
5924 Clouds 6 1012 81 10000 3.6 120 06:59 24.12.2019
5925 Clouds 6 1013 81 10000 4.6 140 06:39 24.12.2019
5926 Clouds 6 1013 86 10000 4.6 140 06:19 24.12.2019
5927 Clouds 6 1014 86 10000 4.1 150 05:49 24.12.2019
5928 Clouds 6 1014 81 10000 4.6 160 05:18 24.12.2019
5929 Clouds 6 1015 81 10000 4.1 180 03:55 24.12.2019
5930 Clouds 6 1015 81 10000 4.6 170 03:33 24.12.2019
5931 Clouds 6 1016 81 10000 3.1 150 02:28 24.12.2019
5932 Clouds 6 1015 81 10000 3.1 190 01:54 24.12.2019
5933 Clouds 6 1016 87 10000 3.1 200 01:25 24.12.2019
5934 Clouds 6 1015 81 10000 3.6 210 00:58 24.12.2019
5935 Clouds 6 1015 81 10000 3.6 210 00:39 24.12.2019
5936 Clouds 6 1015 87 10000 4.1 240 00:19 24.12.2019
5937 Clouds 6 1015 81 10000 5.1 250 23:42 23.12.2019
5938 Clouds 6 1015 81 10000 5.1 250 23:42 23.12.2019
5939 Clouds 6 1015 81 10000 5.1 260 23:24 23.12.2019
5940 Clouds 7 1015 87 10000 5.7 260 22:57 23.12.2019
5941 Clouds 7 1015 87 10000 5.7 260 22:38 23.12.2019
5942 Clouds 7 1015 87 10000 5.7 260 22:38 23.12.2019
5943 Clouds 7 1014 81 10000 4.6 250 22:20 23.12.2019
5944 Clouds 7 1014 81 10000 4.6 250 22:20 23.12.2019
5945 Clouds 7 1014 87 10000 4.6 250 21:56 23.12.2019
5946 Clouds 7 1014 87 10000 4.6 250 21:37 23.12.2019
5947 Clouds 7 1013 81 10000 5.7 250 21:19 23.12.2019
5948 Clouds 7 1013 75 10000 5.1 250 20:59 23.12.2019
5949 Clouds 7 1013 75 10000 5.1 250 20:40 23.12.2019
5950 Clouds 7 1013 81 10000 4.1 250 20:19 23.12.2019
5951 Clouds 7 1013 81 10000 4.1 250 19:58 23.12.2019
5952 Clouds 8 1013 81 10000 4.6 240 19:40 23.12.2019
5953 Clouds 7 1013 87 10000 4.1 240 19:21 23.12.2019
5954 Clouds 8 1013 87 10000 4.1 240 18:58 23.12.2019
5955 Clouds 7 1012 87 10000 3.1 240 18:58 23.12.2019
5956 Clouds 7 1012 87 10000 3.1 240 18:39 23.12.2019
5957 Clouds 7 1012 87 10000 3.6 260 18:21 23.12.2019
5958 Clouds 7 1012 87 10000 3.6 260 17:59 23.12.2019
5959 Clouds 7 1011 81 10000 5.1 270 17:40 23.12.2019
5960 Clouds 8 1011 87 10000 5.1 270 17:20 23.12.2019
5961 Rain 8 1010 87 10000 4.6 270 16:59 23.12.2019
5962 Rain 8 1010 87 10000 4.6 270 16:40 23.12.2019
5963 Rain 8 1010 87 10000 5.1 270 16:19 23.12.2019
5964 Rain 8 1010 87 10000 5.1 270 15:58 23.12.2019
5965 Rain 8 1009 87 10000 5.7 260 15:37 23.12.2019
5966 Clouds 8 1009 87 10000 6.7 270 15:19 23.12.2019
5967 Clouds 8 1008 87 10000 4.6 260 14:57 23.12.2019
5968 Clouds 8 1008 87 10000 4.6 260 14:39 23.12.2019
5969 Clouds 8 1008 93 10000 4.6 280 14:20 23.12.2019
5970 Clouds 8 1008 93 10000 4.6 280 13:57 23.12.2019
5971 Rain 8 1008 87 10000 7.7 260 13:39 23.12.2019
5972 Rain 8 1007 81 10000 5.7 260 13:21 23.12.2019
5973 Clouds 9 1007 76 10000 5.1 260 12:55 23.12.2019
5974 Clouds 8 1007 76 10000 5.1 260 12:37 23.12.2019
5975 Clouds 8 1007 76 10000 5.1 260 12:18 23.12.2019
5976 Clouds 8 1007 81 10000 4.6 260 11:43 23.12.2019
5977 Clouds 8 1006 81 10000 4.6 260 11:25 23.12.2019
5978 Clouds 8 1006 81 10000 4.1 260 10:56 23.12.2019
5979 Clouds 8 1006 81 10000 4.1 260 10:38 23.12.2019
5980 Clouds 7 1005 81 10000 6.2 270 10:20 23.12.2019
5981 Clouds 7 1005 81 10000 6.2 270 09:59 23.12.2019
5982 Clouds 7 1005 81 10000 6.2 260 09:39 23.12.2019
5983 Clouds 7 1004 87 10000 5.7 270 09:20 23.12.2019
5984 Clouds 7 1003 93 10000 4.6 260 08:56 23.12.2019
5985 Clouds 7 1003 93 10000 4.6 260 08:38 23.12.2019
5986 Rain 7 1003 93 10000 4.6 250 08:19 23.12.2019
5987 Clouds 7 1002 87 10000 5.1 250 07:43 23.12.2019
5988 Clouds 7 1002 81 10000 5.1 250 07:20 23.12.2019
5989 Rain 7 1001 87 10000 6.2 240 06:53 23.12.2019
5990 Clouds 7 1001 87 10000 3.1 230 06:25 23.12.2019
5991 Rain 7 1000 87 10000 2.6 240 05:50 23.12.2019
5992 Rain 7 1000 87 10000 3.1 210 05:27 23.12.2019
5993 Rain 7 1000 87 10000 4.1 230 04:31 23.12.2019
5994 Rain 7 998 93 10000 5.7 240 03:18 23.12.2019
5995 Clouds 7 998 81 10000 4.6 240 02:40 23.12.2019
5996 Clouds 7 997 87 10000 4.6 250 02:19 23.12.2019
5997 Clouds 7 997 81 10000 5.7 250 01:42 23.12.2019
5998 Clouds 7 996 81 10000 7.2 260 01:23 23.12.2019
5999 Clouds 7 996 81 10000 6.2 260 00:43 23.12.2019
6000 Clouds 7 995 81 10000 6.2 260 00:23 23.12.2019
6001 Clouds 7 995 81 10000 6.7 260 23:40 22.12.2019
6002 Clouds 7 995 81 10000 6.7 260 23:21 22.12.2019
6003 Clouds 7 995 81 10000 6.7 260 22:58 22.12.2019
6004 Clouds 7 994 87 10000 6.2 260 22:40 22.12.2019
6005 Clouds 7 993 81 10000 7.2 260 22:22 22.12.2019
6006 Clouds 7 993 81 10000 7.2 260 21:58 22.12.2019
6007 Rain 7 993 87 10000 7.2 260 21:40 22.12.2019
6008 Rain 7 992 93 10000 7.7 250 21:21 22.12.2019
6009 Rain 7 992 93 10000 7.7 250 21:21 22.12.2019
6010 Rain 7 992 93 10000 7.7 250 21:21 22.12.2019
6011 Rain 7 991 93 10000 8.2 260 20:59 22.12.2019
6012 Rain 7 991 93 10000 8.2 260 20:39 22.12.2019
6013 Rain 7 991 87 10000 8.7 260 20:19 22.12.2019
6014 Rain 7 990 87 10000 9.3 260 19:57 22.12.2019
6015 Rain 7 990 87 10000 9.3 260 19:39 22.12.2019
6016 Rain 7 989 87 10000 8.2 260 19:20 22.12.2019
6017 Rain 8 989 87 10000 8.2 250 18:42 22.12.2019
6018 Rain 8 988 87 10000 6.2 240 18:24 22.12.2019
6019 Rain 8 987 87 10000 6.2 240 17:57 22.12.2019
6020 Rain 8 987 87 10000 6.2 240 17:39 22.12.2019
6021 Rain 8 986 81 10000 5.1 230 17:19 22.12.2019
6022 Rain 8 986 81 10000 5.1 230 17:19 22.12.2019
6023 Rain 8 986 81 10000 8.7 230 16:59 22.12.2019
6024 Rain 8 986 81 10000 8.7 230 16:41 22.12.2019
6025 Rain 9 985 81 10000 4.6 240 16:22 22.12.2019
6026 Rain 9 985 87 10000 2.6 210 15:57 22.12.2019
6027 Rain 9 985 87 10000 2.6 210 15:39 22.12.2019
6028 Rain 9 985 87 10000 2.6 210 15:39 22.12.2019
6029 Rain 9 984 81 10000 3.6 220 15:20 22.12.2019
6030 Rain 9 984 81 10000 5.1 230 14:56 22.12.2019
6031 Rain 10 984 81 10000 5.1 230 14:38 22.12.2019
6032 Clouds 10 984 71 10000 5.7 230 14:19 22.12.2019
6033 Clouds 10 984 71 10000 5.7 230 14:19 22.12.2019
6034 Clouds 10 984 71 10000 5.7 230 13:56 22.12.2019
6035 Clouds 10 984 76 10000 3.1 220 13:38 22.12.2019
6036 Rain 10 984 81 10000 2.6 200 13:19 22.12.2019
6037 Rain 10 984 81 10000 2.6 200 13:19 22.12.2019
6038 Rain 10 984 76 10000 3.1 210 12:57 22.12.2019
6039 Rain 9 984 76 10000 3.1 210 12:38 22.12.2019
6040 Clouds 9 984 81 10000 5.1 170 12:19 22.12.2019
6041 Clouds 9 983 81 10000 5.1 160 11:56 22.12.2019
6042 Clouds 9 983 81 10000 5.1 160 11:38 22.12.2019
6043 Clouds 9 983 76 10000 5.7 130 11:19 22.12.2019
6044 Clouds 9 983 76 10000 5.7 130 10:57 22.12.2019
6045 Clouds 9 983 76 10000 5.7 130 10:57 22.12.2019
6046 Clouds 9 983 81 10000 5.7 130 10:38 22.12.2019
6047 Clouds 8 983 81 10000 5.7 140 10:19 22.12.2019
6048 Clouds 8 983 81 10000 5.7 140 09:58 22.12.2019
6049 Clouds 8 983 81 10000 5.7 140 09:58 22.12.2019
6050 Clouds 8 983 81 10000 6.7 130 09:39 22.12.2019
6051 Clouds 8 983 81 10000 5.7 130 09:21 22.12.2019
6052 Clouds 7 982 81 10000 5.1 130 08:45 22.12.2019
6053 Clouds 7 982 81 10000 5.7 130 08:23 22.12.2019
6054 Clouds 7 982 87 10000 5.1 130 07:50 22.12.2019
6055 Clouds 7 982 87 10000 4.6 130 07:22 22.12.2019
6056 Clouds 7 982 87 10000 5.1 130 06:56 22.12.2019
6057 Clouds 7 982 87 10000 5.7 130 06:27 22.12.2019
6058 Clouds 6 982 87 10000 5.1 140 05:43 22.12.2019
6059 Clouds 6 982 81 10000 5.1 130 05:21 22.12.2019
6060 Rain 6 982 81 10000 4.1 120 04:27 22.12.2019
6061 Clouds 7 983 87 10000 5.7 140 03:24 22.12.2019
6062 Clouds 6 983 87 10000 4.6 130 02:34 22.12.2019
6063 Rain 7 983 81 10000 5.7 120 01:33 22.12.2019
6064 Rain 7 983 70 10000 5.7 120 00:59 22.12.2019
6065 Clouds 7 984 65 10000 6.2 130 00:41 22.12.2019
6066 Clouds 7 984 70 10000 5.1 130 00:21 22.12.2019
6067 Rain 7 984 75 10000 6.7 130 23:42 21.12.2019
6068 Clouds 7 984 75 10000 5.1 130 23:24 21.12.2019
6069 Clouds 7 984 75 10000 5.1 130 22:59 21.12.2019
6070 Clouds 7 985 70 10000 5.7 130 22:40 21.12.2019
6071 Clouds 7 986 70 10000 4.1 130 22:19 21.12.2019
6072 Clouds 7 986 70 10000 4.1 130 21:57 21.12.2019
6073 Clouds 7 986 70 10000 5.1 120 21:37 21.12.2019
6074 Clouds 7 986 66 10000 5.7 130 21:19 21.12.2019
6075 Clouds 7 987 70 10000 4.6 120 20:58 21.12.2019
6076 Clouds 7 986 66 10000 5.7 130 20:58 21.12.2019
6077 Clouds 7 987 70 10000 4.6 120 20:39 21.12.2019
6078 Clouds 7 988 70 10000 5.1 130 20:21 21.12.2019
6079 Clouds 7 988 70 10000 5.1 130 19:58 21.12.2019
6080 Clouds 7 988 70 10000 4.1 140 19:40 21.12.2019
6081 Clouds 7 989 70 10000 5.1 150 19:19 21.12.2019
6082 Clouds 7 989 70 10000 5.1 150 19:19 21.12.2019
6083 Clouds 7 989 70 10000 4.6 180 18:45 21.12.2019
6084 Clouds 7 990 75 10000 4.6 180 18:24 21.12.2019
6085 Clouds 8 990 75 10000 4.6 180 17:57 21.12.2019
6086 Clouds 8 989 75 10000 4.1 160 17:39 21.12.2019
6087 Clouds 8 989 70 10000 5.7 190 17:21 21.12.2019
6088 Clouds 8 989 70 10000 5.1 190 16:58 21.12.2019
6089 Clouds 8 989 70 10000 5.1 190 16:40 21.12.2019
6090 Clouds 8 990 70 10000 7.2 190 16:19 21.12.2019
6091 Clouds 9 990 66 10000 7.2 190 15:57 21.12.2019
6092 Clouds 9 990 66 10000 7.2 190 15:38 21.12.2019
6093 Clouds 9 990 66 10000 5.7 190 15:19 21.12.2019
6094 Clouds 9 990 66 10000 6.7 200 14:56 21.12.2019
6095 Clouds 9 990 66 10000 6.7 200 14:56 21.12.2019
6096 Clouds 9 990 66 10000 6.7 200 14:37 21.12.2019
6097 Clouds 9 991 71 10000 5.1 180 14:18 21.12.2019
6098 Rain 9 991 71 10000 5.7 180 13:55 21.12.2019
6099 Rain 9 991 71 10000 5.7 180 13:37 21.12.2019
6100 Clouds 9 991 71 10000 5.1 140 13:18 21.12.2019
6101 Clouds 9 992 71 10000 6.2 160 12:54 21.12.2019
6102 Clouds 9 992 71 10000 6.2 160 12:36 21.12.2019
6103 Clouds 9 992 71 10000 5.1 140 12:18 21.12.2019
6104 Clouds 8 992 76 10000 5.7 150 11:42 21.12.2019
6105 Clouds 8 993 81 10000 5.7 130 11:24 21.12.2019
6106 Clouds 8 993 81 10000 5.7 130 10:56 21.12.2019
6107 Clouds 8 993 75 10000 4.1 140 10:38 21.12.2019
6108 Clouds 7 993 81 10000 4.6 140 10:19 21.12.2019
6109 Clouds 6 993 87 10000 4.1 170 09:43 21.12.2019
6110 Clouds 6 993 93 10000 3.1 150 09:21 21.12.2019
6111 Clouds 6 993 93 10000 3.1 150 08:59 21.12.2019
6112 Clouds 6 992 87 10000 4.1 140 08:39 21.12.2019
6113 Clouds 6 992 87 10000 4.1 140 08:21 21.12.2019
6114 Clouds 6 992 87 10000 4.1 130 07:44 21.12.2019
6115 Clouds 6 993 87 10000 3.1 130 07:22 21.12.2019
6116 Clouds 6 993 81 10000 5.1 140 06:45 21.12.2019
6117 Clouds 6 993 87 10000 2.6 120 06:26 21.12.2019
6118 Clouds 6 992 81 10000 5.1 170 05:55 21.12.2019
6119 Clouds 7 993 86 10000 4.6 150 04:58 21.12.2019
6120 Clouds 7 993 86 10000 4.6 150 04:58 21.12.2019
6121 Clouds 7 993 86 10000 4.6 160 03:59 21.12.2019
6122 Clouds 7 993 81 10000 5.7 150 03:18 21.12.2019
6123 Clouds 7 992 86 10000 5.1 160 02:18 21.12.2019
6124 Clouds 7 992 81 10000 4.1 160 01:41 21.12.2019
6125 Clouds 7 992 81 10000 4.6 160 01:22 21.12.2019
6126 Clouds 8 992 75 10000 3.6 170 00:37 21.12.2019
6127 Clouds 8 992 66 10000 3.6 200 00:18 21.12.2019
6128 Clouds 8 992 70 10000 4.1 200 23:38 20.12.2019
6129 Clouds 8 992 70 10000 4.1 200 23:19 20.12.2019
6130 Clouds 9 991 70 10000 5.1 180 22:57 20.12.2019
6131 Clouds 9 991 70 10000 5.1 180 22:36 20.12.2019
6132 Clouds 9 991 76 10000 4.1 190 22:18 20.12.2019
6133 Clouds 9 990 71 10000 3.1 170 21:40 20.12.2019
6134 Clouds 9 990 71 10000 4.1 210 21:20 20.12.2019
6135 Clouds 9 990 71 10000 4.6 210 20:57 20.12.2019
6136 Clouds 9 990 71 10000 4.6 210 20:38 20.12.2019
6137 Clouds 9 990 76 10000 3.6 200 20:18 20.12.2019
6138 Clouds 10 989 87 10000 3.1 220 19:42 20.12.2019
6139 Clouds 10 989 81 10000 5.1 180 19:21 20.12.2019
6140 Clouds 10 988 81 10000 5.1 170 18:58 20.12.2019
6141 Clouds 10 988 81 10000 5.1 170 18:39 20.12.2019
6142 Clouds 10 988 81 10000 4.1 170 18:21 20.12.2019
6143 Clouds 10 987 76 10000 3.6 200 17:56 20.12.2019
6144 Rain 11 987 81 10000 5.7 160 17:38 20.12.2019
6145 Rain 11 987 81 10000 5.7 160 17:20 20.12.2019
6146 Rain 11 987 81 10000 7.2 160 16:56 20.12.2019
6147 Clouds 11 987 76 10000 7.2 160 16:37 20.12.2019
6148 Clouds 11 987 76 10000 7.2 160 16:19 20.12.2019
6149 Clouds 11 987 81 10000 7.2 150 15:54 20.12.2019
6150 Clouds 11 986 87 10000 4.6 140 15:36 20.12.2019
6151 Clouds 11 987 76 10000 8.7 150 15:18 20.12.2019
6152 Clouds 11 985 76 10000 4.6 140 14:42 20.12.2019
6153 Clouds 11 987 76 10000 10.3 150 14:23 20.12.2019
6154 Clouds 11 987 76 10000 8.7 150 13:56 20.12.2019
6155 Clouds 11 988 76 10000 8.2 140 13:37 20.12.2019
6156 Clouds 11 988 76 10000 8.2 140 13:18 20.12.2019
6157 Clouds 11 988 76 10000 8.2 140 13:18 20.12.2019
6158 Clouds 10 988 76 10000 9.8 140 12:55 20.12.2019
6159 Clouds 10 989 71 10000 9.8 130 12:36 20.12.2019
6160 Clouds 10 989 71 10000 9.8 130 12:18 20.12.2019
6161 Rain 10 989 71 10000 8.2 150 11:57 20.12.2019
6162 Rain 10 990 62 10000 7.2 140 11:38 20.12.2019
6163 Rain 10 990 62 10000 7.2 140 11:18 20.12.2019
6164 Rain 10 991 70 10000 7.7 140 10:55 20.12.2019
6165 Rain 10 991 66 10000 8.2 140 10:37 20.12.2019
6166 Rain 10 991 66 10000 8.2 140 10:19 20.12.2019
6167 Rain 10 990 66 10000 6.7 130 09:42 20.12.2019
6168 Rain 10 991 70 10000 6.7 140 09:21 20.12.2019
6169 Clouds 9 991 70 10000 7.7 160 08:55 20.12.2019
6170 Clouds 9 992 70 10000 7.7 140 08:37 20.12.2019
6171 Clouds 9 992 70 10000 7.7 140 08:19 20.12.2019
6172 Clouds 9 992 75 10000 8.2 140 07:57 20.12.2019
6173 Clouds 9 991 75 10000 4.6 120 07:37 20.12.2019
6174 Clouds 9 993 75 10000 7.7 130 07:18 20.12.2019
6175 Clouds 9 992 75 10000 4.1 130 06:44 20.12.2019
6176 Clouds 9 994 70 10000 7.7 130 06:26 20.12.2019
6177 Clouds 10 994 70 10000 5.7 130 05:47 20.12.2019
6178 Clouds 9 996 70 10000 6.7 120 04:59 20.12.2019
6179 Clouds 10 997 70 10000 7.2 130 03:49 20.12.2019
6180 Clouds 10 998 70 10000 6.2 130 03:20 20.12.2019
6181 Clouds 10 999 70 10000 4.6 110 02:20 20.12.2019
6182 Clouds 10 1000 70 10000 4.6 120 01:36 20.12.2019
6183 Clouds 10 1001 76 10000 5.1 110 00:58 20.12.2019
6184 Clouds 10 1002 76 10000 5.1 120 00:36 20.12.2019
6185 Clouds 10 1003 76 10000 6.7 120 23:58 19.12.2019
6186 Clouds 10 1003 71 10000 6.2 130 23:40 19.12.2019
6187 Clouds 10 1003 71 10000 6.2 130 23:21 19.12.2019
6188 Clouds 10 1003 71 10000 6.2 130 23:21 19.12.2019
6189 Clouds 10 1003 76 10000 6.2 130 22:40 19.12.2019
6190 Clouds 10 1004 76 10000 6.7 130 22:22 19.12.2019
6191 Clouds 10 1005 76 10000 7.2 130 21:59 19.12.2019
6192 Clouds 10 1005 76 10000 7.2 130 21:59 19.12.2019
6193 Clouds 10 1005 76 10000 6.7 130 21:41 19.12.2019
6194 Clouds 10 1005 76 10000 6.7 130 21:20 19.12.2019
6195 Clouds 10 1005 76 10000 6.2 130 20:58 19.12.2019
6196 Clouds 10 1006 76 10000 7.2 130 20:38 19.12.2019
6197 Clear 10 1006 76 10000 7.2 130 20:20 19.12.2019
6198 Clear 10 1006 76 10000 7.2 130 20:20 19.12.2019
6199 Clear 10 1006 76 10000 6.7 130 19:59 19.12.2019
6200 Clear 10 1005 81 10000 5.7 140 19:40 19.12.2019
6201 Clear 10 1005 81 10000 5.7 140 19:40 19.12.2019
6202 Clear 10 1006 76 10000 7.7 130 19:20 19.12.2019
6203 Clear 10 1007 71 10000 7.7 140 18:59 19.12.2019
6204 Clear 10 1007 71 10000 7.7 140 18:40 19.12.2019
6205 Clear 11 1007 76 10000 8.2 130 18:20 19.12.2019
6206 Clear 11 1007 76 10000 8.2 140 17:56 19.12.2019
6207 Clear 11 1007 71 10000 6.7 130 17:38 19.12.2019
6208 Clear 11 1007 71 10000 6.7 130 17:18 19.12.2019
6209 Clear 12 1008 66 10000 7.7 140 16:57 19.12.2019
6210 Clear 12 1008 62 10000 6.2 140 16:38 19.12.2019
6211 Clear 12 1008 62 10000 6.2 140 16:20 19.12.2019
6212 Clear 12 1008 62 10000 6.2 140 16:20 19.12.2019
6213 Clear 12 1008 58 10000 5.1 130 15:58 19.12.2019
6214 Clouds 12 1007 71 10000 3.6 140 15:39 19.12.2019
6215 Clear 13 1008 58 10000 6.7 130 15:19 19.12.2019
6216 Clear 13 1008 58 10000 5.1 130 14:57 19.12.2019
6217 Clear 13 1009 58 10000 5.7 120 14:39 19.12.2019
6218 Clear 13 1009 58 10000 5.7 120 14:18 19.12.2019
6219 Clear 13 1009 62 10000 5.1 130 13:54 19.12.2019
6220 Clouds 13 1008 66 10000 4.1 140 13:36 19.12.2019
6221 Clear 13 1010 62 10000 5.1 140 13:18 19.12.2019
6222 Clear 13 1011 62 10000 5.7 120 12:54 19.12.2019
6223 Clear 13 1011 62 10000 5.7 130 12:36 19.12.2019
6224 Clear 13 1011 62 10000 5.7 130 12:18 19.12.2019
6225 Clear 13 1011 62 10000 5.7 130 12:18 19.12.2019
6226 Clear 13 1011 62 10000 5.7 130 12:18 19.12.2019
6227 Clear 13 1011 62 10000 5.7 130 12:18 19.12.2019
6228 Clear 12 1012 66 10000 5.7 130 11:42 19.12.2019
6229 Clear 11 1012 66 10000 5.7 130 11:20 19.12.2019
6230 Clear 11 1012 71 10000 6.2 140 10:59 19.12.2019
6231 Clouds 11 1011 87 10000 1.5 110 10:39 19.12.2019
6232 Clear 10 1012 71 10000 4.6 130 10:20 19.12.2019
6233 Clear 10 1012 76 10000 4.6 120 09:59 19.12.2019
6234 Clear 9 1012 71 10000 6.7 130 09:38 19.12.2019
6235 Clear 9 1012 71 10000 6.7 130 09:20 19.12.2019
6236 Clear 9 1012 71 10000 6.7 130 09:20 19.12.2019
6237 Clear 9 1012 76 10000 6.2 130 08:57 19.12.2019
6238 Clouds 9 1012 87 10000 1.5 130 08:39 19.12.2019
6239 Clouds 9 1012 76 10000 6.2 130 08:19 19.12.2019
6240 Clouds 9 1013 81 10000 5.7 130 07:56 19.12.2019
6241 Clouds 9 1013 81 10000 6.2 130 07:37 19.12.2019
6242 Clouds 9 1013 81 10000 6.2 130 07:19 19.12.2019
6243 Clouds 9 1013 93 10000 2.1 130 06:46 19.12.2019
6244 Clouds 9 1014 87 10000 2.1 130 06:27 19.12.2019
6245 Clouds 9 1014 87 10000 3.6 140 05:52 19.12.2019
6246 Clouds 9 1014 81 10000 4.6 130 05:32 19.12.2019
6247 Clouds 8 1013 87 10000 2.1 140 04:43 19.12.2019
6248 Clouds 8 1014 87 10000 6.2 130 02:49 19.12.2019
6249 Clouds 8 1014 81 10000 5.7 130 01:47 19.12.2019
6250 Clouds 8 1015 81 10000 4.6 130 01:22 19.12.2019
6251 Clouds 8 1015 87 10000 2.6 120 00:40 19.12.2019
6252 Clouds 8 1015 87 10000 5.7 120 00:21 19.12.2019
6253 Clouds 8 1016 81 10000 4.6 120 23:56 18.12.2019
6254 Clouds 8 1016 87 10000 4.1 110 23:38 18.12.2019
6255 Clear 8 1016 81 10000 3.6 110 23:18 18.12.2019
6256 Clear 8 1016 81 10000 3.6 110 22:55 18.12.2019
6257 Clear 8 1016 81 10000 4.1 120 22:36 18.12.2019
6258 Clear 8 1016 81 10000 4.1 120 22:18 18.12.2019
6259 Clear 7 1017 81 10000 4.1 120 21:55 18.12.2019
6260 Clouds 7 1016 87 10000 3.1 120 21:37 18.12.2019
6261 Clear 7 1017 81 10000 4.1 120 21:18 18.12.2019
6262 Clear 7 1017 81 10000 3.1 110 20:54 18.12.2019
6263 Clouds 7 1016 87 10000 4.6 140 20:36 18.12.2019
6264 Clear 7 1016 81 10000 4.1 120 20:18 18.12.2019
6265 Clear 7 1016 81 10000 4.1 130 19:54 18.12.2019
6266 Clouds 7 1016 87 10000 3.1 130 19:36 18.12.2019
6267 Clear 7 1017 87 10000 3.1 120 19:18 18.12.2019
6268 Clear 7 1017 87 10000 3.1 120 19:18 18.12.2019
6269 Clear 7 1017 87 10000 3.1 120 18:43 18.12.2019
6270 Clear 7 1017 81 10000 3.6 120 18:25 18.12.2019
6271 Clear 7 1017 81 10000 3.6 120 18:25 18.12.2019
6272 Clear 7 1017 75 10000 3.1 110 17:57 18.12.2019
6273 Clouds 7 1017 81 10000 2.1 120 17:38 18.12.2019
6274 Clouds 7 1017 81 10000 2.1 120 17:19 18.12.2019
6275 Clear 8 1018 70 10000 1.5 120 16:55 18.12.2019
6276 Clear 8 1018 70 10000 1.5 120 16:37 18.12.2019
6277 Clouds 9 1018 70 10000 2.1 150 16:18 18.12.2019
6278 Clouds 9 1018 70 10000 2.1 150 15:55 18.12.2019
6279 Clouds 9 1017 71 10000 3.1 170 15:37 18.12.2019
6280 Clouds 10 1017 71 10000 3.6 160 15:18 18.12.2019
6281 Clouds 10 1017 66 10000 3.6 170 14:40 18.12.2019
6282 Clouds 10 1017 66 10000 2.6 170 14:21 18.12.2019
6283 Clouds 10 1017 66 10000 2.6 140 13:57 18.12.2019
6284 Clouds 10 1017 66 10000 2.6 140 13:57 18.12.2019
6285 Clouds 10 1017 66 10000 2.6 140 13:38 18.12.2019
6286 Clouds 10 1017 76 10000 2.6 150 13:19 18.12.2019
6287 Clouds 10 1017 71 10000 2.1 140 12:57 18.12.2019
6288 Clouds 9 1017 71 10000 2.1 140 12:38 18.12.2019
6289 Clouds 9 1017 76 10000 1.5 160 12:19 18.12.2019
6290 Clouds 9 1017 76 10000 2.6 160 11:56 18.12.2019
6291 Clouds 9 1017 76 10000 2.6 160 11:38 18.12.2019
6292 Clouds 8 1017 76 10000 2.1 130 11:19 18.12.2019
6293 Clouds 7 1017 87 10000 1 0 10:55 18.12.2019
6294 Clouds 7 1017 87 10000 1 0 10:37 18.12.2019
6295 Clouds 7 1016 87 10000 2.1 170 10:19 18.12.2019
6296 Clouds 7 1016 87 10000 2.6 160 09:50 18.12.2019
6297 Clouds 7 1016 87 10000 2.6 160 09:50 18.12.2019
6298 Clouds 7 1016 87 10000 2.6 160 09:18 18.12.2019
6299 Clouds 7 1015 87 10000 2.6 150 08:41 18.12.2019
6300 Clouds 7 1015 87 10000 2.1 170 08:23 18.12.2019
6301 Clouds 7 1014 87 10000 2.1 170 07:55 18.12.2019
6302 Clouds 7 1014 87 10000 2.1 170 07:37 18.12.2019
6303 Clouds 7 1014 81 10000 2.1 170 07:19 18.12.2019
6304 Clouds 7 1014 87 10000 2.1 150 06:50 18.12.2019
6305 Clouds 7 1013 87 10000 2.1 180 06:22 18.12.2019
6306 Clouds 8 1013 81 10000 2.6 290 05:27 18.12.2019
6307 Clouds 8 1012 87 10000 4.6 250 03:45 18.12.2019
6308 Clouds 9 1010 87 10000 5.1 270 02:43 18.12.2019
6309 Rain 9 1010 87 10000 4.1 260 02:25 18.12.2019
6310 Rain 9 1009 87 10000 5.1 280 01:43 18.12.2019
6311 Rain 9 1009 87 10000 7.2 270 01:24 18.12.2019
6312 Rain 10 1008 87 10000 5.1 270 00:42 18.12.2019
6313 Rain 10 1007 87 10000 3.1 200 00:24 18.12.2019
6314 Rain 10 1007 93 10000 2.6 200 23:58 17.12.2019
6315 Rain 10 1007 93 10000 2.6 200 23:39 17.12.2019
6316 Rain 11 1006 93 10000 3.1 200 23:21 17.12.2019
6317 Rain 11 1006 87 10000 3.6 200 22:57 17.12.2019
6318 Rain 11 1006 87 10000 3.6 200 22:39 17.12.2019
6319 Rain 11 1005 82 10000 5.7 210 22:19 17.12.2019
6320 Rain 12 1004 87 9000 4.1 230 21:57 17.12.2019
6321 Rain 12 1004 71 10000 5.1 200 21:38 17.12.2019
6322 Rain 12 1004 71 10000 5.1 200 21:38 17.12.2019
6323 Rain 12 1002 76 10000 5.1 190 21:20 17.12.2019
6324 Rain 13 1003 67 10000 6.2 180 20:59 17.12.2019
6325 Rain 13 1003 62 10000 5.7 190 20:39 17.12.2019
6326 Clouds 13 1004 62 10000 5.1 170 20:19 17.12.2019
6327 Clouds 13 1004 58 10000 6.2 170 19:57 17.12.2019
6328 Clouds 13 1004 58 10000 6.2 170 19:39 17.12.2019
6329 Clouds 14 1004 58 10000 5.1 170 19:19 17.12.2019
6330 Clouds 14 1004 58 10000 5.1 170 18:57 17.12.2019
6331 Clouds 14 1004 58 10000 5.1 170 18:57 17.12.2019
6332 Clouds 14 1004 58 10000 5.1 170 18:57 17.12.2019
6333 Clouds 13 1004 66 10000 4.1 160 18:38 17.12.2019
6334 Clouds 14 1004 58 10000 5.1 170 18:20 17.12.2019
6335 Clouds 14 1004 58 10000 4.6 170 17:55 17.12.2019
6336 Clouds 14 1004 58 10000 4.6 170 17:37 17.12.2019
6337 Clouds 14 1003 54 10000 2.1 180 17:18 17.12.2019
6338 Clouds 14 1003 58 10000 4.1 170 16:55 17.12.2019
6339 Clouds 15 1003 58 10000 4.1 170 16:36 17.12.2019
6340 Clouds 15 1003 62 10000 3.6 180 16:18 17.12.2019
6341 Clouds 15 1003 62 10000 3.6 180 16:18 17.12.2019
6342 Clouds 15 1003 55 10000 3.6 190 15:38 17.12.2019
6343 Clouds 15 1003 67 10000 3.1 160 15:20 17.12.2019
6344 Clouds 15 1003 58 10000 3.6 150 14:56 17.12.2019
6345 Clouds 15 1003 58 10000 3.6 150 14:38 17.12.2019
6346 Clouds 15 1003 58 10000 4.6 160 14:19 17.12.2019
6347 Clouds 15 1003 58 10000 4.6 160 14:19 17.12.2019
6348 Clouds 15 1003 58 10000 4.1 160 13:58 17.12.2019
6349 Clouds 15 1003 58 10000 4.1 160 13:40 17.12.2019
6350 Clouds 15 1003 54 10000 5.1 180 13:19 17.12.2019
6351 Clouds 15 1003 54 10000 5.1 180 12:59 17.12.2019
6352 Clouds 14 1003 58 10000 5.7 180 12:38 17.12.2019
6353 Clouds 14 1003 54 10000 6.2 170 12:18 17.12.2019
6354 Clouds 14 1003 54 10000 6.2 170 12:18 17.12.2019
6355 Clouds 13 1004 54 10000 5.7 190 11:57 17.12.2019
6356 Clouds 13 1004 54 10000 5.7 190 11:37 17.12.2019
6357 Clouds 13 1003 58 10000 6.7 190 11:18 17.12.2019
6358 Clouds 13 1003 62 10000 5.7 170 10:57 17.12.2019
6359 Clouds 12 1003 62 10000 5.7 170 10:39 17.12.2019
6360 Clouds 12 1003 62 10000 5.7 170 10:39 17.12.2019
6361 Clouds 12 1003 62 10000 6.2 170 10:19 17.12.2019
6362 Clouds 11 1003 62 10000 6.7 170 09:56 17.12.2019
6363 Clouds 11 1003 62 10000 6.7 170 09:38 17.12.2019
6364 Clouds 11 1002 66 10000 6.7 170 09:19 17.12.2019
6365 Clouds 11 1002 66 10000 6.2 170 08:55 17.12.2019
6366 Clouds 11 1002 66 10000 6.2 170 08:36 17.12.2019
6367 Clouds 11 1002 66 10000 5.7 170 08:18 17.12.2019
6368 Clouds 11 1002 66 10000 4.6 150 07:42 17.12.2019
6369 Clouds 11 1002 66 10000 3.6 140 07:23 17.12.2019
6370 Clouds 11 1002 66 10000 2.6 130 06:55 17.12.2019
6371 Clouds 11 1002 66 10000 2.1 100 06:32 17.12.2019
6372 Clouds 11 1002 66 10000 3.1 100 05:52 17.12.2019
6373 Clouds 11 1002 66 10000 3.1 100 05:34 17.12.2019
6374 Clouds 10 1001 71 10000 3.1 90 04:25 17.12.2019
6375 Clouds 10 1002 76 10000 2.6 160 02:33 17.12.2019
6376 Clouds 10 1002 76 10000 2.6 160 02:33 17.12.2019
6377 Clouds 10 1001 66 10000 4.1 120 01:50 17.12.2019
6378 Clouds 9 1001 81 10000 4.1 110 00:58 17.12.2019
6379 Clouds 9 1001 81 10000 4.1 110 00:37 17.12.2019
6380 Clouds 9 1002 81 10000 4.1 130 00:18 17.12.2019
6381 Clouds 9 1002 81 10000 4.6 120 23:41 16.12.2019
6382 Clouds 8 1002 81 10000 4.6 130 23:19 16.12.2019
6383 Clouds 8 1002 81 10000 5.1 130 22:56 16.12.2019
6384 Clouds 8 1002 81 10000 5.1 130 22:37 16.12.2019
6385 Clouds 8 1003 87 10000 5.7 130 22:19 16.12.2019
6386 Clouds 8 1003 87 10000 4.6 130 21:55 16.12.2019
6387 Clouds 8 1003 87 10000 4.6 130 21:37 16.12.2019
6388 Clouds 8 1003 87 10000 3.1 110 21:19 16.12.2019
6389 Clouds 8 1004 87 10000 2.1 80 20:57 16.12.2019
6390 Clouds 8 1004 87 10000 2.1 80 20:37 16.12.2019
6391 Clouds 8 1004 93 10000 2.1 100 20:19 16.12.2019
6392 Clouds 8 1004 87 10000 3.1 130 19:56 16.12.2019
6393 Clouds 8 1004 87 10000 3.1 130 19:56 16.12.2019
6394 Clouds 8 1004 87 10000 3.1 130 19:37 16.12.2019
6395 Clouds 8 1004 87 10000 3.1 130 19:37 16.12.2019
6396 Clouds 8 1004 87 10000 3.6 120 19:18 16.12.2019
6397 Clouds 8 1004 87 10000 4.1 130 18:56 16.12.2019
6398 Clouds 8 1004 93 10000 1.5 80 18:37 16.12.2019
6399 Clouds 8 1004 93 10000 1.5 90 18:19 16.12.2019
6400 Clouds 9 1005 87 10000 3.1 110 17:57 16.12.2019
6401 Clouds 8 1004 93 10000 2.1 130 17:38 16.12.2019
6402 Clouds 8 1004 93 10000 2.1 100 17:20 16.12.2019
6403 Clouds 9 1005 100 10000 3.1 140 16:56 16.12.2019
6404 Clouds 9 1005 100 10000 3.1 140 16:38 16.12.2019
6405 Clouds 9 1005 93 10000 2.1 120 16:19 16.12.2019
6406 Clouds 9 1005 100 10000 1.5 100 15:57 16.12.2019
6407 Clouds 9 1005 93 10000 1.5 110 15:38 16.12.2019
6408 Clouds 9 1005 93 10000 1.5 70 15:20 16.12.2019
6409 Clouds 9 1005 93 10000 2.1 60 14:55 16.12.2019
6410 Clouds 9 1005 93 10000 2.1 60 14:37 16.12.2019
6411 Clouds 9 1006 93 10000 1.5 60 14:19 16.12.2019
6412 Rain 9 1006 93 10000 1.5 80 13:56 16.12.2019
6413 Rain 9 1006 93 10000 1.5 80 13:37 16.12.2019
6414 Rain 9 1006 100 10000 2.1 100 13:19 16.12.2019
6415 Rain 9 1007 100 10000 2.1 110 12:57 16.12.2019
6416 Rain 8 1007 100 10000 2.1 110 12:39 16.12.2019
6417 Rain 8 1007 100 10000 2.1 90 12:18 16.12.2019
6418 Rain 8 1007 100 10000 1.5 80 11:57 16.12.2019
6419 Rain 8 1007 100 10000 1.5 80 11:39 16.12.2019
6420 Rain 8 1007 93 10000 1.5 130 11:19 16.12.2019
6421 Rain 8 1007 93 10000 1.5 130 11:19 16.12.2019
6422 Rain 8 1007 93 10000 2.1 100 10:56 16.12.2019
6423 Rain 8 1007 93 10000 2.1 100 10:37 16.12.2019
6424 Rain 8 1007 87 10000 1.5 140 10:19 16.12.2019
6425 Rain 8 1007 87 10000 4.6 160 09:45 16.12.2019
6426 Rain 7 1007 93 10000 3.6 170 09:26 16.12.2019
6427 Clouds 7 1007 87 10000 3.6 180 08:41 16.12.2019
6428 Clouds 7 1007 87 10000 0.5 0 08:21 16.12.2019
6429 Clouds 7 1007 87 10000 0.5 0 08:21 16.12.2019
6430 Clouds 7 1007 87 10000 0.5 0 07:59 16.12.2019
6431 Clouds 7 1006 87 10000 1.5 140 07:41 16.12.2019
6432 Clouds 7 1006 87 10000 3.6 140 07:20 16.12.2019
6433 Clouds 7 1006 87 10000 4.1 140 06:41 16.12.2019
6434 Clouds 7 1007 87 10000 3.6 160 06:22 16.12.2019
6435 Rain 7 1007 87 10000 4.1 170 05:49 16.12.2019
6436 Clouds 7 1007 93 10000 3.6 150 05:30 16.12.2019
6437 Clouds 7 1007 87 10000 4.1 140 04:21 16.12.2019
6438 Clouds 6 1007 81 10000 2.6 110 02:19 16.12.2019
6439 Clouds 5 1008 81 10000 3.1 120 01:44 16.12.2019
6440 Clouds 5 1008 80 10000 2.1 100 00:43 16.12.2019
6441 Clouds 5 1008 80 10000 2.6 130 00:25 16.12.2019
6442 Clouds 5 1008 80 10000 2.1 130 23:58 15.12.2019
6443 Clouds 5 1008 80 10000 2.1 130 23:39 15.12.2019
6444 Clouds 5 1008 80 10000 2.6 120 23:20 15.12.2019
6445 Clouds 5 1009 80 10000 2.6 150 22:56 15.12.2019
6446 Clouds 5 1009 80 10000 2.6 150 22:56 15.12.2019
6447 Clouds 5 1009 80 10000 2.6 150 22:56 15.12.2019
6448 Clouds 5 1009 80 10000 2.6 150 22:37 15.12.2019
6449 Clouds 5 1009 80 10000 2.6 150 22:37 15.12.2019
6450 Clouds 5 1009 80 10000 2.1 170 22:18 15.12.2019
6451 Clouds 5 1009 80 10000 2.1 170 22:18 15.12.2019
6452 Clouds 5 1008 80 10000 4.1 180 21:56 15.12.2019
6453 Clouds 5 1008 80 10000 4.1 180 21:38 15.12.2019
6454 Clouds 5 1008 75 10000 4.6 190 21:19 15.12.2019
6455 Clouds 6 1008 75 10000 4.6 190 20:56 15.12.2019
6456 Clouds 6 1008 75 10000 4.1 180 20:37 15.12.2019
6457 Clouds 6 1007 75 10000 4.1 180 20:19 15.12.2019
6458 Clouds 6 1007 75 10000 4.1 180 19:57 15.12.2019
6459 Clouds 6 1007 75 10000 4.6 200 19:39 15.12.2019
6460 Clouds 6 1007 65 10000 4.1 200 19:18 15.12.2019
6461 Clouds 7 1007 70 10000 4.1 190 18:56 15.12.2019
6462 Clouds 7 1007 70 10000 4.1 190 18:56 15.12.2019
6463 Clouds 7 1007 70 10000 4.1 190 18:38 15.12.2019
6464 Clouds 7 1007 70 10000 4.1 190 18:38 15.12.2019
6465 Clouds 7 1006 70 10000 4.1 190 18:18 15.12.2019
6466 Clouds 7 1006 70 10000 3.6 180 17:56 15.12.2019
6467 Clouds 7 1006 70 10000 3.6 180 17:37 15.12.2019
6468 Clouds 7 1006 65 10000 3.1 190 17:19 15.12.2019
6469 Clouds 8 1005 65 10000 4.1 210 16:56 15.12.2019
6470 Clouds 8 1005 65 10000 4.1 210 16:38 15.12.2019
6471 Clouds 8 1005 61 10000 3.6 210 16:20 15.12.2019
6472 Clouds 8 1004 57 10000 6.2 220 15:55 15.12.2019
6473 Clouds 8 1004 57 10000 6.2 220 15:37 15.12.2019
6474 Clouds 9 1004 61 10000 6.7 230 15:18 15.12.2019
6475 Clouds 9 1003 61 10000 4.1 220 14:55 15.12.2019
6476 Clouds 9 1003 61 10000 4.1 220 14:55 15.12.2019
6477 Clouds 9 1003 61 10000 4.1 220 14:36 15.12.2019
6478 Clouds 9 1003 57 10000 7.2 230 14:18 15.12.2019
6479 Clouds 9 1003 61 10000 5.7 230 13:55 15.12.2019
6480 Clouds 9 1003 61 10000 5.7 230 13:37 15.12.2019
6481 Clouds 9 1003 61 10000 4.6 240 13:19 15.12.2019
6482 Clouds 9 1003 61 10000 4.6 240 13:19 15.12.2019
6483 Clouds 9 1003 61 10000 4.6 240 12:56 15.12.2019
6484 Clouds 9 1002 61 10000 6.2 250 12:38 15.12.2019
6485 Clouds 9 1002 66 10000 8.2 250 12:20 15.12.2019
6486 Clouds 9 1002 66 10000 8.2 260 11:39 15.12.2019
6487 Clouds 8 1001 70 10000 7.7 260 11:20 15.12.2019
6488 Clouds 8 1000 66 10000 8.7 250 10:59 15.12.2019
6489 Clouds 8 1000 66 10000 8.7 250 10:41 15.12.2019
6490 Clouds 8 999 70 10000 8.7 240 10:20 15.12.2019
6491 Clouds 8 999 76 10000 7.2 240 09:59 15.12.2019
6492 Clouds 8 999 76 10000 7.2 240 09:39 15.12.2019
6493 Clouds 7 998 87 10000 7.7 240 09:20 15.12.2019
6494 Clouds 7 998 87 10000 7.7 240 09:20 15.12.2019
6495 Clouds 8 997 81 10000 7.7 280 08:57 15.12.2019
6496 Rain 8 997 81 10000 7.7 280 08:39 15.12.2019
6497 Rain 8 996 87 10000 7.2 240 08:20 15.12.2019
6498 Rain 9 995 71 10000 6.7 220 07:55 15.12.2019
6499 Rain 9 995 71 10000 6.7 220 07:34 15.12.2019
6500 Rain 10 994 81 10000 5.7 200 06:44 15.12.2019
6501 Rain 10 994 81 10000 5.1 180 06:19 15.12.2019
6502 Rain 8 994 81 10000 5.1 150 05:26 15.12.2019
6503 Clouds 8 995 81 10000 5.1 140 04:47 15.12.2019
6504 Clouds 7 996 81 10000 5.7 160 03:29 15.12.2019
6505 Rain 7 997 75 10000 6.2 130 02:34 15.12.2019
6506 Clouds 6 998 81 10000 4.6 140 01:47 15.12.2019
6507 Clouds 6 999 81 10000 4.6 160 01:28 15.12.2019
6508 Clouds 6 1000 81 10000 4.6 170 00:57 15.12.2019
6509 Clouds 6 1000 81 10000 4.6 170 00:38 15.12.2019
6510 Clouds 6 1000 75 10000 5.1 170 00:20 15.12.2019
6511 Clouds 6 1000 75 10000 4.1 180 23:40 14.12.2019
6512 Clouds 6 1001 75 10000 4.6 200 23:21 14.12.2019
6513 Clouds 6 1001 75 10000 4.1 190 22:58 14.12.2019
6514 Clouds 6 1001 75 10000 4.1 190 22:40 14.12.2019
6515 Clouds 6 1001 75 10000 4.6 210 22:21 14.12.2019
6516 Clouds 6 1001 75 10000 5.7 220 21:56 14.12.2019
6517 Clouds 6 1001 75 10000 5.7 220 21:56 14.12.2019
6518 Clouds 6 1001 75 10000 5.7 220 21:37 14.12.2019
6519 Clouds 6 1000 75 10000 4.1 210 21:19 14.12.2019
6520 Clouds 6 1000 75 10000 4.6 240 20:56 14.12.2019
6521 Clouds 6 1000 75 10000 4.6 240 20:38 14.12.2019
6522 Clouds 6 1000 70 10000 6.2 240 20:19 14.12.2019
6523 Clouds 6 999 75 10000 7.2 250 19:55 14.12.2019
6524 Clouds 6 999 75 10000 7.2 250 19:36 14.12.2019
6525 Clouds 6 999 75 10000 9.3 250 19:18 14.12.2019
6526 Rain 6 998 75 10000 9.8 250 18:55 14.12.2019
6527 Rain 6 998 75 10000 9.8 250 18:36 14.12.2019
6528 Clouds 7 997 75 10000 10.3 250 18:18 14.12.2019
6529 Rain 7 996 81 10000 14.4 240 17:42 14.12.2019
6530 Rain 6 994 75 8000 15.4 250 17:22 14.12.2019
6531 Rain 7 994 70 6000 11.3 240 16:56 14.12.2019
6532 Rain 7 995 81 10000 6.2 210 16:38 14.12.2019
6533 Rain 6 995 87 10000 5.7 220 16:18 14.12.2019
6534 Rain 6 995 75 10000 9.8 230 15:42 14.12.2019
6535 Rain 7 995 65 10000 6.7 230 15:21 14.12.2019
6536 Clouds 7 995 65 10000 6.2 220 14:58 14.12.2019
6537 Clouds 7 995 65 10000 6.2 220 14:38 14.12.2019
6538 Clouds 7 995 65 10000 7.2 250 14:19 14.12.2019
6539 Clouds 7 995 65 10000 9.8 250 13:55 14.12.2019
6540 Clouds 7 995 65 10000 9.8 250 13:37 14.12.2019
6541 Clouds 7 994 70 10000 9.3 250 13:18 14.12.2019
6542 Clouds 6 994 75 10000 9.8 260 12:54 14.12.2019
6543 Clouds 6 994 75 10000 9.8 260 12:36 14.12.2019
6544 Rain 6 993 81 10000 8.7 260 12:18 14.12.2019
6545 Rain 6 992 81 10000 12.9 250 11:54 14.12.2019
6546 Rain 5 992 81 10000 12.9 250 11:36 14.12.2019
6547 Rain 5 991 87 10000 7.2 250 11:18 14.12.2019
6548 Rain 6 991 81 10000 8.7 260 10:54 14.12.2019
6549 Rain 6 991 81 10000 8.7 260 10:36 14.12.2019
6550 Clouds 6 990 81 10000 9.8 260 10:18 14.12.2019
6551 Clouds 6 989 81 10000 7.2 270 09:40 14.12.2019
6552 Clouds 5 989 86 10000 8.7 280 09:20 14.12.2019
6553 Clouds 5 987 86 10000 8.7 280 08:44 14.12.2019
6554 Clouds 5 985 87 10000 10.8 280 08:20 14.12.2019
6555 Clouds 5 985 87 10000 10.8 280 07:57 14.12.2019
6556 Rain 5 983 93 10000 8.7 260 07:38 14.12.2019
6557 Rain 5 981 93 10000 4.1 210 07:19 14.12.2019
6558 Rain 5 981 93 10000 4.1 210 07:19 14.12.2019
6559 Rain 5 981 86 10000 5.1 170 06:41 14.12.2019
6560 Rain 5 981 86 10000 5.7 170 06:22 14.12.2019
6561 Rain 5 982 93 10000 5.1 130 05:22 14.12.2019
6562 Clouds 5 986 80 10000 4.6 180 02:49 14.12.2019
6563 Clouds 5 986 80 10000 5.7 180 02:22 14.12.2019
6564 Clouds 5 986 80 10000 5.1 180 01:43 14.12.2019
6565 Clouds 5 986 80 10000 4.6 180 00:55 14.12.2019
6566 Clouds 5 986 80 10000 4.6 180 00:37 14.12.2019
6567 Clouds 5 986 80 10000 3.6 180 00:18 14.12.2019
6568 Clouds 5 987 86 10000 4.1 200 23:41 13.12.2019
6569 Clouds 5 987 86 10000 2.6 190 23:19 13.12.2019
6570 Clouds 5 987 86 10000 2.6 190 23:19 13.12.2019
6571 Clouds 5 987 86 10000 4.1 230 22:55 13.12.2019
6572 Clouds 5 987 86 10000 4.1 230 22:37 13.12.2019
6573 Clouds 5 987 87 10000 3.6 230 22:18 13.12.2019
6574 Rain 6 987 87 10000 5.7 260 21:42 13.12.2019
6575 Clouds 6 986 87 10000 8.7 270 21:21 13.12.2019
6576 Rain 6 986 87 10000 7.7 270 20:58 13.12.2019
6577 Rain 6 986 87 10000 7.7 270 20:39 13.12.2019
6578 Drizzle 6 984 93 10000 5.1 280 20:20 13.12.2019
6579 Drizzle 6 984 93 10000 5.1 280 19:56 13.12.2019
6580 Rain 6 985 87 10000 7.7 280 19:38 13.12.2019
6581 Drizzle 5 984 93 10000 3.6 270 19:19 13.12.2019
6582 Rain 5 983 93 8000 3.1 290 18:54 13.12.2019
6583 Rain 5 983 86 10000 8.2 300 18:36 13.12.2019
6584 Rain 5 982 93 10000 7.7 290 18:18 13.12.2019
6585 Rain 5 983 86 10000 8.2 300 18:18 13.12.2019
6586 Rain 5 982 93 6000 6.2 280 17:40 13.12.2019
6587 Drizzle 5 980 93 10000 7.7 260 17:19 13.12.2019
6588 Drizzle 5 980 93 10000 4.6 240 16:57 13.12.2019
6589 Drizzle 5 980 93 10000 4.6 240 16:57 13.12.2019
6590 Drizzle 5 979 93 10000 3.6 260 16:38 13.12.2019
6591 Drizzle 5 979 93 10000 3.6 260 16:20 13.12.2019
6592 Rain 5 978 93 7000 6.7 250 15:43 13.12.2019
6593 Drizzle 5 977 93 10000 1.5 140 15:22 13.12.2019
6594 Rain 5 977 100 10000 2.6 130 14:57 13.12.2019
6595 Clouds 5 976 81 10000 7.7 250 14:39 13.12.2019
6596 Rain 5 976 93 10000 3.6 140 14:20 13.12.2019
6597 Rain 5 975 87 10000 6.7 250 13:45 13.12.2019
6598 Clouds 5 975 93 10000 3.6 130 13:27 13.12.2019
6599 Rain 5 975 93 10000 4.6 130 12:59 13.12.2019
6600 Rain 4 975 81 10000 4.1 230 12:41 13.12.2019
6601 Rain 4 975 93 10000 4.6 130 12:19 13.12.2019
6602 Rain 4 975 93 10000 4.6 130 11:57 13.12.2019
6603 Rain 4 974 93 10000 2.1 140 11:39 13.12.2019
6604 Rain 4 975 93 10000 4.6 130 11:19 13.12.2019
6605 Rain 3 975 86 10000 5.1 120 10:41 13.12.2019
6606 Rain 3 975 86 10000 5.7 120 10:21 13.12.2019
6607 Rain 3 975 86 10000 5.7 120 09:54 13.12.2019
6608 Rain 3 975 86 10000 4.6 120 09:36 13.12.2019
6609 Rain 3 975 86 10000 4.6 120 09:18 13.12.2019
6610 Rain 3 975 93 10000 6.2 120 08:40 13.12.2019
6611 Rain 3 975 93 10000 6.2 120 08:22 13.12.2019
6612 Rain 3 974 86 10000 5.1 120 07:44 13.12.2019
6613 Clouds 3 976 85 10000 6.7 130 07:20 13.12.2019
6614 Clouds 3 976 85 10000 6.7 130 06:51 13.12.2019
6615 Clouds 3 977 85 10000 8.2 130 06:28 13.12.2019
6616 Clouds 3 976 85 10000 5.1 140 05:45 13.12.2019
6617 Rain 3 978 85 10000 7.7 140 05:24 13.12.2019
6618 Clouds 3 980 74 10000 8.7 130 04:35 13.12.2019
6619 Rain 3 982 74 10000 7.2 130 03:39 13.12.2019
6620 Clouds 3 983 74 10000 7.2 130 02:33 13.12.2019
6621 Clouds 3 984 74 10000 7.2 140 01:44 13.12.2019
6622 Clouds 3 986 74 10000 6.7 130 00:56 13.12.2019
6623 Clouds 3 987 74 10000 6.7 130 00:37 13.12.2019
6624 Clouds 3 988 74 10000 7.2 130 23:57 12.12.2019
6625 Clouds 3 986 66 10000 5.1 140 23:39 12.12.2019
6626 Clouds 4 989 71 10000 8.2 140 23:20 12.12.2019
6627 Clouds 4 989 74 10000 7.7 140 22:55 12.12.2019
6628 Clouds 3 988 71 10000 3.6 130 22:37 12.12.2019
6629 Clouds 4 990 74 10000 8.2 140 22:18 12.12.2019
6630 Clouds 4 991 69 10000 8.7 140 21:55 12.12.2019
6631 Clouds 4 990 69 10000 5.1 140 21:36 12.12.2019
6632 Clouds 4 992 71 10000 6.7 150 21:18 12.12.2019
6633 Clouds 4 993 71 10000 6.2 150 20:55 12.12.2019
6634 Clouds 4 994 71 10000 5.7 140 20:37 12.12.2019
6635 Clouds 4 994 73 10000 5.7 140 20:19 12.12.2019
6636 Clear 4 993 73 10000 6.2 150 19:42 12.12.2019
6637 -273 0 0 0 0 0 19:23 12.12.2019
6638 Clouds 4 996 74 10000 5.1 150 18:58 12.12.2019
6639 Clouds 4 996 74 10000 6.2 150 18:40 12.12.2019
6640 Clouds 4 996 74 10000 6.2 150 18:21 12.12.2019
6641 Clouds 4 997 74 10000 5.1 140 17:58 12.12.2019
6642 Clear 4 996 69 10000 4.1 150 17:40 12.12.2019
6643 Clouds 4 997 74 10000 4.6 160 17:21 12.12.2019
6644 Clouds 4 998 65 10000 5.7 180 16:58 12.12.2019
6645 Clouds 5 998 68 10000 4.1 180 16:40 12.12.2019
6646 Clouds 5 998 68 10000 4.1 180 16:21 12.12.2019
6647 Clouds 5 999 65 10000 4.6 180 15:58 12.12.2019
6648 Clouds 5 999 68 10000 4.1 200 15:40 12.12.2019
6649 Clouds 5 999 68 10000 4.1 200 15:19 12.12.2019
6650 Clouds 6 1000 60 10000 6.7 190 14:56 12.12.2019
6651 Clouds 6 1000 60 10000 6.7 190 14:56 12.12.2019
6652 Clouds 6 1000 68 10000 5.7 180 14:36 12.12.2019
6653 Clouds 6 1000 64 10000 5.7 180 14:18 12.12.2019
6654 Clouds 6 1001 70 10000 5.7 190 13:54 12.12.2019
6655 Clouds 6 1000 60 10000 4.1 200 13:36 12.12.2019
6656 Clouds 6 1001 62 10000 3.6 210 13:18 12.12.2019
6657 Clouds 6 1002 75 10000 2.6 210 12:41 12.12.2019
6658 Clouds 5 1002 75 10000 2.6 210 12:22 12.12.2019
6659 Clouds 5 1003 80 10000 2.6 200 11:59 12.12.2019
6660 Clouds 5 1002 70 10000 4.1 230 11:40 12.12.2019
6661 Clouds 5 1003 80 10000 3.1 220 11:21 12.12.2019
6662 Clouds 5 1003 86 10000 2.6 230 10:59 12.12.2019
6663 Drizzle 4 1003 86 10000 2.6 230 10:40 12.12.2019
6664 Drizzle 4 1003 86 10000 2.6 230 10:22 12.12.2019
6665 Drizzle 4 1003 93 10000 3.6 210 09:56 12.12.2019
6666 Clouds 4 1003 93 10000 2.6 180 09:38 12.12.2019
6667 Clouds 4 1003 93 10000 2.6 180 09:20 12.12.2019
6668 Clouds 4 1003 86 10000 4.6 240 08:47 12.12.2019
6669 Rain 4 1003 93 10000 2.6 180 08:29 12.12.2019
6670 Rain 4 1003 93 10000 2.6 180 07:56 12.12.2019
6671 Rain 4 1003 93 10000 3.6 160 07:37 12.12.2019
6672 Rain 4 1003 93 10000 3.6 160 07:19 12.12.2019
6673 Rain 4 1003 93 10000 2.1 160 06:41 12.12.2019
6674 Rain 4 1003 93 10000 2.1 160 06:22 12.12.2019
6675 Rain 4 1003 93 10000 2.6 140 05:32 12.12.2019
6676 Clouds 4 1003 93 10000 4.1 150 04:47 12.12.2019
6677 Clouds 4 1004 93 10000 2.6 130 02:43 12.12.2019
6678 Clouds 3 1004 93 10000 2.6 130 02:24 12.12.2019
6679 Clouds 3 1004 93 10000 1.5 120 01:59 12.12.2019
6680 Clouds 3 1004 93 10000 3.1 140 01:36 12.12.2019
6681 Clouds 3 1005 93 10000 3.6 140 00:50 12.12.2019
6682 Clouds 3 1005 93 10000 3.1 140 00:22 12.12.2019
6683 Clouds 3 1005 86 10000 3.6 140 23:58 11.12.2019
6684 Clouds 3 1004 86 10000 3.1 210 23:39 11.12.2019
6685 Clouds 3 1005 86 10000 3.1 130 23:19 11.12.2019
6686 Clouds 4 1005 93 10000 3.1 140 22:57 11.12.2019
6687 Clouds 4 1005 93 10000 4.1 140 22:38 11.12.2019
6688 Clouds 4 1005 93 10000 4.1 140 22:19 11.12.2019
6689 Clouds 4 1005 100 10000 3.1 140 21:55 11.12.2019
6690 Clouds 4 1005 93 10000 2.1 170 21:37 11.12.2019
6691 Clouds 4 1006 93 10000 2.6 130 21:19 11.12.2019
6692 Clouds 4 1006 93 10000 2.6 130 20:55 11.12.2019
6693 Clouds 4 1006 93 10000 3.1 130 20:37 11.12.2019
6694 Clouds 4 1006 100 10000 3.1 140 20:18 11.12.2019
6695 Clouds 4 1006 100 10000 3.1 140 19:57 11.12.2019
6696 -273 0 0 0 0 0 19:38 11.12.2019
6697 Clouds 4 1006 100 10000 3.1 140 19:18 11.12.2019
6698 Clouds 4 1005 93 10000 1.5 150 18:40 11.12.2019
6699 Clouds 4 1006 100 10000 2.6 130 18:21 11.12.2019
6700 Clouds 4 1006 100 10000 2.6 130 17:57 11.12.2019
6701 Clouds 4 1006 100 10000 2.6 130 17:57 11.12.2019
6702 Clouds 4 1006 100 10000 2.6 140 17:38 11.12.2019
6703 Clouds 4 1006 100 10000 2.6 140 17:18 11.12.2019
6704 Rain 4 1006 100 10000 3.1 140 16:57 11.12.2019
6705 Clouds 4 1006 86 10000 1 0 16:38 11.12.2019
6706 Clouds 4 1006 86 10000 1 0 16:38 11.12.2019
6707 Rain